<?xml version='1.0' encoding='UTF-8'?><gpx version="1.1" creator="JPX - https://github.com/jenetics/jpx" xmlns="http://www.topografix.com/GPX/1/1"><trk><trkseg><trkpt lat="45.71853284157062" lon="9.770983930361243"><ele>333.0</ele><time>2026-05-03T08:37:18Z</time></trkpt><trkpt lat="45.71846000120487" lon="9.770948291077605"><ele>333.0</ele><time>2026-05-03T08:37:20Z</time></trkpt><trkpt lat="45.718373823260485" lon="9.77089932887084"><ele>333.0</ele><time>2026-05-03T08:37:22Z</time></trkpt><trkpt lat="45.71827618259361" lon="9.770823322086208"><ele>333.0</ele><time>2026-05-03T08:37:24Z</time></trkpt><trkpt lat="45.71817736231629" lon="9.770720755872912"><ele>333.0</ele><time>2026-05-03T08:37:26Z</time></trkpt><trkpt lat="45.718079815653866" lon="9.770682335238236"><ele>333.0</ele><time>2026-05-03T08:37:28Z</time></trkpt><trkpt lat="45.717997506059916" lon="9.770628280756075"><ele>333.0</ele><time>2026-05-03T08:37:30Z</time></trkpt><trkpt lat="45.71792827007881" lon="9.77057443707901"><ele>333.0</ele><time>2026-05-03T08:37:32Z</time></trkpt><trkpt lat="45.71784870621037" lon="9.77062392532398"><ele>333.0</ele><time>2026-05-03T08:37:34Z</time></trkpt><trkpt lat="45.71778228604014" lon="9.770741196173155"><ele>333.0</ele><time>2026-05-03T08:37:36Z</time></trkpt><trkpt lat="45.717704334190756" lon="9.770856275610692"><ele>332.0</ele><time>2026-05-03T08:37:38Z</time></trkpt><trkpt lat="45.717627515168154" lon="9.770977058792605"><ele>331.0</ele><time>2026-05-03T08:37:40Z</time></trkpt><trkpt lat="45.717577653319616" lon="9.771119310810477"><ele>330.0</ele><time>2026-05-03T08:37:42Z</time></trkpt><trkpt lat="45.717521995799935" lon="9.771267215739352"><ele>329.0</ele><time>2026-05-03T08:37:44Z</time></trkpt><trkpt lat="45.71747599966856" lon="9.771411825495242"><ele>329.0</ele><time>2026-05-03T08:37:46Z</time></trkpt><trkpt lat="45.71744839062143" lon="9.771502814565782"><ele>329.0</ele><time>2026-05-03T08:37:48Z</time></trkpt><trkpt lat="45.717372304923096" lon="9.771501119944725"><ele>329.0</ele><time>2026-05-03T08:37:50Z</time></trkpt><trkpt lat="45.71725200071797" lon="9.771446673753802"><ele>329.0</ele><time>2026-05-03T08:37:52Z</time></trkpt><trkpt lat="45.717189380300184" lon="9.771419896474919"><ele>329.0</ele><time>2026-05-03T08:37:53Z</time></trkpt><trkpt lat="45.717124678598516" lon="9.771394749736857"><ele>329.0</ele><time>2026-05-03T08:37:54Z</time></trkpt><trkpt lat="45.71705761458717" lon="9.771375573678707"><ele>329.0</ele><time>2026-05-03T08:37:55Z</time></trkpt><trkpt lat="45.71699329518894" lon="9.771357858454122"><ele>329.0</ele><time>2026-05-03T08:37:56Z</time></trkpt><trkpt lat="45.71687025201926" lon="9.771374722181806"><ele>329.0</ele><time>2026-05-03T08:37:58Z</time></trkpt><trkpt lat="45.71680869376987" lon="9.77141336595996"><ele>329.0</ele><time>2026-05-03T08:37:59Z</time></trkpt><trkpt lat="45.7167500764555" lon="9.771449514437172"><ele>329.0</ele><time>2026-05-03T08:38:00Z</time></trkpt><trkpt lat="45.716691635913016" lon="9.771495563506505"><ele>329.0</ele><time>2026-05-03T08:38:01Z</time></trkpt><trkpt lat="45.71663742554226" lon="9.771558552320133"><ele>328.33333333333337</ele><time>2026-05-03T08:38:02Z</time></trkpt><trkpt lat="45.716560311815265" lon="9.771679876801883"><ele>327.6666666666667</ele><time>2026-05-03T08:38:04Z</time></trkpt><trkpt lat="45.716502430494316" lon="9.771741341765663"><ele>327.0</ele><time>2026-05-03T08:38:05Z</time></trkpt><trkpt lat="45.7164026022115" lon="9.771858598930411"><ele>326.3333333333333</ele><time>2026-05-03T08:38:07Z</time></trkpt><trkpt lat="45.716344348273225" lon="9.771900781280564"><ele>325.66666666666663</ele><time>2026-05-03T08:38:08Z</time></trkpt><trkpt lat="45.71628666081593" lon="9.771948773980192"><ele>325.0</ele><time>2026-05-03T08:38:09Z</time></trkpt><trkpt lat="45.71618640582668" lon="9.772055010010579"><ele>325.0</ele><time>2026-05-03T08:38:11Z</time></trkpt><trkpt lat="45.71613659513117" lon="9.772113005908924"><ele>325.0</ele><time>2026-05-03T08:38:12Z</time></trkpt><trkpt lat="45.716081562271725" lon="9.772175589330635"><ele>325.0</ele><time>2026-05-03T08:38:13Z</time></trkpt><trkpt lat="45.71599968359186" lon="9.77228513544806"><ele>325.0</ele><time>2026-05-03T08:38:15Z</time></trkpt><trkpt lat="45.715953433717786" lon="9.77235001604287"><ele>325.0</ele><time>2026-05-03T08:38:16Z</time></trkpt><trkpt lat="45.71587287225918" lon="9.772459212399871"><ele>325.0</ele><time>2026-05-03T08:38:18Z</time></trkpt><trkpt lat="45.71579317056638" lon="9.772572670960574"><ele>326.0</ele><time>2026-05-03T08:38:20Z</time></trkpt><trkpt lat="45.71570866673799" lon="9.772683324360015"><ele>327.0</ele><time>2026-05-03T08:38:22Z</time></trkpt><trkpt lat="45.715627530576526" lon="9.77278221086329"><ele>328.0</ele><time>2026-05-03T08:38:24Z</time></trkpt><trkpt lat="45.7155429619965" lon="9.772882988393913"><ele>329.0</ele><time>2026-05-03T08:38:26Z</time></trkpt><trkpt lat="45.715468592208964" lon="9.77299285437193"><ele>330.0</ele><time>2026-05-03T08:38:28Z</time></trkpt><trkpt lat="45.71538111441998" lon="9.773062995528067"><ele>330.0</ele><time>2026-05-03T08:38:30Z</time></trkpt><trkpt lat="45.71527682388633" lon="9.773091576451481"><ele>330.0</ele><time>2026-05-03T08:38:32Z</time></trkpt><trkpt lat="45.715197408050706" lon="9.773215299341944"><ele>330.0</ele><time>2026-05-03T08:38:34Z</time></trkpt><trkpt lat="45.715195734080865" lon="9.773311539245617"><ele>330.0</ele><time>2026-05-03T08:38:35Z</time></trkpt><trkpt lat="45.715190306323656" lon="9.773485997536175"><ele>330.0</ele><time>2026-05-03T08:38:37Z</time></trkpt><trkpt lat="45.71516818407268" lon="9.773645990950277"><ele>331.0</ele><time>2026-05-03T08:38:39Z</time></trkpt><trkpt lat="45.71514701773481" lon="9.773803115893008"><ele>332.0</ele><time>2026-05-03T08:38:41Z</time></trkpt><trkpt lat="45.71514223253052" lon="9.77395408761559"><ele>333.0</ele><time>2026-05-03T08:38:43Z</time></trkpt><trkpt lat="45.715153471556846" lon="9.774099037002387"><ele>334.0</ele><time>2026-05-03T08:38:45Z</time></trkpt><trkpt lat="45.7151712846436" lon="9.774253489302454"><ele>335.0</ele><time>2026-05-03T08:38:47Z</time></trkpt><trkpt lat="45.7151847999838" lon="9.774408750825103"><ele>336.4</ele><time>2026-05-03T08:38:49Z</time></trkpt><trkpt lat="45.715181294755645" lon="9.77456166314065"><ele>337.8</ele><time>2026-05-03T08:38:51Z</time></trkpt><trkpt lat="45.71515783719097" lon="9.774713636136621"><ele>339.20000000000005</ele><time>2026-05-03T08:38:53Z</time></trkpt><trkpt lat="45.71512890267263" lon="9.774858900972129"><ele>340.6</ele><time>2026-05-03T08:38:55Z</time></trkpt><trkpt lat="45.715103902090576" lon="9.775011781266128"><ele>342.0</ele><time>2026-05-03T08:38:57Z</time></trkpt><trkpt lat="45.715071690257986" lon="9.775160479701686"><ele>342.20000000000005</ele><time>2026-05-03T08:38:59Z</time></trkpt><trkpt lat="45.71501632604409" lon="9.775299593875515"><ele>342.4</ele><time>2026-05-03T08:39:01Z</time></trkpt><trkpt lat="45.7149483155104" lon="9.775422483951761"><ele>342.6</ele><time>2026-05-03T08:39:03Z</time></trkpt><trkpt lat="45.71489410518604" lon="9.775469962765126"><ele>342.79999999999995</ele><time>2026-05-03T08:39:04Z</time></trkpt><trkpt lat="45.71479746571634" lon="9.775560878333543"><ele>343.0</ele><time>2026-05-03T08:39:06Z</time></trkpt><trkpt lat="45.714702945489634" lon="9.775677618186347"><ele>343.0</ele><time>2026-05-03T08:39:08Z</time></trkpt><trkpt lat="45.71462532054233" lon="9.775810447543384"><ele>343.0</ele><time>2026-05-03T08:39:10Z</time></trkpt><trkpt lat="45.714593623288444" lon="9.77588897398569"><ele>343.0</ele><time>2026-05-03T08:39:11Z</time></trkpt><trkpt lat="45.71455637992607" lon="9.775970564714658"><ele>343.0</ele><time>2026-05-03T08:39:12Z</time></trkpt><trkpt lat="45.71452579055531" lon="9.776138187321115"><ele>343.0</ele><time>2026-05-03T08:39:14Z</time></trkpt><trkpt lat="45.714510127994096" lon="9.776229775287948"><ele>343.0</ele><time>2026-05-03T08:39:15Z</time></trkpt><trkpt lat="45.71449668998159" lon="9.776401420957795"><ele>343.25</ele><time>2026-05-03T08:39:17Z</time></trkpt><trkpt lat="45.71448685562497" lon="9.776579185991068"><ele>343.5</ele><time>2026-05-03T08:39:19Z</time></trkpt><trkpt lat="45.71451206695937" lon="9.77674393739312"><ele>343.75</ele><time>2026-05-03T08:39:21Z</time></trkpt><trkpt lat="45.71456250841924" lon="9.776900455689931"><ele>344.0</ele><time>2026-05-03T08:39:23Z</time></trkpt><trkpt lat="45.71463891412626" lon="9.777043320969344"><ele>345.0</ele><time>2026-05-03T08:39:25Z</time></trkpt><trkpt lat="45.71471566456415" lon="9.777175116554846"><ele>346.0</ele><time>2026-05-03T08:39:27Z</time></trkpt><trkpt lat="45.71475545115544" lon="9.777246987860583"><ele>347.0</ele><time>2026-05-03T08:39:28Z</time></trkpt><trkpt lat="45.714794381303065" lon="9.777322128116596"><ele>348.0</ele><time>2026-05-03T08:39:29Z</time></trkpt><trkpt lat="45.71486936844478" lon="9.777458407879895"><ele>349.0</ele><time>2026-05-03T08:39:31Z</time></trkpt><trkpt lat="45.71492222252334" lon="9.777616713608955"><ele>349.79999999999995</ele><time>2026-05-03T08:39:33Z</time></trkpt><trkpt lat="45.714944060780915" lon="9.777789996744977"><ele>350.59999999999997</ele><time>2026-05-03T08:39:35Z</time></trkpt><trkpt lat="45.714942233686145" lon="9.777884007679377"><ele>351.4</ele><time>2026-05-03T08:39:36Z</time></trkpt><trkpt lat="45.71495523149615" lon="9.778048827923081"><ele>352.2</ele><time>2026-05-03T08:39:38Z</time></trkpt><trkpt lat="45.714958144047685" lon="9.778222562761098"><ele>353.0</ele><time>2026-05-03T08:39:40Z</time></trkpt><trkpt lat="45.71496382709606" lon="9.778398255294896"><ele>353.0</ele><time>2026-05-03T08:39:42Z</time></trkpt><trkpt lat="45.714971046915856" lon="9.778569619607136"><ele>353.0</ele><time>2026-05-03T08:39:44Z</time></trkpt><trkpt lat="45.71497340651939" lon="9.778739300605572"><ele>353.0</ele><time>2026-05-03T08:39:46Z</time></trkpt><trkpt lat="45.71496021285643" lon="9.778910906616701"><ele>353.0</ele><time>2026-05-03T08:39:48Z</time></trkpt><trkpt lat="45.71491840272546" lon="9.779080362291344"><ele>353.0</ele><time>2026-05-03T08:39:50Z</time></trkpt><trkpt lat="45.71485704285735" lon="9.77922015916839"><ele>353.0</ele><time>2026-05-03T08:39:52Z</time></trkpt><trkpt lat="45.71479667218442" lon="9.779371604736419"><ele>353.0</ele><time>2026-05-03T08:39:54Z</time></trkpt><trkpt lat="45.71473034213482" lon="9.779506546044995"><ele>353.0</ele><time>2026-05-03T08:39:56Z</time></trkpt><trkpt lat="45.714649051269795" lon="9.779633540958429"><ele>353.4</ele><time>2026-05-03T08:39:58Z</time></trkpt><trkpt lat="45.714556406952745" lon="9.77974897912737"><ele>353.79999999999995</ele><time>2026-05-03T08:40:00Z</time></trkpt><trkpt lat="45.714458686321244" lon="9.779856655699678"><ele>354.2</ele><time>2026-05-03T08:40:02Z</time></trkpt><trkpt lat="45.714407225790296" lon="9.779910320272151"><ele>354.6</ele><time>2026-05-03T08:40:03Z</time></trkpt><trkpt lat="45.714324151796944" lon="9.780039451408177"><ele>355.0</ele><time>2026-05-03T08:40:05Z</time></trkpt><trkpt lat="45.71426231413684" lon="9.780193327070478"><ele>355.8</ele><time>2026-05-03T08:40:07Z</time></trkpt><trkpt lat="45.71423506448858" lon="9.780275261804269"><ele>356.6</ele><time>2026-05-03T08:40:08Z</time></trkpt><trkpt lat="45.71421554190814" lon="9.780364494764946"><ele>357.4</ele><time>2026-05-03T08:40:09Z</time></trkpt><trkpt lat="45.71419109954911" lon="9.780533468184448"><ele>358.2</ele><time>2026-05-03T08:40:11Z</time></trkpt><trkpt lat="45.71416398182618" lon="9.780702185495379"><ele>359.0</ele><time>2026-05-03T08:40:13Z</time></trkpt><trkpt lat="45.71414194726292" lon="9.780858839466454"><ele>360.2</ele><time>2026-05-03T08:40:15Z</time></trkpt><trkpt lat="45.714128468694454" lon="9.781020554985869"><ele>361.4</ele><time>2026-05-03T08:40:17Z</time></trkpt><trkpt lat="45.71412112810331" lon="9.781179627920668"><ele>362.6</ele><time>2026-05-03T08:40:19Z</time></trkpt><trkpt lat="45.71411517869857" lon="9.781336974054387"><ele>363.8</ele><time>2026-05-03T08:40:21Z</time></trkpt><trkpt lat="45.71410799031722" lon="9.781490349126129"><ele>365.0</ele><time>2026-05-03T08:40:23Z</time></trkpt><trkpt lat="45.71410113474452" lon="9.781645023343028"><ele>365.0</ele><time>2026-05-03T08:40:25Z</time></trkpt><trkpt lat="45.714084493040154" lon="9.781794344049556"><ele>365.0</ele><time>2026-05-03T08:40:27Z</time></trkpt><trkpt lat="45.714052316563546" lon="9.78194294904465"><ele>365.0</ele><time>2026-05-03T08:40:29Z</time></trkpt><trkpt lat="45.71399616833366" lon="9.782094904223698"><ele>365.0</ele><time>2026-05-03T08:40:31Z</time></trkpt><trkpt lat="45.713951857042794" lon="9.782251147243812"><ele>364.5</ele><time>2026-05-03T08:40:33Z</time></trkpt><trkpt lat="45.71389821403078" lon="9.782407798234638"><ele>364.0</ele><time>2026-05-03T08:40:35Z</time></trkpt><trkpt lat="45.71385763965049" lon="9.782574879609601"><ele>363.5</ele><time>2026-05-03T08:40:37Z</time></trkpt><trkpt lat="45.71384223783754" lon="9.782667808734168"><ele>363.0</ele><time>2026-05-03T08:40:38Z</time></trkpt><trkpt lat="45.71383757236906" lon="9.782760491511064"><ele>362.5</ele><time>2026-05-03T08:40:39Z</time></trkpt><trkpt lat="45.713841097310926" lon="9.782854685559984"><ele>362.0</ele><time>2026-05-03T08:40:40Z</time></trkpt><trkpt lat="45.713845161286145" lon="9.782950486108748"><ele>361.83333333333337</ele><time>2026-05-03T08:40:41Z</time></trkpt><trkpt lat="45.713847249895736" lon="9.783045129870764"><ele>361.6666666666667</ele><time>2026-05-03T08:40:42Z</time></trkpt><trkpt lat="45.71386041591906" lon="9.783221312257265"><ele>361.5</ele><time>2026-05-03T08:40:44Z</time></trkpt><trkpt lat="45.7138664333607" lon="9.783317255452003"><ele>361.3333333333333</ele><time>2026-05-03T08:40:45Z</time></trkpt><trkpt lat="45.71387371181566" lon="9.78340941892422"><ele>361.16666666666663</ele><time>2026-05-03T08:40:46Z</time></trkpt><trkpt lat="45.71388992880491" lon="9.78358250634251"><ele>361.0</ele><time>2026-05-03T08:40:48Z</time></trkpt><trkpt lat="45.71387741302894" lon="9.78368191414013"><ele>361.6</ele><time>2026-05-03T08:40:49Z</time></trkpt><trkpt lat="45.7138880431938" lon="9.783867323481951"><ele>362.20000000000005</ele><time>2026-05-03T08:40:51Z</time></trkpt><trkpt lat="45.713890889656724" lon="9.784048712544704"><ele>362.79999999999995</ele><time>2026-05-03T08:40:53Z</time></trkpt><trkpt lat="45.71389158269423" lon="9.784139417629381"><ele>363.4</ele><time>2026-05-03T08:40:54Z</time></trkpt><trkpt lat="45.71388960203606" lon="9.784315256712198"><ele>364.0</ele><time>2026-05-03T08:40:56Z</time></trkpt><trkpt lat="45.71387690605444" lon="9.784486399341263"><ele>365.2</ele><time>2026-05-03T08:40:58Z</time></trkpt><trkpt lat="45.71386226739004" lon="9.784642863200554"><ele>366.4</ele><time>2026-05-03T08:41:00Z</time></trkpt><trkpt lat="45.713856417498235" lon="9.784734145942613"><ele>367.6</ele><time>2026-05-03T08:41:01Z</time></trkpt><trkpt lat="45.713845199948" lon="9.784894102457944"><ele>368.8</ele><time>2026-05-03T08:41:03Z</time></trkpt><trkpt lat="45.71382730455337" lon="9.785048534952"><ele>370.0</ele><time>2026-05-03T08:41:05Z</time></trkpt><trkpt lat="45.71381667632919" lon="9.785207577918081"><ele>371.0</ele><time>2026-05-03T08:41:07Z</time></trkpt><trkpt lat="45.71379586252591" lon="9.785368478115425"><ele>372.0</ele><time>2026-05-03T08:41:09Z</time></trkpt><trkpt lat="45.71377370942512" lon="9.785525095169394"><ele>373.0</ele><time>2026-05-03T08:41:11Z</time></trkpt><trkpt lat="45.713754739318865" lon="9.78568425014981"><ele>374.0</ele><time>2026-05-03T08:41:13Z</time></trkpt><trkpt lat="45.71373598757732" lon="9.785845422733304"><ele>374.0</ele><time>2026-05-03T08:41:15Z</time></trkpt><trkpt lat="45.71371316410846" lon="9.786008696328075"><ele>374.0</ele><time>2026-05-03T08:41:17Z</time></trkpt><trkpt lat="45.71369474290617" lon="9.786173975441244"><ele>374.0</ele><time>2026-05-03T08:41:19Z</time></trkpt><trkpt lat="45.71368220740576" lon="9.786344300553782"><ele>374.0</ele><time>2026-05-03T08:41:21Z</time></trkpt><trkpt lat="45.71365029708756" lon="9.786505843534648"><ele>374.4</ele><time>2026-05-03T08:41:23Z</time></trkpt><trkpt lat="45.71362879898443" lon="9.786666383676033"><ele>374.79999999999995</ele><time>2026-05-03T08:41:25Z</time></trkpt><trkpt lat="45.71363105346443" lon="9.7867693860009"><ele>375.20000000000005</ele><time>2026-05-03T08:41:26Z</time></trkpt><trkpt lat="45.71363269071479" lon="9.786883838350876"><ele>375.6</ele><time>2026-05-03T08:41:27Z</time></trkpt><trkpt lat="45.713641630341115" lon="9.787051073758393"><ele>376.0</ele><time>2026-05-03T08:41:29Z</time></trkpt><trkpt lat="45.713659083485794" lon="9.787146319903119"><ele>376.66666666666663</ele><time>2026-05-03T08:41:30Z</time></trkpt><trkpt lat="45.713708113012956" lon="9.787311882610467"><ele>377.3333333333333</ele><time>2026-05-03T08:41:32Z</time></trkpt><trkpt lat="45.71374092067694" lon="9.787392314097593"><ele>378.0</ele><time>2026-05-03T08:41:33Z</time></trkpt><trkpt lat="45.713799321515346" lon="9.787549773662265"><ele>378.6666666666667</ele><time>2026-05-03T08:41:35Z</time></trkpt><trkpt lat="45.71383087271475" lon="9.787632891741877"><ele>379.33333333333337</ele><time>2026-05-03T08:41:36Z</time></trkpt><trkpt lat="45.713859931530315" lon="9.78771419265972"><ele>380.0</ele><time>2026-05-03T08:41:37Z</time></trkpt><trkpt lat="45.71388495741939" lon="9.787887351324763"><ele>380.0</ele><time>2026-05-03T08:41:39Z</time></trkpt><trkpt lat="45.71389256698438" lon="9.787979913865344"><ele>380.0</ele><time>2026-05-03T08:41:40Z</time></trkpt><trkpt lat="45.713891607936176" lon="9.788159906803395"><ele>380.0</ele><time>2026-05-03T08:41:42Z</time></trkpt><trkpt lat="45.71387934446263" lon="9.788248495572843"><ele>380.0</ele><time>2026-05-03T08:41:43Z</time></trkpt><trkpt lat="45.71383661170377" lon="9.788414817462266"><ele>380.0</ele><time>2026-05-03T08:41:45Z</time></trkpt><trkpt lat="45.71380678195222" lon="9.788503682436525"><ele>380.0</ele><time>2026-05-03T08:41:46Z</time></trkpt><trkpt lat="45.71374467303361" lon="9.788650440770287"><ele>380.0</ele><time>2026-05-03T08:41:48Z</time></trkpt><trkpt lat="45.71368518084963" lon="9.788797285852022"><ele>380.0</ele><time>2026-05-03T08:41:50Z</time></trkpt><trkpt lat="45.713617126810185" lon="9.788943600477218"><ele>380.0</ele><time>2026-05-03T08:41:52Z</time></trkpt><trkpt lat="45.71354832391487" lon="9.789084031030537"><ele>380.0</ele><time>2026-05-03T08:41:54Z</time></trkpt><trkpt lat="45.71350915561165" lon="9.789155341267708"><ele>380.0</ele><time>2026-05-03T08:41:55Z</time></trkpt><trkpt lat="45.713433214728084" lon="9.789295720882341"><ele>381.0</ele><time>2026-05-03T08:41:57Z</time></trkpt><trkpt lat="45.713332519068395" lon="9.789401773820256"><ele>382.0</ele><time>2026-05-03T08:41:59Z</time></trkpt><trkpt lat="45.713226920236494" lon="9.789485389425646"><ele>383.0</ele><time>2026-05-03T08:42:01Z</time></trkpt><trkpt lat="45.71311328024247" lon="9.789556972405078"><ele>384.0</ele><time>2026-05-03T08:42:03Z</time></trkpt><trkpt lat="45.712997326268095" lon="9.789600387283588"><ele>384.0</ele><time>2026-05-03T08:42:05Z</time></trkpt><trkpt lat="45.71288205193368" lon="9.78964539723671"><ele>384.0</ele><time>2026-05-03T08:42:07Z</time></trkpt><trkpt lat="45.71277552043458" lon="9.789727064113334"><ele>384.0</ele><time>2026-05-03T08:42:09Z</time></trkpt><trkpt lat="45.71267675059862" lon="9.7898249232905"><ele>384.0</ele><time>2026-05-03T08:42:11Z</time></trkpt><trkpt lat="45.71258790473006" lon="9.78994513950472"><ele>384.6</ele><time>2026-05-03T08:42:13Z</time></trkpt><trkpt lat="45.71249730006533" lon="9.790067492623537"><ele>385.2</ele><time>2026-05-03T08:42:15Z</time></trkpt><trkpt lat="45.71240588630347" lon="9.79018824686286"><ele>385.8</ele><time>2026-05-03T08:42:17Z</time></trkpt><trkpt lat="45.71236052059875" lon="9.79025435993687"><ele>386.40000000000003</ele><time>2026-05-03T08:42:18Z</time></trkpt><trkpt lat="45.71227231776992" lon="9.790377738189056"><ele>387.0</ele><time>2026-05-03T08:42:20Z</time></trkpt><trkpt lat="45.71218488280629" lon="9.790502546607764"><ele>387.0</ele><time>2026-05-03T08:42:22Z</time></trkpt><trkpt lat="45.71209937178903" lon="9.790633344024155"><ele>387.0</ele><time>2026-05-03T08:42:24Z</time></trkpt><trkpt lat="45.71201060435925" lon="9.790755799109627"><ele>387.0</ele><time>2026-05-03T08:42:26Z</time></trkpt><trkpt lat="45.711924537118165" lon="9.79088318313553"><ele>387.0</ele><time>2026-05-03T08:42:28Z</time></trkpt><trkpt lat="45.71184130886964" lon="9.791011396332317"><ele>389.6</ele><time>2026-05-03T08:42:30Z</time></trkpt><trkpt lat="45.7117714222889" lon="9.791147656609917"><ele>392.20000000000005</ele><time>2026-05-03T08:42:32Z</time></trkpt><trkpt lat="45.71173405373056" lon="9.79122063375621"><ele>394.8</ele><time>2026-05-03T08:42:33Z</time></trkpt><trkpt lat="45.711684880675634" lon="9.791376957269906"><ele>397.4</ele><time>2026-05-03T08:42:35Z</time></trkpt><trkpt lat="45.711647498913926" lon="9.791540777572067"><ele>400.0</ele><time>2026-05-03T08:42:37Z</time></trkpt><trkpt lat="45.711597680172865" lon="9.791707144769127"><ele>400.25</ele><time>2026-05-03T08:42:39Z</time></trkpt><trkpt lat="45.71155563423811" lon="9.791865023827384"><ele>400.5</ele><time>2026-05-03T08:42:41Z</time></trkpt><trkpt lat="45.711507937460944" lon="9.792006891530944"><ele>400.75</ele><time>2026-05-03T08:42:43Z</time></trkpt><trkpt lat="45.71145377208524" lon="9.792155551456847"><ele>401.0</ele><time>2026-05-03T08:42:45Z</time></trkpt><trkpt lat="45.711387412142805" lon="9.792283581432994"><ele>401.0</ele><time>2026-05-03T08:42:47Z</time></trkpt><trkpt lat="45.711319109749084" lon="9.792420673388028"><ele>401.0</ele><time>2026-05-03T08:42:49Z</time></trkpt><trkpt lat="45.71126224672654" lon="9.792561747804108"><ele>401.0</ele><time>2026-05-03T08:42:51Z</time></trkpt><trkpt lat="45.71119846112124" lon="9.792702686293543"><ele>401.0</ele><time>2026-05-03T08:42:53Z</time></trkpt><trkpt lat="45.711157284551895" lon="9.79277186282807"><ele>401.0</ele><time>2026-05-03T08:42:54Z</time></trkpt><trkpt lat="45.71106527467698" lon="9.792892058584322"><ele>402.8</ele><time>2026-05-03T08:42:56Z</time></trkpt><trkpt lat="45.711014174570124" lon="9.792946992728162"><ele>404.6</ele><time>2026-05-03T08:42:57Z</time></trkpt><trkpt lat="45.71096246319989" lon="9.792999110475854"><ele>406.4</ele><time>2026-05-03T08:42:58Z</time></trkpt><trkpt lat="45.710867883784964" lon="9.79309543495374"><ele>408.2</ele><time>2026-05-03T08:43:00Z</time></trkpt><trkpt lat="45.71077079379458" lon="9.793195334217941"><ele>410.0</ele><time>2026-05-03T08:43:02Z</time></trkpt><trkpt lat="45.71067531126453" lon="9.793290328228109"><ele>410.0</ele><time>2026-05-03T08:43:04Z</time></trkpt><trkpt lat="45.710617735694356" lon="9.793334531568492"><ele>410.0</ele><time>2026-05-03T08:43:05Z</time></trkpt><trkpt lat="45.71055733305825" lon="9.793381548347508"><ele>410.0</ele><time>2026-05-03T08:43:06Z</time></trkpt><trkpt lat="45.71049244462947" lon="9.793427296665405"><ele>410.0</ele><time>2026-05-03T08:43:07Z</time></trkpt><trkpt lat="45.710424765047755" lon="9.793482367542905"><ele>410.0</ele><time>2026-05-03T08:43:08Z</time></trkpt><trkpt lat="45.710357550901875" lon="9.793545848238162"><ele>410.0</ele><time>2026-05-03T08:43:09Z</time></trkpt><trkpt lat="45.71029244479877" lon="9.793599630935484"><ele>410.0</ele><time>2026-05-03T08:43:10Z</time></trkpt><trkpt lat="45.71022468028712" lon="9.793661965492365"><ele>411.42857142857144</ele><time>2026-05-03T08:43:11Z</time></trkpt><trkpt lat="45.710159027565126" lon="9.793713036988448"><ele>412.85714285714283</ele><time>2026-05-03T08:43:12Z</time></trkpt><trkpt lat="45.71008892222416" lon="9.793761092338247"><ele>414.2857142857143</ele><time>2026-05-03T08:43:13Z</time></trkpt><trkpt lat="45.71001668771092" lon="9.793792394763699"><ele>415.7142857142857</ele><time>2026-05-03T08:43:14Z</time></trkpt><trkpt lat="45.709942795199915" lon="9.79380110196111"><ele>417.1428571428571</ele><time>2026-05-03T08:43:15Z</time></trkpt><trkpt lat="45.70986741259788" lon="9.793792850222669"><ele>418.57142857142856</ele><time>2026-05-03T08:43:16Z</time></trkpt><trkpt lat="45.70980161271044" lon="9.793784913080463"><ele>420.0</ele><time>2026-05-03T08:43:17Z</time></trkpt><trkpt lat="45.70973630034792" lon="9.793769981817329"><ele>420.0</ele><time>2026-05-03T08:43:18Z</time></trkpt><trkpt lat="45.70966941552611" lon="9.793779824430048"><ele>420.0</ele><time>2026-05-03T08:43:19Z</time></trkpt><trkpt lat="45.70959982483266" lon="9.793791804166965"><ele>420.0</ele><time>2026-05-03T08:43:20Z</time></trkpt><trkpt lat="45.709531505716335" lon="9.793832557872173"><ele>420.0</ele><time>2026-05-03T08:43:21Z</time></trkpt><trkpt lat="45.70945646122436" lon="9.793870436708676"><ele>420.0</ele><time>2026-05-03T08:43:22Z</time></trkpt><trkpt lat="45.70938799515882" lon="9.793941176048511"><ele>420.0</ele><time>2026-05-03T08:43:23Z</time></trkpt><trkpt lat="45.709316334755485" lon="9.794013839307297"><ele>417.6</ele><time>2026-05-03T08:43:24Z</time></trkpt><trkpt lat="45.709224871615454" lon="9.794074720726853"><ele>415.2</ele><time>2026-05-03T08:43:25Z</time></trkpt><trkpt lat="45.709119330336" lon="9.794135562320069"><ele>412.79999999999995</ele><time>2026-05-03T08:43:26Z</time></trkpt><trkpt lat="45.709037492924296" lon="9.79417555943475"><ele>410.4</ele><time>2026-05-03T08:43:27Z</time></trkpt><trkpt lat="45.70893255091148" lon="9.79419947016037"><ele>408.0</ele><time>2026-05-03T08:43:28Z</time></trkpt><trkpt lat="45.708818360299546" lon="9.79425267088427"><ele>408.0</ele><time>2026-05-03T08:43:29Z</time></trkpt><trkpt lat="45.70873508796451" lon="9.794283597294042"><ele>408.0</ele><time>2026-05-03T08:43:30Z</time></trkpt><trkpt lat="45.70862976799925" lon="9.79428225328432"><ele>408.0</ele><time>2026-05-03T08:43:31Z</time></trkpt><trkpt lat="45.70853070011166" lon="9.794274941058605"><ele>408.0</ele><time>2026-05-03T08:43:32Z</time></trkpt><trkpt lat="45.708439822070375" lon="9.794259198871195"><ele>408.0</ele><time>2026-05-03T08:43:33Z</time></trkpt><trkpt lat="45.70834644168716" lon="9.794245118370632"><ele>406.8333333333333</ele><time>2026-05-03T08:43:34Z</time></trkpt><trkpt lat="45.708256658953566" lon="9.794231954323012"><ele>405.66666666666663</ele><time>2026-05-03T08:43:35Z</time></trkpt><trkpt lat="45.7081717120002" lon="9.794219342975193"><ele>404.5</ele><time>2026-05-03T08:43:36Z</time></trkpt><trkpt lat="45.70808907787826" lon="9.794203210802767"><ele>403.3333333333333</ele><time>2026-05-03T08:43:37Z</time></trkpt><trkpt lat="45.70800966361718" lon="9.7941888592165"><ele>402.16666666666663</ele><time>2026-05-03T08:43:38Z</time></trkpt><trkpt lat="45.707933768772186" lon="9.794174756894142"><ele>401.0</ele><time>2026-05-03T08:43:39Z</time></trkpt><trkpt lat="45.70785997232936" lon="9.794161503105792"><ele>401.0</ele><time>2026-05-03T08:43:40Z</time></trkpt><trkpt lat="45.70778948825803" lon="9.794150729797854"><ele>401.0</ele><time>2026-05-03T08:43:41Z</time></trkpt><trkpt lat="45.707719900521035" lon="9.79414090617995"><ele>401.0</ele><time>2026-05-03T08:43:42Z</time></trkpt><trkpt lat="45.70765279895353" lon="9.794134674702732"><ele>401.0</ele><time>2026-05-03T08:43:43Z</time></trkpt><trkpt lat="45.70758897632674" lon="9.794124245989345"><ele>401.0</ele><time>2026-05-03T08:43:44Z</time></trkpt><trkpt lat="45.70752510836312" lon="9.794104355789898"><ele>401.0</ele><time>2026-05-03T08:43:45Z</time></trkpt><trkpt lat="45.70746259027283" lon="9.794085304619117"><ele>401.0</ele><time>2026-05-03T08:43:46Z</time></trkpt><trkpt lat="45.70739924314553" lon="9.794067249848794"><ele>401.16666666666663</ele><time>2026-05-03T08:43:47Z</time></trkpt><trkpt lat="45.707282038235824" lon="9.794072149552996"><ele>401.3333333333333</ele><time>2026-05-03T08:43:49Z</time></trkpt><trkpt lat="45.70722851983161" lon="9.794120777380074"><ele>401.5</ele><time>2026-05-03T08:43:50Z</time></trkpt><trkpt lat="45.70718718006879" lon="9.794198824149973"><ele>401.66666666666663</ele><time>2026-05-03T08:43:51Z</time></trkpt><trkpt lat="45.70714564221824" lon="9.794274333547817"><ele>401.8333333333333</ele><time>2026-05-03T08:43:52Z</time></trkpt><trkpt lat="45.70711934515003" lon="9.794361678155699"><ele>402.0</ele><time>2026-05-03T08:43:53Z</time></trkpt><trkpt lat="45.707126041531" lon="9.794466377678226"><ele>402.0</ele><time>2026-05-03T08:43:54Z</time></trkpt><trkpt lat="45.70715644576575" lon="9.79455981291465"><ele>402.0</ele><time>2026-05-03T08:43:55Z</time></trkpt><trkpt lat="45.70719331955354" lon="9.794651942641455"><ele>402.0</ele><time>2026-05-03T08:43:56Z</time></trkpt><trkpt lat="45.70723000736321" lon="9.79474501219288"><ele>402.0</ele><time>2026-05-03T08:43:57Z</time></trkpt><trkpt lat="45.70726796415781" lon="9.794844929047708"><ele>402.0</ele><time>2026-05-03T08:43:58Z</time></trkpt><trkpt lat="45.70730272769965" lon="9.794947392409872"><ele>402.0</ele><time>2026-05-03T08:43:59Z</time></trkpt><trkpt lat="45.70734266079722" lon="9.795053142328197"><ele>402.0</ele><time>2026-05-03T08:44:00Z</time></trkpt><trkpt lat="45.70738449401119" lon="9.795159370133932"><ele>402.0</ele><time>2026-05-03T08:44:01Z</time></trkpt><trkpt lat="45.70742941990642" lon="9.795267152917011"><ele>402.0</ele><time>2026-05-03T08:44:02Z</time></trkpt><trkpt lat="45.70747372471085" lon="9.795378960770764"><ele>402.0</ele><time>2026-05-03T08:44:03Z</time></trkpt><trkpt lat="45.70751749128682" lon="9.795497350667013"><ele>402.0</ele><time>2026-05-03T08:44:04Z</time></trkpt><trkpt lat="45.707561969691795" lon="9.795619077931688"><ele>403.3333333333333</ele><time>2026-05-03T08:44:05Z</time></trkpt><trkpt lat="45.707591645997624" lon="9.795745095140747"><ele>404.66666666666663</ele><time>2026-05-03T08:44:06Z</time></trkpt><trkpt lat="45.70762966309414" lon="9.79586394977542"><ele>406.0</ele><time>2026-05-03T08:44:07Z</time></trkpt><trkpt lat="45.70765781359632" lon="9.795980450857714"><ele>407.3333333333333</ele><time>2026-05-03T08:44:08Z</time></trkpt><trkpt lat="45.70768780732619" lon="9.796101235693056"><ele>408.66666666666663</ele><time>2026-05-03T08:44:09Z</time></trkpt><trkpt lat="45.70771715690132" lon="9.796216508415336"><ele>410.0</ele><time>2026-05-03T08:44:10Z</time></trkpt><trkpt lat="45.70775181270402" lon="9.796351852611357"><ele>409.99999999999994</ele><time>2026-05-03T08:44:11Z</time></trkpt><trkpt lat="45.707781984841176" lon="9.796465226866204"><ele>410.0</ele><time>2026-05-03T08:44:12Z</time></trkpt><trkpt lat="45.707812567930596" lon="9.796583760572355"><ele>410.0</ele><time>2026-05-03T08:44:13Z</time></trkpt><trkpt lat="45.7078398437919" lon="9.796699238236922"><ele>410.0</ele><time>2026-05-03T08:44:14Z</time></trkpt><trkpt lat="45.70786585150975" lon="9.796810133436614"><ele>409.99999999999994</ele><time>2026-05-03T08:44:15Z</time></trkpt><trkpt lat="45.70788691624592" lon="9.796919724935178"><ele>410.0</ele><time>2026-05-03T08:44:16Z</time></trkpt><trkpt lat="45.70791169472063" lon="9.79702932218771"><ele>408.42857142857144</ele><time>2026-05-03T08:44:17Z</time></trkpt><trkpt lat="45.70793109074621" lon="9.797134305732571"><ele>406.85714285714283</ele><time>2026-05-03T08:44:18Z</time></trkpt><trkpt lat="45.70795026825467" lon="9.797239464815341"><ele>405.2857142857143</ele><time>2026-05-03T08:44:19Z</time></trkpt><trkpt lat="45.70796804596809" lon="9.797342211297952"><ele>403.7142857142857</ele><time>2026-05-03T08:44:20Z</time></trkpt><trkpt lat="45.70798757190304" lon="9.797440140588076"><ele>402.1428571428571</ele><time>2026-05-03T08:44:21Z</time></trkpt><trkpt lat="45.708005586501194" lon="9.797534740115571"><ele>400.57142857142856</ele><time>2026-05-03T08:44:22Z</time></trkpt><trkpt lat="45.708026977781294" lon="9.79762268909026"><ele>399.0</ele><time>2026-05-03T08:44:23Z</time></trkpt><trkpt lat="45.70804887559173" lon="9.79770894020313"><ele>397.6666666666667</ele><time>2026-05-03T08:44:24Z</time></trkpt><trkpt lat="45.7081187749835" lon="9.797862789967496"><ele>396.33333333333337</ele><time>2026-05-03T08:44:26Z</time></trkpt><trkpt lat="45.708169813651445" lon="9.797927793226634"><ele>395.0</ele><time>2026-05-03T08:44:27Z</time></trkpt><trkpt lat="45.70822939549609" lon="9.79798209646746"><ele>393.6666666666667</ele><time>2026-05-03T08:44:28Z</time></trkpt><trkpt lat="45.7082870983246" lon="9.798037851078938"><ele>392.33333333333337</ele><time>2026-05-03T08:44:29Z</time></trkpt><trkpt lat="45.70834504877927" lon="9.798102058244051"><ele>391.0</ele><time>2026-05-03T08:44:30Z</time></trkpt><trkpt lat="45.70840123787727" lon="9.798168714043086"><ele>391.00000000000006</ele><time>2026-05-03T08:44:31Z</time></trkpt><trkpt lat="45.70846022516852" lon="9.798227739769294"><ele>391.0</ele><time>2026-05-03T08:44:32Z</time></trkpt><trkpt lat="45.70852264605507" lon="9.798289610673425"><ele>391.0</ele><time>2026-05-03T08:44:33Z</time></trkpt><trkpt lat="45.7085832505425" lon="9.798355033197971"><ele>391.0</ele><time>2026-05-03T08:44:34Z</time></trkpt><trkpt lat="45.7086433833843" lon="9.798417429611428"><ele>391.00000000000006</ele><time>2026-05-03T08:44:35Z</time></trkpt><trkpt lat="45.7087056722892" lon="9.798481536307714"><ele>391.0</ele><time>2026-05-03T08:44:36Z</time></trkpt><trkpt lat="45.708768560051105" lon="9.798544249533586"><ele>390.6666666666667</ele><time>2026-05-03T08:44:37Z</time></trkpt><trkpt lat="45.708828660207175" lon="9.798609743787562"><ele>390.33333333333337</ele><time>2026-05-03T08:44:38Z</time></trkpt><trkpt lat="45.708890135938596" lon="9.798675714682897"><ele>390.0</ele><time>2026-05-03T08:44:39Z</time></trkpt><trkpt lat="45.708949598606196" lon="9.798740874233955"><ele>389.66666666666663</ele><time>2026-05-03T08:44:40Z</time></trkpt><trkpt lat="45.70900959373272" lon="9.798806555521667"><ele>389.3333333333333</ele><time>2026-05-03T08:44:41Z</time></trkpt><trkpt lat="45.70906688882899" lon="9.798873461587325"><ele>389.0</ele><time>2026-05-03T08:44:42Z</time></trkpt><trkpt lat="45.7091240495154" lon="9.798939357299394"><ele>388.99999999999994</ele><time>2026-05-03T08:44:43Z</time></trkpt><trkpt lat="45.70918048903044" lon="9.799009458513067"><ele>389.0</ele><time>2026-05-03T08:44:44Z</time></trkpt><trkpt lat="45.70922065755466" lon="9.799098661997247"><ele>389.0</ele><time>2026-05-03T08:44:45Z</time></trkpt><trkpt lat="45.70923614880129" lon="9.799203541752773"><ele>389.0</ele><time>2026-05-03T08:44:46Z</time></trkpt><trkpt lat="45.70922766704952" lon="9.799315551590205"><ele>388.99999999999994</ele><time>2026-05-03T08:44:47Z</time></trkpt><trkpt lat="45.70919354493278" lon="9.79943708153486"><ele>389.0</ele><time>2026-05-03T08:44:48Z</time></trkpt><trkpt lat="45.70914612021893" lon="9.799552496018354"><ele>387.4</ele><time>2026-05-03T08:44:49Z</time></trkpt><trkpt lat="45.70911383055575" lon="9.799671690981846"><ele>385.79999999999995</ele><time>2026-05-03T08:44:50Z</time></trkpt><trkpt lat="45.709121705321365" lon="9.799800859403359"><ele>384.20000000000005</ele><time>2026-05-03T08:44:51Z</time></trkpt><trkpt lat="45.70916796333265" lon="9.799927903022274"><ele>382.6</ele><time>2026-05-03T08:44:52Z</time></trkpt><trkpt lat="45.70923047559664" lon="9.800033931537527"><ele>381.0</ele><time>2026-05-03T08:44:53Z</time></trkpt><trkpt lat="45.70929354870267" lon="9.800142898666861"><ele>379.0</ele><time>2026-05-03T08:44:54Z</time></trkpt><trkpt lat="45.70935825591385" lon="9.800258108624538"><ele>377.0</ele><time>2026-05-03T08:44:55Z</time></trkpt><trkpt lat="45.70942152474098" lon="9.800377456256799"><ele>375.0</ele><time>2026-05-03T08:44:56Z</time></trkpt><trkpt lat="45.7094838373365" lon="9.800500359270782"><ele>373.0</ele><time>2026-05-03T08:44:57Z</time></trkpt><trkpt lat="45.70954366344933" lon="9.800628607382798"><ele>371.0</ele><time>2026-05-03T08:44:58Z</time></trkpt><trkpt lat="45.70959673709133" lon="9.800762046616356"><ele>373.6</ele><time>2026-05-03T08:44:59Z</time></trkpt><trkpt lat="45.70964591206735" lon="9.800894478123174"><ele>376.20000000000005</ele><time>2026-05-03T08:45:00Z</time></trkpt><trkpt lat="45.709694375851974" lon="9.801026310803453"><ele>378.79999999999995</ele><time>2026-05-03T08:45:01Z</time></trkpt><trkpt lat="45.70974249960477" lon="9.801156987292039"><ele>381.4</ele><time>2026-05-03T08:45:02Z</time></trkpt><trkpt lat="45.70978091888027" lon="9.801294755540887"><ele>384.0</ele><time>2026-05-03T08:45:03Z</time></trkpt><trkpt lat="45.709811402711594" lon="9.801439356620845"><ele>384.0</ele><time>2026-05-03T08:45:04Z</time></trkpt><trkpt lat="45.70981623848959" lon="9.801592035179219"><ele>384.0</ele><time>2026-05-03T08:45:05Z</time></trkpt><trkpt lat="45.709804711578705" lon="9.801743128950156"><ele>384.0</ele><time>2026-05-03T08:45:06Z</time></trkpt><trkpt lat="45.7097745066924" lon="9.801898329652435"><ele>384.0</ele><time>2026-05-03T08:45:07Z</time></trkpt><trkpt lat="45.70973753787163" lon="9.80205422162768"><ele>384.0</ele><time>2026-05-03T08:45:08Z</time></trkpt><trkpt lat="45.709698386222506" lon="9.802208024580027"><ele>384.0</ele><time>2026-05-03T08:45:09Z</time></trkpt><trkpt lat="45.709655884787296" lon="9.802362825481763"><ele>384.0</ele><time>2026-05-03T08:45:10Z</time></trkpt><trkpt lat="45.709610992189" lon="9.80251581248499"><ele>384.0</ele><time>2026-05-03T08:45:11Z</time></trkpt><trkpt lat="45.7095628746878" lon="9.8026664781547"><ele>384.0</ele><time>2026-05-03T08:45:12Z</time></trkpt><trkpt lat="45.70951344158657" lon="9.802810652497186"><ele>384.2</ele><time>2026-05-03T08:45:13Z</time></trkpt><trkpt lat="45.709462588827215" lon="9.802953310543732"><ele>384.4</ele><time>2026-05-03T08:45:14Z</time></trkpt><trkpt lat="45.709420697529936" lon="9.803064087478486"><ele>384.6</ele><time>2026-05-03T08:45:15Z</time></trkpt><trkpt lat="45.70938934774372" lon="9.803166084587483"><ele>384.8</ele><time>2026-05-03T08:45:16Z</time></trkpt><trkpt lat="45.70934660855351" lon="9.803277487403149"><ele>385.0</ele><time>2026-05-03T08:45:17Z</time></trkpt><trkpt lat="45.7092945257088" lon="9.803385081210763"><ele>381.6</ele><time>2026-05-03T08:45:18Z</time></trkpt><trkpt lat="45.70922538465534" lon="9.803480839638365"><ele>378.2</ele><time>2026-05-03T08:45:19Z</time></trkpt><trkpt lat="45.70913854154164" lon="9.803567216292116"><ele>374.79999999999995</ele><time>2026-05-03T08:45:20Z</time></trkpt><trkpt lat="45.70904993803109" lon="9.803653299520999"><ele>371.4</ele><time>2026-05-03T08:45:21Z</time></trkpt><trkpt lat="45.70896436114794" lon="9.803750709551657"><ele>368.0</ele><time>2026-05-03T08:45:22Z</time></trkpt><trkpt lat="45.70888726824407" lon="9.803861478409562"><ele>368.0</ele><time>2026-05-03T08:45:23Z</time></trkpt><trkpt lat="45.70881450121211" lon="9.803980802766693"><ele>368.0</ele><time>2026-05-03T08:45:24Z</time></trkpt><trkpt lat="45.70875627431925" lon="9.804105024889907"><ele>368.0</ele><time>2026-05-03T08:45:25Z</time></trkpt><trkpt lat="45.70871982212394" lon="9.804238488817012"><ele>368.0</ele><time>2026-05-03T08:45:26Z</time></trkpt><trkpt lat="45.70870730279249" lon="9.804372677923691"><ele>368.0</ele><time>2026-05-03T08:45:27Z</time></trkpt><trkpt lat="45.70872581016868" lon="9.804505282611393"><ele>367.4</ele><time>2026-05-03T08:45:28Z</time></trkpt><trkpt lat="45.70876542782078" lon="9.80463389427209"><ele>366.79999999999995</ele><time>2026-05-03T08:45:29Z</time></trkpt><trkpt lat="45.708803134611614" lon="9.804757483064881"><ele>366.2</ele><time>2026-05-03T08:45:30Z</time></trkpt><trkpt lat="45.708834436822954" lon="9.804890427433266"><ele>365.6</ele><time>2026-05-03T08:45:31Z</time></trkpt><trkpt lat="45.70886267584422" lon="9.805027457322593"><ele>365.0</ele><time>2026-05-03T08:45:32Z</time></trkpt><trkpt lat="45.70888301725393" lon="9.805167005087927"><ele>363.6</ele><time>2026-05-03T08:45:33Z</time></trkpt><trkpt lat="45.70889508235865" lon="9.805306997844543"><ele>362.2</ele><time>2026-05-03T08:45:34Z</time></trkpt><trkpt lat="45.70890101097592" lon="9.805447024639975"><ele>360.79999999999995</ele><time>2026-05-03T08:45:35Z</time></trkpt><trkpt lat="45.70890994214092" lon="9.80558809725019"><ele>359.4</ele><time>2026-05-03T08:45:36Z</time></trkpt><trkpt lat="45.708917451310604" lon="9.80572830804221"><ele>358.0</ele><time>2026-05-03T08:45:37Z</time></trkpt><trkpt lat="45.708926533488366" lon="9.805867606855404"><ele>357.0</ele><time>2026-05-03T08:45:38Z</time></trkpt><trkpt lat="45.708937944895204" lon="9.806007212636578"><ele>356.0</ele><time>2026-05-03T08:45:39Z</time></trkpt><trkpt lat="45.70895090460269" lon="9.806143796633043"><ele>355.0</ele><time>2026-05-03T08:45:40Z</time></trkpt><trkpt lat="45.70898102400587" lon="9.806278803589173"><ele>354.0</ele><time>2026-05-03T08:45:41Z</time></trkpt><trkpt lat="45.709022751956745" lon="9.806403832094695"><ele>353.0</ele><time>2026-05-03T08:45:42Z</time></trkpt><trkpt lat="45.709046002282555" lon="9.8065439285325"><ele>353.0</ele><time>2026-05-03T08:45:43Z</time></trkpt><trkpt lat="45.709051098848974" lon="9.806695337851904"><ele>353.0</ele><time>2026-05-03T08:45:44Z</time></trkpt><trkpt lat="45.70903312843426" lon="9.806843831760164"><ele>353.0</ele><time>2026-05-03T08:45:45Z</time></trkpt><trkpt lat="45.70899221409877" lon="9.806986609140466"><ele>353.0</ele><time>2026-05-03T08:45:46Z</time></trkpt><trkpt lat="45.70892661826148" lon="9.807111393877705"><ele>353.0</ele><time>2026-05-03T08:45:47Z</time></trkpt><trkpt lat="45.70884818838529" lon="9.807217901283716"><ele>353.0</ele><time>2026-05-03T08:45:48Z</time></trkpt><trkpt lat="45.70876460639142" lon="9.80731066844893"><ele>353.0</ele><time>2026-05-03T08:45:49Z</time></trkpt><trkpt lat="45.708681493328314" lon="9.807405019405248"><ele>353.0</ele><time>2026-05-03T08:45:50Z</time></trkpt><trkpt lat="45.70859756429765" lon="9.807495844022455"><ele>353.0</ele><time>2026-05-03T08:45:51Z</time></trkpt><trkpt lat="45.70850841986668" lon="9.807587675045015"><ele>353.0</ele><time>2026-05-03T08:45:52Z</time></trkpt><trkpt lat="45.708420619789564" lon="9.807680190266517"><ele>352.25</ele><time>2026-05-03T08:45:53Z</time></trkpt><trkpt lat="45.70832593297755" lon="9.807762246386721"><ele>351.5</ele><time>2026-05-03T08:45:54Z</time></trkpt><trkpt lat="45.70822219855583" lon="9.807833984511074"><ele>350.75</ele><time>2026-05-03T08:45:55Z</time></trkpt><trkpt lat="45.7081143551722" lon="9.80790017539987"><ele>350.0</ele><time>2026-05-03T08:45:56Z</time></trkpt><trkpt lat="45.708006560593674" lon="9.807970150551657"><ele>350.0</ele><time>2026-05-03T08:45:57Z</time></trkpt><trkpt lat="45.707897976637355" lon="9.808047425291864"><ele>350.0</ele><time>2026-05-03T08:45:58Z</time></trkpt><trkpt lat="45.70779016779114" lon="9.80813082857229"><ele>350.0</ele><time>2026-05-03T08:45:59Z</time></trkpt><trkpt lat="45.70768711791837" lon="9.80822110092997"><ele>350.0</ele><time>2026-05-03T08:46:00Z</time></trkpt><trkpt lat="45.7075891410153" lon="9.808318524848318"><ele>348.75</ele><time>2026-05-03T08:46:01Z</time></trkpt><trkpt lat="45.70748417096765" lon="9.80840432668479"><ele>347.5</ele><time>2026-05-03T08:46:02Z</time></trkpt><trkpt lat="45.707385855795906" lon="9.808491553726242"><ele>346.25</ele><time>2026-05-03T08:46:03Z</time></trkpt><trkpt lat="45.70728728452885" lon="9.80857223854318"><ele>345.0</ele><time>2026-05-03T08:46:04Z</time></trkpt><trkpt lat="45.707186924794065" lon="9.808639374129827"><ele>345.0</ele><time>2026-05-03T08:46:05Z</time></trkpt><trkpt lat="45.70709519209193" lon="9.808717439860702"><ele>345.0</ele><time>2026-05-03T08:46:06Z</time></trkpt><trkpt lat="45.707014285070045" lon="9.80881644914567"><ele>345.0</ele><time>2026-05-03T08:46:07Z</time></trkpt><trkpt lat="45.706952983879475" lon="9.808938632973938"><ele>345.0</ele><time>2026-05-03T08:46:08Z</time></trkpt><trkpt lat="45.70691188664419" lon="9.809079475723697"><ele>345.0</ele><time>2026-05-03T08:46:09Z</time></trkpt><trkpt lat="45.706873863966784" lon="9.809225555792791"><ele>342.4</ele><time>2026-05-03T08:46:10Z</time></trkpt><trkpt lat="45.70683009292912" lon="9.809368098587909"><ele>339.8</ele><time>2026-05-03T08:46:11Z</time></trkpt><trkpt lat="45.70677736398126" lon="9.809506216201328"><ele>337.20000000000005</ele><time>2026-05-03T08:46:12Z</time></trkpt><trkpt lat="45.706714897830736" lon="9.809629153697752"><ele>334.6</ele><time>2026-05-03T08:46:13Z</time></trkpt><trkpt lat="45.706651878541884" lon="9.809755664636773"><ele>332.0</ele><time>2026-05-03T08:46:14Z</time></trkpt><trkpt lat="45.70659024621312" lon="9.80987936994511"><ele>332.0</ele><time>2026-05-03T08:46:15Z</time></trkpt><trkpt lat="45.70652674987277" lon="9.809998073486774"><ele>332.0</ele><time>2026-05-03T08:46:16Z</time></trkpt><trkpt lat="45.706452844617225" lon="9.810105347474511"><ele>332.0</ele><time>2026-05-03T08:46:17Z</time></trkpt><trkpt lat="45.706363122205694" lon="9.81018374567439"><ele>332.0</ele><time>2026-05-03T08:46:18Z</time></trkpt><trkpt lat="45.70627821840642" lon="9.810261669061957"><ele>332.0</ele><time>2026-05-03T08:46:19Z</time></trkpt><trkpt lat="45.706196933716804" lon="9.810343752207956"><ele>330.0</ele><time>2026-05-03T08:46:20Z</time></trkpt><trkpt lat="45.70611512486518" lon="9.81042910344885"><ele>328.0</ele><time>2026-05-03T08:46:21Z</time></trkpt><trkpt lat="45.70604101554501" lon="9.810525637966624"><ele>326.0</ele><time>2026-05-03T08:46:22Z</time></trkpt><trkpt lat="45.70597793140037" lon="9.810640054498736"><ele>324.0</ele><time>2026-05-03T08:46:23Z</time></trkpt><trkpt lat="45.705933805480264" lon="9.810766403304788"><ele>322.0</ele><time>2026-05-03T08:46:24Z</time></trkpt><trkpt lat="45.705904022097606" lon="9.810898082291347"><ele>323.40000000000003</ele><time>2026-05-03T08:46:25Z</time></trkpt><trkpt lat="45.7058812851342" lon="9.81102455007891"><ele>324.8</ele><time>2026-05-03T08:46:26Z</time></trkpt><trkpt lat="45.70585686087028" lon="9.811154837818215"><ele>326.2</ele><time>2026-05-03T08:46:27Z</time></trkpt><trkpt lat="45.705831225290495" lon="9.81127978279585"><ele>327.6</ele><time>2026-05-03T08:46:28Z</time></trkpt><trkpt lat="45.70580962903825" lon="9.811406390784644"><ele>329.0</ele><time>2026-05-03T08:46:29Z</time></trkpt><trkpt lat="45.705780193958894" lon="9.811529879005308"><ele>329.0</ele><time>2026-05-03T08:46:30Z</time></trkpt><trkpt lat="45.70575027854721" lon="9.81164913750885"><ele>329.0</ele><time>2026-05-03T08:46:31Z</time></trkpt><trkpt lat="45.705726508994616" lon="9.811766803898928"><ele>329.0</ele><time>2026-05-03T08:46:32Z</time></trkpt><trkpt lat="45.705696615036096" lon="9.811855124692277"><ele>329.0</ele><time>2026-05-03T08:46:33Z</time></trkpt><trkpt lat="45.70557401348017" lon="9.811864251169963"><ele>329.0</ele><time>2026-05-03T08:46:35Z</time></trkpt><trkpt lat="45.70550764557414" lon="9.811810833702415"><ele>329.0</ele><time>2026-05-03T08:46:36Z</time></trkpt><trkpt lat="45.70545009628968" lon="9.811762461780368"><ele>329.0</ele><time>2026-05-03T08:46:37Z</time></trkpt><trkpt lat="45.705374895678" lon="9.811711025061268"><ele>329.0</ele><time>2026-05-03T08:46:38Z</time></trkpt><trkpt lat="45.705300935385914" lon="9.811670850508026"><ele>329.0</ele><time>2026-05-03T08:46:39Z</time></trkpt><trkpt lat="45.705216328803935" lon="9.811627630137513"><ele>329.0</ele><time>2026-05-03T08:46:40Z</time></trkpt><trkpt lat="45.70512812893505" lon="9.811583746367777"><ele>329.0</ele><time>2026-05-03T08:46:41Z</time></trkpt><trkpt lat="45.70504334701521" lon="9.811525860079941"><ele>329.0</ele><time>2026-05-03T08:46:42Z</time></trkpt><trkpt lat="45.70495756383607" lon="9.811449654305859"><ele>326.8</ele><time>2026-05-03T08:46:43Z</time></trkpt><trkpt lat="45.704868074229175" lon="9.811374516302871"><ele>324.59999999999997</ele><time>2026-05-03T08:46:44Z</time></trkpt><trkpt lat="45.704777132990934" lon="9.811303468922526"><ele>322.4</ele><time>2026-05-03T08:46:45Z</time></trkpt><trkpt lat="45.704691532292905" lon="9.811262295552469"><ele>320.2</ele><time>2026-05-03T08:46:46Z</time></trkpt><trkpt lat="45.704604547031614" lon="9.811279423110372"><ele>318.0</ele><time>2026-05-03T08:46:47Z</time></trkpt><trkpt lat="45.70452034178484" lon="9.811336296412385"><ele>318.0</ele><time>2026-05-03T08:46:48Z</time></trkpt><trkpt lat="45.70444778862061" lon="9.811426688751222"><ele>318.0</ele><time>2026-05-03T08:46:49Z</time></trkpt><trkpt lat="45.70438673058459" lon="9.811527571829904"><ele>318.0</ele><time>2026-05-03T08:46:50Z</time></trkpt><trkpt lat="45.704330719015765" lon="9.811631897427644"><ele>318.0</ele><time>2026-05-03T08:46:51Z</time></trkpt><trkpt lat="45.70427204704048" lon="9.811738476627601"><ele>318.0</ele><time>2026-05-03T08:46:52Z</time></trkpt><trkpt lat="45.70420583826758" lon="9.811828913598902"><ele>319.8333333333333</ele><time>2026-05-03T08:46:53Z</time></trkpt><trkpt lat="45.70412688094865" lon="9.811882094536745"><ele>321.6666666666667</ele><time>2026-05-03T08:46:54Z</time></trkpt><trkpt lat="45.704032169142714" lon="9.8118989637246"><ele>323.5</ele><time>2026-05-03T08:46:55Z</time></trkpt><trkpt lat="45.70394658025106" lon="9.811908059101807"><ele>325.33333333333337</ele><time>2026-05-03T08:46:56Z</time></trkpt><trkpt lat="45.703866577049325" lon="9.811933302509672"><ele>327.1666666666667</ele><time>2026-05-03T08:46:57Z</time></trkpt><trkpt lat="45.70378314142593" lon="9.811960757214345"><ele>329.0</ele><time>2026-05-03T08:46:58Z</time></trkpt><trkpt lat="45.703696888298886" lon="9.811985717247058"><ele>329.0</ele><time>2026-05-03T08:46:59Z</time></trkpt><trkpt lat="45.70360619387943" lon="9.81200183949867"><ele>329.0</ele><time>2026-05-03T08:47:00Z</time></trkpt><trkpt lat="45.70351286499265" lon="9.8120073700066"><ele>329.0</ele><time>2026-05-03T08:47:01Z</time></trkpt><trkpt lat="45.703422404359664" lon="9.812014425272373"><ele>329.0</ele><time>2026-05-03T08:47:02Z</time></trkpt><trkpt lat="45.70333735726076" lon="9.812037868190759"><ele>329.0</ele><time>2026-05-03T08:47:03Z</time></trkpt><trkpt lat="45.70323285101353" lon="9.81206845531433"><ele>326.59999999999997</ele><time>2026-05-03T08:47:04Z</time></trkpt><trkpt lat="45.70313425401893" lon="9.812053577184807"><ele>324.2</ele><time>2026-05-03T08:47:05Z</time></trkpt><trkpt lat="45.70303144867243" lon="9.812059625539113"><ele>321.79999999999995</ele><time>2026-05-03T08:47:06Z</time></trkpt><trkpt lat="45.7029285822965" lon="9.812043135189798"><ele>319.4</ele><time>2026-05-03T08:47:07Z</time></trkpt><trkpt lat="45.70283078929619" lon="9.812003060971227"><ele>317.0</ele><time>2026-05-03T08:47:08Z</time></trkpt><trkpt lat="45.70273834887444" lon="9.811936319317393"><ele>314.2</ele><time>2026-05-03T08:47:09Z</time></trkpt><trkpt lat="45.70265572680952" lon="9.811860235444009"><ele>311.4</ele><time>2026-05-03T08:47:10Z</time></trkpt><trkpt lat="45.702586980907604" lon="9.811770924033583"><ele>308.6</ele><time>2026-05-03T08:47:11Z</time></trkpt><trkpt lat="45.702509455444996" lon="9.811717964539113"><ele>305.8</ele><time>2026-05-03T08:47:12Z</time></trkpt><trkpt lat="45.702420882613424" lon="9.811727699941466"><ele>303.0</ele><time>2026-05-03T08:47:13Z</time></trkpt><trkpt lat="45.70234009204505" lon="9.811793738044956"><ele>303.0</ele><time>2026-05-03T08:47:14Z</time></trkpt><trkpt lat="45.7022713651586" lon="9.811881014125865"><ele>303.0</ele><time>2026-05-03T08:47:15Z</time></trkpt><trkpt lat="45.702207890489326" lon="9.811962688071123"><ele>303.0</ele><time>2026-05-03T08:47:16Z</time></trkpt><trkpt lat="45.70214884261023" lon="9.812047723672931"><ele>303.0</ele><time>2026-05-03T08:47:17Z</time></trkpt><trkpt lat="45.70211824276266" lon="9.812159277477313"><ele>303.0</ele><time>2026-05-03T08:47:18Z</time></trkpt><trkpt lat="45.70209168945685" lon="9.81226819627517"><ele>303.0</ele><time>2026-05-03T08:47:19Z</time></trkpt><trkpt lat="45.70207651955254" lon="9.812387486712147"><ele>303.0</ele><time>2026-05-03T08:47:20Z</time></trkpt><trkpt lat="45.70205928455449" lon="9.812507272331908"><ele>303.0</ele><time>2026-05-03T08:47:21Z</time></trkpt><trkpt lat="45.702058346598044" lon="9.812636799105666"><ele>303.0</ele><time>2026-05-03T08:47:22Z</time></trkpt><trkpt lat="45.70207339146039" lon="9.812771611766129"><ele>303.0</ele><time>2026-05-03T08:47:23Z</time></trkpt><trkpt lat="45.70209027486196" lon="9.812909192518084"><ele>303.0</ele><time>2026-05-03T08:47:24Z</time></trkpt><trkpt lat="45.70211110062836" lon="9.813053585822093"><ele>302.0</ele><time>2026-05-03T08:47:25Z</time></trkpt><trkpt lat="45.702131976498066" lon="9.81320512715823"><ele>301.0</ele><time>2026-05-03T08:47:26Z</time></trkpt><trkpt lat="45.702162094114485" lon="9.813362811742346"><ele>300.0</ele><time>2026-05-03T08:47:27Z</time></trkpt><trkpt lat="45.702190904781766" lon="9.81352322298817"><ele>299.0</ele><time>2026-05-03T08:47:28Z</time></trkpt><trkpt lat="45.702217812856745" lon="9.813686414051265"><ele>299.59999999999997</ele><time>2026-05-03T08:47:29Z</time></trkpt><trkpt lat="45.70223969060504" lon="9.813846462121957"><ele>300.2</ele><time>2026-05-03T08:47:30Z</time></trkpt><trkpt lat="45.70226427403503" lon="9.813994215541786"><ele>300.79999999999995</ele><time>2026-05-03T08:47:31Z</time></trkpt><trkpt lat="45.702271160744544" lon="9.814127800003767"><ele>301.4</ele><time>2026-05-03T08:47:32Z</time></trkpt><trkpt lat="45.70225868637101" lon="9.814254023677059"><ele>302.0</ele><time>2026-05-03T08:47:33Z</time></trkpt><trkpt lat="45.70220488469561" lon="9.81436924846811"><ele>302.0</ele><time>2026-05-03T08:47:34Z</time></trkpt><trkpt lat="45.70212239580103" lon="9.814442316991109"><ele>302.0</ele><time>2026-05-03T08:47:35Z</time></trkpt><trkpt lat="45.702038200666365" lon="9.81450320732121"><ele>302.0</ele><time>2026-05-03T08:47:36Z</time></trkpt><trkpt lat="45.70195367718264" lon="9.814571859716725"><ele>302.0</ele><time>2026-05-03T08:47:37Z</time></trkpt><trkpt lat="45.701865186289524" lon="9.814642912229003"><ele>302.0</ele><time>2026-05-03T08:47:38Z</time></trkpt><trkpt lat="45.701775254740376" lon="9.814708303569038"><ele>298.4</ele><time>2026-05-03T08:47:39Z</time></trkpt><trkpt lat="45.70167834033748" lon="9.814745375338598"><ele>294.79999999999995</ele><time>2026-05-03T08:47:40Z</time></trkpt><trkpt lat="45.701585712523915" lon="9.814777858201417"><ele>291.2</ele><time>2026-05-03T08:47:41Z</time></trkpt><trkpt lat="45.70149584014182" lon="9.814803884198456"><ele>287.59999999999997</ele><time>2026-05-03T08:47:42Z</time></trkpt><trkpt lat="45.701412364641335" lon="9.814836387067546"><ele>284.0</ele><time>2026-05-03T08:47:43Z</time></trkpt><trkpt lat="45.70133438023788" lon="9.81486620431621"><ele>284.0</ele><time>2026-05-03T08:47:44Z</time></trkpt><trkpt lat="45.70126036021835" lon="9.814904425505027"><ele>284.0</ele><time>2026-05-03T08:47:45Z</time></trkpt><trkpt lat="45.70119213630753" lon="9.814945075608126"><ele>284.0</ele><time>2026-05-03T08:47:46Z</time></trkpt><trkpt lat="45.70112645120613" lon="9.814985080775491"><ele>284.0</ele><time>2026-05-03T08:47:47Z</time></trkpt><trkpt lat="45.7010668024812" lon="9.815029184406951"><ele>284.0</ele><time>2026-05-03T08:47:48Z</time></trkpt><trkpt lat="45.70095006971586" lon="9.815099300651598"><ele>284.0</ele><time>2026-05-03T08:47:50Z</time></trkpt><trkpt lat="45.700840058695256" lon="9.815183540754083"><ele>288.25</ele><time>2026-05-03T08:47:52Z</time></trkpt><trkpt lat="45.70073133183759" lon="9.815263673547735"><ele>292.5</ele><time>2026-05-03T08:47:54Z</time></trkpt><trkpt lat="45.70062658961063" lon="9.815359653647038"><ele>296.75</ele><time>2026-05-03T08:47:56Z</time></trkpt><trkpt lat="45.700527338904486" lon="9.815461705803218"><ele>301.0</ele><time>2026-05-03T08:47:58Z</time></trkpt><trkpt lat="45.700433154898654" lon="9.815573307443007"><ele>301.0</ele><time>2026-05-03T08:48:00Z</time></trkpt><trkpt lat="45.700338716893405" lon="9.815685510275564"><ele>301.0</ele><time>2026-05-03T08:48:02Z</time></trkpt><trkpt lat="45.7002413444853" lon="9.81579525544206"><ele>301.0</ele><time>2026-05-03T08:48:04Z</time></trkpt><trkpt lat="45.70015392336495" lon="9.815916375370263"><ele>301.0</ele><time>2026-05-03T08:48:06Z</time></trkpt><trkpt lat="45.70008351863236" lon="9.816064003602602"><ele>298.3333333333333</ele><time>2026-05-03T08:48:08Z</time></trkpt><trkpt lat="45.70005941247932" lon="9.816152841494123"><ele>295.66666666666663</ele><time>2026-05-03T08:48:09Z</time></trkpt><trkpt lat="45.700041147062755" lon="9.816242381122459"><ele>293.0</ele><time>2026-05-03T08:48:10Z</time></trkpt><trkpt lat="45.7000315195188" lon="9.816333702554562"><ele>290.3333333333333</ele><time>2026-05-03T08:48:11Z</time></trkpt><trkpt lat="45.70003079904587" lon="9.816511089447042"><ele>287.6666666666667</ele><time>2026-05-03T08:48:13Z</time></trkpt><trkpt lat="45.700045171544566" lon="9.816683587980865"><ele>285.0</ele><time>2026-05-03T08:48:15Z</time></trkpt><trkpt lat="45.7000473769485" lon="9.816862571803359"><ele>284.5</ele><time>2026-05-03T08:48:17Z</time></trkpt><trkpt lat="45.70001028704905" lon="9.817030606745389"><ele>284.0</ele><time>2026-05-03T08:48:19Z</time></trkpt><trkpt lat="45.69998972676034" lon="9.817123296213456"><ele>283.5</ele><time>2026-05-03T08:48:20Z</time></trkpt><trkpt lat="45.69996657808308" lon="9.817222214694166"><ele>283.0</ele><time>2026-05-03T08:48:21Z</time></trkpt><trkpt lat="45.69994341533144" lon="9.817328641227542"><ele>282.5</ele><time>2026-05-03T08:48:22Z</time></trkpt><trkpt lat="45.69992302609166" lon="9.817441826895726"><ele>282.0</ele><time>2026-05-03T08:48:23Z</time></trkpt><trkpt lat="45.69990267216407" lon="9.817549552961621"><ele>282.0</ele><time>2026-05-03T08:48:24Z</time></trkpt><trkpt lat="45.699884133602815" lon="9.817675848456641"><ele>282.0</ele><time>2026-05-03T08:48:25Z</time></trkpt><trkpt lat="45.69986497688687" lon="9.817803646275781"><ele>282.0</ele><time>2026-05-03T08:48:26Z</time></trkpt><trkpt lat="45.69983895014992" lon="9.817925762447208"><ele>282.0</ele><time>2026-05-03T08:48:27Z</time></trkpt><trkpt lat="45.69980811427679" lon="9.818052550237569"><ele>282.0</ele><time>2026-05-03T08:48:28Z</time></trkpt><trkpt lat="45.69977022525227" lon="9.818182920146947"><ele>282.0</ele><time>2026-05-03T08:48:29Z</time></trkpt><trkpt lat="45.699729910304775" lon="9.818314630001089"><ele>282.0</ele><time>2026-05-03T08:48:30Z</time></trkpt><trkpt lat="45.699679328186726" lon="9.818440507564324"><ele>282.0</ele><time>2026-05-03T08:48:31Z</time></trkpt><trkpt lat="45.699622599058465" lon="9.818565254931434"><ele>282.0</ele><time>2026-05-03T08:48:32Z</time></trkpt><trkpt lat="45.699565829757795" lon="9.81868914216109"><ele>282.0</ele><time>2026-05-03T08:48:33Z</time></trkpt><trkpt lat="45.699522505179424" lon="9.818827381425907"><ele>281.6</ele><time>2026-05-03T08:48:34Z</time></trkpt><trkpt lat="45.69949468595279" lon="9.818971868188614"><ele>281.2</ele><time>2026-05-03T08:48:35Z</time></trkpt><trkpt lat="45.69947195765717" lon="9.81911961622588"><ele>280.8</ele><time>2026-05-03T08:48:36Z</time></trkpt><trkpt lat="45.69945968058553" lon="9.819279213810798"><ele>280.4</ele><time>2026-05-03T08:48:37Z</time></trkpt><trkpt lat="45.69944884136906" lon="9.819439750196095"><ele>280.0</ele><time>2026-05-03T08:48:38Z</time></trkpt><trkpt lat="45.69943359338687" lon="9.81960416875962"><ele>279.2</ele><time>2026-05-03T08:48:39Z</time></trkpt><trkpt lat="45.69941799548125" lon="9.81976950452858"><ele>278.4</ele><time>2026-05-03T08:48:40Z</time></trkpt><trkpt lat="45.69940619177275" lon="9.819931946617025"><ele>277.6</ele><time>2026-05-03T08:48:41Z</time></trkpt><trkpt lat="45.699392539513795" lon="9.820086076475166"><ele>276.8</ele><time>2026-05-03T08:48:42Z</time></trkpt><trkpt lat="45.699378341938115" lon="9.820215295228339"><ele>276.0</ele><time>2026-05-03T08:48:43Z</time></trkpt><trkpt lat="45.69936234006181" lon="9.8203244089275"><ele>274.1666666666667</ele><time>2026-05-03T08:48:44Z</time></trkpt><trkpt lat="45.69932963103398" lon="9.82043846022782"><ele>272.3333333333333</ele><time>2026-05-03T08:48:45Z</time></trkpt><trkpt lat="45.6992973990267" lon="9.820552393979431"><ele>270.5</ele><time>2026-05-03T08:48:46Z</time></trkpt><trkpt lat="45.69930037662634" lon="9.82067536769569"><ele>268.66666666666663</ele><time>2026-05-03T08:48:47Z</time></trkpt><trkpt lat="45.69932057732159" lon="9.820796829373503"><ele>266.8333333333333</ele><time>2026-05-03T08:48:48Z</time></trkpt><trkpt lat="45.69933143353647" lon="9.82091859468048"><ele>265.0</ele><time>2026-05-03T08:48:49Z</time></trkpt><trkpt lat="45.69931983732612" lon="9.821042095507662"><ele>264.66666666666663</ele><time>2026-05-03T08:48:50Z</time></trkpt><trkpt lat="45.69929330544382" lon="9.821158949508494"><ele>264.3333333333333</ele><time>2026-05-03T08:48:51Z</time></trkpt><trkpt lat="45.699269880345966" lon="9.821279838477441"><ele>264.0</ele><time>2026-05-03T08:48:52Z</time></trkpt><trkpt lat="45.699246794524" lon="9.821401726247574"><ele>263.6666666666667</ele><time>2026-05-03T08:48:53Z</time></trkpt><trkpt lat="45.699224651871305" lon="9.821521689320113"><ele>263.33333333333337</ele><time>2026-05-03T08:48:54Z</time></trkpt><trkpt lat="45.699203784446894" lon="9.821646543516431"><ele>263.0</ele><time>2026-05-03T08:48:55Z</time></trkpt><trkpt lat="45.69918758026736" lon="9.821771081715346"><ele>263.0</ele><time>2026-05-03T08:48:56Z</time></trkpt><trkpt lat="45.69917709120893" lon="9.821887819328277"><ele>263.0</ele><time>2026-05-03T08:48:57Z</time></trkpt><trkpt lat="45.699158264969995" lon="9.821980233882673"><ele>263.0</ele><time>2026-05-03T08:48:58Z</time></trkpt><trkpt lat="45.69907840830643" lon="9.822072443266569"><ele>263.0</ele><time>2026-05-03T08:49:00Z</time></trkpt><trkpt lat="45.69900853507546" lon="9.822082307437137"><ele>263.0</ele><time>2026-05-03T08:49:01Z</time></trkpt><trkpt lat="45.698936904946535" lon="9.82208453271212"><ele>263.0</ele><time>2026-05-03T08:49:02Z</time></trkpt><trkpt lat="45.69886532444045" lon="9.822102237374756"><ele>263.0</ele><time>2026-05-03T08:49:03Z</time></trkpt><trkpt lat="45.69879117108952" lon="9.822104378942523"><ele>263.0</ele><time>2026-05-03T08:49:04Z</time></trkpt><trkpt lat="45.69874056343895" lon="9.822167698452683"><ele>263.0</ele><time>2026-05-03T08:49:05Z</time></trkpt><trkpt lat="45.698677243969264" lon="9.82219429204984"><ele>263.0</ele><time>2026-05-03T08:49:06Z</time></trkpt><trkpt lat="45.698613793155864" lon="9.822225979625026"><ele>263.0</ele><time>2026-05-03T08:49:07Z</time></trkpt><trkpt lat="45.69856337616056" lon="9.82230237380088"><ele>263.0</ele><time>2026-05-03T08:49:08Z</time></trkpt><trkpt lat="45.69854684158886" lon="9.822405286150131"><ele>263.0</ele><time>2026-05-03T08:49:09Z</time></trkpt><trkpt lat="45.69854541238198" lon="9.822499454113942"><ele>263.1666666666667</ele><time>2026-05-03T08:49:10Z</time></trkpt><trkpt lat="45.69854006409926" lon="9.822595312970451"><ele>263.33333333333337</ele><time>2026-05-03T08:49:11Z</time></trkpt><trkpt lat="45.69853266053232" lon="9.822691835447554"><ele>263.5</ele><time>2026-05-03T08:49:12Z</time></trkpt><trkpt lat="45.69852645290289" lon="9.82278238197617"><ele>263.6666666666667</ele><time>2026-05-03T08:49:13Z</time></trkpt><trkpt lat="45.69852581884113" lon="9.822875816561995"><ele>263.8333333333333</ele><time>2026-05-03T08:49:14Z</time></trkpt><trkpt lat="45.698537867631885" lon="9.823054817930242"><ele>264.0</ele><time>2026-05-03T08:49:16Z</time></trkpt><trkpt lat="45.69853203216861" lon="9.823146218192276"><ele>264.0</ele><time>2026-05-03T08:49:17Z</time></trkpt><trkpt lat="45.69853514095255" lon="9.823236567375165"><ele>264.0</ele><time>2026-05-03T08:49:18Z</time></trkpt><trkpt lat="45.69851166853449" lon="9.823405373078883"><ele>264.0</ele><time>2026-05-03T08:49:20Z</time></trkpt><trkpt lat="45.6984882423331" lon="9.823566343061092"><ele>264.0</ele><time>2026-05-03T08:49:22Z</time></trkpt><trkpt lat="45.69846771790163" lon="9.823696798725635"><ele>264.0</ele><time>2026-05-03T08:49:24Z</time></trkpt><trkpt lat="45.69839667983625" lon="9.823810162380886"><ele>264.0</ele><time>2026-05-03T08:49:26Z</time></trkpt><trkpt lat="45.69834931290346" lon="9.82387253814373"><ele>264.0</ele><time>2026-05-03T08:49:27Z</time></trkpt><trkpt lat="45.698309306757395" lon="9.823945309933135"><ele>264.0</ele><time>2026-05-03T08:49:28Z</time></trkpt><trkpt lat="45.69829176219389" lon="9.824045328498823"><ele>264.0</ele><time>2026-05-03T08:49:29Z</time></trkpt><trkpt lat="45.6982851976882" lon="9.82423123693448"><ele>264.0</ele><time>2026-05-03T08:49:31Z</time></trkpt><trkpt lat="45.698278079119135" lon="9.824325814539801"><ele>264.0</ele><time>2026-05-03T08:49:32Z</time></trkpt><trkpt lat="45.69826753757283" lon="9.824426991632507"><ele>264.0</ele><time>2026-05-03T08:49:33Z</time></trkpt><trkpt lat="45.69826255054118" lon="9.824527152785867"><ele>264.0</ele><time>2026-05-03T08:49:34Z</time></trkpt><trkpt lat="45.698270265073646" lon="9.824620497903737"><ele>264.0</ele><time>2026-05-03T08:49:35Z</time></trkpt><trkpt lat="45.69827237008519" lon="9.82471060906533"><ele>264.0</ele><time>2026-05-03T08:49:36Z</time></trkpt><trkpt lat="45.698274640225286" lon="9.824802166235763"><ele>264.0</ele><time>2026-05-03T08:49:37Z</time></trkpt><trkpt lat="45.69827206670179" lon="9.824894010343616"><ele>264.0</ele><time>2026-05-03T08:49:38Z</time></trkpt><trkpt lat="45.69827646629594" lon="9.824988268785349"><ele>264.0</ele><time>2026-05-03T08:49:39Z</time></trkpt><trkpt lat="45.69828158360398" lon="9.825078728924899"><ele>264.2</ele><time>2026-05-03T08:49:40Z</time></trkpt><trkpt lat="45.69829530029508" lon="9.825251955989174"><ele>264.4</ele><time>2026-05-03T08:49:42Z</time></trkpt><trkpt lat="45.698301303005444" lon="9.825343201040067"><ele>264.6</ele><time>2026-05-03T08:49:43Z</time></trkpt><trkpt lat="45.69830020282919" lon="9.825436152079877"><ele>264.8</ele><time>2026-05-03T08:49:44Z</time></trkpt><trkpt lat="45.698301657981915" lon="9.825604444771159"><ele>265.0</ele><time>2026-05-03T08:49:46Z</time></trkpt><trkpt lat="45.69831454170122" lon="9.825764065167794"><ele>265.0</ele><time>2026-05-03T08:49:48Z</time></trkpt><trkpt lat="45.69831765964988" lon="9.825855036161323"><ele>265.0</ele><time>2026-05-03T08:49:49Z</time></trkpt><trkpt lat="45.69831046639681" lon="9.826038259907389"><ele>265.0</ele><time>2026-05-03T08:49:51Z</time></trkpt><trkpt lat="45.698302033015565" lon="9.826217790365567"><ele>265.0</ele><time>2026-05-03T08:49:53Z</time></trkpt><trkpt lat="45.69830194806805" lon="9.826311063632573"><ele>265.0</ele><time>2026-05-03T08:49:54Z</time></trkpt><trkpt lat="45.69829932687987" lon="9.826401158410803"><ele>265.0</ele><time>2026-05-03T08:49:55Z</time></trkpt><trkpt lat="45.69829740833409" lon="9.826492182359654"><ele>265.0</ele><time>2026-05-03T08:49:56Z</time></trkpt><trkpt lat="45.69827225381842" lon="9.826658193645939"><ele>265.0</ele><time>2026-05-03T08:49:58Z</time></trkpt><trkpt lat="45.69818256591497" lon="9.826768595969313"><ele>265.0</ele><time>2026-05-03T08:50:00Z</time></trkpt><trkpt lat="45.69812154446169" lon="9.826809079507921"><ele>265.0</ele><time>2026-05-03T08:50:01Z</time></trkpt><trkpt lat="45.69806505843514" lon="9.826858731146114"><ele>265.0</ele><time>2026-05-03T08:50:02Z</time></trkpt><trkpt lat="45.69801803444722" lon="9.826923718809551"><ele>265.0</ele><time>2026-05-03T08:50:03Z</time></trkpt><trkpt lat="45.697987231585856" lon="9.827007100727931"><ele>265.2</ele><time>2026-05-03T08:50:04Z</time></trkpt><trkpt lat="45.697980521925004" lon="9.82710428443266"><ele>265.4</ele><time>2026-05-03T08:50:05Z</time></trkpt><trkpt lat="45.697991064714444" lon="9.8272832213377"><ele>265.6</ele><time>2026-05-03T08:50:07Z</time></trkpt><trkpt lat="45.69798625255022" lon="9.82745905606453"><ele>265.8</ele><time>2026-05-03T08:50:09Z</time></trkpt><trkpt lat="45.69798632218449" lon="9.827637666878296"><ele>266.0</ele><time>2026-05-03T08:50:11Z</time></trkpt><trkpt lat="45.69798328273339" lon="9.827811079240327"><ele>266.0</ele><time>2026-05-03T08:50:13Z</time></trkpt><trkpt lat="45.69798721331438" lon="9.827983251144078"><ele>266.0</ele><time>2026-05-03T08:50:15Z</time></trkpt><trkpt lat="45.69797599279967" lon="9.828155447026303"><ele>266.0</ele><time>2026-05-03T08:50:17Z</time></trkpt><trkpt lat="45.69796139226777" lon="9.82824595072423"><ele>266.0</ele><time>2026-05-03T08:50:18Z</time></trkpt><trkpt lat="45.697950651100015" lon="9.828336570347947"><ele>266.0</ele><time>2026-05-03T08:50:19Z</time></trkpt><trkpt lat="45.69793688944533" lon="9.828427810165401"><ele>266.0</ele><time>2026-05-03T08:50:20Z</time></trkpt><trkpt lat="45.697921461557506" lon="9.828515389915417"><ele>266.33333333333337</ele><time>2026-05-03T08:50:21Z</time></trkpt><trkpt lat="45.697908641629525" lon="9.828606494358665"><ele>266.6666666666667</ele><time>2026-05-03T08:50:22Z</time></trkpt><trkpt lat="45.69789445088175" lon="9.828694421189113"><ele>267.0</ele><time>2026-05-03T08:50:23Z</time></trkpt><trkpt lat="45.69787813499126" lon="9.828786304648476"><ele>267.3333333333333</ele><time>2026-05-03T08:50:24Z</time></trkpt><trkpt lat="45.69785666782748" lon="9.828871719694613"><ele>267.66666666666663</ele><time>2026-05-03T08:50:25Z</time></trkpt><trkpt lat="45.697837177254485" lon="9.829040634180634"><ele>268.0</ele><time>2026-05-03T08:50:27Z</time></trkpt><trkpt lat="45.69781339140105" lon="9.829205590648842"><ele>268.0</ele><time>2026-05-03T08:50:29Z</time></trkpt><trkpt lat="45.69779674719327" lon="9.829295176737752"><ele>268.0</ele><time>2026-05-03T08:50:30Z</time></trkpt><trkpt lat="45.69777831972336" lon="9.829389016091202"><ele>268.0</ele><time>2026-05-03T08:50:31Z</time></trkpt><trkpt lat="45.69776616090029" lon="9.829479723610326"><ele>268.0</ele><time>2026-05-03T08:50:32Z</time></trkpt><trkpt lat="45.69775030866049" lon="9.829569357543555"><ele>268.0</ele><time>2026-05-03T08:50:33Z</time></trkpt><trkpt lat="45.697735356435594" lon="9.829658195746912"><ele>268.0</ele><time>2026-05-03T08:50:34Z</time></trkpt><trkpt lat="45.69772200579537" lon="9.829748562796286"><ele>268.0</ele><time>2026-05-03T08:50:35Z</time></trkpt><trkpt lat="45.6977083163906" lon="9.82983977434121"><ele>268.0</ele><time>2026-05-03T08:50:36Z</time></trkpt><trkpt lat="45.697683202812456" lon="9.829998764252085"><ele>268.0</ele><time>2026-05-03T08:50:38Z</time></trkpt><trkpt lat="45.697658018978636" lon="9.830149197676908"><ele>268.0</ele><time>2026-05-03T08:50:40Z</time></trkpt><trkpt lat="45.69763727593881" lon="9.830319165787017"><ele>268.0</ele><time>2026-05-03T08:50:42Z</time></trkpt><trkpt lat="45.69760272377604" lon="9.830488671279111"><ele>268.0</ele><time>2026-05-03T08:50:44Z</time></trkpt><trkpt lat="45.6975887399408" lon="9.830577506107918"><ele>268.0</ele><time>2026-05-03T08:50:45Z</time></trkpt><trkpt lat="45.6975529420429" lon="9.830745666813547"><ele>268.0</ele><time>2026-05-03T08:50:47Z</time></trkpt><trkpt lat="45.697504181427846" lon="9.830909131814284"><ele>268.0</ele><time>2026-05-03T08:50:49Z</time></trkpt><trkpt lat="45.697471492304985" lon="9.830987097695461"><ele>268.0</ele><time>2026-05-03T08:50:50Z</time></trkpt><trkpt lat="45.69739192924858" lon="9.831122712029657"><ele>268.2</ele><time>2026-05-03T08:50:52Z</time></trkpt><trkpt lat="45.697351007121526" lon="9.83119321786955"><ele>268.4</ele><time>2026-05-03T08:50:53Z</time></trkpt><trkpt lat="45.697278919446696" lon="9.831340450439084"><ele>268.59999999999997</ele><time>2026-05-03T08:50:55Z</time></trkpt><trkpt lat="45.69719593688392" lon="9.831482062102902"><ele>268.8</ele><time>2026-05-03T08:50:57Z</time></trkpt><trkpt lat="45.6971135139626" lon="9.831603179943341"><ele>269.0</ele><time>2026-05-03T08:50:59Z</time></trkpt><trkpt lat="45.697045876508554" lon="9.831727654196788"><ele>268.7142857142857</ele><time>2026-05-03T08:51:01Z</time></trkpt><trkpt lat="45.69695991144443" lon="9.831852953491115"><ele>268.42857142857144</ele><time>2026-05-03T08:51:03Z</time></trkpt><trkpt lat="45.696913482947615" lon="9.831917611742114"><ele>268.14285714285717</ele><time>2026-05-03T08:51:04Z</time></trkpt><trkpt lat="45.696869221642125" lon="9.831982428533903"><ele>267.8571428571429</ele><time>2026-05-03T08:51:05Z</time></trkpt><trkpt lat="45.69682562570579" lon="9.832048341612706"><ele>267.57142857142856</ele><time>2026-05-03T08:51:06Z</time></trkpt><trkpt lat="45.69678374498544" lon="9.832117169260206"><ele>267.28571428571433</ele><time>2026-05-03T08:51:07Z</time></trkpt><trkpt lat="45.69674130432386" lon="9.832184328288527"><ele>267.0</ele><time>2026-05-03T08:51:08Z</time></trkpt><trkpt lat="45.69670092428185" lon="9.832256136212644"><ele>267.0</ele><time>2026-05-03T08:51:09Z</time></trkpt><trkpt lat="45.696616432715246" lon="9.83239304891962"><ele>267.0</ele><time>2026-05-03T08:51:11Z</time></trkpt><trkpt lat="45.6965339713813" lon="9.832530348550494"><ele>267.0</ele><time>2026-05-03T08:51:13Z</time></trkpt><trkpt lat="45.69649556869646" lon="9.832602027491877"><ele>267.0</ele><time>2026-05-03T08:51:14Z</time></trkpt><trkpt lat="45.696452443890905" lon="9.832669902867623"><ele>267.0</ele><time>2026-05-03T08:51:15Z</time></trkpt><trkpt lat="45.69637522268537" lon="9.832811594744797"><ele>267.4</ele><time>2026-05-03T08:51:17Z</time></trkpt><trkpt lat="45.69633532159575" lon="9.832881346801233"><ele>267.79999999999995</ele><time>2026-05-03T08:51:18Z</time></trkpt><trkpt lat="45.69625659445469" lon="9.833017739918137"><ele>268.2</ele><time>2026-05-03T08:51:20Z</time></trkpt><trkpt lat="45.696177433822804" lon="9.833154600304777"><ele>268.59999999999997</ele><time>2026-05-03T08:51:22Z</time></trkpt><trkpt lat="45.69613434427183" lon="9.83322418155691"><ele>269.0</ele><time>2026-05-03T08:51:23Z</time></trkpt><trkpt lat="45.6960520376515" lon="9.833356335778417"><ele>269.0</ele><time>2026-05-03T08:51:25Z</time></trkpt><trkpt lat="45.696010764257764" lon="9.833425195021505"><ele>269.0</ele><time>2026-05-03T08:51:26Z</time></trkpt><trkpt lat="45.6959284723841" lon="9.833561502969268"><ele>269.0</ele><time>2026-05-03T08:51:28Z</time></trkpt><trkpt lat="45.69588922809044" lon="9.833632983637768"><ele>269.0</ele><time>2026-05-03T08:51:29Z</time></trkpt><trkpt lat="45.69584614524376" lon="9.833702435224156"><ele>269.0</ele><time>2026-05-03T08:51:30Z</time></trkpt><trkpt lat="45.69580442978584" lon="9.833772959220283"><ele>269.0</ele><time>2026-05-03T08:51:31Z</time></trkpt><trkpt lat="45.69572189821507" lon="9.833910301735242"><ele>269.0</ele><time>2026-05-03T08:51:33Z</time></trkpt><trkpt lat="45.69568424279957" lon="9.833985059132083"><ele>269.0</ele><time>2026-05-03T08:51:34Z</time></trkpt><trkpt lat="45.69564027196207" lon="9.834053496778443"><ele>269.0</ele><time>2026-05-03T08:51:35Z</time></trkpt><trkpt lat="45.69560189566209" lon="9.83412619663477"><ele>269.0</ele><time>2026-05-03T08:51:36Z</time></trkpt><trkpt lat="45.69555957057792" lon="9.834195141176686"><ele>269.0</ele><time>2026-05-03T08:51:37Z</time></trkpt><trkpt lat="45.69547532325648" lon="9.834332674084978"><ele>269.0</ele><time>2026-05-03T08:51:39Z</time></trkpt><trkpt lat="45.69543465714042" lon="9.834405343277876"><ele>269.1666666666667</ele><time>2026-05-03T08:51:40Z</time></trkpt><trkpt lat="45.695396403274195" lon="9.834478614999252"><ele>269.33333333333337</ele><time>2026-05-03T08:51:41Z</time></trkpt><trkpt lat="45.695351442706574" lon="9.834546780889443"><ele>269.5</ele><time>2026-05-03T08:51:42Z</time></trkpt><trkpt lat="45.69531177659771" lon="9.83461920136752"><ele>269.6666666666667</ele><time>2026-05-03T08:51:43Z</time></trkpt><trkpt lat="45.69523661376206" lon="9.834758054995321"><ele>269.8333333333333</ele><time>2026-05-03T08:51:45Z</time></trkpt><trkpt lat="45.69517809100562" lon="9.834908616648582"><ele>270.0</ele><time>2026-05-03T08:51:47Z</time></trkpt><trkpt lat="45.695116814303674" lon="9.835048989475474"><ele>270.2</ele><time>2026-05-03T08:51:49Z</time></trkpt><trkpt lat="45.69506045458494" lon="9.835189553978319"><ele>270.4</ele><time>2026-05-03T08:51:51Z</time></trkpt><trkpt lat="45.69500279290123" lon="9.835326464998284"><ele>270.6</ele><time>2026-05-03T08:51:53Z</time></trkpt><trkpt lat="45.69495079499642" lon="9.835465216086996"><ele>270.8</ele><time>2026-05-03T08:51:55Z</time></trkpt><trkpt lat="45.69491120511856" lon="9.835570692832787"><ele>271.0</ele><time>2026-05-03T08:51:57Z</time></trkpt><trkpt lat="45.69489725215618" lon="9.835680678116802"><ele>271.0</ele><time>2026-05-03T08:52:00Z</time></trkpt><trkpt lat="45.69492716626161" lon="9.835799380976809"><ele>271.0</ele><time>2026-05-03T08:52:04Z</time></trkpt><trkpt lat="45.69493990457126" lon="9.835937752800938"><ele>271.0</ele><time>2026-05-03T08:52:06Z</time></trkpt><trkpt lat="45.694997542473416" lon="9.836100187391615"><ele>271.0</ele><time>2026-05-03T08:52:08Z</time></trkpt><trkpt lat="45.69503336219777" lon="9.836178363423176"><ele>271.0</ele><time>2026-05-03T08:52:09Z</time></trkpt><trkpt lat="45.69506710197058" lon="9.836257697418247"><ele>271.0</ele><time>2026-05-03T08:52:10Z</time></trkpt><trkpt lat="45.69510028349432" lon="9.83633601848356"><ele>271.1428571428571</ele><time>2026-05-03T08:52:11Z</time></trkpt><trkpt lat="45.695133327956654" lon="9.836416022058634"><ele>271.2857142857143</ele><time>2026-05-03T08:52:12Z</time></trkpt><trkpt lat="45.69516476705849" lon="9.836495993847722"><ele>271.42857142857144</ele><time>2026-05-03T08:52:13Z</time></trkpt><trkpt lat="45.69519865468688" lon="9.836573052056943"><ele>271.57142857142856</ele><time>2026-05-03T08:52:14Z</time></trkpt><trkpt lat="45.69523157170875" lon="9.836652713220786"><ele>271.7142857142857</ele><time>2026-05-03T08:52:15Z</time></trkpt><trkpt lat="45.69526181605181" lon="9.836733682050076"><ele>271.85714285714283</ele><time>2026-05-03T08:52:16Z</time></trkpt><trkpt lat="45.69529170258755" lon="9.836813048740549"><ele>272.0</ele><time>2026-05-03T08:52:17Z</time></trkpt><trkpt lat="45.69533565495879" lon="9.836982210826937"><ele>271.33333333333337</ele><time>2026-05-03T08:52:19Z</time></trkpt><trkpt lat="45.695368205989205" lon="9.83715737235197"><ele>270.6666666666667</ele><time>2026-05-03T08:52:21Z</time></trkpt><trkpt lat="45.69538124821198" lon="9.837247870135805"><ele>270.0</ele><time>2026-05-03T08:52:22Z</time></trkpt><trkpt lat="45.695384762659636" lon="9.83734097451772"><ele>269.3333333333333</ele><time>2026-05-03T08:52:23Z</time></trkpt><trkpt lat="45.695384725564274" lon="9.837437054167351"><ele>268.66666666666663</ele><time>2026-05-03T08:52:24Z</time></trkpt><trkpt lat="45.695388856087945" lon="9.837529595088625"><ele>268.0</ele><time>2026-05-03T08:52:25Z</time></trkpt><trkpt lat="45.69539323855578" lon="9.837622684732812"><ele>267.8</ele><time>2026-05-03T08:52:26Z</time></trkpt><trkpt lat="45.69539798444498" lon="9.837715183085834"><ele>267.6</ele><time>2026-05-03T08:52:27Z</time></trkpt><trkpt lat="45.69539781506333" lon="9.837895235124769"><ele>267.4</ele><time>2026-05-03T08:52:29Z</time></trkpt><trkpt lat="45.69540833499188" lon="9.838071654866148"><ele>267.2</ele><time>2026-05-03T08:52:31Z</time></trkpt><trkpt lat="45.69540882498407" lon="9.838163236725984"><ele>267.0</ele><time>2026-05-03T08:52:32Z</time></trkpt><trkpt lat="45.69540996555742" lon="9.838346179458128"><ele>267.5</ele><time>2026-05-03T08:52:34Z</time></trkpt><trkpt lat="45.695413899125526" lon="9.838525669618628"><ele>268.0</ele><time>2026-05-03T08:52:36Z</time></trkpt><trkpt lat="45.69541335281924" lon="9.838706394852592"><ele>268.5</ele><time>2026-05-03T08:52:38Z</time></trkpt><trkpt lat="45.69541205752597" lon="9.838884003980752"><ele>269.0</ele><time>2026-05-03T08:52:40Z</time></trkpt><trkpt lat="45.69541936318938" lon="9.839060864663145"><ele>269.0</ele><time>2026-05-03T08:52:42Z</time></trkpt><trkpt lat="45.69542381497338" lon="9.839244520762607"><ele>269.0</ele><time>2026-05-03T08:52:44Z</time></trkpt><trkpt lat="45.69542716976174" lon="9.839421849427543"><ele>269.0</ele><time>2026-05-03T08:52:46Z</time></trkpt><trkpt lat="45.695432264044086" lon="9.839591675768707"><ele>269.0</ele><time>2026-05-03T08:52:48Z</time></trkpt><trkpt lat="45.69541757389573" lon="9.839682866134519"><ele>269.0</ele><time>2026-05-03T08:52:49Z</time></trkpt><trkpt lat="45.69543332986322" lon="9.839844896571824"><ele>269.8</ele><time>2026-05-03T08:52:51Z</time></trkpt><trkpt lat="45.69542618584735" lon="9.839975312015952"><ele>270.59999999999997</ele><time>2026-05-03T08:52:53Z</time></trkpt><trkpt lat="45.69542744355612" lon="9.840097783315905"><ele>271.4</ele><time>2026-05-03T08:52:55Z</time></trkpt><trkpt lat="45.69542071798997" lon="9.84020218310289"><ele>272.2</ele><time>2026-05-03T08:52:57Z</time></trkpt><trkpt lat="45.695406381052585" lon="9.840324268730388"><ele>273.0</ele><time>2026-05-03T08:52:59Z</time></trkpt><trkpt lat="45.69530151638043" lon="9.840400072340463"><ele>273.4</ele><time>2026-05-03T08:53:01Z</time></trkpt><trkpt lat="45.69523381062844" lon="9.84040254635379"><ele>273.8</ele><time>2026-05-03T08:53:02Z</time></trkpt><trkpt lat="45.695119643297446" lon="9.840443435957042"><ele>274.2</ele><time>2026-05-03T08:53:04Z</time></trkpt><trkpt lat="45.6950326523018" lon="9.840443476427614"><ele>274.6</ele><time>2026-05-03T08:53:05Z</time></trkpt><trkpt lat="45.69497292422819" lon="9.840409808514886"><ele>275.0</ele><time>2026-05-03T08:53:06Z</time></trkpt><trkpt lat="45.694857886379076" lon="9.840368938721587"><ele>275.0</ele><time>2026-05-03T08:53:08Z</time></trkpt><trkpt lat="45.69478988256299" lon="9.840425254738902"><ele>275.0</ele><time>2026-05-03T08:53:09Z</time></trkpt><trkpt lat="45.694719581922264" lon="9.840469650669247"><ele>275.0</ele><time>2026-05-03T08:53:10Z</time></trkpt><trkpt lat="45.69464963554538" lon="9.840482724178479"><ele>275.0</ele><time>2026-05-03T08:53:11Z</time></trkpt><trkpt lat="45.69459151647009" lon="9.840420634672356"><ele>275.0</ele><time>2026-05-03T08:53:12Z</time></trkpt><trkpt lat="45.69452359043908" lon="9.840422504720877"><ele>275.0</ele><time>2026-05-03T08:53:13Z</time></trkpt><trkpt lat="45.69440371958281" lon="9.840429485655664"><ele>274.33333333333337</ele><time>2026-05-03T08:53:15Z</time></trkpt><trkpt lat="45.694308918869424" lon="9.840444280938168"><ele>273.6666666666667</ele><time>2026-05-03T08:53:17Z</time></trkpt><trkpt lat="45.69422914295003" lon="9.840553951228339"><ele>273.0</ele><time>2026-05-03T08:53:19Z</time></trkpt><trkpt lat="45.6941956916642" lon="9.840630620374004"><ele>272.3333333333333</ele><time>2026-05-03T08:53:20Z</time></trkpt><trkpt lat="45.694161048907134" lon="9.840706982878283"><ele>271.66666666666663</ele><time>2026-05-03T08:53:21Z</time></trkpt><trkpt lat="45.69411743730023" lon="9.840776639260683"><ele>271.0</ele><time>2026-05-03T08:53:22Z</time></trkpt><trkpt lat="45.694076144990994" lon="9.840845602666777"><ele>271.0</ele><time>2026-05-03T08:53:23Z</time></trkpt><trkpt lat="45.69399583710051" lon="9.84098732581877"><ele>271.0</ele><time>2026-05-03T08:53:25Z</time></trkpt><trkpt lat="45.693920737145575" lon="9.841129576310074"><ele>271.0</ele><time>2026-05-03T08:53:27Z</time></trkpt><trkpt lat="45.69387858492236" lon="9.841201941473821"><ele>271.0</ele><time>2026-05-03T08:53:28Z</time></trkpt><trkpt lat="45.69379375589358" lon="9.841338399500543"><ele>271.0</ele><time>2026-05-03T08:53:30Z</time></trkpt><trkpt lat="45.6937610036898" lon="9.8414155241836"><ele>271.0</ele><time>2026-05-03T08:53:31Z</time></trkpt><trkpt lat="45.693724689648626" lon="9.841581084041678"><ele>271.0</ele><time>2026-05-03T08:53:33Z</time></trkpt><trkpt lat="45.69368562497072" lon="9.84175065397655"><ele>271.0</ele><time>2026-05-03T08:53:35Z</time></trkpt><trkpt lat="45.69365837460677" lon="9.841835113898359"><ele>271.0</ele><time>2026-05-03T08:53:36Z</time></trkpt><trkpt lat="45.69362721879392" lon="9.841916608966757"><ele>271.0</ele><time>2026-05-03T08:53:37Z</time></trkpt><trkpt lat="45.69357410580512" lon="9.842077351233314"><ele>271.40000000000003</ele><time>2026-05-03T08:53:39Z</time></trkpt><trkpt lat="45.693549529328536" lon="9.842163241631136"><ele>271.8</ele><time>2026-05-03T08:53:40Z</time></trkpt><trkpt lat="45.69350269514274" lon="9.842328536987253"><ele>272.20000000000005</ele><time>2026-05-03T08:53:42Z</time></trkpt><trkpt lat="45.69346202735604" lon="9.842490073089605"><ele>272.6</ele><time>2026-05-03T08:53:44Z</time></trkpt><trkpt lat="45.69341365606999" lon="9.842645394455138"><ele>273.0</ele><time>2026-05-03T08:53:46Z</time></trkpt><trkpt lat="45.693368855499436" lon="9.842788091369947"><ele>273.14285714285717</ele><time>2026-05-03T08:53:48Z</time></trkpt><trkpt lat="45.69333035682817" lon="9.842946395016385"><ele>273.2857142857143</ele><time>2026-05-03T08:53:50Z</time></trkpt><trkpt lat="45.69330775736367" lon="9.84303293485454"><ele>273.42857142857144</ele><time>2026-05-03T08:53:51Z</time></trkpt><trkpt lat="45.69328333060656" lon="9.843118123592875"><ele>273.57142857142856</ele><time>2026-05-03T08:53:52Z</time></trkpt><trkpt lat="45.693258952204225" lon="9.843205555989597"><ele>273.7142857142857</ele><time>2026-05-03T08:53:53Z</time></trkpt><trkpt lat="45.693237411080325" lon="9.843292426837435"><ele>273.8571428571429</ele><time>2026-05-03T08:53:54Z</time></trkpt><trkpt lat="45.693214383311386" lon="9.843378209124305"><ele>274.0</ele><time>2026-05-03T08:53:55Z</time></trkpt><trkpt lat="45.69319745960502" lon="9.843467853008228"><ele>275.2</ele><time>2026-05-03T08:53:56Z</time></trkpt><trkpt lat="45.693167894276" lon="9.843633986042233"><ele>276.4</ele><time>2026-05-03T08:53:58Z</time></trkpt><trkpt lat="45.69310903253547" lon="9.843768640699004"><ele>277.6</ele><time>2026-05-03T08:54:00Z</time></trkpt><trkpt lat="45.69299831264861" lon="9.843798904800758"><ele>278.8</ele><time>2026-05-03T08:54:02Z</time></trkpt><trkpt lat="45.69292703516248" lon="9.84381236590043"><ele>280.0</ele><time>2026-05-03T08:54:05Z</time></trkpt><trkpt lat="45.69284867090584" lon="9.843818691624376"><ele>278.8333333333333</ele><time>2026-05-03T08:54:07Z</time></trkpt><trkpt lat="45.692732186149854" lon="9.8438290094213"><ele>277.66666666666663</ele><time>2026-05-03T08:54:09Z</time></trkpt><trkpt lat="45.69266172858712" lon="9.8438381161727"><ele>276.5</ele><time>2026-05-03T08:54:10Z</time></trkpt><trkpt lat="45.69259156222398" lon="9.843845382203929"><ele>275.3333333333333</ele><time>2026-05-03T08:54:11Z</time></trkpt><trkpt lat="45.6925239178716" lon="9.843844008806728"><ele>274.1666666666667</ele><time>2026-05-03T08:54:12Z</time></trkpt><trkpt lat="45.692457744820246" lon="9.843849993683184"><ele>273.0</ele><time>2026-05-03T08:54:13Z</time></trkpt><trkpt lat="45.69239275121467" lon="9.84385803841022"><ele>273.0</ele><time>2026-05-03T08:54:14Z</time></trkpt><trkpt lat="45.69232545118591" lon="9.84386597724106"><ele>273.0</ele><time>2026-05-03T08:54:15Z</time></trkpt><trkpt lat="45.692259395471126" lon="9.843874723317986"><ele>273.0</ele><time>2026-05-03T08:54:16Z</time></trkpt><trkpt lat="45.69219454194837" lon="9.84388254469177"><ele>273.0</ele><time>2026-05-03T08:54:17Z</time></trkpt><trkpt lat="45.69213080306033" lon="9.843888629903452"><ele>273.0</ele><time>2026-05-03T08:54:18Z</time></trkpt><trkpt lat="45.69206731167284" lon="9.843895174420805"><ele>273.0</ele><time>2026-05-03T08:54:19Z</time></trkpt><trkpt lat="45.692003192881636" lon="9.843903777736493"><ele>273.0</ele><time>2026-05-03T08:54:20Z</time></trkpt><trkpt lat="45.69193597419953" lon="9.84391445259236"><ele>272.57142857142856</ele><time>2026-05-03T08:54:21Z</time></trkpt><trkpt lat="45.691870790595246" lon="9.843918776650513"><ele>272.1428571428571</ele><time>2026-05-03T08:54:22Z</time></trkpt><trkpt lat="45.69180374508584" lon="9.843922029796651"><ele>271.7142857142857</ele><time>2026-05-03T08:54:23Z</time></trkpt><trkpt lat="45.69173871622936" lon="9.843930017639686"><ele>271.2857142857143</ele><time>2026-05-03T08:54:24Z</time></trkpt><trkpt lat="45.691672167457796" lon="9.84393967112554"><ele>270.85714285714283</ele><time>2026-05-03T08:54:25Z</time></trkpt><trkpt lat="45.69160580495268" lon="9.843945641224634"><ele>270.42857142857144</ele><time>2026-05-03T08:54:26Z</time></trkpt><trkpt lat="45.691538084088755" lon="9.843953888201284"><ele>270.0</ele><time>2026-05-03T08:54:27Z</time></trkpt><trkpt lat="45.6914708090892" lon="9.84396385268187"><ele>270.0</ele><time>2026-05-03T08:54:28Z</time></trkpt><trkpt lat="45.69140434424483" lon="9.843973342139703"><ele>270.0</ele><time>2026-05-03T08:54:29Z</time></trkpt><trkpt lat="45.69133781065592" lon="9.843980792575884"><ele>270.0</ele><time>2026-05-03T08:54:30Z</time></trkpt><trkpt lat="45.691271374387625" lon="9.843985789685686"><ele>270.0</ele><time>2026-05-03T08:54:31Z</time></trkpt><trkpt lat="45.69120448638274" lon="9.84399095142401"><ele>270.0</ele><time>2026-05-03T08:54:32Z</time></trkpt><trkpt lat="45.691137139709106" lon="9.843996080729386"><ele>270.0</ele><time>2026-05-03T08:54:33Z</time></trkpt><trkpt lat="45.691070422809695" lon="9.844005242834207"><ele>270.0</ele><time>2026-05-03T08:54:34Z</time></trkpt><trkpt lat="45.691004333434066" lon="9.844012622229897"><ele>269.85714285714283</ele><time>2026-05-03T08:54:35Z</time></trkpt><trkpt lat="45.690938803423" lon="9.844018142563739"><ele>269.71428571428567</ele><time>2026-05-03T08:54:36Z</time></trkpt><trkpt lat="45.69087454837111" lon="9.844025775956254"><ele>269.57142857142856</ele><time>2026-05-03T08:54:37Z</time></trkpt><trkpt lat="45.69081092391145" lon="9.844012534252585"><ele>269.42857142857144</ele><time>2026-05-03T08:54:38Z</time></trkpt><trkpt lat="45.69074675119093" lon="9.84399795401765"><ele>269.28571428571433</ele><time>2026-05-03T08:54:39Z</time></trkpt><trkpt lat="45.690686672126915" lon="9.843968402188183"><ele>269.14285714285717</ele><time>2026-05-03T08:54:40Z</time></trkpt><trkpt lat="45.69062704557138" lon="9.84392932277905"><ele>269.0</ele><time>2026-05-03T08:54:41Z</time></trkpt><trkpt lat="45.69057120146121" lon="9.843881736794168"><ele>269.0</ele><time>2026-05-03T08:54:42Z</time></trkpt><trkpt lat="45.69050978578283" lon="9.843842263162992"><ele>269.0</ele><time>2026-05-03T08:54:43Z</time></trkpt><trkpt lat="45.690451082004365" lon="9.843799238610938"><ele>269.0</ele><time>2026-05-03T08:54:44Z</time></trkpt><trkpt lat="45.69039346721294" lon="9.843752412896638"><ele>269.0</ele><time>2026-05-03T08:54:45Z</time></trkpt><trkpt lat="45.69033882273159" lon="9.843697758445543"><ele>269.0</ele><time>2026-05-03T08:54:46Z</time></trkpt><trkpt lat="45.690287258325235" lon="9.84363579196336"><ele>269.0</ele><time>2026-05-03T08:54:47Z</time></trkpt><trkpt lat="45.690235631415426" lon="9.84357325646426"><ele>269.0</ele><time>2026-05-03T08:54:48Z</time></trkpt><trkpt lat="45.69018328777285" lon="9.843516160617163"><ele>268.57142857142856</ele><time>2026-05-03T08:54:49Z</time></trkpt><trkpt lat="45.6901332604264" lon="9.843460213691136"><ele>268.14285714285717</ele><time>2026-05-03T08:54:50Z</time></trkpt><trkpt lat="45.69008311293378" lon="9.843396682466333"><ele>267.7142857142857</ele><time>2026-05-03T08:54:51Z</time></trkpt><trkpt lat="45.69003441886687" lon="9.843332945002889"><ele>267.2857142857143</ele><time>2026-05-03T08:54:52Z</time></trkpt><trkpt lat="45.689984536491146" lon="9.84327133888259"><ele>266.8571428571429</ele><time>2026-05-03T08:54:53Z</time></trkpt><trkpt lat="45.689935258798414" lon="9.84321313031674"><ele>266.42857142857144</ele><time>2026-05-03T08:54:54Z</time></trkpt><trkpt lat="45.68988665279896" lon="9.843144093011743"><ele>266.0</ele><time>2026-05-03T08:54:55Z</time></trkpt><trkpt lat="45.689844724658755" lon="9.843067638741118"><ele>266.0</ele><time>2026-05-03T08:54:56Z</time></trkpt><trkpt lat="45.68979784177364" lon="9.843002080977664"><ele>266.0</ele><time>2026-05-03T08:54:57Z</time></trkpt><trkpt lat="45.68975117653692" lon="9.84293765123949"><ele>266.0</ele><time>2026-05-03T08:54:58Z</time></trkpt><trkpt lat="45.68970544619806" lon="9.842872552430343"><ele>266.0</ele><time>2026-05-03T08:54:59Z</time></trkpt><trkpt lat="45.68966140948211" lon="9.84280376678078"><ele>266.0</ele><time>2026-05-03T08:55:00Z</time></trkpt><trkpt lat="45.68957889907242" lon="9.84267354337818"><ele>266.0</ele><time>2026-05-03T08:55:02Z</time></trkpt><trkpt lat="45.68948578379623" lon="9.842565773953963"><ele>265.40000000000003</ele><time>2026-05-03T08:55:04Z</time></trkpt><trkpt lat="45.68938638330594" lon="9.842519595725815"><ele>264.8</ele><time>2026-05-03T08:55:06Z</time></trkpt><trkpt lat="45.68928247652543" lon="9.842668131637485"><ele>264.20000000000005</ele><time>2026-05-03T08:55:08Z</time></trkpt><trkpt lat="45.689245194931885" lon="9.84275704120305"><ele>263.6</ele><time>2026-05-03T08:55:09Z</time></trkpt><trkpt lat="45.68920227686818" lon="9.842845335369674"><ele>263.0</ele><time>2026-05-03T08:55:10Z</time></trkpt><trkpt lat="45.68915616704438" lon="9.842941294599415"><ele>262.0</ele><time>2026-05-03T08:55:11Z</time></trkpt><trkpt lat="45.68910843273036" lon="9.84303946370081"><ele>261.0</ele><time>2026-05-03T08:55:12Z</time></trkpt><trkpt lat="45.68906072166009" lon="9.843142155865014"><ele>260.0</ele><time>2026-05-03T08:55:13Z</time></trkpt><trkpt lat="45.689012772274296" lon="9.843247699868984"><ele>259.0</ele><time>2026-05-03T08:55:14Z</time></trkpt><trkpt lat="45.6889598989133" lon="9.84335619260037"><ele>258.0</ele><time>2026-05-03T08:55:15Z</time></trkpt><trkpt lat="45.68890213357816" lon="9.843463887226404"><ele>257.0</ele><time>2026-05-03T08:55:16Z</time></trkpt><trkpt lat="45.68884612374056" lon="9.843574607828415"><ele>256.6</ele><time>2026-05-03T08:55:17Z</time></trkpt><trkpt lat="45.688790766976716" lon="9.843688551312113"><ele>256.2</ele><time>2026-05-03T08:55:18Z</time></trkpt><trkpt lat="45.68873362040573" lon="9.843805743555437"><ele>255.8</ele><time>2026-05-03T08:55:19Z</time></trkpt><trkpt lat="45.688675088794916" lon="9.84392432962105"><ele>255.4</ele><time>2026-05-03T08:55:20Z</time></trkpt><trkpt lat="45.68861476619" lon="9.844039453590058"><ele>255.0</ele><time>2026-05-03T08:55:21Z</time></trkpt><trkpt lat="45.68855751301005" lon="9.844157220566943"><ele>254.33333333333334</ele><time>2026-05-03T08:55:22Z</time></trkpt><trkpt lat="45.68849917556437" lon="9.844272436681038"><ele>253.66666666666669</ele><time>2026-05-03T08:55:23Z</time></trkpt><trkpt lat="45.68844182709881" lon="9.844367988320398"><ele>253.0</ele><time>2026-05-03T08:55:24Z</time></trkpt><trkpt lat="45.688384290821055" lon="9.844436716803436"><ele>252.33333333333334</ele><time>2026-05-03T08:55:25Z</time></trkpt><trkpt lat="45.688320682528826" lon="9.84448669612431"><ele>251.66666666666669</ele><time>2026-05-03T08:55:26Z</time></trkpt><trkpt lat="45.688252795222304" lon="9.844500190690727"><ele>251.0</ele><time>2026-05-03T08:55:27Z</time></trkpt><trkpt lat="45.68814717773958" lon="9.844421782049418"><ele>251.00000000000003</ele><time>2026-05-03T08:55:29Z</time></trkpt><trkpt lat="45.68806572688762" lon="9.844296629916846"><ele>251.0</ele><time>2026-05-03T08:55:31Z</time></trkpt><trkpt lat="45.688016860189286" lon="9.844237515389766"><ele>251.0</ele><time>2026-05-03T08:55:32Z</time></trkpt><trkpt lat="45.687929863846605" lon="9.844107971967127"><ele>251.0</ele><time>2026-05-03T08:55:34Z</time></trkpt><trkpt lat="45.68788688192629" lon="9.844038777745208"><ele>251.00000000000003</ele><time>2026-05-03T08:55:35Z</time></trkpt><trkpt lat="45.68784237179229" lon="9.843972825002764"><ele>251.0</ele><time>2026-05-03T08:55:36Z</time></trkpt><trkpt lat="45.68779706356605" lon="9.843905252390895"><ele>250.85714285714283</ele><time>2026-05-03T08:55:37Z</time></trkpt><trkpt lat="45.68775246734111" lon="9.84383715645217"><ele>250.71428571428572</ele><time>2026-05-03T08:55:38Z</time></trkpt><trkpt lat="45.68771125314317" lon="9.843766041580526"><ele>250.57142857142856</ele><time>2026-05-03T08:55:39Z</time></trkpt><trkpt lat="45.687669467008234" lon="9.843697390677157"><ele>250.42857142857142</ele><time>2026-05-03T08:55:40Z</time></trkpt><trkpt lat="45.687627645119186" lon="9.843629220905836"><ele>250.28571428571428</ele><time>2026-05-03T08:55:41Z</time></trkpt><trkpt lat="45.68758566647054" lon="9.84355975455609"><ele>250.14285714285714</ele><time>2026-05-03T08:55:42Z</time></trkpt><trkpt lat="45.687543253261985" lon="9.843489045887566"><ele>250.0</ele><time>2026-05-03T08:55:43Z</time></trkpt><trkpt lat="45.6875026513873" lon="9.843419103757963"><ele>250.0</ele><time>2026-05-03T08:55:44Z</time></trkpt><trkpt lat="45.68746122263503" lon="9.843346542821259"><ele>250.0</ele><time>2026-05-03T08:55:45Z</time></trkpt><trkpt lat="45.68741856717356" lon="9.843278266966026"><ele>250.0</ele><time>2026-05-03T08:55:46Z</time></trkpt><trkpt lat="45.687376217724086" lon="9.843209969479995"><ele>250.0</ele><time>2026-05-03T08:55:47Z</time></trkpt><trkpt lat="45.687333200901364" lon="9.843141848425685"><ele>250.0</ele><time>2026-05-03T08:55:48Z</time></trkpt><trkpt lat="45.68729002547433" lon="9.843073700505187"><ele>250.0</ele><time>2026-05-03T08:55:49Z</time></trkpt><trkpt lat="45.68724804348144" lon="9.843001738860922"><ele>250.0</ele><time>2026-05-03T08:55:50Z</time></trkpt><trkpt lat="45.68720602415406" lon="9.842930708883078"><ele>249.99999999999997</ele><time>2026-05-03T08:55:51Z</time></trkpt><trkpt lat="45.68716347778529" lon="9.842861755308006"><ele>250.0</ele><time>2026-05-03T08:55:52Z</time></trkpt><trkpt lat="45.68711949653957" lon="9.842793622994273"><ele>250.0</ele><time>2026-05-03T08:55:53Z</time></trkpt><trkpt lat="45.68707386312458" lon="9.842726306153253"><ele>250.0</ele><time>2026-05-03T08:55:54Z</time></trkpt><trkpt lat="45.68703177787236" lon="9.842654342068418"><ele>249.99999999999997</ele><time>2026-05-03T08:55:55Z</time></trkpt><trkpt lat="45.68698946658734" lon="9.842577357479247"><ele>250.0</ele><time>2026-05-03T08:55:56Z</time></trkpt><trkpt lat="45.686906412787266" lon="9.842436521343345"><ele>249.83333333333331</ele><time>2026-05-03T08:55:58Z</time></trkpt><trkpt lat="45.68686448004998" lon="9.842364148703794"><ele>249.66666666666666</ele><time>2026-05-03T08:55:59Z</time></trkpt><trkpt lat="45.68682216464973" lon="9.842284787374426"><ele>249.5</ele><time>2026-05-03T08:56:00Z</time></trkpt><trkpt lat="45.68673813635758" lon="9.842145694421147"><ele>249.33333333333331</ele><time>2026-05-03T08:56:02Z</time></trkpt><trkpt lat="45.68669741432903" lon="9.842071569856927"><ele>249.16666666666666</ele><time>2026-05-03T08:56:03Z</time></trkpt><trkpt lat="45.68665787641919" lon="9.841997559723392"><ele>249.0</ele><time>2026-05-03T08:56:04Z</time></trkpt><trkpt lat="45.68662223313986" lon="9.841919084876452"><ele>249.0</ele><time>2026-05-03T08:56:05Z</time></trkpt><trkpt lat="45.68658532024041" lon="9.841842832948997"><ele>248.99999999999997</ele><time>2026-05-03T08:56:06Z</time></trkpt><trkpt lat="45.68654758577171" lon="9.841765302757176"><ele>249.0</ele><time>2026-05-03T08:56:07Z</time></trkpt><trkpt lat="45.68651370899636" lon="9.84168546898651"><ele>249.0</ele><time>2026-05-03T08:56:08Z</time></trkpt><trkpt lat="45.6864804442986" lon="9.841605469896713"><ele>248.99999999999997</ele><time>2026-05-03T08:56:09Z</time></trkpt><trkpt lat="45.686443218187925" lon="9.841528749621194"><ele>249.0</ele><time>2026-05-03T08:56:10Z</time></trkpt><trkpt lat="45.68640792453298" lon="9.841448577212486"><ele>249.0</ele><time>2026-05-03T08:56:11Z</time></trkpt><trkpt lat="45.68637323024751" lon="9.841369520797189"><ele>249.57142857142856</ele><time>2026-05-03T08:56:12Z</time></trkpt><trkpt lat="45.686342419899695" lon="9.841286734210442"><ele>250.1428571428571</ele><time>2026-05-03T08:56:13Z</time></trkpt><trkpt lat="45.686307322168126" lon="9.84120473814343"><ele>250.71428571428572</ele><time>2026-05-03T08:56:14Z</time></trkpt><trkpt lat="45.68627377546025" lon="9.841123456313353"><ele>251.28571428571428</ele><time>2026-05-03T08:56:15Z</time></trkpt><trkpt lat="45.6862398822635" lon="9.841041228134502"><ele>251.85714285714286</ele><time>2026-05-03T08:56:16Z</time></trkpt><trkpt lat="45.68620786892035" lon="9.840957453896104"><ele>252.42857142857144</ele><time>2026-05-03T08:56:17Z</time></trkpt><trkpt lat="45.68617436955028" lon="9.840872995130262"><ele>253.00000000000003</ele><time>2026-05-03T08:56:18Z</time></trkpt><trkpt lat="45.686142310765284" lon="9.840787861870549"><ele>253.14285714285717</ele><time>2026-05-03T08:56:19Z</time></trkpt><trkpt lat="45.686109122923185" lon="9.840702324307546"><ele>253.28571428571428</ele><time>2026-05-03T08:56:20Z</time></trkpt><trkpt lat="45.686073118370324" lon="9.84061849969952"><ele>253.42857142857144</ele><time>2026-05-03T08:56:21Z</time></trkpt><trkpt lat="45.68604079037815" lon="9.84053461091856"><ele>253.57142857142858</ele><time>2026-05-03T08:56:22Z</time></trkpt><trkpt lat="45.68600720212483" lon="9.840450456242895"><ele>253.71428571428572</ele><time>2026-05-03T08:56:23Z</time></trkpt><trkpt lat="45.68597240157499" lon="9.840363398272915"><ele>253.85714285714286</ele><time>2026-05-03T08:56:24Z</time></trkpt><trkpt lat="45.685938743820515" lon="9.840278499248639"><ele>254.0</ele><time>2026-05-03T08:56:25Z</time></trkpt><trkpt lat="45.685902764032804" lon="9.84019297568869"><ele>253.71428571428572</ele><time>2026-05-03T08:56:26Z</time></trkpt><trkpt lat="45.68586979671214" lon="9.840106418945505"><ele>253.42857142857142</ele><time>2026-05-03T08:56:27Z</time></trkpt><trkpt lat="45.685834736694936" lon="9.840023192213831"><ele>253.14285714285714</ele><time>2026-05-03T08:56:28Z</time></trkpt><trkpt lat="45.68579964659127" lon="9.839935025657512"><ele>252.85714285714286</ele><time>2026-05-03T08:56:29Z</time></trkpt><trkpt lat="45.685767909372665" lon="9.839851473281888"><ele>252.57142857142856</ele><time>2026-05-03T08:56:30Z</time></trkpt><trkpt lat="45.68573304656041" lon="9.839769040561821"><ele>252.28571428571428</ele><time>2026-05-03T08:56:31Z</time></trkpt><trkpt lat="45.68570089465625" lon="9.839687201448138"><ele>252.0</ele><time>2026-05-03T08:56:32Z</time></trkpt><trkpt lat="45.6856680657643" lon="9.83960570184537"><ele>252.0</ele><time>2026-05-03T08:56:33Z</time></trkpt><trkpt lat="45.68563653471028" lon="9.839525484798322"><ele>252.0</ele><time>2026-05-03T08:56:34Z</time></trkpt><trkpt lat="45.68560478255672" lon="9.83944692658156"><ele>252.0</ele><time>2026-05-03T08:56:35Z</time></trkpt><trkpt lat="45.68557434861266" lon="9.839368027260186"><ele>252.0</ele><time>2026-05-03T08:56:36Z</time></trkpt><trkpt lat="45.68554349725764" lon="9.839289093829226"><ele>252.0</ele><time>2026-05-03T08:56:37Z</time></trkpt><trkpt lat="45.685512655096204" lon="9.839210112035804"><ele>252.0</ele><time>2026-05-03T08:56:38Z</time></trkpt><trkpt lat="45.68547993973923" lon="9.839128506648525"><ele>252.0</ele><time>2026-05-03T08:56:39Z</time></trkpt><trkpt lat="45.685446131395985" lon="9.839046305485017"><ele>252.0</ele><time>2026-05-03T08:56:40Z</time></trkpt><trkpt lat="45.68541347711922" lon="9.838962509984404"><ele>252.0</ele><time>2026-05-03T08:56:41Z</time></trkpt><trkpt lat="45.68538090872097" lon="9.838877438499"><ele>252.0</ele><time>2026-05-03T08:56:42Z</time></trkpt><trkpt lat="45.68534594110878" lon="9.838795168876086"><ele>252.0</ele><time>2026-05-03T08:56:43Z</time></trkpt><trkpt lat="45.685312626157035" lon="9.838713276199742"><ele>252.0</ele><time>2026-05-03T08:56:44Z</time></trkpt><trkpt lat="45.68527804986119" lon="9.838629193162294"><ele>252.0</ele><time>2026-05-03T08:56:45Z</time></trkpt><trkpt lat="45.68524681885479" lon="9.838546282075331"><ele>252.0</ele><time>2026-05-03T08:56:46Z</time></trkpt><trkpt lat="45.68521251808322" lon="9.838464175653225"><ele>252.0</ele><time>2026-05-03T08:56:47Z</time></trkpt><trkpt lat="45.685172859471194" lon="9.838387576520864"><ele>251.0</ele><time>2026-05-03T08:56:48Z</time></trkpt><trkpt lat="45.68513586022758" lon="9.838313732492596"><ele>250.0</ele><time>2026-05-03T08:56:49Z</time></trkpt><trkpt lat="45.685095703196076" lon="9.83824193533356"><ele>249.0</ele><time>2026-05-03T08:56:50Z</time></trkpt><trkpt lat="45.68505171292902" lon="9.838167958178916"><ele>248.0</ele><time>2026-05-03T08:56:51Z</time></trkpt><trkpt lat="45.6849733395018" lon="9.838035485568614"><ele>247.0</ele><time>2026-05-03T08:56:53Z</time></trkpt><trkpt lat="45.684898419908215" lon="9.837920458220344"><ele>246.0</ele><time>2026-05-03T08:56:55Z</time></trkpt><trkpt lat="45.68484582839664" lon="9.837837440266345"><ele>246.0</ele><time>2026-05-03T08:56:57Z</time></trkpt><trkpt lat="45.684801090431954" lon="9.83777212903422"><ele>246.0</ele><time>2026-05-03T08:57:00Z</time></trkpt><trkpt lat="45.684737511317415" lon="9.83769942332541"><ele>246.0</ele><time>2026-05-03T08:57:06Z</time></trkpt><trkpt lat="45.68472711431407" lon="9.837791126028128"><ele>246.0</ele><time>2026-05-03T08:57:08Z</time></trkpt><trkpt lat="45.68472926315933" lon="9.837900090021819"><ele>246.0</ele><time>2026-05-03T08:57:10Z</time></trkpt><trkpt lat="45.684619068896176" lon="9.837966751490848"><ele>246.0</ele><time>2026-05-03T08:57:12Z</time></trkpt><trkpt lat="45.684550023838206" lon="9.837982541486937"><ele>246.0</ele><time>2026-05-03T08:57:13Z</time></trkpt><trkpt lat="45.68448024939792" lon="9.837990447722586"><ele>246.0</ele><time>2026-05-03T08:57:14Z</time></trkpt><trkpt lat="45.68440930686626" lon="9.83799141674478"><ele>246.0</ele><time>2026-05-03T08:57:15Z</time></trkpt><trkpt lat="45.684341337231565" lon="9.83798836588795"><ele>246.0</ele><time>2026-05-03T08:57:16Z</time></trkpt><trkpt lat="45.68427058681104" lon="9.83799488448626"><ele>246.0</ele><time>2026-05-03T08:57:17Z</time></trkpt><trkpt lat="45.68415831707299" lon="9.837975026842727"><ele>246.0</ele><time>2026-05-03T08:57:19Z</time></trkpt><trkpt lat="45.68404269128785" lon="9.837963878217481"><ele>246.20000000000002</ele><time>2026-05-03T08:57:21Z</time></trkpt><trkpt lat="45.68393982141618" lon="9.837949153209395"><ele>246.40000000000003</ele><time>2026-05-03T08:57:23Z</time></trkpt><trkpt lat="45.683843966972965" lon="9.837935179909243"><ele>246.6</ele><time>2026-05-03T08:57:25Z</time></trkpt><trkpt lat="45.683758018235196" lon="9.837927523456859"><ele>246.8</ele><time>2026-05-03T08:57:27Z</time></trkpt><trkpt lat="45.683663965203365" lon="9.83789737384149"><ele>247.0</ele><time>2026-05-03T08:57:29Z</time></trkpt><trkpt lat="45.683594122621926" lon="9.837902547219533"><ele>246.66666666666666</ele><time>2026-05-03T08:57:31Z</time></trkpt><trkpt lat="45.683513967471406" lon="9.837899721243717"><ele>246.33333333333331</ele><time>2026-05-03T08:57:33Z</time></trkpt><trkpt lat="45.683446887916645" lon="9.837873666550019"><ele>246.0</ele><time>2026-05-03T08:57:35Z</time></trkpt><trkpt lat="45.68335076478634" lon="9.837846314116357"><ele>245.66666666666669</ele><time>2026-05-03T08:57:37Z</time></trkpt><trkpt lat="45.68324547676182" lon="9.83784357315232"><ele>245.33333333333334</ele><time>2026-05-03T08:57:39Z</time></trkpt><trkpt lat="45.683158479734374" lon="9.837842804556537"><ele>245.0</ele><time>2026-05-03T08:57:41Z</time></trkpt><trkpt lat="45.68306377890074" lon="9.837828871223264"><ele>245.00000000000003</ele><time>2026-05-03T08:57:43Z</time></trkpt><trkpt lat="45.6829822292552" lon="9.837813450187134"><ele>245.0</ele><time>2026-05-03T08:57:45Z</time></trkpt><trkpt lat="45.68287134623116" lon="9.837796375200497"><ele>245.0</ele><time>2026-05-03T08:57:47Z</time></trkpt><trkpt lat="45.682808136110886" lon="9.837797028937828"><ele>245.0</ele><time>2026-05-03T08:57:48Z</time></trkpt><trkpt lat="45.68268400569424" lon="9.83778690707221"><ele>245.00000000000003</ele><time>2026-05-03T08:57:50Z</time></trkpt><trkpt lat="45.6826193390327" lon="9.8377760679344"><ele>245.0</ele><time>2026-05-03T08:57:51Z</time></trkpt><trkpt lat="45.68255508809612" lon="9.837759086101974"><ele>245.0</ele><time>2026-05-03T08:57:52Z</time></trkpt><trkpt lat="45.68249116787333" lon="9.837748394831554"><ele>245.0</ele><time>2026-05-03T08:57:53Z</time></trkpt><trkpt lat="45.68242619486028" lon="9.837736035504834"><ele>245.0</ele><time>2026-05-03T08:57:54Z</time></trkpt><trkpt lat="45.68236070765068" lon="9.837718714385536"><ele>245.0</ele><time>2026-05-03T08:57:55Z</time></trkpt><trkpt lat="45.68229801927456" lon="9.837697366537958"><ele>245.0</ele><time>2026-05-03T08:57:56Z</time></trkpt><trkpt lat="45.68223484975288" lon="9.83768220148709"><ele>245.0</ele><time>2026-05-03T08:57:57Z</time></trkpt><trkpt lat="45.68217151028141" lon="9.837657947689086"><ele>245.0</ele><time>2026-05-03T08:57:58Z</time></trkpt><trkpt lat="45.68211160576551" lon="9.837627095016495"><ele>245.0</ele><time>2026-05-03T08:57:59Z</time></trkpt><trkpt lat="45.68205085537831" lon="9.837584292979034"><ele>245.0</ele><time>2026-05-03T08:58:00Z</time></trkpt><trkpt lat="45.68199182471162" lon="9.837538701793642"><ele>245.0</ele><time>2026-05-03T08:58:01Z</time></trkpt><trkpt lat="45.681934392589" lon="9.837500704916602"><ele>245.0</ele><time>2026-05-03T08:58:02Z</time></trkpt><trkpt lat="45.681876214196194" lon="9.83746048844992"><ele>245.0</ele><time>2026-05-03T08:58:03Z</time></trkpt><trkpt lat="45.68181511897266" lon="9.837425532654558"><ele>245.0</ele><time>2026-05-03T08:58:04Z</time></trkpt><trkpt lat="45.68175628009137" lon="9.837373175882643"><ele>245.0</ele><time>2026-05-03T08:58:05Z</time></trkpt><trkpt lat="45.68170005511064" lon="9.83732566109868"><ele>245.14285714285714</ele><time>2026-05-03T08:58:06Z</time></trkpt><trkpt lat="45.68164186136559" lon="9.837280638285453"><ele>245.28571428571428</ele><time>2026-05-03T08:58:07Z</time></trkpt><trkpt lat="45.68158358146491" lon="9.837235257825112"><ele>245.42857142857144</ele><time>2026-05-03T08:58:08Z</time></trkpt><trkpt lat="45.681524453100096" lon="9.83719191297601"><ele>245.57142857142858</ele><time>2026-05-03T08:58:09Z</time></trkpt><trkpt lat="45.68146432533897" lon="9.837149298786843"><ele>245.71428571428572</ele><time>2026-05-03T08:58:10Z</time></trkpt><trkpt lat="45.68140161922067" lon="9.837114589476933"><ele>245.8571428571429</ele><time>2026-05-03T08:58:11Z</time></trkpt><trkpt lat="45.681337448458834" lon="9.837085601609823"><ele>246.00000000000003</ele><time>2026-05-03T08:58:12Z</time></trkpt><trkpt lat="45.68127161684606" lon="9.837060790422003"><ele>246.0</ele><time>2026-05-03T08:58:13Z</time></trkpt><trkpt lat="45.68120474139246" lon="9.83703972251931"><ele>246.0</ele><time>2026-05-03T08:58:14Z</time></trkpt><trkpt lat="45.681139199176236" lon="9.837023998455761"><ele>246.0</ele><time>2026-05-03T08:58:15Z</time></trkpt><trkpt lat="45.681072584030076" lon="9.83699712305187"><ele>246.0</ele><time>2026-05-03T08:58:16Z</time></trkpt><trkpt lat="45.68100553079093" lon="9.836980402492387"><ele>246.0</ele><time>2026-05-03T08:58:17Z</time></trkpt><trkpt lat="45.680942044269166" lon="9.836964815315188"><ele>246.0</ele><time>2026-05-03T08:58:18Z</time></trkpt><trkpt lat="45.68081433868274" lon="9.836936759480853"><ele>245.14285714285717</ele><time>2026-05-03T08:58:20Z</time></trkpt><trkpt lat="45.68074783875087" lon="9.836924944211663"><ele>244.28571428571428</ele><time>2026-05-03T08:58:21Z</time></trkpt><trkpt lat="45.68068063038664" lon="9.836916223853756"><ele>243.42857142857144</ele><time>2026-05-03T08:58:22Z</time></trkpt><trkpt lat="45.680613432189105" lon="9.836910521000691"><ele>242.57142857142858</ele><time>2026-05-03T08:58:23Z</time></trkpt><trkpt lat="45.680548967814815" lon="9.836897421172292"><ele>241.71428571428572</ele><time>2026-05-03T08:58:24Z</time></trkpt><trkpt lat="45.68048352558129" lon="9.836891569760693"><ele>240.85714285714286</ele><time>2026-05-03T08:58:25Z</time></trkpt><trkpt lat="45.68041698500307" lon="9.836872102236491"><ele>240.0</ele><time>2026-05-03T08:58:26Z</time></trkpt><trkpt lat="45.680352753318" lon="9.836865760869417"><ele>240.0</ele><time>2026-05-03T08:58:27Z</time></trkpt><trkpt lat="45.680228032665966" lon="9.836838480703765"><ele>240.0</ele><time>2026-05-03T08:58:29Z</time></trkpt><trkpt lat="45.68010369512618" lon="9.83681744407231"><ele>240.0</ele><time>2026-05-03T08:58:31Z</time></trkpt><trkpt lat="45.68004117319334" lon="9.83679859905098"><ele>240.0</ele><time>2026-05-03T08:58:32Z</time></trkpt><trkpt lat="45.67997639951809" lon="9.836796070245738"><ele>240.0</ele><time>2026-05-03T08:58:33Z</time></trkpt><trkpt lat="45.67986600835816" lon="9.836761810302344"><ele>240.0</ele><time>2026-05-03T08:58:35Z</time></trkpt><trkpt lat="45.67978170897006" lon="9.836719599209976"><ele>240.0</ele><time>2026-05-03T08:58:37Z</time></trkpt><trkpt lat="45.67963285929238" lon="9.836817461334629"><ele>240.0</ele><time>2026-05-03T08:58:39Z</time></trkpt><trkpt lat="45.67957283285804" lon="9.83684947058408"><ele>240.0</ele><time>2026-05-03T08:58:40Z</time></trkpt><trkpt lat="45.67952116002025" lon="9.836908835144484"><ele>240.0</ele><time>2026-05-03T08:58:41Z</time></trkpt><trkpt lat="45.679483151931926" lon="9.836988360907409"><ele>240.0</ele><time>2026-05-03T08:58:42Z</time></trkpt><trkpt lat="45.679456205647874" lon="9.837078361034969"><ele>240.0</ele><time>2026-05-03T08:58:43Z</time></trkpt><trkpt lat="45.67942957764629" lon="9.837165496632485"><ele>240.0</ele><time>2026-05-03T08:58:44Z</time></trkpt><trkpt lat="45.67940146628289" lon="9.837250519834205"><ele>240.0</ele><time>2026-05-03T08:58:45Z</time></trkpt><trkpt lat="45.6793698465535" lon="9.837336091247616"><ele>240.0</ele><time>2026-05-03T08:58:46Z</time></trkpt><trkpt lat="45.67933881226833" lon="9.837417714497136"><ele>240.0</ele><time>2026-05-03T08:58:47Z</time></trkpt><trkpt lat="45.6793079551714" lon="9.837502063957384"><ele>240.0</ele><time>2026-05-03T08:58:48Z</time></trkpt><trkpt lat="45.679280134844745" lon="9.837585291111134"><ele>239.83333333333334</ele><time>2026-05-03T08:58:49Z</time></trkpt><trkpt lat="45.67925259681196" lon="9.83766867606336"><ele>239.66666666666669</ele><time>2026-05-03T08:58:50Z</time></trkpt><trkpt lat="45.67919640936843" lon="9.837828785242154"><ele>239.5</ele><time>2026-05-03T08:58:52Z</time></trkpt><trkpt lat="45.679143011415015" lon="9.837986464958334"><ele>239.33333333333334</ele><time>2026-05-03T08:58:54Z</time></trkpt><trkpt lat="45.679115266405766" lon="9.838067603743312"><ele>239.16666666666669</ele><time>2026-05-03T08:58:55Z</time></trkpt><trkpt lat="45.67908648607257" lon="9.838152157933498"><ele>239.0</ele><time>2026-05-03T08:58:56Z</time></trkpt><trkpt lat="45.67906170859966" lon="9.83824020323935"><ele>239.00000000000003</ele><time>2026-05-03T08:58:57Z</time></trkpt><trkpt lat="45.67903208412553" lon="9.838321877726232"><ele>239.0</ele><time>2026-05-03T08:58:58Z</time></trkpt><trkpt lat="45.67900358692907" lon="9.838403144574517"><ele>239.0</ele><time>2026-05-03T08:58:59Z</time></trkpt><trkpt lat="45.678948009922" lon="9.838562363487815"><ele>239.0</ele><time>2026-05-03T08:59:01Z</time></trkpt><trkpt lat="45.678919839692796" lon="9.838646683682454"><ele>239.00000000000003</ele><time>2026-05-03T08:59:02Z</time></trkpt><trkpt lat="45.67889044616371" lon="9.838730813369716"><ele>239.0</ele><time>2026-05-03T08:59:03Z</time></trkpt><trkpt lat="45.67886136091913" lon="9.838816555945018"><ele>239.00000000000003</ele><time>2026-05-03T08:59:04Z</time></trkpt><trkpt lat="45.67882858299645" lon="9.838900464524382"><ele>239.0</ele><time>2026-05-03T08:59:05Z</time></trkpt><trkpt lat="45.678795587453415" lon="9.838982324855616"><ele>239.0</ele><time>2026-05-03T08:59:06Z</time></trkpt><trkpt lat="45.678764913141805" lon="9.839064094160902"><ele>239.0</ele><time>2026-05-03T08:59:07Z</time></trkpt><trkpt lat="45.67870935353695" lon="9.839229907042492"><ele>239.00000000000003</ele><time>2026-05-03T08:59:09Z</time></trkpt><trkpt lat="45.67868340275304" lon="9.839313826653669"><ele>239.0</ele><time>2026-05-03T08:59:10Z</time></trkpt><trkpt lat="45.67864962777136" lon="9.839396365308515"><ele>238.83333333333334</ele><time>2026-05-03T08:59:11Z</time></trkpt><trkpt lat="45.67861943067919" lon="9.839476344450341"><ele>238.66666666666669</ele><time>2026-05-03T08:59:12Z</time></trkpt><trkpt lat="45.67859043866694" lon="9.839564353167212"><ele>238.5</ele><time>2026-05-03T08:59:13Z</time></trkpt><trkpt lat="45.67852879193139" lon="9.839725151193026"><ele>238.33333333333331</ele><time>2026-05-03T08:59:15Z</time></trkpt><trkpt lat="45.67849603066697" lon="9.83980672517351"><ele>238.16666666666666</ele><time>2026-05-03T08:59:16Z</time></trkpt><trkpt lat="45.67847158193061" lon="9.839890667655366"><ele>238.0</ele><time>2026-05-03T08:59:17Z</time></trkpt><trkpt lat="45.67844166931868" lon="9.839974431329837"><ele>238.0</ele><time>2026-05-03T08:59:18Z</time></trkpt><trkpt lat="45.67838529791244" lon="9.84013214593605"><ele>238.0</ele><time>2026-05-03T08:59:20Z</time></trkpt><trkpt lat="45.67830822878123" lon="9.840266990539982"><ele>238.0</ele><time>2026-05-03T08:59:22Z</time></trkpt><trkpt lat="45.67824372873386" lon="9.84028859536709"><ele>238.0</ele><time>2026-05-03T08:59:23Z</time></trkpt><trkpt lat="45.67819307813107" lon="9.840389274726082"><ele>238.0</ele><time>2026-05-03T08:59:25Z</time></trkpt><trkpt lat="45.678169344019565" lon="9.840568551137011"><ele>237.99999999999997</ele><time>2026-05-03T08:59:27Z</time></trkpt><trkpt lat="45.678156947877376" lon="9.840665840628947"><ele>238.0</ele><time>2026-05-03T08:59:28Z</time></trkpt><trkpt lat="45.67814829159756" lon="9.840757424456294"><ele>238.0</ele><time>2026-05-03T08:59:29Z</time></trkpt><trkpt lat="45.678129131644084" lon="9.840905583994813"><ele>238.0</ele><time>2026-05-03T08:59:31Z</time></trkpt><trkpt lat="45.678108624923574" lon="9.841073819865317"><ele>237.99999999999997</ele><time>2026-05-03T08:59:33Z</time></trkpt><trkpt lat="45.67809626073323" lon="9.841168025583869"><ele>238.0</ele><time>2026-05-03T08:59:34Z</time></trkpt><trkpt lat="45.678087100269316" lon="9.841262626287325"><ele>237.8</ele><time>2026-05-03T08:59:35Z</time></trkpt><trkpt lat="45.678081467382135" lon="9.84135747797609"><ele>237.60000000000002</ele><time>2026-05-03T08:59:36Z</time></trkpt><trkpt lat="45.67806540342574" lon="9.841537326906922"><ele>237.39999999999998</ele><time>2026-05-03T08:59:38Z</time></trkpt><trkpt lat="45.678053822206785" lon="9.84171309142178"><ele>237.2</ele><time>2026-05-03T08:59:40Z</time></trkpt><trkpt lat="45.67804258099786" lon="9.841888536599217"><ele>237.0</ele><time>2026-05-03T08:59:42Z</time></trkpt><trkpt lat="45.6780316552378" lon="9.84206056476971"><ele>236.83333333333334</ele><time>2026-05-03T08:59:44Z</time></trkpt><trkpt lat="45.67802841502885" lon="9.842241211691235"><ele>236.66666666666669</ele><time>2026-05-03T08:59:46Z</time></trkpt><trkpt lat="45.67803356157939" lon="9.842333875848352"><ele>236.5</ele><time>2026-05-03T08:59:47Z</time></trkpt><trkpt lat="45.67803281572234" lon="9.842426438037094"><ele>236.33333333333334</ele><time>2026-05-03T08:59:48Z</time></trkpt><trkpt lat="45.67802864986468" lon="9.842517919497405"><ele>236.16666666666669</ele><time>2026-05-03T08:59:49Z</time></trkpt><trkpt lat="45.678030394220414" lon="9.842617986117594"><ele>236.0</ele><time>2026-05-03T08:59:50Z</time></trkpt><trkpt lat="45.6780301784212" lon="9.842709442764091"><ele>237.4</ele><time>2026-05-03T08:59:51Z</time></trkpt><trkpt lat="45.6780284558285" lon="9.842802080750408"><ele>238.8</ele><time>2026-05-03T08:59:52Z</time></trkpt><trkpt lat="45.678028494657376" lon="9.842982691526998"><ele>240.20000000000002</ele><time>2026-05-03T08:59:54Z</time></trkpt><trkpt lat="45.678020759409414" lon="9.843148242299197"><ele>241.60000000000002</ele><time>2026-05-03T08:59:56Z</time></trkpt><trkpt lat="45.67804760332715" lon="9.843319598044095"><ele>243.0</ele><time>2026-05-03T08:59:58Z</time></trkpt><trkpt lat="45.67806307622914" lon="9.843408380714616"><ele>244.60000000000002</ele><time>2026-05-03T08:59:59Z</time></trkpt><trkpt lat="45.678120429566754" lon="9.843542862508864"><ele>246.20000000000002</ele><time>2026-05-03T09:00:01Z</time></trkpt><trkpt lat="45.67816619408448" lon="9.843685639161741"><ele>247.8</ele><time>2026-05-03T09:00:03Z</time></trkpt><trkpt lat="45.67821503899966" lon="9.843811962880027"><ele>249.4</ele><time>2026-05-03T09:00:05Z</time></trkpt><trkpt lat="45.67826756760541" lon="9.843938696325354"><ele>251.0</ele><time>2026-05-03T09:00:07Z</time></trkpt><trkpt lat="45.67830912769248" lon="9.844064593785378"><ele>251.0</ele><time>2026-05-03T09:00:09Z</time></trkpt><trkpt lat="45.67834378673502" lon="9.844198486210905"><ele>251.00000000000003</ele><time>2026-05-03T09:00:11Z</time></trkpt><trkpt lat="45.67837375386094" lon="9.844334303990129"><ele>251.00000000000003</ele><time>2026-05-03T09:00:13Z</time></trkpt><trkpt lat="45.67840007354678" lon="9.844463153472079"><ele>251.0</ele><time>2026-05-03T09:00:15Z</time></trkpt><trkpt lat="45.678473617640286" lon="9.844570056948589"><ele>251.0</ele><time>2026-05-03T09:00:17Z</time></trkpt><trkpt lat="45.678556977849645" lon="9.844655457744588"><ele>255.4</ele><time>2026-05-03T09:00:19Z</time></trkpt><trkpt lat="45.67863630686592" lon="9.844748252819326"><ele>259.8</ele><time>2026-05-03T09:00:21Z</time></trkpt><trkpt lat="45.6787138506162" lon="9.844840931698842"><ele>264.20000000000005</ele><time>2026-05-03T09:00:23Z</time></trkpt><trkpt lat="45.678779849045206" lon="9.844951011262769"><ele>268.6</ele><time>2026-05-03T09:00:25Z</time></trkpt><trkpt lat="45.6788001113832" lon="9.845084892195194"><ele>273.0</ele><time>2026-05-03T09:00:27Z</time></trkpt><trkpt lat="45.67879566536381" lon="9.845225274342637"><ele>275.2</ele><time>2026-05-03T09:00:29Z</time></trkpt><trkpt lat="45.67877564585049" lon="9.845357646502972"><ele>277.4</ele><time>2026-05-03T09:00:31Z</time></trkpt><trkpt lat="45.678749175846306" lon="9.84548672108143"><ele>279.59999999999997</ele><time>2026-05-03T09:00:33Z</time></trkpt><trkpt lat="45.67872045249471" lon="9.845622124359005"><ele>281.8</ele><time>2026-05-03T09:00:35Z</time></trkpt><trkpt lat="45.67869066536743" lon="9.845762345033497"><ele>284.0</ele><time>2026-05-03T09:00:37Z</time></trkpt><trkpt lat="45.67863836943439" lon="9.845892252660969"><ele>281.25</ele><time>2026-05-03T09:00:39Z</time></trkpt><trkpt lat="45.67857516787801" lon="9.84602586207676"><ele>278.5</ele><time>2026-05-03T09:00:41Z</time></trkpt><trkpt lat="45.67848665148205" lon="9.846135895767272"><ele>275.75</ele><time>2026-05-03T09:00:43Z</time></trkpt><trkpt lat="45.67838689225741" lon="9.846221452631559"><ele>273.0</ele><time>2026-05-03T09:00:45Z</time></trkpt><trkpt lat="45.678284977391534" lon="9.846319806169811"><ele>273.0</ele><time>2026-05-03T09:00:47Z</time></trkpt><trkpt lat="45.67820024886453" lon="9.846449524881203"><ele>273.0</ele><time>2026-05-03T09:00:49Z</time></trkpt><trkpt lat="45.678126896056426" lon="9.846595841932603"><ele>273.0</ele><time>2026-05-03T09:00:51Z</time></trkpt><trkpt lat="45.67809763879183" lon="9.846676820052416"><ele>273.0</ele><time>2026-05-03T09:00:52Z</time></trkpt><trkpt lat="45.67805160237838" lon="9.846836309954156"><ele>273.0</ele><time>2026-05-03T09:00:54Z</time></trkpt><trkpt lat="45.67801468134748" lon="9.847001072487094"><ele>277.0</ele><time>2026-05-03T09:00:56Z</time></trkpt><trkpt lat="45.67797760591168" lon="9.847161885124764"><ele>281.0</ele><time>2026-05-03T09:00:58Z</time></trkpt><trkpt lat="45.6779343811499" lon="9.847318693906576"><ele>285.0</ele><time>2026-05-03T09:01:00Z</time></trkpt><trkpt lat="45.67790149742134" lon="9.847485965210366"><ele>289.0</ele><time>2026-05-03T09:01:02Z</time></trkpt><trkpt lat="45.67786674515299" lon="9.847630887678134"><ele>292.5</ele><time>2026-05-03T09:01:04Z</time></trkpt><trkpt lat="45.67782457965422" lon="9.847787560288605"><ele>296.0</ele><time>2026-05-03T09:01:06Z</time></trkpt><trkpt lat="45.677785662690745" lon="9.847940869887713"><ele>299.5</ele><time>2026-05-03T09:01:08Z</time></trkpt><trkpt lat="45.677733214850875" lon="9.848078192051277"><ele>303.0</ele><time>2026-05-03T09:01:10Z</time></trkpt><trkpt lat="45.677695910346515" lon="9.848243497349124"><ele>300.6</ele><time>2026-05-03T09:01:12Z</time></trkpt><trkpt lat="45.67766820319241" lon="9.84834496649682"><ele>298.20000000000005</ele><time>2026-05-03T09:01:13Z</time></trkpt><trkpt lat="45.67762304409622" lon="9.8484350485282"><ele>295.8</ele><time>2026-05-03T09:01:15Z</time></trkpt><trkpt lat="45.677594311991896" lon="9.84853215731288"><ele>293.40000000000003</ele><time>2026-05-03T09:01:16Z</time></trkpt><trkpt lat="45.67753508808257" lon="9.848667472263806"><ele>291.0</ele><time>2026-05-03T09:01:18Z</time></trkpt><trkpt lat="45.67748324589322" lon="9.848813125801952"><ele>291.0</ele><time>2026-05-03T09:01:20Z</time></trkpt><trkpt lat="45.67742871868639" lon="9.84894952207626"><ele>291.0</ele><time>2026-05-03T09:01:22Z</time></trkpt><trkpt lat="45.67736166384536" lon="9.849077644870713"><ele>291.0</ele><time>2026-05-03T09:01:24Z</time></trkpt><trkpt lat="45.67729816265886" lon="9.849205317633526"><ele>291.0</ele><time>2026-05-03T09:01:26Z</time></trkpt><trkpt lat="45.6772402833147" lon="9.84934199386358"><ele>291.0</ele><time>2026-05-03T09:01:28Z</time></trkpt><trkpt lat="45.677186450379324" lon="9.84948450329352"><ele>293.8</ele><time>2026-05-03T09:01:30Z</time></trkpt><trkpt lat="45.677139372574565" lon="9.84962234239485"><ele>296.6</ele><time>2026-05-03T09:01:32Z</time></trkpt><trkpt lat="45.67709381883843" lon="9.849755652301996"><ele>299.4</ele><time>2026-05-03T09:01:34Z</time></trkpt><trkpt lat="45.67705928652393" lon="9.849895573667261"><ele>302.2</ele><time>2026-05-03T09:01:36Z</time></trkpt><trkpt lat="45.67702772423743" lon="9.850031473295992"><ele>305.0</ele><time>2026-05-03T09:01:38Z</time></trkpt><trkpt lat="45.677007429825636" lon="9.850159905417437"><ele>305.0</ele><time>2026-05-03T09:01:40Z</time></trkpt><trkpt lat="45.676991717995556" lon="9.850281286379559"><ele>305.0</ele><time>2026-05-03T09:01:42Z</time></trkpt><trkpt lat="45.676992614058605" lon="9.850415641439527"><ele>305.0</ele><time>2026-05-03T09:01:44Z</time></trkpt><trkpt lat="45.677005476100646" lon="9.850531476637588"><ele>305.0</ele><time>2026-05-03T09:01:46Z</time></trkpt><trkpt lat="45.67706615421977" lon="9.85060873391795"><ele>305.0</ele><time>2026-05-03T09:01:48Z</time></trkpt><trkpt lat="45.677117976587915" lon="9.850751967480903"><ele>305.0</ele><time>2026-05-03T09:01:50Z</time></trkpt><trkpt lat="45.67713671657255" lon="9.850842933463966"><ele>305.0</ele><time>2026-05-03T09:01:51Z</time></trkpt><trkpt lat="45.67716351547334" lon="9.850932553607485"><ele>305.0</ele><time>2026-05-03T09:01:52Z</time></trkpt><trkpt lat="45.67718585696703" lon="9.851033778512654"><ele>305.0</ele><time>2026-05-03T09:01:53Z</time></trkpt><trkpt lat="45.67720362328013" lon="9.851136932298608"><ele>305.0</ele><time>2026-05-03T09:01:54Z</time></trkpt><trkpt lat="45.67721188873151" lon="9.85123743836983"><ele>305.0</ele><time>2026-05-03T09:01:55Z</time></trkpt><trkpt lat="45.67722811345569" lon="9.851348660644623"><ele>305.0</ele><time>2026-05-03T09:01:56Z</time></trkpt><trkpt lat="45.67724305849555" lon="9.851457249624234"><ele>302.83333333333337</ele><time>2026-05-03T09:01:57Z</time></trkpt><trkpt lat="45.6772567803664" lon="9.851565197035944"><ele>300.6666666666667</ele><time>2026-05-03T09:01:58Z</time></trkpt><trkpt lat="45.67727553580288" lon="9.851665018482548"><ele>298.5</ele><time>2026-05-03T09:01:59Z</time></trkpt><trkpt lat="45.67728963100274" lon="9.85175830525023"><ele>296.3333333333333</ele><time>2026-05-03T09:02:00Z</time></trkpt><trkpt lat="45.677311481061366" lon="9.85193388212192"><ele>294.16666666666663</ele><time>2026-05-03T09:02:02Z</time></trkpt><trkpt lat="45.677330484375034" lon="9.852032149170935"><ele>292.0</ele><time>2026-05-03T09:02:03Z</time></trkpt><trkpt lat="45.67735047402784" lon="9.85213242653043"><ele>289.5</ele><time>2026-05-03T09:02:04Z</time></trkpt><trkpt lat="45.677409973430045" lon="9.852297876407425"><ele>287.0</ele><time>2026-05-03T09:02:06Z</time></trkpt><trkpt lat="45.6774457825353" lon="9.852372206261682"><ele>284.5</ele><time>2026-05-03T09:02:07Z</time></trkpt><trkpt lat="45.67749663717978" lon="9.852502446221223"><ele>282.0</ele><time>2026-05-03T09:02:09Z</time></trkpt><trkpt lat="45.67754432877144" lon="9.852570167124147"><ele>279.5</ele><time>2026-05-03T09:02:10Z</time></trkpt><trkpt lat="45.67760096246993" lon="9.852632391383066"><ele>277.0</ele><time>2026-05-03T09:02:11Z</time></trkpt><trkpt lat="45.677654833017684" lon="9.852705671282816"><ele>276.57142857142856</ele><time>2026-05-03T09:02:12Z</time></trkpt><trkpt lat="45.677707537065956" lon="9.852765414073183"><ele>276.1428571428571</ele><time>2026-05-03T09:02:13Z</time></trkpt><trkpt lat="45.677755779449384" lon="9.85284616192864"><ele>275.7142857142857</ele><time>2026-05-03T09:02:14Z</time></trkpt><trkpt lat="45.677807929563734" lon="9.852911355144713"><ele>275.2857142857143</ele><time>2026-05-03T09:02:15Z</time></trkpt><trkpt lat="45.67785415132842" lon="9.852980983472948"><ele>274.8571428571429</ele><time>2026-05-03T09:02:16Z</time></trkpt><trkpt lat="45.67790469417424" lon="9.853046954174124"><ele>274.42857142857144</ele><time>2026-05-03T09:02:17Z</time></trkpt><trkpt lat="45.677935439033924" lon="9.853127016039645"><ele>274.0</ele><time>2026-05-03T09:02:18Z</time></trkpt><trkpt lat="45.67800554616683" lon="9.853259760494568"><ele>274.0</ele><time>2026-05-03T09:02:20Z</time></trkpt><trkpt lat="45.678047723116656" lon="9.853334591590064"><ele>274.0</ele><time>2026-05-03T09:02:21Z</time></trkpt><trkpt lat="45.678086950116615" lon="9.853409372797437"><ele>274.0</ele><time>2026-05-03T09:02:22Z</time></trkpt><trkpt lat="45.67816000288913" lon="9.853531378552447"><ele>274.0</ele><time>2026-05-03T09:02:24Z</time></trkpt><trkpt lat="45.67820824957895" lon="9.853636455210482"><ele>274.0</ele><time>2026-05-03T09:02:26Z</time></trkpt><trkpt lat="45.67826544962683" lon="9.853731738193158"><ele>274.0</ele><time>2026-05-03T09:02:28Z</time></trkpt><trkpt lat="45.67835770571498" lon="9.853842467801014"><ele>270.5</ele><time>2026-05-03T09:02:30Z</time></trkpt><trkpt lat="45.67841880391785" lon="9.853890270465978"><ele>267.0</ele><time>2026-05-03T09:02:31Z</time></trkpt><trkpt lat="45.67848011706476" lon="9.853930448004629"><ele>263.5</ele><time>2026-05-03T09:02:32Z</time></trkpt><trkpt lat="45.67853981183086" lon="9.853971420853782"><ele>260.0</ele><time>2026-05-03T09:02:33Z</time></trkpt><trkpt lat="45.67864930402509" lon="9.854030582448095"><ele>256.5</ele><time>2026-05-03T09:02:35Z</time></trkpt><trkpt lat="45.67872861486711" lon="9.854089161447362"><ele>253.0</ele><time>2026-05-03T09:02:37Z</time></trkpt><trkpt lat="45.678798627902516" lon="9.854150164243672"><ele>253.0</ele><time>2026-05-03T09:02:39Z</time></trkpt><trkpt lat="45.678801493457506" lon="9.854240955496305"><ele>253.0</ele><time>2026-05-03T09:02:41Z</time></trkpt><trkpt lat="45.67873603011293" lon="9.85435560023724"><ele>253.0</ele><time>2026-05-03T09:02:43Z</time></trkpt><trkpt lat="45.678657564050106" lon="9.854433984470804"><ele>253.0</ele><time>2026-05-03T09:02:45Z</time></trkpt><trkpt lat="45.678575187899945" lon="9.85451081385394"><ele>253.0</ele><time>2026-05-03T09:02:47Z</time></trkpt><trkpt lat="45.67848370448921" lon="9.854585163372834"><ele>252.66666666666666</ele><time>2026-05-03T09:02:49Z</time></trkpt><trkpt lat="45.678402259714105" lon="9.85468883636334"><ele>252.33333333333331</ele><time>2026-05-03T09:02:51Z</time></trkpt><trkpt lat="45.67835519442189" lon="9.854829197303536"><ele>252.0</ele><time>2026-05-03T09:02:53Z</time></trkpt><trkpt lat="45.678357549220266" lon="9.854940554888891"><ele>251.66666666666669</ele><time>2026-05-03T09:02:55Z</time></trkpt><trkpt lat="45.67840140220014" lon="9.855011277950545"><ele>251.33333333333334</ele><time>2026-05-03T09:03:17Z</time></trkpt><trkpt lat="45.67839409176185" lon="9.855105195679222"><ele>251.0</ele><time>2026-05-03T09:03:30Z</time></trkpt><trkpt lat="45.678393390007535" lon="9.855219786019783"><ele>251.00000000000003</ele><time>2026-05-03T09:03:33Z</time></trkpt><trkpt lat="45.678392989802674" lon="9.855315731815416"><ele>251.0</ele><time>2026-05-03T09:03:35Z</time></trkpt><trkpt lat="45.678409829814235" lon="9.855427280884694"><ele>251.0</ele><time>2026-05-03T09:03:37Z</time></trkpt><trkpt lat="45.678457413455405" lon="9.855549802794698"><ele>251.0</ele><time>2026-05-03T09:03:39Z</time></trkpt><trkpt lat="45.67851012252488" lon="9.855675477094008"><ele>251.00000000000003</ele><time>2026-05-03T09:03:41Z</time></trkpt><trkpt lat="45.678556124912056" lon="9.855791589125674"><ele>251.0</ele><time>2026-05-03T09:03:43Z</time></trkpt><trkpt lat="45.67858851742212" lon="9.855880439171374"><ele>251.66666666666669</ele><time>2026-05-03T09:03:45Z</time></trkpt><trkpt lat="45.678672193360825" lon="9.855894414762819"><ele>252.33333333333334</ele><time>2026-05-03T09:03:49Z</time></trkpt><trkpt lat="45.678715117399676" lon="9.855813989865396"><ele>253.0</ele><time>2026-05-03T09:03:51Z</time></trkpt><trkpt lat="45.67877335341498" lon="9.855742822003972"><ele>253.66666666666669</ele><time>2026-05-03T09:03:53Z</time></trkpt><trkpt lat="45.67883754929073" lon="9.8556712990041"><ele>254.33333333333334</ele><time>2026-05-03T09:03:55Z</time></trkpt><trkpt lat="45.67890167121361" lon="9.85561742842595"><ele>255.0</ele><time>2026-05-03T09:03:57Z</time></trkpt><trkpt lat="45.67897272608867" lon="9.85557269942917"><ele>255.0</ele><time>2026-05-03T09:03:59Z</time></trkpt><trkpt lat="45.6790560890844" lon="9.855547372292293"><ele>255.0</ele><time>2026-05-03T09:04:01Z</time></trkpt><trkpt lat="45.67913611499901" lon="9.855535187886366"><ele>255.0</ele><time>2026-05-03T09:04:03Z</time></trkpt><trkpt lat="45.679212974760645" lon="9.85552603351257"><ele>255.0</ele><time>2026-05-03T09:04:05Z</time></trkpt><trkpt lat="45.67928556965291" lon="9.855519624962588"><ele>255.0</ele><time>2026-05-03T09:04:07Z</time></trkpt><trkpt lat="45.67937022954564" lon="9.855506780640834"><ele>255.0</ele><time>2026-05-03T09:04:09Z</time></trkpt><trkpt lat="45.67945324235363" lon="9.855513679550429"><ele>255.8</ele><time>2026-05-03T09:04:11Z</time></trkpt><trkpt lat="45.67955141071308" lon="9.855546529852692"><ele>256.6</ele><time>2026-05-03T09:04:13Z</time></trkpt><trkpt lat="45.679650972591155" lon="9.855588877978587"><ele>257.4</ele><time>2026-05-03T09:04:15Z</time></trkpt><trkpt lat="45.679750344076794" lon="9.8555998660587"><ele>258.2</ele><time>2026-05-03T09:04:17Z</time></trkpt><trkpt lat="45.67984780728778" lon="9.855622846351885"><ele>259.0</ele><time>2026-05-03T09:04:19Z</time></trkpt><trkpt lat="45.6799457419707" lon="9.855620284952437"><ele>259.0</ele><time>2026-05-03T09:04:21Z</time></trkpt><trkpt lat="45.68004248703058" lon="9.855619785973412"><ele>259.0</ele><time>2026-05-03T09:04:23Z</time></trkpt><trkpt lat="45.68012415684668" lon="9.855611544088376"><ele>259.0</ele><time>2026-05-03T09:04:25Z</time></trkpt><trkpt lat="45.680210673385325" lon="9.855584419190052"><ele>259.0</ele><time>2026-05-03T09:04:27Z</time></trkpt><trkpt lat="45.680301873594544" lon="9.855556233649287"><ele>259.0</ele><time>2026-05-03T09:04:29Z</time></trkpt><trkpt lat="45.68039760211946" lon="9.85551352601614"><ele>258.8</ele><time>2026-05-03T09:04:31Z</time></trkpt><trkpt lat="45.680490623492844" lon="9.855437522048545"><ele>258.59999999999997</ele><time>2026-05-03T09:04:33Z</time></trkpt><trkpt lat="45.68057396897998" lon="9.855332591610718"><ele>258.4</ele><time>2026-05-03T09:04:35Z</time></trkpt><trkpt lat="45.68064113542556" lon="9.855233398927796"><ele>258.2</ele><time>2026-05-03T09:04:37Z</time></trkpt><trkpt lat="45.68069061346093" lon="9.855135388487367"><ele>258.0</ele><time>2026-05-03T09:04:39Z</time></trkpt><trkpt lat="45.68074562465082" lon="9.85503380640184"><ele>258.0</ele><time>2026-05-03T09:04:41Z</time></trkpt><trkpt lat="45.68077890095043" lon="9.854888732857946"><ele>258.0</ele><time>2026-05-03T09:04:43Z</time></trkpt><trkpt lat="45.68080172043539" lon="9.85473737515511"><ele>258.0</ele><time>2026-05-03T09:04:45Z</time></trkpt><trkpt lat="45.68083744171802" lon="9.854593905385519"><ele>258.0</ele><time>2026-05-03T09:04:47Z</time></trkpt><trkpt lat="45.680866284071264" lon="9.854467080536919"><ele>258.0</ele><time>2026-05-03T09:04:49Z</time></trkpt><trkpt lat="45.68089314802882" lon="9.854337945599651"><ele>258.0</ele><time>2026-05-03T09:04:51Z</time></trkpt><trkpt lat="45.680919807802596" lon="9.854202628934804"><ele>258.0</ele><time>2026-05-03T09:04:53Z</time></trkpt><trkpt lat="45.680957592721626" lon="9.85407610716114"><ele>258.0</ele><time>2026-05-03T09:04:55Z</time></trkpt><trkpt lat="45.68098814829597" lon="9.853926727224271"><ele>258.0</ele><time>2026-05-03T09:04:57Z</time></trkpt><trkpt lat="45.68102559651469" lon="9.853769410010123"><ele>258.0</ele><time>2026-05-03T09:04:59Z</time></trkpt><trkpt lat="45.681056736539524" lon="9.853609994050595"><ele>257.8</ele><time>2026-05-03T09:05:01Z</time></trkpt><trkpt lat="45.68109342968395" lon="9.853454028583418"><ele>257.6</ele><time>2026-05-03T09:05:03Z</time></trkpt><trkpt lat="45.6811254667844" lon="9.853279530271363"><ele>257.4</ele><time>2026-05-03T09:05:05Z</time></trkpt><trkpt lat="45.68117115602961" lon="9.853128284481325"><ele>257.2</ele><time>2026-05-03T09:05:07Z</time></trkpt><trkpt lat="45.68119053089232" lon="9.853037626094556"><ele>257.0</ele><time>2026-05-03T09:05:08Z</time></trkpt><trkpt lat="45.68123306368499" lon="9.852875706608625"><ele>257.4</ele><time>2026-05-03T09:05:10Z</time></trkpt><trkpt lat="45.68126208648681" lon="9.85279413562624"><ele>257.79999999999995</ele><time>2026-05-03T09:05:11Z</time></trkpt><trkpt lat="45.68129057261135" lon="9.852713088371905"><ele>258.2</ele><time>2026-05-03T09:05:12Z</time></trkpt><trkpt lat="45.68134404307494" lon="9.852549469276774"><ele>258.59999999999997</ele><time>2026-05-03T09:05:14Z</time></trkpt><trkpt lat="45.68140225738142" lon="9.852386988889354"><ele>259.0</ele><time>2026-05-03T09:05:16Z</time></trkpt><trkpt lat="45.68146070237484" lon="9.852232184963166"><ele>259.0</ele><time>2026-05-03T09:05:18Z</time></trkpt><trkpt lat="45.68150971290875" lon="9.852075773224954"><ele>259.0</ele><time>2026-05-03T09:05:20Z</time></trkpt><trkpt lat="45.681554498686125" lon="9.851923306997916"><ele>259.0</ele><time>2026-05-03T09:05:22Z</time></trkpt><trkpt lat="45.681595566170415" lon="9.85178141134691"><ele>259.0</ele><time>2026-05-03T09:05:24Z</time></trkpt><trkpt lat="45.68166816487246" lon="9.85164659645663"><ele>259.0</ele><time>2026-05-03T09:05:26Z</time></trkpt><trkpt lat="45.68176862811083" lon="9.851552903444206"><ele>259.0</ele><time>2026-05-03T09:05:28Z</time></trkpt><trkpt lat="45.681863583989774" lon="9.851454240297683"><ele>259.0</ele><time>2026-05-03T09:05:30Z</time></trkpt><trkpt lat="45.68196679280739" lon="9.851358487523065"><ele>259.0</ele><time>2026-05-03T09:05:32Z</time></trkpt><trkpt lat="45.68205489674586" lon="9.851244634253092"><ele>259.0</ele><time>2026-05-03T09:05:34Z</time></trkpt><trkpt lat="45.68214407799322" lon="9.851130933224345"><ele>259.0</ele><time>2026-05-03T09:05:36Z</time></trkpt><trkpt lat="45.68221860025606" lon="9.851001454777546"><ele>259.0</ele><time>2026-05-03T09:05:38Z</time></trkpt><trkpt lat="45.68227680224107" lon="9.850861387318194"><ele>259.0</ele><time>2026-05-03T09:05:40Z</time></trkpt><trkpt lat="45.68231419471706" lon="9.850706867861966"><ele>258.8</ele><time>2026-05-03T09:05:42Z</time></trkpt><trkpt lat="45.682321751250036" lon="9.850539868722203"><ele>258.59999999999997</ele><time>2026-05-03T09:05:44Z</time></trkpt><trkpt lat="45.682313097247075" lon="9.850377793191367"><ele>258.4</ele><time>2026-05-03T09:05:46Z</time></trkpt><trkpt lat="45.68229424450765" lon="9.850222511303471"><ele>258.2</ele><time>2026-05-03T09:05:48Z</time></trkpt><trkpt lat="45.68226895779726" lon="9.85009513860827"><ele>258.0</ele><time>2026-05-03T09:05:50Z</time></trkpt><trkpt lat="45.68230547410192" lon="9.849982644815851"><ele>258.0</ele><time>2026-05-03T09:05:53Z</time></trkpt><trkpt lat="45.68239882759749" lon="9.849985631208687"><ele>258.0</ele><time>2026-05-03T09:05:55Z</time></trkpt><trkpt lat="45.68245654385147" lon="9.850023675404826"><ele>258.0</ele><time>2026-05-03T09:05:56Z</time></trkpt><trkpt lat="45.68257182937195" lon="9.850090674609541"><ele>258.0</ele><time>2026-05-03T09:05:58Z</time></trkpt><trkpt lat="45.68262818602287" lon="9.850131732932237"><ele>258.0</ele><time>2026-05-03T09:05:59Z</time></trkpt><trkpt lat="45.68268437111881" lon="9.850173585285559"><ele>258.0</ele><time>2026-05-03T09:06:00Z</time></trkpt><trkpt lat="45.6827425117791" lon="9.85021205763535"><ele>258.5</ele><time>2026-05-03T09:06:01Z</time></trkpt><trkpt lat="45.68285069829448" lon="9.850295037993018"><ele>259.0</ele><time>2026-05-03T09:06:03Z</time></trkpt><trkpt lat="45.682959464373944" lon="9.850383705334522"><ele>259.5</ele><time>2026-05-03T09:06:05Z</time></trkpt><trkpt lat="45.68306433820689" lon="9.85046324923084"><ele>260.0</ele><time>2026-05-03T09:06:07Z</time></trkpt><trkpt lat="45.683171166703566" lon="9.850535013612827"><ele>260.0</ele><time>2026-05-03T09:06:09Z</time></trkpt><trkpt lat="45.68327291935383" lon="9.850609956754692"><ele>260.0</ele><time>2026-05-03T09:06:11Z</time></trkpt><trkpt lat="45.68337284425228" lon="9.850680964436236"><ele>260.0</ele><time>2026-05-03T09:06:13Z</time></trkpt><trkpt lat="45.68346549399418" lon="9.850758581737072"><ele>260.0</ele><time>2026-05-03T09:06:15Z</time></trkpt><trkpt lat="45.68354898751744" lon="9.850830622978908"><ele>260.0</ele><time>2026-05-03T09:06:17Z</time></trkpt><trkpt lat="45.6836426749532" lon="9.850849491461485"><ele>259.8</ele><time>2026-05-03T09:06:19Z</time></trkpt><trkpt lat="45.68375058090104" lon="9.85083941334451"><ele>259.6</ele><time>2026-05-03T09:06:21Z</time></trkpt><trkpt lat="45.68386745384434" lon="9.850840248195036"><ele>259.4</ele><time>2026-05-03T09:06:23Z</time></trkpt><trkpt lat="45.68399534101496" lon="9.850851577887536"><ele>259.2</ele><time>2026-05-03T09:06:25Z</time></trkpt><trkpt lat="45.684060592453946" lon="9.85087223955657"><ele>259.0</ele><time>2026-05-03T09:06:26Z</time></trkpt><trkpt lat="45.6841285046792" lon="9.850894921346676"><ele>259.0</ele><time>2026-05-03T09:06:27Z</time></trkpt><trkpt lat="45.68419076118927" lon="9.850920836965978"><ele>259.0</ele><time>2026-05-03T09:06:28Z</time></trkpt><trkpt lat="45.684304951256095" lon="9.850960130968382"><ele>259.0</ele><time>2026-05-03T09:06:30Z</time></trkpt><trkpt lat="45.68440521545909" lon="9.851004002748743"><ele>259.0</ele><time>2026-05-03T09:06:32Z</time></trkpt><trkpt lat="45.68451349121697" lon="9.851056032951192"><ele>259.0</ele><time>2026-05-03T09:06:34Z</time></trkpt><trkpt lat="45.68461569071344" lon="9.851109579850368"><ele>260.25</ele><time>2026-05-03T09:06:36Z</time></trkpt><trkpt lat="45.6847201058454" lon="9.851158441810458"><ele>261.5</ele><time>2026-05-03T09:06:38Z</time></trkpt><trkpt lat="45.68483045874629" lon="9.851209755583128"><ele>262.75</ele><time>2026-05-03T09:06:40Z</time></trkpt><trkpt lat="45.68494234204755" lon="9.851272102517413"><ele>264.0</ele><time>2026-05-03T09:06:42Z</time></trkpt><trkpt lat="45.68505228303016" lon="9.851335397827865"><ele>264.0</ele><time>2026-05-03T09:06:44Z</time></trkpt><trkpt lat="45.6851504105383" lon="9.851397247452562"><ele>264.0</ele><time>2026-05-03T09:06:46Z</time></trkpt><trkpt lat="45.68524100698979" lon="9.851456193661342"><ele>264.0</ele><time>2026-05-03T09:06:48Z</time></trkpt><trkpt lat="45.685344904936265" lon="9.851527454726323"><ele>264.0</ele><time>2026-05-03T09:06:50Z</time></trkpt><trkpt lat="45.685454800147454" lon="9.851592485197827"><ele>264.0</ele><time>2026-05-03T09:06:52Z</time></trkpt><trkpt lat="45.68555105342645" lon="9.851656380230251"><ele>263.59999999999997</ele><time>2026-05-03T09:06:54Z</time></trkpt><trkpt lat="45.68563916333747" lon="9.851707615466584"><ele>263.2</ele><time>2026-05-03T09:06:56Z</time></trkpt><trkpt lat="45.685719101679844" lon="9.851751620921624"><ele>262.79999999999995</ele><time>2026-05-03T09:06:58Z</time></trkpt><trkpt lat="45.68580399709947" lon="9.85180289425391"><ele>262.4</ele><time>2026-05-03T09:07:00Z</time></trkpt><trkpt lat="45.6859107794466" lon="9.851847607975008"><ele>262.0</ele><time>2026-05-03T09:07:02Z</time></trkpt><trkpt lat="45.68603107981125" lon="9.851893515042573"><ele>263.25</ele><time>2026-05-03T09:07:04Z</time></trkpt><trkpt lat="45.68614869237847" lon="9.851936179955397"><ele>264.5</ele><time>2026-05-03T09:07:06Z</time></trkpt><trkpt lat="45.68626496676958" lon="9.851969529167983"><ele>265.75</ele><time>2026-05-03T09:07:08Z</time></trkpt><trkpt lat="45.68637596888635" lon="9.852007103088559"><ele>267.0</ele><time>2026-05-03T09:07:10Z</time></trkpt><trkpt lat="45.68648505843533" lon="9.852050372569217"><ele>267.0</ele><time>2026-05-03T09:07:12Z</time></trkpt><trkpt lat="45.68659634204355" lon="9.85208367493746"><ele>267.0</ele><time>2026-05-03T09:07:14Z</time></trkpt><trkpt lat="45.686706016226225" lon="9.852112672774599"><ele>267.0</ele><time>2026-05-03T09:07:16Z</time></trkpt><trkpt lat="45.68682183355776" lon="9.852140951190394"><ele>267.0</ele><time>2026-05-03T09:07:18Z</time></trkpt><trkpt lat="45.68693841840584" lon="9.852165898765872"><ele>267.75</ele><time>2026-05-03T09:07:20Z</time></trkpt><trkpt lat="45.68705799814941" lon="9.852174140703042"><ele>268.5</ele><time>2026-05-03T09:07:22Z</time></trkpt><trkpt lat="45.68717672128547" lon="9.852168114294313"><ele>269.25</ele><time>2026-05-03T09:07:24Z</time></trkpt><trkpt lat="45.68729372018625" lon="9.852167633842607"><ele>270.0</ele><time>2026-05-03T09:07:26Z</time></trkpt><trkpt lat="45.687403033523246" lon="9.85217422377699"><ele>270.0</ele><time>2026-05-03T09:07:28Z</time></trkpt><trkpt lat="45.68752370618447" lon="9.852159848172485"><ele>270.0</ele><time>2026-05-03T09:07:30Z</time></trkpt><trkpt lat="45.687591732057946" lon="9.852152097028226"><ele>270.0</ele><time>2026-05-03T09:07:31Z</time></trkpt><trkpt lat="45.687664396156215" lon="9.852160369412141"><ele>270.0</ele><time>2026-05-03T09:07:32Z</time></trkpt><trkpt lat="45.68777738392908" lon="9.852185611401179"><ele>270.0</ele><time>2026-05-03T09:07:34Z</time></trkpt><trkpt lat="45.68788507884061" lon="9.852207689909266"><ele>269.8</ele><time>2026-05-03T09:07:36Z</time></trkpt><trkpt lat="45.687994656344564" lon="9.852254798089426"><ele>269.6</ele><time>2026-05-03T09:07:38Z</time></trkpt><trkpt lat="45.68810106497457" lon="9.852313001916551"><ele>269.4</ele><time>2026-05-03T09:07:40Z</time></trkpt><trkpt lat="45.688204100653074" lon="9.852363996675924"><ele>269.2</ele><time>2026-05-03T09:07:42Z</time></trkpt><trkpt lat="45.68829778163676" lon="9.852427479430617"><ele>269.0</ele><time>2026-05-03T09:07:44Z</time></trkpt><trkpt lat="45.688352622406036" lon="9.852515799994638"><ele>269.59999999999997</ele><time>2026-05-03T09:07:46Z</time></trkpt><trkpt lat="45.688329166195224" lon="9.852641953100028"><ele>270.2</ele><time>2026-05-03T09:07:48Z</time></trkpt><trkpt lat="45.68834403825068" lon="9.852781471423958"><ele>270.79999999999995</ele><time>2026-05-03T09:07:50Z</time></trkpt><trkpt lat="45.68842372460966" lon="9.852904237352789"><ele>271.4</ele><time>2026-05-03T09:07:52Z</time></trkpt><trkpt lat="45.68852971309529" lon="9.852994051508535"><ele>272.0</ele><time>2026-05-03T09:07:54Z</time></trkpt><trkpt lat="45.68863161763134" lon="9.853089454166579"><ele>272.0</ele><time>2026-05-03T09:07:56Z</time></trkpt><trkpt lat="45.68873315207098" lon="9.853189386643269"><ele>272.0</ele><time>2026-05-03T09:07:58Z</time></trkpt><trkpt lat="45.68883762528123" lon="9.853277591893603"><ele>272.0</ele><time>2026-05-03T09:08:00Z</time></trkpt><trkpt lat="45.68894084210008" lon="9.853366031258947"><ele>272.0</ele><time>2026-05-03T09:08:02Z</time></trkpt><trkpt lat="45.68903950583276" lon="9.853470595826469"><ele>272.4</ele><time>2026-05-03T09:08:04Z</time></trkpt><trkpt lat="45.68914412782704" lon="9.853563323640937"><ele>272.79999999999995</ele><time>2026-05-03T09:08:06Z</time></trkpt><trkpt lat="45.68925155866102" lon="9.853646545233966"><ele>273.2</ele><time>2026-05-03T09:08:08Z</time></trkpt><trkpt lat="45.689305096359455" lon="9.853694426620688"><ele>273.59999999999997</ele><time>2026-05-03T09:08:09Z</time></trkpt><trkpt lat="45.689358689273156" lon="9.853743319559298"><ele>274.0</ele><time>2026-05-03T09:08:10Z</time></trkpt><trkpt lat="45.689465792394934" lon="9.853832432442196"><ele>274.75</ele><time>2026-05-03T09:08:12Z</time></trkpt><trkpt lat="45.689573590902725" lon="9.853919364734699"><ele>275.5</ele><time>2026-05-03T09:08:14Z</time></trkpt><trkpt lat="45.68968182613499" lon="9.85400467082306"><ele>276.25</ele><time>2026-05-03T09:08:16Z</time></trkpt><trkpt lat="45.689785938753914" lon="9.854092902465052"><ele>277.0</ele><time>2026-05-03T09:08:18Z</time></trkpt><trkpt lat="45.68989286798998" lon="9.854173188429094"><ele>277.0</ele><time>2026-05-03T09:08:20Z</time></trkpt><trkpt lat="45.68999919613793" lon="9.854261680268941"><ele>277.0</ele><time>2026-05-03T09:08:22Z</time></trkpt><trkpt lat="45.690092337834805" lon="9.854335822488581"><ele>277.0</ele><time>2026-05-03T09:08:24Z</time></trkpt><trkpt lat="45.690130544651204" lon="9.854417330469435"><ele>277.0</ele><time>2026-05-03T09:08:26Z</time></trkpt><trkpt lat="45.690083554415715" lon="9.854523947247625"><ele>277.0</ele><time>2026-05-03T09:08:28Z</time></trkpt><trkpt lat="45.690013446337865" lon="9.85466435388025"><ele>277.2857142857143</ele><time>2026-05-03T09:08:30Z</time></trkpt><trkpt lat="45.68998376090355" lon="9.854746388727412"><ele>277.57142857142856</ele><time>2026-05-03T09:08:31Z</time></trkpt><trkpt lat="45.689960469232304" lon="9.854831285603682"><ele>277.85714285714283</ele><time>2026-05-03T09:08:32Z</time></trkpt><trkpt lat="45.689941818481955" lon="9.854917584444358"><ele>278.1428571428571</ele><time>2026-05-03T09:08:33Z</time></trkpt><trkpt lat="45.68993044561847" lon="9.855007373094518"><ele>278.42857142857144</ele><time>2026-05-03T09:08:34Z</time></trkpt><trkpt lat="45.68992376650469" lon="9.855097239845165"><ele>278.71428571428567</ele><time>2026-05-03T09:08:35Z</time></trkpt><trkpt lat="45.689888444210915" lon="9.855262460366779"><ele>279.0</ele><time>2026-05-03T09:08:37Z</time></trkpt><trkpt lat="45.689833892687844" lon="9.855411776728864"><ele>280.0</ele><time>2026-05-03T09:08:39Z</time></trkpt><trkpt lat="45.68978549167659" lon="9.855558072822342"><ele>281.0</ele><time>2026-05-03T09:08:41Z</time></trkpt><trkpt lat="45.68975353223963" lon="9.85570952820835"><ele>282.0</ele><time>2026-05-03T09:08:43Z</time></trkpt><trkpt lat="45.68972778429666" lon="9.855885948902586"><ele>283.0</ele><time>2026-05-03T09:08:45Z</time></trkpt><trkpt lat="45.68969469093806" lon="9.855963147663298"><ele>284.0</ele><time>2026-05-03T09:08:46Z</time></trkpt><trkpt lat="45.68966331767874" lon="9.85613078032958"><ele>285.4</ele><time>2026-05-03T09:08:48Z</time></trkpt><trkpt lat="45.68963123342933" lon="9.856292696371852"><ele>286.79999999999995</ele><time>2026-05-03T09:08:50Z</time></trkpt><trkpt lat="45.6895922555724" lon="9.85636801183519"><ele>288.20000000000005</ele><time>2026-05-03T09:08:51Z</time></trkpt><trkpt lat="45.689546042620776" lon="9.856520188986194"><ele>289.6</ele><time>2026-05-03T09:08:53Z</time></trkpt><trkpt lat="45.689489836573415" lon="9.856668047026067"><ele>291.0</ele><time>2026-05-03T09:08:55Z</time></trkpt><trkpt lat="45.689437753609916" lon="9.856805693113028"><ele>290.25</ele><time>2026-05-03T09:08:57Z</time></trkpt><trkpt lat="45.68936047141073" lon="9.856929486910383"><ele>289.5</ele><time>2026-05-03T09:08:59Z</time></trkpt><trkpt lat="45.68927427936326" lon="9.857056837323395"><ele>288.75</ele><time>2026-05-03T09:09:01Z</time></trkpt><trkpt lat="45.68917198389852" lon="9.857155530090752"><ele>288.0</ele><time>2026-05-03T09:09:03Z</time></trkpt><trkpt lat="45.6890692095692" lon="9.857255038348399"><ele>288.0</ele><time>2026-05-03T09:09:05Z</time></trkpt><trkpt lat="45.68896599388916" lon="9.857348613568846"><ele>288.0</ele><time>2026-05-03T09:09:07Z</time></trkpt><trkpt lat="45.68887372800169" lon="9.857472301424814"><ele>288.0</ele><time>2026-05-03T09:09:09Z</time></trkpt><trkpt lat="45.688832529320166" lon="9.85754242333936"><ele>288.0</ele><time>2026-05-03T09:09:10Z</time></trkpt><trkpt lat="45.68880770046565" lon="9.857634060977757"><ele>288.0</ele><time>2026-05-03T09:09:11Z</time></trkpt><trkpt lat="45.6887864871109" lon="9.857726100149597"><ele>288.0</ele><time>2026-05-03T09:09:12Z</time></trkpt><trkpt lat="45.68875690418228" lon="9.857813162265463"><ele>288.6666666666667</ele><time>2026-05-03T09:09:13Z</time></trkpt><trkpt lat="45.688721084036054" lon="9.857897835083753"><ele>289.3333333333333</ele><time>2026-05-03T09:09:14Z</time></trkpt><trkpt lat="45.688683398785564" lon="9.857978816114516"><ele>290.0</ele><time>2026-05-03T09:09:15Z</time></trkpt><trkpt lat="45.68864376749473" lon="9.858052902850114"><ele>290.66666666666663</ele><time>2026-05-03T09:09:16Z</time></trkpt><trkpt lat="45.68860285869968" lon="9.858123442175156"><ele>291.3333333333333</ele><time>2026-05-03T09:09:17Z</time></trkpt><trkpt lat="45.68855130680532" lon="9.858177366186489"><ele>292.0</ele><time>2026-05-03T09:09:18Z</time></trkpt><trkpt lat="45.688444488708576" lon="9.858279526682935"><ele>292.6</ele><time>2026-05-03T09:09:20Z</time></trkpt><trkpt lat="45.68838552063969" lon="9.85835247246483"><ele>293.2</ele><time>2026-05-03T09:09:21Z</time></trkpt><trkpt lat="45.68830662639504" lon="9.858445216451129"><ele>293.8</ele><time>2026-05-03T09:09:23Z</time></trkpt><trkpt lat="45.68824732251864" lon="9.85848601169017"><ele>294.4</ele><time>2026-05-03T09:09:24Z</time></trkpt><trkpt lat="45.68814064166367" lon="9.85860598899625"><ele>295.0</ele><time>2026-05-03T09:09:26Z</time></trkpt><trkpt lat="45.688080572059064" lon="9.85865993498238"><ele>295.00000000000006</ele><time>2026-05-03T09:09:27Z</time></trkpt><trkpt lat="45.68800863120539" lon="9.85870000030207"><ele>295.0</ele><time>2026-05-03T09:09:28Z</time></trkpt><trkpt lat="45.687940502490015" lon="9.858736577332056"><ele>295.0</ele><time>2026-05-03T09:09:29Z</time></trkpt><trkpt lat="45.68787717597746" lon="9.858783392640003"><ele>295.0</ele><time>2026-05-03T09:09:30Z</time></trkpt><trkpt lat="45.68782706095203" lon="9.85885466959362"><ele>295.0</ele><time>2026-05-03T09:09:31Z</time></trkpt><trkpt lat="45.687785029329135" lon="9.858938343181652"><ele>295.00000000000006</ele><time>2026-05-03T09:09:32Z</time></trkpt><trkpt lat="45.68774803436455" lon="9.859018663405054"><ele>295.0</ele><time>2026-05-03T09:09:33Z</time></trkpt><trkpt lat="45.68771039374026" lon="9.859095159735542"><ele>293.5714285714286</ele><time>2026-05-03T09:09:34Z</time></trkpt><trkpt lat="45.68766818012749" lon="9.85917419617541"><ele>292.14285714285717</ele><time>2026-05-03T09:09:35Z</time></trkpt><trkpt lat="45.68763217227153" lon="9.859252487736764"><ele>290.7142857142857</ele><time>2026-05-03T09:09:36Z</time></trkpt><trkpt lat="45.68760163646567" lon="9.859334814431183"><ele>289.28571428571433</ele><time>2026-05-03T09:09:37Z</time></trkpt><trkpt lat="45.68757557965432" lon="9.859421807982075"><ele>287.8571428571429</ele><time>2026-05-03T09:09:38Z</time></trkpt><trkpt lat="45.68755657400416" lon="9.859512407782844"><ele>286.42857142857144</ele><time>2026-05-03T09:09:39Z</time></trkpt><trkpt lat="45.687539774842826" lon="9.859603574219578"><ele>285.0</ele><time>2026-05-03T09:09:40Z</time></trkpt><trkpt lat="45.68752651261614" lon="9.859694174662243"><ele>285.0</ele><time>2026-05-03T09:09:41Z</time></trkpt><trkpt lat="45.68750764364214" lon="9.85978333585513"><ele>285.0</ele><time>2026-05-03T09:09:42Z</time></trkpt><trkpt lat="45.687479763145575" lon="9.859870842195646"><ele>285.0</ele><time>2026-05-03T09:09:43Z</time></trkpt><trkpt lat="45.687458237990484" lon="9.859962654238398"><ele>285.0</ele><time>2026-05-03T09:09:44Z</time></trkpt><trkpt lat="45.68743995329642" lon="9.860054253778468"><ele>285.0</ele><time>2026-05-03T09:09:45Z</time></trkpt><trkpt lat="45.68742524420702" lon="9.860146838885639"><ele>285.0</ele><time>2026-05-03T09:09:46Z</time></trkpt><trkpt lat="45.68740559685832" lon="9.860321320014839"><ele>285.6666666666667</ele><time>2026-05-03T09:09:48Z</time></trkpt><trkpt lat="45.6873956006297" lon="9.860501120959308"><ele>286.3333333333333</ele><time>2026-05-03T09:09:50Z</time></trkpt><trkpt lat="45.687389687743824" lon="9.860592314945915"><ele>287.0</ele><time>2026-05-03T09:09:51Z</time></trkpt><trkpt lat="45.687385181462574" lon="9.8606830209761"><ele>287.66666666666663</ele><time>2026-05-03T09:09:52Z</time></trkpt><trkpt lat="45.68738287484088" lon="9.860861990105052"><ele>288.3333333333333</ele><time>2026-05-03T09:09:54Z</time></trkpt><trkpt lat="45.6873785102387" lon="9.860953002392533"><ele>289.0</ele><time>2026-05-03T09:09:55Z</time></trkpt><trkpt lat="45.68737033035192" lon="9.861044394916918"><ele>289.0</ele><time>2026-05-03T09:09:56Z</time></trkpt><trkpt lat="45.6873648696945" lon="9.861136452222734"><ele>289.0</ele><time>2026-05-03T09:09:57Z</time></trkpt><trkpt lat="45.68735400024762" lon="9.861225388126051"><ele>289.0</ele><time>2026-05-03T09:09:58Z</time></trkpt><trkpt lat="45.687329071548845" lon="9.861313251368886"><ele>289.0</ele><time>2026-05-03T09:09:59Z</time></trkpt><trkpt lat="45.68730836995268" lon="9.861401097419723"><ele>289.0</ele><time>2026-05-03T09:10:00Z</time></trkpt><trkpt lat="45.6872817813769" lon="9.861484413890794"><ele>289.0</ele><time>2026-05-03T09:10:01Z</time></trkpt><trkpt lat="45.68725812049602" lon="9.861568057858749"><ele>289.0</ele><time>2026-05-03T09:10:02Z</time></trkpt><trkpt lat="45.68723101783579" lon="9.861649904867825"><ele>289.0</ele><time>2026-05-03T09:10:03Z</time></trkpt><trkpt lat="45.68717562251933" lon="9.861821998343117"><ele>289.0</ele><time>2026-05-03T09:10:05Z</time></trkpt><trkpt lat="45.68713553343697" lon="9.861897922309655"><ele>289.0</ele><time>2026-05-03T09:10:06Z</time></trkpt><trkpt lat="45.687070730015236" lon="9.861958669151928"><ele>289.0</ele><time>2026-05-03T09:10:07Z</time></trkpt><trkpt lat="45.68700345741824" lon="9.86201576777472"><ele>289.0</ele><time>2026-05-03T09:10:08Z</time></trkpt><trkpt lat="45.686933109035074" lon="9.862080891148906"><ele>289.0</ele><time>2026-05-03T09:10:09Z</time></trkpt><trkpt lat="45.68686469783684" lon="9.862151563184879"><ele>289.0</ele><time>2026-05-03T09:10:10Z</time></trkpt><trkpt lat="45.6867924340102" lon="9.862224224731962"><ele>286.59999999999997</ele><time>2026-05-03T09:10:11Z</time></trkpt><trkpt lat="45.68672108083244" lon="9.862301340295815"><ele>284.2</ele><time>2026-05-03T09:10:12Z</time></trkpt><trkpt lat="45.686650088010175" lon="9.862378756467555"><ele>281.79999999999995</ele><time>2026-05-03T09:10:13Z</time></trkpt><trkpt lat="45.6865778955877" lon="9.862460071312372"><ele>279.4</ele><time>2026-05-03T09:10:14Z</time></trkpt><trkpt lat="45.68650420969775" lon="9.862539913723163"><ele>277.0</ele><time>2026-05-03T09:10:15Z</time></trkpt><trkpt lat="45.68643258824043" lon="9.862623816947217"><ele>277.0</ele><time>2026-05-03T09:10:16Z</time></trkpt><trkpt lat="45.68636514155209" lon="9.862715620061007"><ele>277.0</ele><time>2026-05-03T09:10:17Z</time></trkpt><trkpt lat="45.68630207305097" lon="9.862810067125158"><ele>277.0</ele><time>2026-05-03T09:10:18Z</time></trkpt><trkpt lat="45.68624160835616" lon="9.862902202216954"><ele>277.0</ele><time>2026-05-03T09:10:19Z</time></trkpt><trkpt lat="45.686188411290416" lon="9.862999239740265"><ele>277.0</ele><time>2026-05-03T09:10:20Z</time></trkpt><trkpt lat="45.68615017292344" lon="9.863100437078021"><ele>277.0</ele><time>2026-05-03T09:10:21Z</time></trkpt><trkpt lat="45.686127372063" lon="9.863208395530693"><ele>277.0</ele><time>2026-05-03T09:10:22Z</time></trkpt><trkpt lat="45.68611859621478" lon="9.863323132244119"><ele>277.0</ele><time>2026-05-03T09:10:23Z</time></trkpt><trkpt lat="45.686113257770025" lon="9.863436016115392"><ele>277.0</ele><time>2026-05-03T09:10:24Z</time></trkpt><trkpt lat="45.68610388620967" lon="9.863545362364246"><ele>277.0</ele><time>2026-05-03T09:10:25Z</time></trkpt><trkpt lat="45.68609081777901" lon="9.863652275056998"><ele>277.0</ele><time>2026-05-03T09:10:26Z</time></trkpt><trkpt lat="45.68607108582461" lon="9.863752356036336"><ele>277.0</ele><time>2026-05-03T09:10:27Z</time></trkpt><trkpt lat="45.686042154607065" lon="9.863842635300232"><ele>276.85714285714283</ele><time>2026-05-03T09:10:28Z</time></trkpt><trkpt lat="45.68600910752893" lon="9.863928593754073"><ele>276.71428571428567</ele><time>2026-05-03T09:10:29Z</time></trkpt><trkpt lat="45.685975975115966" lon="9.864005662019935"><ele>276.57142857142856</ele><time>2026-05-03T09:10:30Z</time></trkpt><trkpt lat="45.685917173423206" lon="9.86404161740226"><ele>276.42857142857144</ele><time>2026-05-03T09:10:31Z</time></trkpt><trkpt lat="45.68585079087243" lon="9.8640626580115"><ele>276.28571428571433</ele><time>2026-05-03T09:10:32Z</time></trkpt><trkpt lat="45.685787523422704" lon="9.864096858602734"><ele>276.14285714285717</ele><time>2026-05-03T09:10:33Z</time></trkpt><trkpt lat="45.68573120490742" lon="9.86415141173734"><ele>276.0</ele><time>2026-05-03T09:10:34Z</time></trkpt><trkpt lat="45.685680414759126" lon="9.864206599508156"><ele>276.0</ele><time>2026-05-03T09:10:35Z</time></trkpt><trkpt lat="45.68562599808373" lon="9.864259699241684"><ele>276.0</ele><time>2026-05-03T09:10:36Z</time></trkpt><trkpt lat="45.68556931103083" lon="9.864313320688584"><ele>276.0</ele><time>2026-05-03T09:10:37Z</time></trkpt><trkpt lat="45.68550951498488" lon="9.86436181150632"><ele>276.0</ele><time>2026-05-03T09:10:38Z</time></trkpt><trkpt lat="45.685454508413265" lon="9.86441716938026"><ele>276.0</ele><time>2026-05-03T09:10:39Z</time></trkpt><trkpt lat="45.685396164266464" lon="9.864466790808548"><ele>276.0</ele><time>2026-05-03T09:10:40Z</time></trkpt><trkpt lat="45.68534108571239" lon="9.86452546130338"><ele>276.0</ele><time>2026-05-03T09:10:41Z</time></trkpt><trkpt lat="45.68528702366154" lon="9.864584672076214"><ele>275.5</ele><time>2026-05-03T09:10:42Z</time></trkpt><trkpt lat="45.68523514987784" lon="9.864648685564763"><ele>275.0</ele><time>2026-05-03T09:10:43Z</time></trkpt><trkpt lat="45.68518813033537" lon="9.864718223640562"><ele>274.5</ele><time>2026-05-03T09:10:44Z</time></trkpt><trkpt lat="45.685134537241765" lon="9.864789716407028"><ele>274.0</ele><time>2026-05-03T09:10:45Z</time></trkpt><trkpt lat="45.68508055247447" lon="9.864855672740156"><ele>273.5</ele><time>2026-05-03T09:10:46Z</time></trkpt><trkpt lat="45.68503121020384" lon="9.865019241773465"><ele>273.0</ele><time>2026-05-03T09:10:48Z</time></trkpt><trkpt lat="45.685003502729955" lon="9.865188039231517"><ele>274.1666666666667</ele><time>2026-05-03T09:10:50Z</time></trkpt><trkpt lat="45.6849830287128" lon="9.86527575796108"><ele>275.3333333333333</ele><time>2026-05-03T09:10:51Z</time></trkpt><trkpt lat="45.6849330026149" lon="9.865433026160964"><ele>276.5</ele><time>2026-05-03T09:10:53Z</time></trkpt><trkpt lat="45.684899963245584" lon="9.86552063000204"><ele>277.66666666666663</ele><time>2026-05-03T09:10:54Z</time></trkpt><trkpt lat="45.684870566812855" lon="9.86561492026829"><ele>278.8333333333333</ele><time>2026-05-03T09:10:55Z</time></trkpt><trkpt lat="45.68484013872107" lon="9.865708825420322"><ele>280.0</ele><time>2026-05-03T09:10:56Z</time></trkpt><trkpt lat="45.68480541888145" lon="9.865805175012438"><ele>280.0</ele><time>2026-05-03T09:10:57Z</time></trkpt><trkpt lat="45.68476723363214" lon="9.865903450136274"><ele>280.0</ele><time>2026-05-03T09:10:58Z</time></trkpt><trkpt lat="45.68473002012424" lon="9.866005752241445"><ele>280.0</ele><time>2026-05-03T09:10:59Z</time></trkpt><trkpt lat="45.68469499221945" lon="9.866109466743211"><ele>280.0</ele><time>2026-05-03T09:11:00Z</time></trkpt><trkpt lat="45.68466970313272" lon="9.866220765571565"><ele>280.0</ele><time>2026-05-03T09:11:01Z</time></trkpt><trkpt lat="45.684655202795796" lon="9.866329690662093"><ele>280.0</ele><time>2026-05-03T09:11:02Z</time></trkpt><trkpt lat="45.684642591875914" lon="9.86644125923008"><ele>280.7142857142857</ele><time>2026-05-03T09:11:03Z</time></trkpt><trkpt lat="45.68463226261442" lon="9.86655197925231"><ele>281.42857142857144</ele><time>2026-05-03T09:11:04Z</time></trkpt><trkpt lat="45.684619365586684" lon="9.866657433119787"><ele>282.1428571428571</ele><time>2026-05-03T09:11:05Z</time></trkpt><trkpt lat="45.68460535897251" lon="9.86675617185653"><ele>282.8571428571429</ele><time>2026-05-03T09:11:06Z</time></trkpt><trkpt lat="45.68458703197569" lon="9.866851990629808"><ele>283.57142857142856</ele><time>2026-05-03T09:11:07Z</time></trkpt><trkpt lat="45.684566313345734" lon="9.866941092022111"><ele>284.2857142857143</ele><time>2026-05-03T09:11:08Z</time></trkpt><trkpt lat="45.68454179532901" lon="9.86702761314"><ele>285.0</ele><time>2026-05-03T09:11:09Z</time></trkpt><trkpt lat="45.68451392602762" lon="9.86711204956396"><ele>285.85714285714283</ele><time>2026-05-03T09:11:10Z</time></trkpt><trkpt lat="45.68448424501893" lon="9.867199884084402"><ele>286.7142857142857</ele><time>2026-05-03T09:11:11Z</time></trkpt><trkpt lat="45.6844521157444" lon="9.867282900623453"><ele>287.57142857142856</ele><time>2026-05-03T09:11:12Z</time></trkpt><trkpt lat="45.684423936405246" lon="9.867372592055002"><ele>288.42857142857144</ele><time>2026-05-03T09:11:13Z</time></trkpt><trkpt lat="45.68439520770545" lon="9.867458375782268"><ele>289.2857142857143</ele><time>2026-05-03T09:11:14Z</time></trkpt><trkpt lat="45.68436483882868" lon="9.867540852993269"><ele>290.1428571428571</ele><time>2026-05-03T09:11:15Z</time></trkpt><trkpt lat="45.684335178533544" lon="9.867625961173317"><ele>291.0</ele><time>2026-05-03T09:11:16Z</time></trkpt><trkpt lat="45.684304316645786" lon="9.867707160326605"><ele>288.0</ele><time>2026-05-03T09:11:17Z</time></trkpt><trkpt lat="45.6842727658792" lon="9.867789119931384"><ele>285.0</ele><time>2026-05-03T09:11:18Z</time></trkpt><trkpt lat="45.68424284843987" lon="9.867868808319718"><ele>282.0</ele><time>2026-05-03T09:11:19Z</time></trkpt><trkpt lat="45.68421385153341" lon="9.867950821464879"><ele>279.0</ele><time>2026-05-03T09:11:20Z</time></trkpt><trkpt lat="45.68416113828419" lon="9.86810929765361"><ele>276.0</ele><time>2026-05-03T09:11:22Z</time></trkpt><trkpt lat="45.684105258138864" lon="9.868265550236115"><ele>273.0</ele><time>2026-05-03T09:11:24Z</time></trkpt><trkpt lat="45.684048246400216" lon="9.86841403127073"><ele>274.1666666666667</ele><time>2026-05-03T09:11:26Z</time></trkpt><trkpt lat="45.68397076241426" lon="9.868550036097359"><ele>275.3333333333333</ele><time>2026-05-03T09:11:28Z</time></trkpt><trkpt lat="45.68392156680565" lon="9.868608266637935"><ele>276.5</ele><time>2026-05-03T09:11:29Z</time></trkpt><trkpt lat="45.68386057070918" lon="9.868653217098393"><ele>277.66666666666663</ele><time>2026-05-03T09:11:30Z</time></trkpt><trkpt lat="45.68379668691216" lon="9.86868960221935"><ele>278.8333333333333</ele><time>2026-05-03T09:11:31Z</time></trkpt><trkpt lat="45.683737787520926" lon="9.86872794260466"><ele>280.0</ele><time>2026-05-03T09:11:32Z</time></trkpt><trkpt lat="45.683679185485005" lon="9.868766494044777"><ele>280.0</ele><time>2026-05-03T09:11:33Z</time></trkpt><trkpt lat="45.68361809100735" lon="9.868803202573956"><ele>280.0</ele><time>2026-05-03T09:11:34Z</time></trkpt><trkpt lat="45.68356067808151" lon="9.868847001663843"><ele>280.0</ele><time>2026-05-03T09:11:35Z</time></trkpt><trkpt lat="45.683499807885006" lon="9.868885727468069"><ele>280.0</ele><time>2026-05-03T09:11:36Z</time></trkpt><trkpt lat="45.68344399601123" lon="9.868931824550703"><ele>280.0</ele><time>2026-05-03T09:11:37Z</time></trkpt><trkpt lat="45.683385895521766" lon="9.868978684588855"><ele>280.0</ele><time>2026-05-03T09:11:38Z</time></trkpt><trkpt lat="45.68332372518756" lon="9.86901199528144"><ele>280.0</ele><time>2026-05-03T09:11:39Z</time></trkpt><trkpt lat="45.683262365962165" lon="9.869038808708131"><ele>278.57142857142856</ele><time>2026-05-03T09:11:40Z</time></trkpt><trkpt lat="45.683193455548476" lon="9.869059974457457"><ele>277.1428571428571</ele><time>2026-05-03T09:11:41Z</time></trkpt><trkpt lat="45.68312188729688" lon="9.86906641961974"><ele>275.7142857142857</ele><time>2026-05-03T09:11:42Z</time></trkpt><trkpt lat="45.683049151229646" lon="9.869052471924027"><ele>274.2857142857143</ele><time>2026-05-03T09:11:43Z</time></trkpt><trkpt lat="45.682975505867724" lon="9.869037426909333"><ele>272.85714285714283</ele><time>2026-05-03T09:11:44Z</time></trkpt><trkpt lat="45.682900049586564" lon="9.869017105373699"><ele>271.42857142857144</ele><time>2026-05-03T09:11:45Z</time></trkpt><trkpt lat="45.68282850554513" lon="9.868989137140009"><ele>270.0</ele><time>2026-05-03T09:11:46Z</time></trkpt><trkpt lat="45.682759051779556" lon="9.868971777959281"><ele>270.0</ele><time>2026-05-03T09:11:47Z</time></trkpt><trkpt lat="45.68269051602643" lon="9.868961691545564"><ele>270.0</ele><time>2026-05-03T09:11:48Z</time></trkpt><trkpt lat="45.682590966557555" lon="9.868994641576316"><ele>270.0</ele><time>2026-05-03T09:11:50Z</time></trkpt><trkpt lat="45.6825065677678" lon="9.869115582662504"><ele>270.0</ele><time>2026-05-03T09:11:52Z</time></trkpt><trkpt lat="45.682440886690365" lon="9.869265649129465"><ele>270.0</ele><time>2026-05-03T09:11:54Z</time></trkpt><trkpt lat="45.68240323202757" lon="9.86933928845146"><ele>270.0</ele><time>2026-05-03T09:11:55Z</time></trkpt><trkpt lat="45.68233711826129" lon="9.869486382760641"><ele>270.0</ele><time>2026-05-03T09:11:57Z</time></trkpt><trkpt lat="45.68227270852124" lon="9.869632877199798"><ele>270.0</ele><time>2026-05-03T09:11:59Z</time></trkpt><trkpt lat="45.682232958393854" lon="9.869705594722998"><ele>270.0</ele><time>2026-05-03T09:12:00Z</time></trkpt><trkpt lat="45.68217939272088" lon="9.869864031405228"><ele>270.0</ele><time>2026-05-03T09:12:02Z</time></trkpt><trkpt lat="45.68217234565516" lon="9.869955337367287"><ele>270.0</ele><time>2026-05-03T09:12:03Z</time></trkpt><trkpt lat="45.682178306985044" lon="9.870045889121382"><ele>270.0</ele><time>2026-05-03T09:12:04Z</time></trkpt><trkpt lat="45.6822030988227" lon="9.870129567694521"><ele>270.0</ele><time>2026-05-03T09:12:05Z</time></trkpt><trkpt lat="45.68227493965324" lon="9.870274132908209"><ele>270.0</ele><time>2026-05-03T09:12:07Z</time></trkpt><trkpt lat="45.68236506655188" lon="9.870387022197527"><ele>270.0</ele><time>2026-05-03T09:12:09Z</time></trkpt><trkpt lat="45.68245565325199" lon="9.870500644252433"><ele>271.0</ele><time>2026-05-03T09:12:11Z</time></trkpt><trkpt lat="45.682553850122595" lon="9.870605998253636"><ele>272.0</ele><time>2026-05-03T09:12:13Z</time></trkpt><trkpt lat="45.682647676898064" lon="9.870709156019041"><ele>273.0</ele><time>2026-05-03T09:12:15Z</time></trkpt><trkpt lat="45.682740016377906" lon="9.870807698600661"><ele>274.0</ele><time>2026-05-03T09:12:17Z</time></trkpt><trkpt lat="45.68284170906014" lon="9.870903513712992"><ele>279.4</ele><time>2026-05-03T09:12:19Z</time></trkpt><trkpt lat="45.68291642029936" lon="9.871013461725743"><ele>284.79999999999995</ele><time>2026-05-03T09:12:21Z</time></trkpt><trkpt lat="45.68297624156644" lon="9.871155392876776"><ele>290.20000000000005</ele><time>2026-05-03T09:12:23Z</time></trkpt><trkpt lat="45.68298569821636" lon="9.871312272281939"><ele>295.6</ele><time>2026-05-03T09:12:25Z</time></trkpt><trkpt lat="45.682950621918835" lon="9.871465075636417"><ele>301.0</ele><time>2026-05-03T09:12:27Z</time></trkpt><trkpt lat="45.68291290237473" lon="9.87162219384567"><ele>298.25</ele><time>2026-05-03T09:12:29Z</time></trkpt><trkpt lat="45.68287389765828" lon="9.871779667652916"><ele>295.5</ele><time>2026-05-03T09:12:31Z</time></trkpt><trkpt lat="45.68283179006161" lon="9.871935998300124"><ele>292.75</ele><time>2026-05-03T09:12:33Z</time></trkpt><trkpt lat="45.68279145072234" lon="9.872091769225735"><ele>290.0</ele><time>2026-05-03T09:12:35Z</time></trkpt><trkpt lat="45.68275666136685" lon="9.872250676633294"><ele>290.0</ele><time>2026-05-03T09:12:37Z</time></trkpt><trkpt lat="45.68271900093395" lon="9.872407085985028"><ele>290.0</ele><time>2026-05-03T09:12:39Z</time></trkpt><trkpt lat="45.68269306933722" lon="9.872568793445582"><ele>290.0</ele><time>2026-05-03T09:12:41Z</time></trkpt><trkpt lat="45.682664300578196" lon="9.872726336331631"><ele>290.0</ele><time>2026-05-03T09:12:43Z</time></trkpt><trkpt lat="45.68263383184454" lon="9.872885331889865"><ele>291.75</ele><time>2026-05-03T09:12:45Z</time></trkpt><trkpt lat="45.68260988770633" lon="9.873043577861123"><ele>293.5</ele><time>2026-05-03T09:12:47Z</time></trkpt><trkpt lat="45.68259524372481" lon="9.873203769550368"><ele>295.25</ele><time>2026-05-03T09:12:49Z</time></trkpt><trkpt lat="45.682583085413114" lon="9.873364177978829"><ele>297.0</ele><time>2026-05-03T09:12:51Z</time></trkpt><trkpt lat="45.682567496615995" lon="9.873523942705598"><ele>298.2</ele><time>2026-05-03T09:12:53Z</time></trkpt><trkpt lat="45.682555131671485" lon="9.873680910207636"><ele>299.4</ele><time>2026-05-03T09:12:55Z</time></trkpt><trkpt lat="45.68255678720675" lon="9.873839018524448"><ele>300.6</ele><time>2026-05-03T09:12:57Z</time></trkpt><trkpt lat="45.68257129634177" lon="9.8739995973525"><ele>301.8</ele><time>2026-05-03T09:12:59Z</time></trkpt><trkpt lat="45.68259207310423" lon="9.874159201147906"><ele>303.0</ele><time>2026-05-03T09:13:01Z</time></trkpt><trkpt lat="45.68261019581738" lon="9.874318986654059"><ele>303.0</ele><time>2026-05-03T09:13:03Z</time></trkpt><trkpt lat="45.68263314946352" lon="9.874479290749894"><ele>303.0</ele><time>2026-05-03T09:13:05Z</time></trkpt><trkpt lat="45.682665774145754" lon="9.874629399042911"><ele>303.0</ele><time>2026-05-03T09:13:07Z</time></trkpt><trkpt lat="45.68269175701354" lon="9.874787679400743"><ele>303.0</ele><time>2026-05-03T09:13:09Z</time></trkpt><trkpt lat="45.68271603244311" lon="9.874941594634006"><ele>303.0</ele><time>2026-05-03T09:13:11Z</time></trkpt><trkpt lat="45.682753585660926" lon="9.875088728955433"><ele>304.8</ele><time>2026-05-03T09:13:13Z</time></trkpt><trkpt lat="45.68278881968423" lon="9.87523747916359"><ele>306.6</ele><time>2026-05-03T09:13:15Z</time></trkpt><trkpt lat="45.682819695952524" lon="9.875380988853095"><ele>308.4</ele><time>2026-05-03T09:13:17Z</time></trkpt><trkpt lat="45.68285198874896" lon="9.875528052886008"><ele>310.2</ele><time>2026-05-03T09:13:19Z</time></trkpt><trkpt lat="45.682888006180114" lon="9.875679434226154"><ele>312.0</ele><time>2026-05-03T09:13:21Z</time></trkpt><trkpt lat="45.682921225430306" lon="9.875831237868146"><ele>311.75</ele><time>2026-05-03T09:13:23Z</time></trkpt><trkpt lat="45.6829544223564" lon="9.87599367644699"><ele>311.5</ele><time>2026-05-03T09:13:25Z</time></trkpt><trkpt lat="45.6829762369874" lon="9.876156894299402"><ele>311.25</ele><time>2026-05-03T09:13:27Z</time></trkpt><trkpt lat="45.68300360360123" lon="9.876327520484745"><ele>311.0</ele><time>2026-05-03T09:13:29Z</time></trkpt><trkpt lat="45.68300741185101" lon="9.87650696590269"><ele>311.0</ele><time>2026-05-03T09:13:31Z</time></trkpt><trkpt lat="45.68296452813953" lon="9.876673454462042"><ele>311.0</ele><time>2026-05-03T09:13:33Z</time></trkpt><trkpt lat="45.682935589657546" lon="9.876756718090935"><ele>311.0</ele><time>2026-05-03T09:13:34Z</time></trkpt><trkpt lat="45.68290496046488" lon="9.87683847679504"><ele>311.0</ele><time>2026-05-03T09:13:35Z</time></trkpt><trkpt lat="45.682874651302235" lon="9.87692393683753"><ele>311.0</ele><time>2026-05-03T09:13:36Z</time></trkpt><trkpt lat="45.682845128126374" lon="9.87700923598034"><ele>311.0</ele><time>2026-05-03T09:13:37Z</time></trkpt><trkpt lat="45.68281240322588" lon="9.87708792826723"><ele>310.8</ele><time>2026-05-03T09:13:38Z</time></trkpt><trkpt lat="45.68278014276999" lon="9.877170330591456"><ele>310.6</ele><time>2026-05-03T09:13:39Z</time></trkpt><trkpt lat="45.68270184153088" lon="9.877315145001635"><ele>310.4</ele><time>2026-05-03T09:13:41Z</time></trkpt><trkpt lat="45.682632439282216" lon="9.877443883741066"><ele>310.2</ele><time>2026-05-03T09:13:43Z</time></trkpt><trkpt lat="45.68255877298031" lon="9.877575889919296"><ele>310.0</ele><time>2026-05-03T09:13:45Z</time></trkpt><trkpt lat="45.68247830056588" lon="9.877694018767873"><ele>311.6</ele><time>2026-05-03T09:13:47Z</time></trkpt><trkpt lat="45.68240678313677" lon="9.877820137333803"><ele>313.2</ele><time>2026-05-03T09:13:49Z</time></trkpt><trkpt lat="45.68235314344627" lon="9.87794958610248"><ele>314.8</ele><time>2026-05-03T09:13:51Z</time></trkpt><trkpt lat="45.68231416109741" lon="9.878069767073496"><ele>316.4</ele><time>2026-05-03T09:13:53Z</time></trkpt><trkpt lat="45.682232242684265" lon="9.878174472375301"><ele>318.0</ele><time>2026-05-03T09:13:55Z</time></trkpt><trkpt lat="45.68211335043739" lon="9.878227605215868"><ele>318.0</ele><time>2026-05-03T09:13:57Z</time></trkpt><trkpt lat="45.682043222888424" lon="9.8782397778957"><ele>318.0</ele><time>2026-05-03T09:13:58Z</time></trkpt><trkpt lat="45.681929689308795" lon="9.878267073992955"><ele>318.0</ele><time>2026-05-03T09:14:00Z</time></trkpt><trkpt lat="45.681827691895734" lon="9.878285345965732"><ele>318.0</ele><time>2026-05-03T09:14:02Z</time></trkpt><trkpt lat="45.68172086640756" lon="9.878291062012323"><ele>318.0</ele><time>2026-05-03T09:14:04Z</time></trkpt><trkpt lat="45.681625524576305" lon="9.878260806753872"><ele>315.6666666666667</ele><time>2026-05-03T09:14:06Z</time></trkpt><trkpt lat="45.68155778085082" lon="9.878221987704329"><ele>313.3333333333333</ele><time>2026-05-03T09:14:09Z</time></trkpt><trkpt lat="45.68149544802433" lon="9.878203834617679"><ele>311.0</ele><time>2026-05-03T09:14:11Z</time></trkpt><trkpt lat="45.68145649613172" lon="9.878312358154693"><ele>308.66666666666663</ele><time>2026-05-03T09:14:14Z</time></trkpt><trkpt lat="45.68144500576053" lon="9.878402604918978"><ele>306.3333333333333</ele><time>2026-05-03T09:14:15Z</time></trkpt><trkpt lat="45.68145708559872" lon="9.878493896216325"><ele>304.0</ele><time>2026-05-03T09:14:16Z</time></trkpt><trkpt lat="45.68142981156924" lon="9.878669526102776"><ele>304.0</ele><time>2026-05-03T09:14:18Z</time></trkpt><trkpt lat="45.68140966676461" lon="9.878767224744774"><ele>304.0</ele><time>2026-05-03T09:14:19Z</time></trkpt><trkpt lat="45.68141481193891" lon="9.878868477548894"><ele>304.0</ele><time>2026-05-03T09:14:20Z</time></trkpt><trkpt lat="45.68140943749062" lon="9.87897050451664"><ele>304.0</ele><time>2026-05-03T09:14:21Z</time></trkpt><trkpt lat="45.681403974541126" lon="9.879074332818353"><ele>304.0</ele><time>2026-05-03T09:14:22Z</time></trkpt><trkpt lat="45.68139473187939" lon="9.879177746025615"><ele>304.0</ele><time>2026-05-03T09:14:23Z</time></trkpt><trkpt lat="45.68138150405882" lon="9.879280229287394"><ele>304.0</ele><time>2026-05-03T09:14:24Z</time></trkpt><trkpt lat="45.68136428176934" lon="9.879387751271029"><ele>305.16666666666663</ele><time>2026-05-03T09:14:25Z</time></trkpt><trkpt lat="45.681339563746334" lon="9.87949802217239"><ele>306.3333333333333</ele><time>2026-05-03T09:14:26Z</time></trkpt><trkpt lat="45.681304924292576" lon="9.879602674012835"><ele>307.5</ele><time>2026-05-03T09:14:27Z</time></trkpt><trkpt lat="45.681255371493336" lon="9.879699514621315"><ele>308.6666666666667</ele><time>2026-05-03T09:14:28Z</time></trkpt><trkpt lat="45.681213676207484" lon="9.879785382665787"><ele>309.83333333333337</ele><time>2026-05-03T09:14:29Z</time></trkpt><trkpt lat="45.681137846716275" lon="9.879922316741474"><ele>311.0</ele><time>2026-05-03T09:14:31Z</time></trkpt><trkpt lat="45.68102686629939" lon="9.87998015341234"><ele>307.1666666666667</ele><time>2026-05-03T09:14:33Z</time></trkpt><trkpt lat="45.68094273480044" lon="9.879959364861156"><ele>303.33333333333337</ele><time>2026-05-03T09:14:34Z</time></trkpt><trkpt lat="45.68087232567674" lon="9.879956413683598"><ele>299.5</ele><time>2026-05-03T09:14:35Z</time></trkpt><trkpt lat="45.68079772849466" lon="9.879945076410621"><ele>295.6666666666667</ele><time>2026-05-03T09:14:36Z</time></trkpt><trkpt lat="45.68072461397356" lon="9.87994125583545"><ele>291.8333333333333</ele><time>2026-05-03T09:14:37Z</time></trkpt><trkpt lat="45.680659639046304" lon="9.879922877158533"><ele>288.0</ele><time>2026-05-03T09:14:38Z</time></trkpt><trkpt lat="45.680552462684055" lon="9.879933548731206"><ele>288.0</ele><time>2026-05-03T09:14:40Z</time></trkpt><trkpt lat="45.68049303444741" lon="9.880039606943111"><ele>288.0</ele><time>2026-05-03T09:14:42Z</time></trkpt><trkpt lat="45.68048621323362" lon="9.880206996790882"><ele>288.0</ele><time>2026-05-03T09:14:44Z</time></trkpt><trkpt lat="45.68048982009894" lon="9.880304549557573"><ele>288.0</ele><time>2026-05-03T09:14:45Z</time></trkpt><trkpt lat="45.68048157319017" lon="9.880406551650363"><ele>288.0</ele><time>2026-05-03T09:14:46Z</time></trkpt><trkpt lat="45.6804570477804" lon="9.880586770007053"><ele>288.6666666666667</ele><time>2026-05-03T09:14:48Z</time></trkpt><trkpt lat="45.68045016596782" lon="9.880768450023247"><ele>289.3333333333333</ele><time>2026-05-03T09:14:50Z</time></trkpt><trkpt lat="45.680444315215695" lon="9.880859712753093"><ele>290.0</ele><time>2026-05-03T09:14:51Z</time></trkpt><trkpt lat="45.680436498404916" lon="9.880951888666733"><ele>290.66666666666663</ele><time>2026-05-03T09:14:52Z</time></trkpt><trkpt lat="45.680428384028225" lon="9.881044490250659"><ele>291.3333333333333</ele><time>2026-05-03T09:14:53Z</time></trkpt><trkpt lat="45.68042213986068" lon="9.881142122802858"><ele>292.0</ele><time>2026-05-03T09:14:54Z</time></trkpt><trkpt lat="45.68041802727316" lon="9.881234531348028"><ele>292.5</ele><time>2026-05-03T09:14:55Z</time></trkpt><trkpt lat="45.680410236111065" lon="9.881328835445121"><ele>293.0</ele><time>2026-05-03T09:14:56Z</time></trkpt><trkpt lat="45.6804072944082" lon="9.881430376563484"><ele>293.5</ele><time>2026-05-03T09:14:57Z</time></trkpt><trkpt lat="45.68040163349189" lon="9.88152607825811"><ele>294.0</ele><time>2026-05-03T09:14:58Z</time></trkpt><trkpt lat="45.68039805560711" lon="9.881676005654334"><ele>294.5</ele><time>2026-05-03T09:15:00Z</time></trkpt><trkpt lat="45.680369699076905" lon="9.881795737882513"><ele>295.0</ele><time>2026-05-03T09:15:01Z</time></trkpt><trkpt lat="45.68034586685733" lon="9.88197373574225"><ele>296.0</ele><time>2026-05-03T09:15:03Z</time></trkpt><trkpt lat="45.68032487713429" lon="9.882068114448257"><ele>297.0</ele><time>2026-05-03T09:15:04Z</time></trkpt><trkpt lat="45.68030435028556" lon="9.882168887293767"><ele>298.0</ele><time>2026-05-03T09:15:05Z</time></trkpt><trkpt lat="45.680287209125744" lon="9.882343606751075"><ele>299.0</ele><time>2026-05-03T09:15:07Z</time></trkpt><trkpt lat="45.68027448865987" lon="9.88252219900192"><ele>300.0</ele><time>2026-05-03T09:15:09Z</time></trkpt><trkpt lat="45.68026459479557" lon="9.882611738534434"><ele>297.5</ele><time>2026-05-03T09:15:10Z</time></trkpt><trkpt lat="45.68025189424474" lon="9.8827014130955"><ele>295.0</ele><time>2026-05-03T09:15:11Z</time></trkpt><trkpt lat="45.68024023492543" lon="9.882791853398041"><ele>292.5</ele><time>2026-05-03T09:15:12Z</time></trkpt><trkpt lat="45.68021731839137" lon="9.882970301020203"><ele>290.0</ele><time>2026-05-03T09:15:14Z</time></trkpt><trkpt lat="45.68021000327901" lon="9.88314887745264"><ele>287.5</ele><time>2026-05-03T09:15:16Z</time></trkpt><trkpt lat="45.680208838650415" lon="9.883239072447818"><ele>285.0</ele><time>2026-05-03T09:15:17Z</time></trkpt><trkpt lat="45.680206302839856" lon="9.883334041084758"><ele>285.0</ele><time>2026-05-03T09:15:18Z</time></trkpt><trkpt lat="45.68020027014372" lon="9.883427635463402"><ele>285.0</ele><time>2026-05-03T09:15:19Z</time></trkpt><trkpt lat="45.68019268541505" lon="9.883522859502921"><ele>285.0</ele><time>2026-05-03T09:15:20Z</time></trkpt><trkpt lat="45.68018838759813" lon="9.883617583129887"><ele>285.0</ele><time>2026-05-03T09:15:21Z</time></trkpt><trkpt lat="45.68018007026225" lon="9.883709026036442"><ele>285.0</ele><time>2026-05-03T09:15:22Z</time></trkpt><trkpt lat="45.680176851969016" lon="9.883803274770507"><ele>285.0</ele><time>2026-05-03T09:15:23Z</time></trkpt><trkpt lat="45.68017308814139" lon="9.883898608462694"><ele>285.0</ele><time>2026-05-03T09:15:24Z</time></trkpt><trkpt lat="45.680170030042504" lon="9.883995529720748"><ele>285.0</ele><time>2026-05-03T09:15:25Z</time></trkpt><trkpt lat="45.68016753717462" lon="9.884092552655707"><ele>285.0</ele><time>2026-05-03T09:15:26Z</time></trkpt><trkpt lat="45.68015782494133" lon="9.884190178056693"><ele>285.0</ele><time>2026-05-03T09:15:27Z</time></trkpt><trkpt lat="45.68012792589827" lon="9.884278188588084"><ele>285.0</ele><time>2026-05-03T09:15:28Z</time></trkpt><trkpt lat="45.680113065111485" lon="9.884372268612493"><ele>285.0</ele><time>2026-05-03T09:15:29Z</time></trkpt><trkpt lat="45.680085961911395" lon="9.884461917346545"><ele>285.0</ele><time>2026-05-03T09:15:30Z</time></trkpt><trkpt lat="45.68005630873719" lon="9.884557367529752"><ele>285.0</ele><time>2026-05-03T09:15:31Z</time></trkpt><trkpt lat="45.68003144095688" lon="9.884640405424506"><ele>285.0</ele><time>2026-05-03T09:15:32Z</time></trkpt><trkpt lat="45.68000503203428" lon="9.884729831107565"><ele>285.0</ele><time>2026-05-03T09:15:33Z</time></trkpt><trkpt lat="45.67996582170117" lon="9.88481066468911"><ele>285.0</ele><time>2026-05-03T09:15:34Z</time></trkpt><trkpt lat="45.67993474487788" lon="9.884901215476631"><ele>285.0</ele><time>2026-05-03T09:15:35Z</time></trkpt><trkpt lat="45.679907793700345" lon="9.884990259906543"><ele>285.0</ele><time>2026-05-03T09:15:36Z</time></trkpt><trkpt lat="45.679879018324925" lon="9.885076829413078"><ele>285.0</ele><time>2026-05-03T09:15:37Z</time></trkpt><trkpt lat="45.6798576863991" lon="9.88516169364161"><ele>285.0</ele><time>2026-05-03T09:15:38Z</time></trkpt><trkpt lat="45.67982203037504" lon="9.885331362582574"><ele>286.2</ele><time>2026-05-03T09:15:40Z</time></trkpt><trkpt lat="45.6797947882662" lon="9.885492028930717"><ele>287.4</ele><time>2026-05-03T09:15:42Z</time></trkpt><trkpt lat="45.6797872847338" lon="9.885588110549389"><ele>288.6</ele><time>2026-05-03T09:15:43Z</time></trkpt><trkpt lat="45.67978618359242" lon="9.885756458137537"><ele>289.8</ele><time>2026-05-03T09:15:45Z</time></trkpt><trkpt lat="45.6797881771065" lon="9.885930283922832"><ele>291.0</ele><time>2026-05-03T09:15:47Z</time></trkpt><trkpt lat="45.67977998876558" lon="9.88609873501483"><ele>292.25</ele><time>2026-05-03T09:15:49Z</time></trkpt><trkpt lat="45.679769805998944" lon="9.886265377331135"><ele>293.5</ele><time>2026-05-03T09:15:51Z</time></trkpt><trkpt lat="45.679768794559344" lon="9.886430771798892"><ele>294.75</ele><time>2026-05-03T09:15:53Z</time></trkpt><trkpt lat="45.67977074178948" lon="9.886597090339752"><ele>296.0</ele><time>2026-05-03T09:15:55Z</time></trkpt><trkpt lat="45.679765331994915" lon="9.886762955999703"><ele>296.25</ele><time>2026-05-03T09:15:57Z</time></trkpt><trkpt lat="45.67975738151666" lon="9.88693578740297"><ele>296.5</ele><time>2026-05-03T09:15:59Z</time></trkpt><trkpt lat="45.6797530900999" lon="9.887112521707143"><ele>296.75</ele><time>2026-05-03T09:16:01Z</time></trkpt><trkpt lat="45.67975114305055" lon="9.887277706090538"><ele>297.0</ele><time>2026-05-03T09:16:03Z</time></trkpt><trkpt lat="45.67974924648476" lon="9.887434639696734"><ele>297.0</ele><time>2026-05-03T09:16:05Z</time></trkpt><trkpt lat="45.67974375522987" lon="9.887583582268762"><ele>297.0</ele><time>2026-05-03T09:16:07Z</time></trkpt><trkpt lat="45.67974029780659" lon="9.88773945774232"><ele>297.0</ele><time>2026-05-03T09:16:09Z</time></trkpt><trkpt lat="45.67974101205315" lon="9.887917322623096"><ele>297.0</ele><time>2026-05-03T09:16:11Z</time></trkpt><trkpt lat="45.67974092297266" lon="9.888008058378052"><ele>297.0</ele><time>2026-05-03T09:16:12Z</time></trkpt><trkpt lat="45.67975632980217" lon="9.888188737498568"><ele>297.14285714285717</ele><time>2026-05-03T09:16:14Z</time></trkpt><trkpt lat="45.67976480046614" lon="9.888278707554166"><ele>297.28571428571433</ele><time>2026-05-03T09:16:15Z</time></trkpt><trkpt lat="45.67977978330067" lon="9.888449914703017"><ele>297.42857142857144</ele><time>2026-05-03T09:16:17Z</time></trkpt><trkpt lat="45.67978744115244" lon="9.888542711460287"><ele>297.57142857142856</ele><time>2026-05-03T09:16:18Z</time></trkpt><trkpt lat="45.67979404413175" lon="9.888633155433354"><ele>297.71428571428567</ele><time>2026-05-03T09:16:19Z</time></trkpt><trkpt lat="45.679801431050095" lon="9.888726978918248"><ele>297.85714285714283</ele><time>2026-05-03T09:16:20Z</time></trkpt><trkpt lat="45.679808690120545" lon="9.888816746321414"><ele>298.0</ele><time>2026-05-03T09:16:21Z</time></trkpt><trkpt lat="45.679819014325766" lon="9.88890737255117"><ele>298.0</ele><time>2026-05-03T09:16:22Z</time></trkpt><trkpt lat="45.67983239118247" lon="9.888999034275493"><ele>298.0</ele><time>2026-05-03T09:16:23Z</time></trkpt><trkpt lat="45.679848127927876" lon="9.889175159029941"><ele>298.0</ele><time>2026-05-03T09:16:25Z</time></trkpt><trkpt lat="45.67986694938175" lon="9.889340339131648"><ele>298.0</ele><time>2026-05-03T09:16:27Z</time></trkpt><trkpt lat="45.67988220544876" lon="9.889504806502694"><ele>298.0</ele><time>2026-05-03T09:16:29Z</time></trkpt><trkpt lat="45.67990192365801" lon="9.889664998549941"><ele>298.8</ele><time>2026-05-03T09:16:31Z</time></trkpt><trkpt lat="45.67991745700915" lon="9.889825429685937"><ele>299.6</ele><time>2026-05-03T09:16:33Z</time></trkpt><trkpt lat="45.67993736370949" lon="9.889979961032559"><ele>300.4</ele><time>2026-05-03T09:16:35Z</time></trkpt><trkpt lat="45.679949699689544" lon="9.89013128736384"><ele>301.2</ele><time>2026-05-03T09:16:37Z</time></trkpt><trkpt lat="45.6799616792697" lon="9.890285191959554"><ele>302.0</ele><time>2026-05-03T09:16:39Z</time></trkpt><trkpt lat="45.67996623347736" lon="9.890436809225482"><ele>302.6</ele><time>2026-05-03T09:16:41Z</time></trkpt><trkpt lat="45.679972877459015" lon="9.890600072471422"><ele>303.2</ele><time>2026-05-03T09:16:43Z</time></trkpt><trkpt lat="45.679966001695284" lon="9.890774395583653"><ele>303.8</ele><time>2026-05-03T09:16:45Z</time></trkpt><trkpt lat="45.67994794544293" lon="9.890912725836541"><ele>304.4</ele><time>2026-05-03T09:16:47Z</time></trkpt><trkpt lat="45.67992929726353" lon="9.891038297099945"><ele>305.0</ele><time>2026-05-03T09:16:49Z</time></trkpt><trkpt lat="45.67990595036303" lon="9.891174446841154"><ele>306.2</ele><time>2026-05-03T09:16:51Z</time></trkpt><trkpt lat="45.67988683874945" lon="9.891310886260966"><ele>307.4</ele><time>2026-05-03T09:16:53Z</time></trkpt><trkpt lat="45.67987628304018" lon="9.891446237379743"><ele>308.6</ele><time>2026-05-03T09:16:55Z</time></trkpt><trkpt lat="45.67987568063066" lon="9.891582374144095"><ele>309.8</ele><time>2026-05-03T09:16:57Z</time></trkpt><trkpt lat="45.679865182139224" lon="9.891714771630689"><ele>311.0</ele><time>2026-05-03T09:16:59Z</time></trkpt><trkpt lat="45.67985421525244" lon="9.891851089239871"><ele>312.6</ele><time>2026-05-03T09:17:01Z</time></trkpt><trkpt lat="45.679855915343005" lon="9.89199059154531"><ele>314.20000000000005</ele><time>2026-05-03T09:17:03Z</time></trkpt><trkpt lat="45.67986535093887" lon="9.892133384595898"><ele>315.79999999999995</ele><time>2026-05-03T09:17:05Z</time></trkpt><trkpt lat="45.679872560684295" lon="9.892274206547594"><ele>317.4</ele><time>2026-05-03T09:17:07Z</time></trkpt><trkpt lat="45.679853877998134" lon="9.89240299103892"><ele>319.0</ele><time>2026-05-03T09:17:09Z</time></trkpt><trkpt lat="45.679826603153295" lon="9.892523122414588"><ele>320.0</ele><time>2026-05-03T09:17:11Z</time></trkpt><trkpt lat="45.679803744154846" lon="9.892619315614409"><ele>321.0</ele><time>2026-05-03T09:17:13Z</time></trkpt><trkpt lat="45.6797669880373" lon="9.892753538026142"><ele>322.0</ele><time>2026-05-03T09:17:16Z</time></trkpt><trkpt lat="45.67974594695164" lon="9.892861536725798"><ele>323.0</ele><time>2026-05-03T09:17:18Z</time></trkpt><trkpt lat="45.6797200876531" lon="9.892977984807482"><ele>324.0</ele><time>2026-05-03T09:17:20Z</time></trkpt><trkpt lat="45.67972798112084" lon="9.893113310398126"><ele>325.0</ele><time>2026-05-03T09:17:22Z</time></trkpt><trkpt lat="45.67974942414352" lon="9.893248620116527"><ele>325.0</ele><time>2026-05-03T09:17:24Z</time></trkpt><trkpt lat="45.67976764530204" lon="9.893380637723988"><ele>325.0</ele><time>2026-05-03T09:17:26Z</time></trkpt><trkpt lat="45.67979520455443" lon="9.893503375214065"><ele>325.0</ele><time>2026-05-03T09:17:28Z</time></trkpt><trkpt lat="45.679818037909534" lon="9.893618047277698"><ele>325.0</ele><time>2026-05-03T09:17:30Z</time></trkpt><trkpt lat="45.67983824988139" lon="9.893742959733206"><ele>325.0</ele><time>2026-05-03T09:17:32Z</time></trkpt><trkpt lat="45.679852936548414" lon="9.893878744699089"><ele>325.0</ele><time>2026-05-03T09:17:34Z</time></trkpt><trkpt lat="45.6798611533966" lon="9.894018017976022"><ele>325.0</ele><time>2026-05-03T09:17:36Z</time></trkpt><trkpt lat="45.679878548797426" lon="9.894168997437491"><ele>325.0</ele><time>2026-05-03T09:17:38Z</time></trkpt><trkpt lat="45.67990399854328" lon="9.894326114702464"><ele>325.0</ele><time>2026-05-03T09:17:40Z</time></trkpt><trkpt lat="45.67992630688481" lon="9.894491553134364"><ele>325.0</ele><time>2026-05-03T09:17:42Z</time></trkpt><trkpt lat="45.67994045931907" lon="9.89465844329492"><ele>325.4</ele><time>2026-05-03T09:17:44Z</time></trkpt><trkpt lat="45.6799379864418" lon="9.894824858065297"><ele>325.8</ele><time>2026-05-03T09:17:46Z</time></trkpt><trkpt lat="45.67992132484588" lon="9.894987777543092"><ele>326.20000000000005</ele><time>2026-05-03T09:17:48Z</time></trkpt><trkpt lat="45.67992044999635" lon="9.895144999955233"><ele>326.6</ele><time>2026-05-03T09:17:50Z</time></trkpt><trkpt lat="45.679924913201184" lon="9.895292473518777"><ele>327.0</ele><time>2026-05-03T09:17:52Z</time></trkpt><trkpt lat="45.679936516328326" lon="9.895434693110905"><ele>327.20000000000005</ele><time>2026-05-03T09:17:54Z</time></trkpt><trkpt lat="45.67996275891743" lon="9.895565916078452"><ele>327.4</ele><time>2026-05-03T09:17:56Z</time></trkpt><trkpt lat="45.67998506823649" lon="9.895706221200143"><ele>327.6</ele><time>2026-05-03T09:17:58Z</time></trkpt><trkpt lat="45.68000639413289" lon="9.895840012311016"><ele>327.79999999999995</ele><time>2026-05-03T09:18:00Z</time></trkpt><trkpt lat="45.680032251359776" lon="9.895967097651454"><ele>328.0</ele><time>2026-05-03T09:18:02Z</time></trkpt><trkpt lat="45.68005426996872" lon="9.896091572735887"><ele>328.8333333333333</ele><time>2026-05-03T09:18:04Z</time></trkpt><trkpt lat="45.680080561924356" lon="9.896212472538476"><ele>329.66666666666663</ele><time>2026-05-03T09:18:06Z</time></trkpt><trkpt lat="45.68010941802356" lon="9.896334097822388"><ele>330.5</ele><time>2026-05-03T09:18:08Z</time></trkpt><trkpt lat="45.680132654021115" lon="9.896457455845383"><ele>331.3333333333333</ele><time>2026-05-03T09:18:10Z</time></trkpt><trkpt lat="45.680165830511285" lon="9.896576851595997"><ele>332.1666666666667</ele><time>2026-05-03T09:18:12Z</time></trkpt><trkpt lat="45.680191816220145" lon="9.896694905847344"><ele>333.0</ele><time>2026-05-03T09:18:14Z</time></trkpt><trkpt lat="45.68021156218366" lon="9.896809997628372"><ele>334.8333333333333</ele><time>2026-05-03T09:18:16Z</time></trkpt><trkpt lat="45.68023380015615" lon="9.896925441286516"><ele>336.6666666666667</ele><time>2026-05-03T09:18:18Z</time></trkpt><trkpt lat="45.680257677130825" lon="9.897037454640587"><ele>338.5</ele><time>2026-05-03T09:18:20Z</time></trkpt><trkpt lat="45.68028276642039" lon="9.897143645584137"><ele>340.33333333333337</ele><time>2026-05-03T09:18:22Z</time></trkpt><trkpt lat="45.680309099613126" lon="9.89725723259018"><ele>342.1666666666667</ele><time>2026-05-03T09:18:24Z</time></trkpt><trkpt lat="45.68031552655639" lon="9.897371623410574"><ele>344.0</ele><time>2026-05-03T09:18:26Z</time></trkpt><trkpt lat="45.68030129047375" lon="9.897488585977458"><ele>346.0</ele><time>2026-05-03T09:18:28Z</time></trkpt><trkpt lat="45.680264289683144" lon="9.89758675855005"><ele>348.0</ele><time>2026-05-03T09:18:30Z</time></trkpt><trkpt lat="45.68021368808368" lon="9.897680220665645"><ele>350.0</ele><time>2026-05-03T09:18:32Z</time></trkpt><trkpt lat="45.68016432154297" lon="9.89777970678187"><ele>352.0</ele><time>2026-05-03T09:18:34Z</time></trkpt><trkpt lat="45.68010185611078" lon="9.897866558763873"><ele>354.0</ele><time>2026-05-03T09:18:36Z</time></trkpt><trkpt lat="45.68005128993554" lon="9.897971675581026"><ele>356.0</ele><time>2026-05-03T09:18:38Z</time></trkpt><trkpt lat="45.68001534062196" lon="9.89809312747938"><ele>356.0</ele><time>2026-05-03T09:18:40Z</time></trkpt><trkpt lat="45.67999709796984" lon="9.898219521852686"><ele>356.0</ele><time>2026-05-03T09:18:42Z</time></trkpt><trkpt lat="45.679979944769855" lon="9.898347195458983"><ele>356.0</ele><time>2026-05-03T09:18:44Z</time></trkpt><trkpt lat="45.67995458994447" lon="9.898475036855572"><ele>356.0</ele><time>2026-05-03T09:18:46Z</time></trkpt><trkpt lat="45.67993268728913" lon="9.898600009871151"><ele>356.0</ele><time>2026-05-03T09:18:48Z</time></trkpt><trkpt lat="45.67990799903709" lon="9.898725939316314"><ele>358.4</ele><time>2026-05-03T09:18:50Z</time></trkpt><trkpt lat="45.67989036603346" lon="9.898859567693547"><ele>360.8</ele><time>2026-05-03T09:18:52Z</time></trkpt><trkpt lat="45.67989208099687" lon="9.898987753743775"><ele>363.2</ele><time>2026-05-03T09:18:54Z</time></trkpt><trkpt lat="45.679899924577825" lon="9.899118771637239"><ele>365.59999999999997</ele><time>2026-05-03T09:18:56Z</time></trkpt><trkpt lat="45.67991361745145" lon="9.899251630003231"><ele>368.0</ele><time>2026-05-03T09:18:58Z</time></trkpt><trkpt lat="45.679916585504046" lon="9.899375571089205"><ele>370.79999999999995</ele><time>2026-05-03T09:19:00Z</time></trkpt><trkpt lat="45.67992573408893" lon="9.89949616265976"><ele>373.6</ele><time>2026-05-03T09:19:02Z</time></trkpt><trkpt lat="45.679935546759246" lon="9.899615679027972"><ele>376.4</ele><time>2026-05-03T09:19:04Z</time></trkpt><trkpt lat="45.67998300849309" lon="9.899720541702045"><ele>379.20000000000005</ele><time>2026-05-03T09:19:06Z</time></trkpt><trkpt lat="45.68007276703655" lon="9.899721146364552"><ele>382.0</ele><time>2026-05-03T09:19:08Z</time></trkpt><trkpt lat="45.6801008759724" lon="9.899568547023089"><ele>382.0</ele><time>2026-05-03T09:19:10Z</time></trkpt><trkpt lat="45.68011087927432" lon="9.89944030424933"><ele>382.0</ele><time>2026-05-03T09:19:12Z</time></trkpt><trkpt lat="45.680139869182426" lon="9.899319275015536"><ele>382.0</ele><time>2026-05-03T09:19:14Z</time></trkpt><trkpt lat="45.6801711066061" lon="9.899199759172582"><ele>382.0</ele><time>2026-05-03T09:19:16Z</time></trkpt><trkpt lat="45.68020222796122" lon="9.899075529242303"><ele>382.0</ele><time>2026-05-03T09:19:18Z</time></trkpt><trkpt lat="45.68024318391781" lon="9.89896118390843"><ele>384.40000000000003</ele><time>2026-05-03T09:19:20Z</time></trkpt><trkpt lat="45.680331241741" lon="9.898992590706454"><ele>386.8</ele><time>2026-05-03T09:19:22Z</time></trkpt><trkpt lat="45.680333668321715" lon="9.899136786727443"><ele>389.2</ele><time>2026-05-03T09:19:24Z</time></trkpt><trkpt lat="45.68031393249501" lon="9.899253803781082"><ele>391.6</ele><time>2026-05-03T09:19:26Z</time></trkpt><trkpt lat="45.68030295190552" lon="9.899376261813964"><ele>394.0</ele><time>2026-05-03T09:19:28Z</time></trkpt><trkpt lat="45.680320262783255" lon="9.899503093650438"><ele>395.83333333333337</ele><time>2026-05-03T09:19:30Z</time></trkpt><trkpt lat="45.68034170928216" lon="9.899624885084478"><ele>397.6666666666667</ele><time>2026-05-03T09:19:32Z</time></trkpt><trkpt lat="45.68035150164066" lon="9.89974443219441"><ele>399.5</ele><time>2026-05-03T09:19:34Z</time></trkpt><trkpt lat="45.680368280184595" lon="9.899862301178546"><ele>401.33333333333337</ele><time>2026-05-03T09:19:36Z</time></trkpt><trkpt lat="45.680401112996186" lon="9.89998197912236"><ele>403.1666666666667</ele><time>2026-05-03T09:19:38Z</time></trkpt><trkpt lat="45.68043626289212" lon="9.900099241153656"><ele>405.0</ele><time>2026-05-03T09:19:40Z</time></trkpt><trkpt lat="45.68049187866546" lon="9.900199613565674"><ele>405.1666666666667</ele><time>2026-05-03T09:19:42Z</time></trkpt><trkpt lat="45.68056270143864" lon="9.900278683898767"><ele>405.33333333333337</ele><time>2026-05-03T09:19:44Z</time></trkpt><trkpt lat="45.68063161079005" lon="9.90035485709371"><ele>405.5</ele><time>2026-05-03T09:19:46Z</time></trkpt><trkpt lat="45.68070813903636" lon="9.90040925888556"><ele>405.6666666666667</ele><time>2026-05-03T09:19:48Z</time></trkpt><trkpt lat="45.68077043157093" lon="9.900486453713098"><ele>405.83333333333337</ele><time>2026-05-03T09:19:50Z</time></trkpt><trkpt lat="45.68081455899726" lon="9.90057974096152"><ele>406.0</ele><time>2026-05-03T09:19:52Z</time></trkpt><trkpt lat="45.680846667000154" lon="9.900675718227479"><ele>406.00000000000006</ele><time>2026-05-03T09:19:54Z</time></trkpt><trkpt lat="45.68086579896526" lon="9.900765739445827"><ele>406.0</ele><time>2026-05-03T09:19:56Z</time></trkpt><trkpt lat="45.68087094410484" lon="9.900898451756786"><ele>406.0</ele><time>2026-05-03T09:19:59Z</time></trkpt><trkpt lat="45.68087385889976" lon="9.900990060772582"><ele>406.0</ele><time>2026-05-03T09:20:01Z</time></trkpt><trkpt lat="45.68085409597711" lon="9.901093883503501"><ele>406.00000000000006</ele><time>2026-05-03T09:20:03Z</time></trkpt><trkpt lat="45.680836525883294" lon="9.901218070982365"><ele>406.0</ele><time>2026-05-03T09:20:05Z</time></trkpt><trkpt lat="45.680826223819395" lon="9.901326073729194"><ele>408.0</ele><time>2026-05-03T09:20:07Z</time></trkpt><trkpt lat="45.68079417314764" lon="9.901444322284824"><ele>410.0</ele><time>2026-05-03T09:20:09Z</time></trkpt><trkpt lat="45.68074880285555" lon="9.901544452890253"><ele>412.0</ele><time>2026-05-03T09:20:11Z</time></trkpt><trkpt lat="45.68068945892535" lon="9.901643996605909"><ele>414.0</ele><time>2026-05-03T09:20:13Z</time></trkpt><trkpt lat="45.680616861461395" lon="9.90173711605996"><ele>416.0</ele><time>2026-05-03T09:20:15Z</time></trkpt><trkpt lat="45.680541786627984" lon="9.901816038122131"><ele>421.4</ele><time>2026-05-03T09:20:17Z</time></trkpt><trkpt lat="45.680473116613484" lon="9.901902877843863"><ele>426.8</ele><time>2026-05-03T09:20:19Z</time></trkpt><trkpt lat="45.680458229727556" lon="9.90202901334127"><ele>432.19999999999993</ele><time>2026-05-03T09:20:21Z</time></trkpt><trkpt lat="45.680533097460085" lon="9.90209061301418"><ele>437.59999999999997</ele><time>2026-05-03T09:20:23Z</time></trkpt><trkpt lat="45.68062267442569" lon="9.90205726557885"><ele>443.0</ele><time>2026-05-03T09:20:25Z</time></trkpt><trkpt lat="45.68071594119086" lon="9.901985652161231"><ele>443.0</ele><time>2026-05-03T09:20:27Z</time></trkpt><trkpt lat="45.68080476401758" lon="9.901919215554525"><ele>442.99999999999994</ele><time>2026-05-03T09:20:29Z</time></trkpt><trkpt lat="45.68089475092633" lon="9.901865970976685"><ele>442.99999999999994</ele><time>2026-05-03T09:20:31Z</time></trkpt><trkpt lat="45.68098604692773" lon="9.90180091916068"><ele>443.0</ele><time>2026-05-03T09:20:33Z</time></trkpt><trkpt lat="45.681080542766104" lon="9.901741602489665"><ele>443.0</ele><time>2026-05-03T09:20:35Z</time></trkpt><trkpt lat="45.68117862317087" lon="9.901679837627004"><ele>442.79999999999995</ele><time>2026-05-03T09:20:37Z</time></trkpt><trkpt lat="45.68127660636974" lon="9.901609795565108"><ele>442.59999999999997</ele><time>2026-05-03T09:20:39Z</time></trkpt><trkpt lat="45.681372228442534" lon="9.901536104294145"><ele>442.40000000000003</ele><time>2026-05-03T09:20:41Z</time></trkpt><trkpt lat="45.681468987462644" lon="9.901472612724687"><ele>442.20000000000005</ele><time>2026-05-03T09:20:43Z</time></trkpt><trkpt lat="45.681565173220754" lon="9.901401204621552"><ele>442.0</ele><time>2026-05-03T09:20:45Z</time></trkpt><trkpt lat="45.6816602341654" lon="9.901326091165446"><ele>442.0</ele><time>2026-05-03T09:20:47Z</time></trkpt><trkpt lat="45.681749342979096" lon="9.901258359434161"><ele>442.00000000000006</ele><time>2026-05-03T09:20:49Z</time></trkpt><trkpt lat="45.68184556330026" lon="9.901181389250864"><ele>442.00000000000006</ele><time>2026-05-03T09:20:51Z</time></trkpt><trkpt lat="45.681941660212736" lon="9.901114232101087"><ele>442.0</ele><time>2026-05-03T09:20:53Z</time></trkpt><trkpt lat="45.682046262881386" lon="9.901031284414668"><ele>442.0</ele><time>2026-05-03T09:20:55Z</time></trkpt><trkpt lat="45.68212936966928" lon="9.900957576660538"><ele>442.8</ele><time>2026-05-03T09:20:57Z</time></trkpt><trkpt lat="45.68221966650396" lon="9.900877283570042"><ele>443.6</ele><time>2026-05-03T09:20:59Z</time></trkpt><trkpt lat="45.68231811022569" lon="9.900805619062277"><ele>444.40000000000003</ele><time>2026-05-03T09:21:01Z</time></trkpt><trkpt lat="45.68240434147583" lon="9.900737831256558"><ele>445.20000000000005</ele><time>2026-05-03T09:21:03Z</time></trkpt><trkpt lat="45.682493147140946" lon="9.900672290067265"><ele>446.0</ele><time>2026-05-03T09:21:05Z</time></trkpt><trkpt lat="45.68257654492624" lon="9.900599484331387"><ele>446.0</ele><time>2026-05-03T09:21:07Z</time></trkpt><trkpt lat="45.68265992578874" lon="9.90050330374259"><ele>446.0</ele><time>2026-05-03T09:21:09Z</time></trkpt><trkpt lat="45.68276875076853" lon="9.900542974436954"><ele>446.0</ele><time>2026-05-03T09:21:12Z</time></trkpt><trkpt lat="45.682843252658046" lon="9.900540640040695"><ele>446.0</ele><time>2026-05-03T09:21:13Z</time></trkpt><trkpt lat="45.682922799722654" lon="9.900475064811175"><ele>446.0</ele><time>2026-05-03T09:21:15Z</time></trkpt><trkpt lat="45.6830288887526" lon="9.900387907924506"><ele>447.8</ele><time>2026-05-03T09:21:17Z</time></trkpt><trkpt lat="45.68312557131982" lon="9.900310653545077"><ele>449.6</ele><time>2026-05-03T09:21:19Z</time></trkpt><trkpt lat="45.68322169329807" lon="9.900230131688016"><ele>451.4</ele><time>2026-05-03T09:21:21Z</time></trkpt><trkpt lat="45.68331752936054" lon="9.900144988106396"><ele>453.2</ele><time>2026-05-03T09:21:23Z</time></trkpt><trkpt lat="45.68340154592126" lon="9.900045477372126"><ele>455.0</ele><time>2026-05-03T09:21:25Z</time></trkpt><trkpt lat="45.683500035870466" lon="9.899961109364998"><ele>455.0</ele><time>2026-05-03T09:21:27Z</time></trkpt><trkpt lat="45.683590331610546" lon="9.89987210260862"><ele>455.0</ele><time>2026-05-03T09:21:29Z</time></trkpt><trkpt lat="45.68367265851148" lon="9.899766074194357"><ele>455.0</ele><time>2026-05-03T09:21:31Z</time></trkpt><trkpt lat="45.683746382782836" lon="9.899651800887378"><ele>455.0</ele><time>2026-05-03T09:21:33Z</time></trkpt><trkpt lat="45.68382622022781" lon="9.899564016126671"><ele>455.0</ele><time>2026-05-03T09:21:35Z</time></trkpt><trkpt lat="45.6839185299467" lon="9.899474802129665"><ele>458.4</ele><time>2026-05-03T09:21:37Z</time></trkpt><trkpt lat="45.68399454667262" lon="9.89937492308353"><ele>461.8</ele><time>2026-05-03T09:21:39Z</time></trkpt><trkpt lat="45.68407924428833" lon="9.899282958182575"><ele>465.20000000000005</ele><time>2026-05-03T09:21:41Z</time></trkpt><trkpt lat="45.68416217108019" lon="9.899190094738863"><ele>468.6</ele><time>2026-05-03T09:21:43Z</time></trkpt><trkpt lat="45.68424199992292" lon="9.89910388362335"><ele>472.0</ele><time>2026-05-03T09:21:45Z</time></trkpt><trkpt lat="45.684318032921944" lon="9.89901529681773"><ele>472.0</ele><time>2026-05-03T09:21:47Z</time></trkpt><trkpt lat="45.684397134143246" lon="9.898923377074723"><ele>472.00000000000006</ele><time>2026-05-03T09:21:49Z</time></trkpt><trkpt lat="45.68447524124699" lon="9.898833003144317"><ele>472.00000000000006</ele><time>2026-05-03T09:21:51Z</time></trkpt><trkpt lat="45.6845484894036" lon="9.89873712917015"><ele>472.0</ele><time>2026-05-03T09:21:53Z</time></trkpt><trkpt lat="45.68466036576338" lon="9.89870520964405"><ele>472.0</ele><time>2026-05-03T09:21:56Z</time></trkpt><trkpt lat="45.684713701975475" lon="9.898621032503213"><ele>476.0</ele><time>2026-05-03T09:21:57Z</time></trkpt><trkpt lat="45.6847995053659" lon="9.89856767635166"><ele>480.00000000000006</ele><time>2026-05-03T09:21:59Z</time></trkpt><trkpt lat="45.68488909178306" lon="9.898453355138919"><ele>484.00000000000006</ele><time>2026-05-03T09:22:01Z</time></trkpt><trkpt lat="45.68495060700588" lon="9.898321868451943"><ele>488.0</ele><time>2026-05-03T09:22:03Z</time></trkpt><trkpt lat="45.68498049068749" lon="9.898236429690185"><ele>492.0</ele><time>2026-05-03T09:22:04Z</time></trkpt><trkpt lat="45.68503463843812" lon="9.898081684734272"><ele>492.0</ele><time>2026-05-03T09:22:06Z</time></trkpt><trkpt lat="45.6850560932271" lon="9.897918364551773"><ele>492.00000000000006</ele><time>2026-05-03T09:22:08Z</time></trkpt><trkpt lat="45.6850356278213" lon="9.897768796466188"><ele>492.00000000000006</ele><time>2026-05-03T09:22:10Z</time></trkpt><trkpt lat="45.68501471117444" lon="9.897636279291357"><ele>492.0</ele><time>2026-05-03T09:22:12Z</time></trkpt><trkpt lat="45.684992647387645" lon="9.897492106781932"><ele>492.0</ele><time>2026-05-03T09:22:14Z</time></trkpt><trkpt lat="45.68497038104842" lon="9.897330550878197"><ele>490.40000000000003</ele><time>2026-05-03T09:22:16Z</time></trkpt><trkpt lat="45.685026718937785" lon="9.897187320151447"><ele>488.80000000000007</ele><time>2026-05-03T09:22:18Z</time></trkpt><trkpt lat="45.68512062033048" lon="9.897082398335632"><ele>487.2</ele><time>2026-05-03T09:22:20Z</time></trkpt><trkpt lat="45.68519993950572" lon="9.896966345475548"><ele>485.6</ele><time>2026-05-03T09:22:22Z</time></trkpt><trkpt lat="45.685254291595236" lon="9.896860266798276"><ele>484.0</ele><time>2026-05-03T09:22:24Z</time></trkpt><trkpt lat="45.68528088906353" lon="9.896711321937014"><ele>491.75</ele><time>2026-05-03T09:22:26Z</time></trkpt><trkpt lat="45.68531441180022" lon="9.89654668477592"><ele>499.5</ele><time>2026-05-03T09:22:28Z</time></trkpt><trkpt lat="45.68537261010782" lon="9.896395134840212"><ele>507.25</ele><time>2026-05-03T09:22:30Z</time></trkpt><trkpt lat="45.6854407406108" lon="9.896257253107917"><ele>515.0</ele><time>2026-05-03T09:22:32Z</time></trkpt><trkpt lat="45.685523870267374" lon="9.89615947723952"><ele>515.0</ele><time>2026-05-03T09:22:34Z</time></trkpt><trkpt lat="45.685598049578886" lon="9.896089634221662"><ele>515.0</ele><time>2026-05-03T09:22:36Z</time></trkpt><trkpt lat="45.68564749472981" lon="9.896147137252383"><ele>515.0</ele><time>2026-05-03T09:22:38Z</time></trkpt><trkpt lat="45.685614473752054" lon="9.89623850368255"><ele>515.0</ele><time>2026-05-03T09:22:40Z</time></trkpt><trkpt lat="45.68553985789048" lon="9.896338490152251"><ele>515.0</ele><time>2026-05-03T09:22:42Z</time></trkpt><trkpt lat="45.68545100892966" lon="9.896429646196312"><ele>515.0</ele><time>2026-05-03T09:22:44Z</time></trkpt><trkpt lat="45.685408137646604" lon="9.896581055815652"><ele>515.0</ele><time>2026-05-03T09:22:46Z</time></trkpt><trkpt lat="45.68538793206984" lon="9.896742344967558"><ele>515.0</ele><time>2026-05-03T09:22:48Z</time></trkpt><trkpt lat="45.68536937013704" lon="9.896899985892945"><ele>515.0</ele><time>2026-05-03T09:22:50Z</time></trkpt><trkpt lat="45.68533335979403" lon="9.897047127206605"><ele>515.0</ele><time>2026-05-03T09:22:52Z</time></trkpt><trkpt lat="45.68525692804585" lon="9.897168405763606"><ele>515.0</ele><time>2026-05-03T09:22:54Z</time></trkpt><trkpt lat="45.68519846115202" lon="9.8972989788079"><ele>518.75</ele><time>2026-05-03T09:22:56Z</time></trkpt><trkpt lat="45.685195314768464" lon="9.897468351254997"><ele>522.5</ele><time>2026-05-03T09:22:58Z</time></trkpt><trkpt lat="45.68522084149603" lon="9.897637640016676"><ele>526.25</ele><time>2026-05-03T09:23:00Z</time></trkpt><trkpt lat="45.68526406999583" lon="9.897796516125068"><ele>530.0</ele><time>2026-05-03T09:23:02Z</time></trkpt><trkpt lat="45.68529973032616" lon="9.897959057735088"><ele>530.0</ele><time>2026-05-03T09:23:04Z</time></trkpt><trkpt lat="45.68530587494297" lon="9.898116713592968"><ele>530.0</ele><time>2026-05-03T09:23:06Z</time></trkpt><trkpt lat="45.685236542477014" lon="9.898240597268419"><ele>530.0</ele><time>2026-05-03T09:23:08Z</time></trkpt><trkpt lat="45.6851687755009" lon="9.89838294853215"><ele>530.0</ele><time>2026-05-03T09:23:10Z</time></trkpt><trkpt lat="45.685153977516215" lon="9.89855801219934"><ele>525.2</ele><time>2026-05-03T09:23:12Z</time></trkpt><trkpt lat="45.68514798246177" lon="9.898665805278304"><ele>520.4</ele><time>2026-05-03T09:23:13Z</time></trkpt><trkpt lat="45.685112356461104" lon="9.898781655229174"><ele>515.6</ele><time>2026-05-03T09:23:15Z</time></trkpt><trkpt lat="45.685004937399114" lon="9.898866455721302"><ele>510.8</ele><time>2026-05-03T09:23:17Z</time></trkpt><trkpt lat="45.68494156288954" lon="9.898876421830538"><ele>506.0</ele><time>2026-05-03T09:23:18Z</time></trkpt><trkpt lat="45.68482883487458" lon="9.898924301983312"><ele>505.99999999999994</ele><time>2026-05-03T09:23:20Z</time></trkpt><trkpt lat="45.68475156729909" lon="9.899054539406354"><ele>506.0</ele><time>2026-05-03T09:23:22Z</time></trkpt><trkpt lat="45.68469160909359" lon="9.899209972828462"><ele>506.0</ele><time>2026-05-03T09:23:24Z</time></trkpt><trkpt lat="45.684661569249656" lon="9.899300192563068"><ele>506.0</ele><time>2026-05-03T09:23:25Z</time></trkpt><trkpt lat="45.68463267635756" lon="9.899389079759931"><ele>505.99999999999994</ele><time>2026-05-03T09:23:26Z</time></trkpt><trkpt lat="45.684602695947895" lon="9.899475044585921"><ele>506.0</ele><time>2026-05-03T09:23:27Z</time></trkpt><trkpt lat="45.68457535226384" lon="9.8995633186116"><ele>502.8</ele><time>2026-05-03T09:23:28Z</time></trkpt><trkpt lat="45.68453486356094" lon="9.899632649764568"><ele>499.6</ele><time>2026-05-03T09:23:29Z</time></trkpt><trkpt lat="45.68445095764139" lon="9.899753700419089"><ele>496.4</ele><time>2026-05-03T09:23:31Z</time></trkpt><trkpt lat="45.68436010476916" lon="9.899858396057363"><ele>493.2</ele><time>2026-05-03T09:23:33Z</time></trkpt><trkpt lat="45.68427404375949" lon="9.89995888245073"><ele>490.0</ele><time>2026-05-03T09:23:35Z</time></trkpt><trkpt lat="45.684231766243556" lon="9.900028959215158"><ele>492.75</ele><time>2026-05-03T09:23:36Z</time></trkpt><trkpt lat="45.68417257782207" lon="9.900170651162316"><ele>495.5</ele><time>2026-05-03T09:23:38Z</time></trkpt><trkpt lat="45.6841282730086" lon="9.900326555200852"><ele>498.25</ele><time>2026-05-03T09:23:40Z</time></trkpt><trkpt lat="45.68409149692444" lon="9.900486289639643"><ele>501.0</ele><time>2026-05-03T09:23:42Z</time></trkpt><trkpt lat="45.6840467515766" lon="9.900642477360993"><ele>501.0</ele><time>2026-05-03T09:23:44Z</time></trkpt><trkpt lat="45.68400460238904" lon="9.900799120422523"><ele>501.0</ele><time>2026-05-03T09:23:46Z</time></trkpt><trkpt lat="45.68395814257565" lon="9.900944373994772"><ele>501.0</ele><time>2026-05-03T09:23:48Z</time></trkpt><trkpt lat="45.68390992439502" lon="9.901096586893637"><ele>501.0</ele><time>2026-05-03T09:23:50Z</time></trkpt><trkpt lat="45.68386162968872" lon="9.901238615438949"><ele>501.6</ele><time>2026-05-03T09:23:52Z</time></trkpt><trkpt lat="45.68380769493438" lon="9.901359078091676"><ele>502.20000000000005</ele><time>2026-05-03T09:23:54Z</time></trkpt><trkpt lat="45.683752494744255" lon="9.901499117910307"><ele>502.79999999999995</ele><time>2026-05-03T09:23:56Z</time></trkpt><trkpt lat="45.68368790002846" lon="9.901620779043926"><ele>503.4</ele><time>2026-05-03T09:23:58Z</time></trkpt><trkpt lat="45.68366017740683" lon="9.901749633120462"><ele>504.0</ele><time>2026-05-03T09:24:00Z</time></trkpt><trkpt lat="45.68373083707145" lon="9.901830680477435"><ele>500.79999999999995</ele><time>2026-05-03T09:24:02Z</time></trkpt><trkpt lat="45.68379629701867" lon="9.90182969900599"><ele>497.59999999999997</ele><time>2026-05-03T09:24:03Z</time></trkpt><trkpt lat="45.68393509998485" lon="9.90185410402062"><ele>494.4</ele><time>2026-05-03T09:24:05Z</time></trkpt><trkpt lat="45.684007834512435" lon="9.9018930828415"><ele>491.2</ele><time>2026-05-03T09:24:06Z</time></trkpt><trkpt lat="45.684090448436145" lon="9.901918185761582"><ele>488.0</ele><time>2026-05-03T09:24:07Z</time></trkpt><trkpt lat="45.68418131073358" lon="9.901940232622575"><ele>488.0</ele><time>2026-05-03T09:24:08Z</time></trkpt><trkpt lat="45.684268369421005" lon="9.901962248647175"><ele>487.99999999999994</ele><time>2026-05-03T09:24:09Z</time></trkpt><trkpt lat="45.68435811588012" lon="9.901993615612879"><ele>487.99999999999994</ele><time>2026-05-03T09:24:10Z</time></trkpt><trkpt lat="45.68445829940471" lon="9.901994490749415"><ele>488.0</ele><time>2026-05-03T09:24:11Z</time></trkpt><trkpt lat="45.684551166987404" lon="9.901969750224655"><ele>488.0</ele><time>2026-05-03T09:24:12Z</time></trkpt><trkpt lat="45.68464276271538" lon="9.901894600888891"><ele>487.3333333333333</ele><time>2026-05-03T09:24:13Z</time></trkpt><trkpt lat="45.68471473742167" lon="9.90181641289317"><ele>486.66666666666663</ele><time>2026-05-03T09:24:14Z</time></trkpt><trkpt lat="45.68477523979742" lon="9.901777949692052"><ele>486.0</ele><time>2026-05-03T09:24:15Z</time></trkpt><trkpt lat="45.684850804568796" lon="9.90181062244151"><ele>485.33333333333337</ele><time>2026-05-03T09:24:16Z</time></trkpt><trkpt lat="45.68493558674322" lon="9.901902323464501"><ele>484.6666666666667</ele><time>2026-05-03T09:24:17Z</time></trkpt><trkpt lat="45.6850173272918" lon="9.901997989467134"><ele>484.0</ele><time>2026-05-03T09:24:18Z</time></trkpt><trkpt lat="45.68509913672093" lon="9.902096888418493"><ele>484.0</ele><time>2026-05-03T09:24:19Z</time></trkpt><trkpt lat="45.68518253785506" lon="9.902198053307599"><ele>484.0</ele><time>2026-05-03T09:24:20Z</time></trkpt><trkpt lat="45.685267989910734" lon="9.90230175798883"><ele>484.0</ele><time>2026-05-03T09:24:21Z</time></trkpt><trkpt lat="45.685357686442245" lon="9.902399951421772"><ele>484.0</ele><time>2026-05-03T09:24:22Z</time></trkpt><trkpt lat="45.685453294665976" lon="9.902499584060584"><ele>482.5</ele><time>2026-05-03T09:24:23Z</time></trkpt><trkpt lat="45.68555213577988" lon="9.90259631713118"><ele>481.0</ele><time>2026-05-03T09:24:24Z</time></trkpt><trkpt lat="45.68565136095857" lon="9.902692809909343"><ele>479.5</ele><time>2026-05-03T09:24:25Z</time></trkpt><trkpt lat="45.68573552114655" lon="9.902802725784923"><ele>478.0</ele><time>2026-05-03T09:24:26Z</time></trkpt><trkpt lat="45.68579743347334" lon="9.902922482239713"><ele>478.00000000000006</ele><time>2026-05-03T09:24:27Z</time></trkpt><trkpt lat="45.685806621739815" lon="9.903038929813906"><ele>478.0</ele><time>2026-05-03T09:24:28Z</time></trkpt><trkpt lat="45.6858681747604" lon="9.903105635462675"><ele>478.0</ele><time>2026-05-03T09:24:29Z</time></trkpt><trkpt lat="45.68596955404238" lon="9.903175980668813"><ele>478.0</ele><time>2026-05-03T09:24:31Z</time></trkpt><trkpt lat="45.68605362294743" lon="9.903218669023493"><ele>478.00000000000006</ele><time>2026-05-03T09:24:32Z</time></trkpt><trkpt lat="45.68611782702473" lon="9.903239060357167"><ele>478.0</ele><time>2026-05-03T09:24:33Z</time></trkpt><trkpt lat="45.68618008334004" lon="9.903260111906462"><ele>480.2</ele><time>2026-05-03T09:24:34Z</time></trkpt><trkpt lat="45.68624362239606" lon="9.903279592992243"><ele>482.4</ele><time>2026-05-03T09:24:35Z</time></trkpt><trkpt lat="45.686358790320384" lon="9.903350447855326"><ele>484.59999999999997</ele><time>2026-05-03T09:24:37Z</time></trkpt><trkpt lat="45.686468661250444" lon="9.903427779309158"><ele>486.79999999999995</ele><time>2026-05-03T09:24:39Z</time></trkpt><trkpt lat="45.686583761413566" lon="9.903472978399533"><ele>489.0</ele><time>2026-05-03T09:24:41Z</time></trkpt><trkpt lat="45.68665105545046" lon="9.903454420737738"><ele>489.0</ele><time>2026-05-03T09:24:42Z</time></trkpt><trkpt lat="45.68672514921786" lon="9.903419569442104"><ele>489.0</ele><time>2026-05-03T09:24:43Z</time></trkpt><trkpt lat="45.68680529749892" lon="9.903374307319204"><ele>489.0</ele><time>2026-05-03T09:24:44Z</time></trkpt><trkpt lat="45.686894346537954" lon="9.903333063721867"><ele>489.0</ele><time>2026-05-03T09:24:45Z</time></trkpt><trkpt lat="45.68697782087054" lon="9.903289159174525"><ele>489.0</ele><time>2026-05-03T09:24:46Z</time></trkpt><trkpt lat="45.68706243525444" lon="9.903249373996445"><ele>489.0</ele><time>2026-05-03T09:24:47Z</time></trkpt><trkpt lat="45.687152698962905" lon="9.903202259445619"><ele>484.0</ele><time>2026-05-03T09:24:48Z</time></trkpt><trkpt lat="45.68724612194563" lon="9.903139280538154"><ele>479.0</ele><time>2026-05-03T09:24:49Z</time></trkpt><trkpt lat="45.68733445263981" lon="9.903049168129716"><ele>474.0</ele><time>2026-05-03T09:24:50Z</time></trkpt><trkpt lat="45.68741291445966" lon="9.90293661699344"><ele>469.0</ele><time>2026-05-03T09:24:51Z</time></trkpt><trkpt lat="45.68749468712244" lon="9.902818734948983"><ele>464.0</ele><time>2026-05-03T09:24:52Z</time></trkpt><trkpt lat="45.68758291610338" lon="9.902706027489897"><ele>464.0</ele><time>2026-05-03T09:24:53Z</time></trkpt><trkpt lat="45.68766899994226" lon="9.90259067415406"><ele>464.0</ele><time>2026-05-03T09:24:54Z</time></trkpt><trkpt lat="45.68774522894449" lon="9.902471631354688"><ele>464.0</ele><time>2026-05-03T09:24:55Z</time></trkpt><trkpt lat="45.6878210979452" lon="9.90234538148093"><ele>464.0</ele><time>2026-05-03T09:24:56Z</time></trkpt><trkpt lat="45.687895578333965" lon="9.902211086673432"><ele>460.6</ele><time>2026-05-03T09:24:57Z</time></trkpt><trkpt lat="45.687955894261265" lon="9.902089158610826"><ele>457.2</ele><time>2026-05-03T09:24:58Z</time></trkpt><trkpt lat="45.68801259277467" lon="9.90196900016015"><ele>453.80000000000007</ele><time>2026-05-03T09:24:59Z</time></trkpt><trkpt lat="45.68804415992832" lon="9.901869355443761"><ele>450.40000000000003</ele><time>2026-05-03T09:25:00Z</time></trkpt><trkpt lat="45.68811379096082" lon="9.901754498810451"><ele>447.0</ele><time>2026-05-03T09:25:02Z</time></trkpt><trkpt lat="45.688179014297376" lon="9.901803896258144"><ele>447.0</ele><time>2026-05-03T09:25:04Z</time></trkpt><trkpt lat="45.68812134064264" lon="9.901965560463204"><ele>447.00000000000006</ele><time>2026-05-03T09:25:06Z</time></trkpt><trkpt lat="45.68806314823188" lon="9.902142445320456"><ele>447.00000000000006</ele><time>2026-05-03T09:25:08Z</time></trkpt><trkpt lat="45.68805299207348" lon="9.902279099537198"><ele>447.0</ele><time>2026-05-03T09:25:09Z</time></trkpt><trkpt lat="45.68806408617152" lon="9.902401658684532"><ele>447.0</ele><time>2026-05-03T09:25:10Z</time></trkpt><trkpt lat="45.68805954370914" lon="9.902538397056434"><ele>444.6666666666667</ele><time>2026-05-03T09:25:11Z</time></trkpt><trkpt lat="45.68803444959271" lon="9.902655654752252"><ele>442.33333333333337</ele><time>2026-05-03T09:25:12Z</time></trkpt><trkpt lat="45.687993375533935" lon="9.902760482972479"><ele>440.0</ele><time>2026-05-03T09:25:13Z</time></trkpt><trkpt lat="45.687941090137315" lon="9.902859822832342"><ele>437.6666666666667</ele><time>2026-05-03T09:25:14Z</time></trkpt><trkpt lat="45.6879002041973" lon="9.90296319607964"><ele>435.33333333333337</ele><time>2026-05-03T09:25:15Z</time></trkpt><trkpt lat="45.68787919665602" lon="9.903073241683924"><ele>433.0</ele><time>2026-05-03T09:25:16Z</time></trkpt><trkpt lat="45.687870824978276" lon="9.9031862391708"><ele>433.0</ele><time>2026-05-03T09:25:17Z</time></trkpt><trkpt lat="45.687849565523166" lon="9.903331907542096"><ele>432.99999999999994</ele><time>2026-05-03T09:25:18Z</time></trkpt><trkpt lat="45.68782716578189" lon="9.903477672041205"><ele>432.99999999999994</ele><time>2026-05-03T09:25:19Z</time></trkpt><trkpt lat="45.687796662449564" lon="9.903608561244504"><ele>433.0</ele><time>2026-05-03T09:25:20Z</time></trkpt><trkpt lat="45.68774722914334" lon="9.903721110292915"><ele>433.0</ele><time>2026-05-03T09:25:21Z</time></trkpt><trkpt lat="45.68768232386531" lon="9.903816446224551"><ele>433.50000000000006</ele><time>2026-05-03T09:25:22Z</time></trkpt><trkpt lat="45.687683552125854" lon="9.90393770251436"><ele>434.0</ele><time>2026-05-03T09:25:24Z</time></trkpt><trkpt lat="45.68776379277351" lon="9.903926200462418"><ele>434.5</ele><time>2026-05-03T09:25:26Z</time></trkpt><trkpt lat="45.68780110205432" lon="9.90383711230917"><ele>435.0</ele><time>2026-05-03T09:25:27Z</time></trkpt><trkpt lat="45.68783299952561" lon="9.903749468980342"><ele>435.50000000000006</ele><time>2026-05-03T09:25:28Z</time></trkpt><trkpt lat="45.68788269341384" lon="9.903670434499544"><ele>436.0</ele><time>2026-05-03T09:25:29Z</time></trkpt><trkpt lat="45.68795921497055" lon="9.903517959358327"><ele>435.50000000000006</ele><time>2026-05-03T09:25:31Z</time></trkpt><trkpt lat="45.68801758400817" lon="9.903412283112965"><ele>435.0</ele><time>2026-05-03T09:25:32Z</time></trkpt><trkpt lat="45.68808009748815" lon="9.903319043138737"><ele>434.5</ele><time>2026-05-03T09:25:33Z</time></trkpt><trkpt lat="45.68815052070581" lon="9.903240212317904"><ele>434.0</ele><time>2026-05-03T09:25:34Z</time></trkpt><trkpt lat="45.68822670500323" lon="9.90318441462974"><ele>433.50000000000006</ele><time>2026-05-03T09:25:35Z</time></trkpt><trkpt lat="45.68830562691365" lon="9.903166268217028"><ele>433.0</ele><time>2026-05-03T09:25:36Z</time></trkpt><trkpt lat="45.688390191842515" lon="9.903173645083768"><ele>433.0</ele><time>2026-05-03T09:25:37Z</time></trkpt><trkpt lat="45.68850118469676" lon="9.903151367671224"><ele>432.99999999999994</ele><time>2026-05-03T09:25:38Z</time></trkpt><trkpt lat="45.68860236606529" lon="9.903088040242002"><ele>432.99999999999994</ele><time>2026-05-03T09:25:39Z</time></trkpt><trkpt lat="45.6887018557359" lon="9.903039742632384"><ele>433.0</ele><time>2026-05-03T09:25:40Z</time></trkpt><trkpt lat="45.68879366833048" lon="9.903003446387878"><ele>433.0</ele><time>2026-05-03T09:25:41Z</time></trkpt><trkpt lat="45.68887458038217" lon="9.902949628120519"><ele>429.79999999999995</ele><time>2026-05-03T09:25:42Z</time></trkpt><trkpt lat="45.68893586459428" lon="9.902841676717646"><ele>426.59999999999997</ele><time>2026-05-03T09:25:43Z</time></trkpt><trkpt lat="45.6889847337205" lon="9.90271226469727"><ele>423.4</ele><time>2026-05-03T09:25:44Z</time></trkpt><trkpt lat="45.68902667500039" lon="9.90256876298469"><ele>420.20000000000005</ele><time>2026-05-03T09:25:45Z</time></trkpt><trkpt lat="45.689069142996814" lon="9.902430010378804"><ele>417.0</ele><time>2026-05-03T09:25:46Z</time></trkpt><trkpt lat="45.6891112227608" lon="9.902295248336923"><ele>417.0</ele><time>2026-05-03T09:25:47Z</time></trkpt><trkpt lat="45.689161233788944" lon="9.902169151226603"><ele>417.0</ele><time>2026-05-03T09:25:48Z</time></trkpt><trkpt lat="45.68921111699263" lon="9.902049030318937"><ele>417.0</ele><time>2026-05-03T09:25:49Z</time></trkpt><trkpt lat="45.68925656483641" lon="9.90195144612404"><ele>417.0</ele><time>2026-05-03T09:25:50Z</time></trkpt><trkpt lat="45.689301543028684" lon="9.901882555369916"><ele>417.0</ele><time>2026-05-03T09:25:51Z</time></trkpt><trkpt lat="45.68940954089588" lon="9.90187229369216"><ele>416.3333333333333</ele><time>2026-05-03T09:25:53Z</time></trkpt><trkpt lat="45.689476159642936" lon="9.90196230645714"><ele>415.66666666666663</ele><time>2026-05-03T09:25:54Z</time></trkpt><trkpt lat="45.689519443437725" lon="9.902062721519888"><ele>415.0</ele><time>2026-05-03T09:25:55Z</time></trkpt><trkpt lat="45.68956159939961" lon="9.902159377565477"><ele>414.3333333333333</ele><time>2026-05-03T09:25:56Z</time></trkpt><trkpt lat="45.68960736023307" lon="9.9022422160587"><ele>413.66666666666663</ele><time>2026-05-03T09:25:57Z</time></trkpt><trkpt lat="45.68965449761143" lon="9.902320492834798"><ele>413.0</ele><time>2026-05-03T09:25:58Z</time></trkpt><trkpt lat="45.68970179175627" lon="9.90240034921768"><ele>413.0</ele><time>2026-05-03T09:25:59Z</time></trkpt><trkpt lat="45.689744810407205" lon="9.902480275900349"><ele>413.0</ele><time>2026-05-03T09:26:00Z</time></trkpt><trkpt lat="45.689790278338606" lon="9.902557899441312"><ele>413.0</ele><time>2026-05-03T09:26:01Z</time></trkpt><trkpt lat="45.689843845767975" lon="9.90263506410133"><ele>413.0</ele><time>2026-05-03T09:26:02Z</time></trkpt><trkpt lat="45.68989215986568" lon="9.902705797351105"><ele>413.0</ele><time>2026-05-03T09:26:03Z</time></trkpt><trkpt lat="45.689937545705085" lon="9.90276893614873"><ele>413.0</ele><time>2026-05-03T09:26:04Z</time></trkpt><trkpt lat="45.68998263863792" lon="9.902832481128693"><ele>413.0</ele><time>2026-05-03T09:26:05Z</time></trkpt><trkpt lat="45.69006821008766" lon="9.902933967498155"><ele>412.4</ele><time>2026-05-03T09:26:07Z</time></trkpt><trkpt lat="45.690155071417976" lon="9.90298876975091"><ele>411.79999999999995</ele><time>2026-05-03T09:26:09Z</time></trkpt><trkpt lat="45.69025970976964" lon="9.902980696182883"><ele>411.2</ele><time>2026-05-03T09:26:11Z</time></trkpt><trkpt lat="45.69034787227584" lon="9.902873327717005"><ele>410.6</ele><time>2026-05-03T09:26:13Z</time></trkpt><trkpt lat="45.69041862625143" lon="9.902732063581384"><ele>410.0</ele><time>2026-05-03T09:26:15Z</time></trkpt><trkpt lat="45.69045776317375" lon="9.902579074154525"><ele>410.0</ele><time>2026-05-03T09:26:17Z</time></trkpt><trkpt lat="45.690496873158516" lon="9.90243559669599"><ele>410.0</ele><time>2026-05-03T09:26:19Z</time></trkpt><trkpt lat="45.690540813724645" lon="9.902291485140509"><ele>410.0</ele><time>2026-05-03T09:26:21Z</time></trkpt><trkpt lat="45.69057291373637" lon="9.902142281654381"><ele>410.0</ele><time>2026-05-03T09:26:23Z</time></trkpt><trkpt lat="45.69060407084253" lon="9.90200417886327"><ele>410.0</ele><time>2026-05-03T09:26:25Z</time></trkpt><trkpt lat="45.690637180765854" lon="9.901867523285322"><ele>412.8</ele><time>2026-05-03T09:26:27Z</time></trkpt><trkpt lat="45.69067329252354" lon="9.901746330054152"><ele>415.6</ele><time>2026-05-03T09:26:29Z</time></trkpt><trkpt lat="45.69072941557569" lon="9.901622338045641"><ele>418.4</ele><time>2026-05-03T09:26:31Z</time></trkpt><trkpt lat="45.69078923822212" lon="9.90149671594519"><ele>421.2</ele><time>2026-05-03T09:26:33Z</time></trkpt><trkpt lat="45.69084154571015" lon="9.901370151528036"><ele>424.0</ele><time>2026-05-03T09:26:35Z</time></trkpt><trkpt lat="45.69090489179829" lon="9.901253341766653"><ele>424.0</ele><time>2026-05-03T09:26:37Z</time></trkpt><trkpt lat="45.690964501110734" lon="9.901131033769492"><ele>424.0</ele><time>2026-05-03T09:26:39Z</time></trkpt><trkpt lat="45.691025741137935" lon="9.900995987334623"><ele>424.0</ele><time>2026-05-03T09:26:41Z</time></trkpt><trkpt lat="45.691089575995235" lon="9.900857694577414"><ele>424.0</ele><time>2026-05-03T09:26:43Z</time></trkpt><trkpt lat="45.69116287049886" lon="9.900721824682437"><ele>422.83333333333337</ele><time>2026-05-03T09:26:45Z</time></trkpt><trkpt lat="45.691206432741765" lon="9.90064928266942"><ele>421.6666666666667</ele><time>2026-05-03T09:26:46Z</time></trkpt><trkpt lat="45.69125012461859" lon="9.90058207234988"><ele>420.5</ele><time>2026-05-03T09:26:47Z</time></trkpt><trkpt lat="45.69129318489331" lon="9.900515093771505"><ele>419.33333333333337</ele><time>2026-05-03T09:26:48Z</time></trkpt><trkpt lat="45.6913648678515" lon="9.90038587643138"><ele>418.1666666666667</ele><time>2026-05-03T09:26:50Z</time></trkpt><trkpt lat="45.69141649147489" lon="9.900231111388898"><ele>417.0</ele><time>2026-05-03T09:26:52Z</time></trkpt><trkpt lat="45.691432801415395" lon="9.90014380205177"><ele>418.2857142857143</ele><time>2026-05-03T09:26:53Z</time></trkpt><trkpt lat="45.6914441641031" lon="9.900049422405347"><ele>419.57142857142856</ele><time>2026-05-03T09:26:54Z</time></trkpt><trkpt lat="45.691456066887916" lon="9.899951663279507"><ele>420.85714285714283</ele><time>2026-05-03T09:26:55Z</time></trkpt><trkpt lat="45.691473936649466" lon="9.899857033956048"><ele>422.1428571428571</ele><time>2026-05-03T09:26:56Z</time></trkpt><trkpt lat="45.69151000663436" lon="9.899760488653564"><ele>423.42857142857144</ele><time>2026-05-03T09:26:57Z</time></trkpt><trkpt lat="45.691554828548824" lon="9.899673133749149"><ele>424.71428571428567</ele><time>2026-05-03T09:26:58Z</time></trkpt><trkpt lat="45.6916181034875" lon="9.8996224121621"><ele>426.0</ele><time>2026-05-03T09:26:59Z</time></trkpt><trkpt lat="45.69166268916311" lon="9.899541437502839"><ele>426.0</ele><time>2026-05-03T09:27:00Z</time></trkpt><trkpt lat="45.691686611550914" lon="9.89942924133985"><ele>426.0</ele><time>2026-05-03T09:27:01Z</time></trkpt><trkpt lat="45.6917025466551" lon="9.899299638386232"><ele>426.0</ele><time>2026-05-03T09:27:02Z</time></trkpt><trkpt lat="45.69171941595639" lon="9.899170896081552"><ele>426.0</ele><time>2026-05-03T09:27:03Z</time></trkpt><trkpt lat="45.69175249694693" lon="9.89906558778949"><ele>426.0</ele><time>2026-05-03T09:27:04Z</time></trkpt><trkpt lat="45.691798404594785" lon="9.898981913502954"><ele>426.0</ele><time>2026-05-03T09:27:05Z</time></trkpt><trkpt lat="45.69185722498303" lon="9.898921524538688"><ele>426.6</ele><time>2026-05-03T09:27:06Z</time></trkpt><trkpt lat="45.69191312061924" lon="9.89886848946204"><ele>427.20000000000005</ele><time>2026-05-03T09:27:07Z</time></trkpt><trkpt lat="45.69199477851572" lon="9.89875834833644"><ele>427.79999999999995</ele><time>2026-05-03T09:27:09Z</time></trkpt><trkpt lat="45.69206768472518" lon="9.8986386725618"><ele>428.4</ele><time>2026-05-03T09:27:11Z</time></trkpt><trkpt lat="45.6921465225355" lon="9.898518332697687"><ele>429.0</ele><time>2026-05-03T09:27:13Z</time></trkpt><trkpt lat="45.69223222541995" lon="9.898410289128824"><ele>429.0</ele><time>2026-05-03T09:27:15Z</time></trkpt><trkpt lat="45.69232697027563" lon="9.89830288261487"><ele>429.0</ele><time>2026-05-03T09:27:17Z</time></trkpt><trkpt lat="45.69242388187558" lon="9.898201496226699"><ele>429.0</ele><time>2026-05-03T09:27:19Z</time></trkpt><trkpt lat="45.692520840453604" lon="9.898105903824796"><ele>429.0</ele><time>2026-05-03T09:27:21Z</time></trkpt><trkpt lat="45.692618544095495" lon="9.897988636978369"><ele>429.0</ele><time>2026-05-03T09:27:23Z</time></trkpt><trkpt lat="45.692671644152384" lon="9.89792808693836"><ele>429.0</ele><time>2026-05-03T09:27:24Z</time></trkpt><trkpt lat="45.69272558519224" lon="9.897864575443036"><ele>429.0</ele><time>2026-05-03T09:27:25Z</time></trkpt><trkpt lat="45.69278476845928" lon="9.897810917716313"><ele>429.0</ele><time>2026-05-03T09:27:26Z</time></trkpt><trkpt lat="45.692843049124825" lon="9.897757123054992"><ele>429.0</ele><time>2026-05-03T09:27:27Z</time></trkpt><trkpt lat="45.69290146668308" lon="9.897705753358846"><ele>429.0</ele><time>2026-05-03T09:27:28Z</time></trkpt><trkpt lat="45.69296038334894" lon="9.897656002793495"><ele>429.0</ele><time>2026-05-03T09:27:29Z</time></trkpt><trkpt lat="45.69302037735791" lon="9.897608955714773"><ele>429.2857142857143</ele><time>2026-05-03T09:27:30Z</time></trkpt><trkpt lat="45.693080529939" lon="9.89756387792715"><ele>429.57142857142856</ele><time>2026-05-03T09:27:31Z</time></trkpt><trkpt lat="45.69313870197443" lon="9.89751558914682"><ele>429.8571428571429</ele><time>2026-05-03T09:27:32Z</time></trkpt><trkpt lat="45.69318412288306" lon="9.897443704728667"><ele>430.1428571428571</ele><time>2026-05-03T09:27:33Z</time></trkpt><trkpt lat="45.69324018916569" lon="9.897367123038052"><ele>430.4285714285714</ele><time>2026-05-03T09:27:34Z</time></trkpt><trkpt lat="45.69329749953564" lon="9.897302376755954"><ele>430.7142857142857</ele><time>2026-05-03T09:27:35Z</time></trkpt><trkpt lat="45.69333981379229" lon="9.897221741506439"><ele>431.0</ele><time>2026-05-03T09:27:36Z</time></trkpt><trkpt lat="45.69339021252242" lon="9.897155817610152"><ele>430.99999999999994</ele><time>2026-05-03T09:27:37Z</time></trkpt><trkpt lat="45.69343988864633" lon="9.89709578580035"><ele>431.0</ele><time>2026-05-03T09:27:38Z</time></trkpt><trkpt lat="45.69352926189193" lon="9.896973317806252"><ele>431.0</ele><time>2026-05-03T09:27:40Z</time></trkpt><trkpt lat="45.693582020795276" lon="9.896918611335682"><ele>431.0</ele><time>2026-05-03T09:27:41Z</time></trkpt><trkpt lat="45.6936367867905" lon="9.896872549740763"><ele>430.99999999999994</ele><time>2026-05-03T09:27:42Z</time></trkpt><trkpt lat="45.69374718783067" lon="9.896782459449573"><ele>431.0</ele><time>2026-05-03T09:27:44Z</time></trkpt><trkpt lat="45.69384413546937" lon="9.896726423746514"><ele>431.25</ele><time>2026-05-03T09:27:46Z</time></trkpt><trkpt lat="45.69394932297286" lon="9.896650378326962"><ele>431.5</ele><time>2026-05-03T09:27:48Z</time></trkpt><trkpt lat="45.69406056259201" lon="9.896575175414217"><ele>431.75</ele><time>2026-05-03T09:27:50Z</time></trkpt><trkpt lat="45.694170265174215" lon="9.896499056514179"><ele>432.0</ele><time>2026-05-03T09:27:52Z</time></trkpt><trkpt lat="45.694279760686776" lon="9.896418946687984"><ele>432.0</ele><time>2026-05-03T09:27:54Z</time></trkpt><trkpt lat="45.694389517682225" lon="9.896406079758975"><ele>432.00000000000006</ele><time>2026-05-03T09:27:56Z</time></trkpt><trkpt lat="45.694504513650855" lon="9.896388668568797"><ele>432.00000000000006</ele><time>2026-05-03T09:27:58Z</time></trkpt><trkpt lat="45.69460202201958" lon="9.896379422296251"><ele>432.0</ele><time>2026-05-03T09:28:00Z</time></trkpt><trkpt lat="45.694697885196476" lon="9.89636118335924"><ele>432.0</ele><time>2026-05-03T09:28:02Z</time></trkpt><trkpt lat="45.69479182835366" lon="9.896337471980463"><ele>432.20000000000005</ele><time>2026-05-03T09:28:04Z</time></trkpt><trkpt lat="45.694878686755594" lon="9.896313938084646"><ele>432.40000000000003</ele><time>2026-05-03T09:28:06Z</time></trkpt><trkpt lat="45.694968046623394" lon="9.896310540647088"><ele>432.59999999999997</ele><time>2026-05-03T09:28:08Z</time></trkpt><trkpt lat="45.695059866515756" lon="9.896302829509967"><ele>432.79999999999995</ele><time>2026-05-03T09:28:10Z</time></trkpt><trkpt lat="45.69515337713475" lon="9.896298100173306"><ele>433.0</ele><time>2026-05-03T09:28:12Z</time></trkpt><trkpt lat="45.69525224982652" lon="9.896295822798491"><ele>434.00000000000006</ele><time>2026-05-03T09:28:14Z</time></trkpt><trkpt lat="45.69535785480769" lon="9.896304330463455"><ele>435.0</ele><time>2026-05-03T09:28:16Z</time></trkpt><trkpt lat="45.69547221212096" lon="9.896312190874943"><ele>436.0</ele><time>2026-05-03T09:28:18Z</time></trkpt><trkpt lat="45.69553935493573" lon="9.896321616417925"><ele>437.0</ele><time>2026-05-03T09:28:19Z</time></trkpt><trkpt lat="45.69561350743471" lon="9.896347938736795"><ele>438.00000000000006</ele><time>2026-05-03T09:28:20Z</time></trkpt><trkpt lat="45.69568982152704" lon="9.896393828024978"><ele>439.0</ele><time>2026-05-03T09:28:21Z</time></trkpt><trkpt lat="45.69575512575956" lon="9.896451629927803"><ele>439.0</ele><time>2026-05-03T09:28:22Z</time></trkpt><trkpt lat="45.69581779628462" lon="9.896521428958678"><ele>439.0</ele><time>2026-05-03T09:28:23Z</time></trkpt><trkpt lat="45.69588440241083" lon="9.896584015704857"><ele>439.0</ele><time>2026-05-03T09:28:24Z</time></trkpt><trkpt lat="45.695951273288614" lon="9.896644745645036"><ele>439.0</ele><time>2026-05-03T09:28:25Z</time></trkpt><trkpt lat="45.6960140690245" lon="9.896699206427543"><ele>439.0</ele><time>2026-05-03T09:28:26Z</time></trkpt><trkpt lat="45.696071413845736" lon="9.896756479835854"><ele>439.0</ele><time>2026-05-03T09:28:27Z</time></trkpt><trkpt lat="45.69611814423964" lon="9.896826389546447"><ele>439.0</ele><time>2026-05-03T09:28:28Z</time></trkpt><trkpt lat="45.69617150983555" lon="9.897000773888939"><ele>438.4</ele><time>2026-05-03T09:28:30Z</time></trkpt><trkpt lat="45.69616122158507" lon="9.897139289275028"><ele>437.79999999999995</ele><time>2026-05-03T09:28:31Z</time></trkpt><trkpt lat="45.6961495515252" lon="9.897291283600737"><ele>437.20000000000005</ele><time>2026-05-03T09:28:32Z</time></trkpt><trkpt lat="45.696139702877495" lon="9.89743613358451"><ele>436.6</ele><time>2026-05-03T09:28:33Z</time></trkpt><trkpt lat="45.69614516466495" lon="9.8975736574336"><ele>436.0</ele><time>2026-05-03T09:28:34Z</time></trkpt><trkpt lat="45.69617169118474" lon="9.897703147629008"><ele>433.25</ele><time>2026-05-03T09:28:35Z</time></trkpt><trkpt lat="45.69622868829269" lon="9.89783035070378"><ele>430.5</ele><time>2026-05-03T09:28:36Z</time></trkpt><trkpt lat="45.69630079582769" lon="9.897953682627119"><ele>427.75</ele><time>2026-05-03T09:28:37Z</time></trkpt><trkpt lat="45.69637724668089" lon="9.89807944284551"><ele>425.0</ele><time>2026-05-03T09:28:38Z</time></trkpt><trkpt lat="45.696455168651376" lon="9.898205228439013"><ele>425.0</ele><time>2026-05-03T09:28:39Z</time></trkpt><trkpt lat="45.696527907242114" lon="9.898331479720435"><ele>425.0</ele><time>2026-05-03T09:28:40Z</time></trkpt><trkpt lat="45.69659714451255" lon="9.898456242375232"><ele>425.0</ele><time>2026-05-03T09:28:41Z</time></trkpt><trkpt lat="45.69666572109731" lon="9.898568113033878"><ele>425.0</ele><time>2026-05-03T09:28:42Z</time></trkpt><trkpt lat="45.696749562427485" lon="9.898658301548354"><ele>425.0</ele><time>2026-05-03T09:28:43Z</time></trkpt><trkpt lat="45.696844760394576" lon="9.89872701751028"><ele>424.8</ele><time>2026-05-03T09:28:44Z</time></trkpt><trkpt lat="45.69694521206143" lon="9.898774874130293"><ele>424.6</ele><time>2026-05-03T09:28:45Z</time></trkpt><trkpt lat="45.697047048612056" lon="9.898808303527023"><ele>424.4</ele><time>2026-05-03T09:28:46Z</time></trkpt><trkpt lat="45.697148510665365" lon="9.898829480801313"><ele>424.2</ele><time>2026-05-03T09:28:47Z</time></trkpt><trkpt lat="45.69724786775448" lon="9.898840619639682"><ele>424.0</ele><time>2026-05-03T09:28:48Z</time></trkpt><trkpt lat="45.69733843979168" lon="9.89884701989142"><ele>424.00000000000006</ele><time>2026-05-03T09:28:49Z</time></trkpt><trkpt lat="45.69741615070453" lon="9.898853040040683"><ele>424.0</ele><time>2026-05-03T09:28:50Z</time></trkpt><trkpt lat="45.69748109637649" lon="9.898903146561409"><ele>424.0</ele><time>2026-05-03T09:28:51Z</time></trkpt><trkpt lat="45.697522559741884" lon="9.898989910250007"><ele>424.0</ele><time>2026-05-03T09:28:52Z</time></trkpt><trkpt lat="45.697537757553945" lon="9.899106398850378"><ele>424.00000000000006</ele><time>2026-05-03T09:28:53Z</time></trkpt><trkpt lat="45.69752028891407" lon="9.899227581861707"><ele>424.0</ele><time>2026-05-03T09:28:54Z</time></trkpt><trkpt lat="45.69749468869156" lon="9.899347138289777"><ele>422.6</ele><time>2026-05-03T09:28:55Z</time></trkpt><trkpt lat="45.697450990563695" lon="9.899467004541945"><ele>421.2</ele><time>2026-05-03T09:28:56Z</time></trkpt><trkpt lat="45.6974035524723" lon="9.899590758897945"><ele>419.8</ele><time>2026-05-03T09:28:57Z</time></trkpt><trkpt lat="45.69736348416992" lon="9.899733131727636"><ele>418.40000000000003</ele><time>2026-05-03T09:28:58Z</time></trkpt><trkpt lat="45.69734522732869" lon="9.899894542879872"><ele>417.0</ele><time>2026-05-03T09:28:59Z</time></trkpt><trkpt lat="45.69735503985099" lon="9.900063483583168"><ele>415.25</ele><time>2026-05-03T09:29:00Z</time></trkpt><trkpt lat="45.69736343609877" lon="9.90024135434584"><ele>413.5</ele><time>2026-05-03T09:29:01Z</time></trkpt><trkpt lat="45.69736696093549" lon="9.900419854850968"><ele>411.75</ele><time>2026-05-03T09:29:02Z</time></trkpt><trkpt lat="45.697368912342135" lon="9.900593253316503"><ele>410.0</ele><time>2026-05-03T09:29:03Z</time></trkpt><trkpt lat="45.69735643636469" lon="9.900758459887887"><ele>410.0</ele><time>2026-05-03T09:29:04Z</time></trkpt><trkpt lat="45.697328380300455" lon="9.900910734562238"><ele>410.0</ele><time>2026-05-03T09:29:05Z</time></trkpt><trkpt lat="45.69729449041028" lon="9.901041795800728"><ele>410.0</ele><time>2026-05-03T09:29:06Z</time></trkpt><trkpt lat="45.69727073167243" lon="9.901160638953833"><ele>410.0</ele><time>2026-05-03T09:29:07Z</time></trkpt><trkpt lat="45.69727644460496" lon="9.90127658718953"><ele>410.0</ele><time>2026-05-03T09:29:08Z</time></trkpt><trkpt lat="45.69731595942801" lon="9.901395047909208"><ele>408.4</ele><time>2026-05-03T09:29:09Z</time></trkpt><trkpt lat="45.69736863540741" lon="9.901482591165031"><ele>406.8</ele><time>2026-05-03T09:29:10Z</time></trkpt><trkpt lat="45.69736525395893" lon="9.901607766537987"><ele>405.20000000000005</ele><time>2026-05-03T09:29:12Z</time></trkpt><trkpt lat="45.69725457156751" lon="9.901529363422995"><ele>403.6</ele><time>2026-05-03T09:29:14Z</time></trkpt><trkpt lat="45.6972044211433" lon="9.901439502113531"><ele>402.0</ele><time>2026-05-03T09:29:15Z</time></trkpt><trkpt lat="45.69715225789871" lon="9.901355610626982"><ele>402.0</ele><time>2026-05-03T09:29:16Z</time></trkpt><trkpt lat="45.697101009062244" lon="9.901277724793488"><ele>402.0</ele><time>2026-05-03T09:29:17Z</time></trkpt><trkpt lat="45.697045462702626" lon="9.90118536430189"><ele>402.0</ele><time>2026-05-03T09:29:18Z</time></trkpt><trkpt lat="45.69699351699784" lon="9.901076192004016"><ele>402.0</ele><time>2026-05-03T09:29:19Z</time></trkpt><trkpt lat="45.69694192433835" lon="9.90096156445545"><ele>402.0</ele><time>2026-05-03T09:29:20Z</time></trkpt><trkpt lat="45.69688853427906" lon="9.900839370916941"><ele>402.0</ele><time>2026-05-03T09:29:21Z</time></trkpt><trkpt lat="45.6968334963887" lon="9.900716893802942"><ele>399.6666666666667</ele><time>2026-05-03T09:29:22Z</time></trkpt><trkpt lat="45.69678110090289" lon="9.900596944217341"><ele>397.33333333333337</ele><time>2026-05-03T09:29:23Z</time></trkpt><trkpt lat="45.69673592183116" lon="9.900488420174817"><ele>395.0</ele><time>2026-05-03T09:29:24Z</time></trkpt><trkpt lat="45.69670202286557" lon="9.900406700084998"><ele>392.6666666666667</ele><time>2026-05-03T09:29:25Z</time></trkpt><trkpt lat="45.69664030943261" lon="9.900380914237031"><ele>390.33333333333337</ele><time>2026-05-03T09:29:27Z</time></trkpt><trkpt lat="45.69657754049065" lon="9.90045771667818"><ele>388.0</ele><time>2026-05-03T09:29:29Z</time></trkpt><trkpt lat="45.69657081971536" lon="9.900553150725832"><ele>388.00000000000006</ele><time>2026-05-03T09:29:30Z</time></trkpt><trkpt lat="45.69660788539151" lon="9.900657343019597"><ele>388.0</ele><time>2026-05-03T09:29:31Z</time></trkpt><trkpt lat="45.69663052276969" lon="9.900761426762209"><ele>388.0</ele><time>2026-05-03T09:29:32Z</time></trkpt><trkpt lat="45.69665047157163" lon="9.90087091296898"><ele>388.0</ele><time>2026-05-03T09:29:33Z</time></trkpt><trkpt lat="45.69666501289601" lon="9.900972224363565"><ele>388.00000000000006</ele><time>2026-05-03T09:29:34Z</time></trkpt><trkpt lat="45.69668471800865" lon="9.901071125393472"><ele>388.0</ele><time>2026-05-03T09:29:35Z</time></trkpt><trkpt lat="45.69670822271718" lon="9.901171617705574"><ele>386.83333333333337</ele><time>2026-05-03T09:29:36Z</time></trkpt><trkpt lat="45.696741400463345" lon="9.901266089255882"><ele>385.6666666666667</ele><time>2026-05-03T09:29:37Z</time></trkpt><trkpt lat="45.69677241635413" lon="9.901362493694542"><ele>384.5</ele><time>2026-05-03T09:29:38Z</time></trkpt><trkpt lat="45.69681074656047" lon="9.901456428900776"><ele>383.33333333333337</ele><time>2026-05-03T09:29:39Z</time></trkpt><trkpt lat="45.69685076755485" lon="9.901550493559007"><ele>382.1666666666667</ele><time>2026-05-03T09:29:40Z</time></trkpt><trkpt lat="45.696889871616136" lon="9.901650852092716"><ele>381.0</ele><time>2026-05-03T09:29:41Z</time></trkpt><trkpt lat="45.696928242312886" lon="9.90175221527275"><ele>383.3333333333333</ele><time>2026-05-03T09:29:42Z</time></trkpt><trkpt lat="45.69696630520571" lon="9.901854500735281"><ele>385.66666666666663</ele><time>2026-05-03T09:29:43Z</time></trkpt><trkpt lat="45.69700078130706" lon="9.901965027384643"><ele>388.0</ele><time>2026-05-03T09:29:44Z</time></trkpt><trkpt lat="45.697036537847644" lon="9.902076549703164"><ele>390.3333333333333</ele><time>2026-05-03T09:29:45Z</time></trkpt><trkpt lat="45.69707628023735" lon="9.90218475274292"><ele>392.66666666666663</ele><time>2026-05-03T09:29:46Z</time></trkpt><trkpt lat="45.697114813584605" lon="9.902288585703046"><ele>395.0</ele><time>2026-05-03T09:29:47Z</time></trkpt><trkpt lat="45.69714827233809" lon="9.902391287574623"><ele>395.0</ele><time>2026-05-03T09:29:48Z</time></trkpt><trkpt lat="45.69717466029361" lon="9.902494569067564"><ele>395.0</ele><time>2026-05-03T09:29:49Z</time></trkpt><trkpt lat="45.69719830454181" lon="9.9025998050912"><ele>395.0</ele><time>2026-05-03T09:29:50Z</time></trkpt><trkpt lat="45.697218065291096" lon="9.90270944361304"><ele>395.0</ele><time>2026-05-03T09:29:51Z</time></trkpt><trkpt lat="45.69721662858851" lon="9.902809625985261"><ele>395.0</ele><time>2026-05-03T09:29:52Z</time></trkpt><trkpt lat="45.69723067328329" lon="9.90290577539343"><ele>395.0</ele><time>2026-05-03T09:29:53Z</time></trkpt><trkpt lat="45.69724556606211" lon="9.902999135268141"><ele>395.0</ele><time>2026-05-03T09:29:54Z</time></trkpt><trkpt lat="45.6972590505861" lon="9.903088898875348"><ele>394.49999999999994</ele><time>2026-05-03T09:29:55Z</time></trkpt><trkpt lat="45.69724783040289" lon="9.903270046967487"><ele>394.0</ele><time>2026-05-03T09:29:57Z</time></trkpt><trkpt lat="45.697228848925995" lon="9.903362238345292"><ele>393.5</ele><time>2026-05-03T09:29:58Z</time></trkpt><trkpt lat="45.69721363270671" lon="9.903458254767958"><ele>393.0</ele><time>2026-05-03T09:29:59Z</time></trkpt><trkpt lat="45.69719681063398" lon="9.903557420900611"><ele>392.49999999999994</ele><time>2026-05-03T09:30:00Z</time></trkpt><trkpt lat="45.69717828296007" lon="9.903659263342451"><ele>392.0</ele><time>2026-05-03T09:30:01Z</time></trkpt><trkpt lat="45.697164678765354" lon="9.903763254270295"><ele>391.99999999999994</ele><time>2026-05-03T09:30:02Z</time></trkpt><trkpt lat="45.697151045811566" lon="9.903871280421958"><ele>392.0</ele><time>2026-05-03T09:30:03Z</time></trkpt><trkpt lat="45.69713369613183" lon="9.903984723185477"><ele>392.0</ele><time>2026-05-03T09:30:04Z</time></trkpt><trkpt lat="45.697124446987296" lon="9.904087089986746"><ele>392.0</ele><time>2026-05-03T09:30:05Z</time></trkpt><trkpt lat="45.69711324864261" lon="9.904197532555356"><ele>391.99999999999994</ele><time>2026-05-03T09:30:06Z</time></trkpt><trkpt lat="45.69710474390531" lon="9.904305795792219"><ele>392.0</ele><time>2026-05-03T09:30:07Z</time></trkpt><trkpt lat="45.697090669239586" lon="9.904414732089514"><ele>392.8333333333333</ele><time>2026-05-03T09:30:08Z</time></trkpt><trkpt lat="45.697077242042596" lon="9.904521305448801"><ele>393.66666666666663</ele><time>2026-05-03T09:30:09Z</time></trkpt><trkpt lat="45.697063865035304" lon="9.904630765178661"><ele>394.5</ele><time>2026-05-03T09:30:10Z</time></trkpt><trkpt lat="45.69705345018828" lon="9.90473712565641"><ele>395.33333333333337</ele><time>2026-05-03T09:30:11Z</time></trkpt><trkpt lat="45.697046961775364" lon="9.90484801403314"><ele>396.1666666666667</ele><time>2026-05-03T09:30:12Z</time></trkpt><trkpt lat="45.697034392428975" lon="9.904957081561035"><ele>397.0</ele><time>2026-05-03T09:30:13Z</time></trkpt><trkpt lat="45.69700424621981" lon="9.905055506144318"><ele>396.7142857142857</ele><time>2026-05-03T09:30:14Z</time></trkpt><trkpt lat="45.696966991970875" lon="9.905148042385408"><ele>396.42857142857144</ele><time>2026-05-03T09:30:15Z</time></trkpt><trkpt lat="45.69692986375954" lon="9.905234386793389"><ele>396.1428571428571</ele><time>2026-05-03T09:30:16Z</time></trkpt><trkpt lat="45.696880281028086" lon="9.905308220890257"><ele>395.8571428571429</ele><time>2026-05-03T09:30:17Z</time></trkpt><trkpt lat="45.696816488393864" lon="9.905364923893273"><ele>395.5714285714286</ele><time>2026-05-03T09:30:18Z</time></trkpt><trkpt lat="45.69674714437758" lon="9.905412002338911"><ele>395.2857142857143</ele><time>2026-05-03T09:30:19Z</time></trkpt><trkpt lat="45.696676344964246" lon="9.90545788374393"><ele>395.0</ele><time>2026-05-03T09:30:20Z</time></trkpt><trkpt lat="45.69660284965957" lon="9.905499176479648"><ele>392.3333333333333</ele><time>2026-05-03T09:30:21Z</time></trkpt><trkpt lat="45.69653239524623" lon="9.905546489912599"><ele>389.66666666666663</ele><time>2026-05-03T09:30:22Z</time></trkpt><trkpt lat="45.696462152479235" lon="9.905600270317576"><ele>387.0</ele><time>2026-05-03T09:30:23Z</time></trkpt><trkpt lat="45.69639411120317" lon="9.905659655184202"><ele>384.3333333333333</ele><time>2026-05-03T09:30:24Z</time></trkpt><trkpt lat="45.69633790322091" lon="9.905727261512729"><ele>381.66666666666663</ele><time>2026-05-03T09:30:25Z</time></trkpt><trkpt lat="45.69628705498095" lon="9.905800815390684"><ele>379.0</ele><time>2026-05-03T09:30:26Z</time></trkpt><trkpt lat="45.69623830445243" lon="9.905874418546462"><ele>377.16666666666663</ele><time>2026-05-03T09:30:27Z</time></trkpt><trkpt lat="45.69621035085466" lon="9.90597329919971"><ele>375.3333333333333</ele><time>2026-05-03T09:30:28Z</time></trkpt><trkpt lat="45.69620152307965" lon="9.906070046483315"><ele>373.5</ele><time>2026-05-03T09:30:29Z</time></trkpt><trkpt lat="45.696228297442815" lon="9.906177072045036"><ele>371.6666666666667</ele><time>2026-05-03T09:30:30Z</time></trkpt><trkpt lat="45.69626602502642" lon="9.906273507704542"><ele>369.83333333333337</ele><time>2026-05-03T09:30:31Z</time></trkpt><trkpt lat="45.69631843619761" lon="9.90634918506202"><ele>368.0</ele><time>2026-05-03T09:30:32Z</time></trkpt><trkpt lat="45.696382762294576" lon="9.906414757743855"><ele>368.0</ele><time>2026-05-03T09:30:33Z</time></trkpt><trkpt lat="45.69646717339539" lon="9.906470045323251"><ele>368.0</ele><time>2026-05-03T09:30:34Z</time></trkpt><trkpt lat="45.69655748515251" lon="9.90651015371196"><ele>368.0</ele><time>2026-05-03T09:30:35Z</time></trkpt><trkpt lat="45.696651531365596" lon="9.906572660721551"><ele>368.0</ele><time>2026-05-03T09:30:36Z</time></trkpt><trkpt lat="45.69673036878464" lon="9.906644492180568"><ele>368.0</ele><time>2026-05-03T09:30:37Z</time></trkpt><trkpt lat="45.69679414460661" lon="9.90669815388253"><ele>368.0</ele><time>2026-05-03T09:30:38Z</time></trkpt><trkpt lat="45.69685045417516" lon="9.906743144264988"><ele>368.0</ele><time>2026-05-03T09:30:39Z</time></trkpt><trkpt lat="45.696910945071394" lon="9.906834315583922"><ele>368.0</ele><time>2026-05-03T09:30:41Z</time></trkpt><trkpt lat="45.6969231637461" lon="9.9069568983307"><ele>368.0</ele><time>2026-05-03T09:30:43Z</time></trkpt><trkpt lat="45.696916289014226" lon="9.907131802562853"><ele>368.0</ele><time>2026-05-03T09:30:45Z</time></trkpt><trkpt lat="45.69694460889188" lon="9.907214940488661"><ele>368.0</ele><time>2026-05-03T09:30:46Z</time></trkpt><trkpt lat="45.69704249153146" lon="9.90733130032709"><ele>367.5714285714286</ele><time>2026-05-03T09:30:48Z</time></trkpt><trkpt lat="45.69711233503883" lon="9.907347144364117"><ele>367.1428571428571</ele><time>2026-05-03T09:30:49Z</time></trkpt><trkpt lat="45.69718417434104" lon="9.907333214506561"><ele>366.7142857142857</ele><time>2026-05-03T09:30:50Z</time></trkpt><trkpt lat="45.69724933566757" lon="9.907322206231868"><ele>366.28571428571433</ele><time>2026-05-03T09:30:51Z</time></trkpt><trkpt lat="45.697312624741954" lon="9.907324395555511"><ele>365.8571428571429</ele><time>2026-05-03T09:30:52Z</time></trkpt><trkpt lat="45.69737462218554" lon="9.907358291666986"><ele>365.42857142857144</ele><time>2026-05-03T09:30:53Z</time></trkpt><trkpt lat="45.697429227827016" lon="9.907425873754125"><ele>365.0</ele><time>2026-05-03T09:30:54Z</time></trkpt><trkpt lat="45.69746716352208" lon="9.907511109732809"><ele>364.14285714285717</ele><time>2026-05-03T09:30:55Z</time></trkpt><trkpt lat="45.69749653002106" lon="9.907603857048185"><ele>363.2857142857143</ele><time>2026-05-03T09:30:56Z</time></trkpt><trkpt lat="45.697512292193196" lon="9.907694202162494"><ele>362.42857142857144</ele><time>2026-05-03T09:30:57Z</time></trkpt><trkpt lat="45.69751874927879" lon="9.907788064316655"><ele>361.57142857142856</ele><time>2026-05-03T09:30:58Z</time></trkpt><trkpt lat="45.69752562870106" lon="9.907881987004064"><ele>360.7142857142857</ele><time>2026-05-03T09:30:59Z</time></trkpt><trkpt lat="45.69754025388915" lon="9.907976140480821"><ele>359.8571428571429</ele><time>2026-05-03T09:31:00Z</time></trkpt><trkpt lat="45.69755887459233" lon="9.90806774535346"><ele>359.0</ele><time>2026-05-03T09:31:01Z</time></trkpt><trkpt lat="45.69758191752685" lon="9.908155567155253"><ele>359.0</ele><time>2026-05-03T09:31:02Z</time></trkpt><trkpt lat="45.697605764589476" lon="9.908244185640948"><ele>359.0</ele><time>2026-05-03T09:31:03Z</time></trkpt><trkpt lat="45.69762775300853" lon="9.908333209994314"><ele>359.0</ele><time>2026-05-03T09:31:04Z</time></trkpt><trkpt lat="45.69763539822498" lon="9.908425339294656"><ele>359.0</ele><time>2026-05-03T09:31:05Z</time></trkpt><trkpt lat="45.697614650321846" lon="9.908521258765267"><ele>359.0</ele><time>2026-05-03T09:31:06Z</time></trkpt><trkpt lat="45.69756652745535" lon="9.908591074040586"><ele>359.0</ele><time>2026-05-03T09:31:07Z</time></trkpt><trkpt lat="45.69750537873599" lon="9.90863719913862"><ele>359.0</ele><time>2026-05-03T09:31:08Z</time></trkpt><trkpt lat="45.697441358447264" lon="9.908664454998428"><ele>360.2857142857143</ele><time>2026-05-03T09:31:09Z</time></trkpt><trkpt lat="45.69737930339643" lon="9.908699273361375"><ele>361.57142857142856</ele><time>2026-05-03T09:31:10Z</time></trkpt><trkpt lat="45.697321122914104" lon="9.908744777786547"><ele>362.8571428571429</ele><time>2026-05-03T09:31:11Z</time></trkpt><trkpt lat="45.69726413013377" lon="9.908799168797579"><ele>364.1428571428571</ele><time>2026-05-03T09:31:12Z</time></trkpt><trkpt lat="45.69720781899489" lon="9.908862831144269"><ele>365.4285714285714</ele><time>2026-05-03T09:31:13Z</time></trkpt><trkpt lat="45.69715507745214" lon="9.908939634064392"><ele>366.7142857142857</ele><time>2026-05-03T09:31:14Z</time></trkpt><trkpt lat="45.697102064096455" lon="9.909022332616335"><ele>368.0</ele><time>2026-05-03T09:31:15Z</time></trkpt><trkpt lat="45.69704888418185" lon="9.909115765793915"><ele>368.0</ele><time>2026-05-03T09:31:16Z</time></trkpt><trkpt lat="45.697008606244566" lon="9.90923033408063"><ele>368.0</ele><time>2026-05-03T09:31:17Z</time></trkpt><trkpt lat="45.69699106962588" lon="9.909358658339764"><ele>368.0</ele><time>2026-05-03T09:31:18Z</time></trkpt><trkpt lat="45.69697792776496" lon="9.90949966946232"><ele>368.0</ele><time>2026-05-03T09:31:19Z</time></trkpt><trkpt lat="45.69695455688782" lon="9.909626609981997"><ele>368.0</ele><time>2026-05-03T09:31:20Z</time></trkpt><trkpt lat="45.69693234343701" lon="9.909771067743288"><ele>365.79999999999995</ele><time>2026-05-03T09:31:21Z</time></trkpt><trkpt lat="45.69690829137268" lon="9.909910924578067"><ele>363.6</ele><time>2026-05-03T09:31:22Z</time></trkpt><trkpt lat="45.696882821874084" lon="9.910059130665475"><ele>361.4</ele><time>2026-05-03T09:31:23Z</time></trkpt><trkpt lat="45.69688283123948" lon="9.91020639717842"><ele>359.20000000000005</ele><time>2026-05-03T09:31:24Z</time></trkpt><trkpt lat="45.69691887796444" lon="9.9103426397633"><ele>357.0</ele><time>2026-05-03T09:31:25Z</time></trkpt><trkpt lat="45.69697289521236" lon="9.910486946808174"><ele>357.0</ele><time>2026-05-03T09:31:26Z</time></trkpt><trkpt lat="45.69703047542611" lon="9.910623082784847"><ele>357.0</ele><time>2026-05-03T09:31:27Z</time></trkpt><trkpt lat="45.69708574549235" lon="9.910762963255447"><ele>357.0</ele><time>2026-05-03T09:31:28Z</time></trkpt><trkpt lat="45.69713267488989" lon="9.910906032731747"><ele>357.0</ele><time>2026-05-03T09:31:29Z</time></trkpt><trkpt lat="45.69715793823651" lon="9.911036139771012"><ele>357.0</ele><time>2026-05-03T09:31:30Z</time></trkpt><trkpt lat="45.69714031193602" lon="9.911166633548547"><ele>358.0</ele><time>2026-05-03T09:31:31Z</time></trkpt><trkpt lat="45.697099545804896" lon="9.911284017456525"><ele>359.0</ele><time>2026-05-03T09:31:32Z</time></trkpt><trkpt lat="45.697034402252626" lon="9.911379303768312"><ele>360.0</ele><time>2026-05-03T09:31:33Z</time></trkpt><trkpt lat="45.696964064823824" lon="9.9114545688487"><ele>361.0</ele><time>2026-05-03T09:31:34Z</time></trkpt><trkpt lat="45.69688809879053" lon="9.911503003563567"><ele>362.0</ele><time>2026-05-03T09:31:35Z</time></trkpt><trkpt lat="45.69681951018425" lon="9.91155772421062"><ele>363.0</ele><time>2026-05-03T09:31:36Z</time></trkpt><trkpt lat="45.69676231866646" lon="9.911633838942052"><ele>360.1428571428571</ele><time>2026-05-03T09:31:37Z</time></trkpt><trkpt lat="45.696714582437814" lon="9.911724799953088"><ele>357.2857142857143</ele><time>2026-05-03T09:31:38Z</time></trkpt><trkpt lat="45.69667189935407" lon="9.911819159490198"><ele>354.42857142857144</ele><time>2026-05-03T09:31:39Z</time></trkpt><trkpt lat="45.6966424354728" lon="9.91192258173896"><ele>351.57142857142856</ele><time>2026-05-03T09:31:40Z</time></trkpt><trkpt lat="45.69662559780463" lon="9.912020391799862"><ele>348.7142857142857</ele><time>2026-05-03T09:31:41Z</time></trkpt><trkpt lat="45.696606756741176" lon="9.912117216965438"><ele>345.85714285714283</ele><time>2026-05-03T09:31:42Z</time></trkpt><trkpt lat="45.696592095385675" lon="9.91221068834465"><ele>343.0</ele><time>2026-05-03T09:31:43Z</time></trkpt><trkpt lat="45.69659313364182" lon="9.912303213529055"><ele>343.0</ele><time>2026-05-03T09:31:44Z</time></trkpt><trkpt lat="45.696601660735546" lon="9.912392964875087"><ele>343.0</ele><time>2026-05-03T09:31:45Z</time></trkpt><trkpt lat="45.6966199348429" lon="9.91248639958255"><ele>343.0</ele><time>2026-05-03T09:31:46Z</time></trkpt><trkpt lat="45.69665339590473" lon="9.912571463912357"><ele>343.0</ele><time>2026-05-03T09:31:47Z</time></trkpt><trkpt lat="45.69668777323745" lon="9.912661503705566"><ele>343.0</ele><time>2026-05-03T09:31:48Z</time></trkpt><trkpt lat="45.69672393350007" lon="9.912763970184086"><ele>343.0</ele><time>2026-05-03T09:31:49Z</time></trkpt><trkpt lat="45.69677395264483" lon="9.912850945945957"><ele>343.0</ele><time>2026-05-03T09:31:50Z</time></trkpt><trkpt lat="45.69684527047447" lon="9.912916135724123"><ele>344.59999999999997</ele><time>2026-05-03T09:31:51Z</time></trkpt><trkpt lat="45.696929241186034" lon="9.91295709645796"><ele>346.2</ele><time>2026-05-03T09:31:52Z</time></trkpt><trkpt lat="45.69701455303124" lon="9.912991602971157"><ele>347.8</ele><time>2026-05-03T09:31:53Z</time></trkpt><trkpt lat="45.697095138800954" lon="9.913053854185854"><ele>349.4</ele><time>2026-05-03T09:31:54Z</time></trkpt><trkpt lat="45.69715394035527" lon="9.913159203761936"><ele>351.0</ele><time>2026-05-03T09:31:55Z</time></trkpt><trkpt lat="45.697197327468345" lon="9.913272197537607"><ele>351.0</ele><time>2026-05-03T09:31:56Z</time></trkpt><trkpt lat="45.6972312587165" lon="9.913391159079831"><ele>351.0</ele><time>2026-05-03T09:31:57Z</time></trkpt><trkpt lat="45.69724430398486" lon="9.913517450179116"><ele>351.0</ele><time>2026-05-03T09:31:58Z</time></trkpt><trkpt lat="45.69726116885359" lon="9.913637515178303"><ele>351.0</ele><time>2026-05-03T09:31:59Z</time></trkpt><trkpt lat="45.697241851983506" lon="9.913756615967793"><ele>351.0</ele><time>2026-05-03T09:32:00Z</time></trkpt><trkpt lat="45.69720003218807" lon="9.913861345291709"><ele>351.0</ele><time>2026-05-03T09:32:01Z</time></trkpt><trkpt lat="45.69713738164294" lon="9.913941608716575"><ele>351.1666666666667</ele><time>2026-05-03T09:32:02Z</time></trkpt><trkpt lat="45.697073747357685" lon="9.91400475328916"><ele>351.3333333333333</ele><time>2026-05-03T09:32:03Z</time></trkpt><trkpt lat="45.69700452525205" lon="9.914041642315208"><ele>351.5</ele><time>2026-05-03T09:32:04Z</time></trkpt><trkpt lat="45.69694318135024" lon="9.914080328082692"><ele>351.66666666666663</ele><time>2026-05-03T09:32:05Z</time></trkpt><trkpt lat="45.696834206783166" lon="9.914155591147647"><ele>351.8333333333333</ele><time>2026-05-03T09:32:07Z</time></trkpt><trkpt lat="45.69678221727522" lon="9.914210787691786"><ele>352.0</ele><time>2026-05-03T09:32:08Z</time></trkpt><trkpt lat="45.69673778895335" lon="9.914275735536524"><ele>349.8571428571429</ele><time>2026-05-03T09:32:09Z</time></trkpt><trkpt lat="45.69670646458537" lon="9.914356518740975"><ele>347.7142857142857</ele><time>2026-05-03T09:32:10Z</time></trkpt><trkpt lat="45.6966949987117" lon="9.914454121238052"><ele>345.57142857142856</ele><time>2026-05-03T09:32:11Z</time></trkpt><trkpt lat="45.6966984495272" lon="9.91455038558175"><ele>343.42857142857144</ele><time>2026-05-03T09:32:12Z</time></trkpt><trkpt lat="45.6967078136282" lon="9.914646075457133"><ele>341.2857142857143</ele><time>2026-05-03T09:32:13Z</time></trkpt><trkpt lat="45.6967055295216" lon="9.914737586151864"><ele>339.14285714285717</ele><time>2026-05-03T09:32:14Z</time></trkpt><trkpt lat="45.696704458709284" lon="9.914833313533084"><ele>337.0</ele><time>2026-05-03T09:32:15Z</time></trkpt><trkpt lat="45.69670411774407" lon="9.91492613021443"><ele>337.0</ele><time>2026-05-03T09:32:16Z</time></trkpt><trkpt lat="45.69670585593122" lon="9.915019276310694"><ele>337.0</ele><time>2026-05-03T09:32:17Z</time></trkpt><trkpt lat="45.69670769491539" lon="9.91511312504905"><ele>337.0</ele><time>2026-05-03T09:32:18Z</time></trkpt><trkpt lat="45.69670934088423" lon="9.915295790684263"><ele>337.0</ele><time>2026-05-03T09:32:20Z</time></trkpt><trkpt lat="45.69670949996545" lon="9.915391455730559"><ele>337.0</ele><time>2026-05-03T09:32:21Z</time></trkpt><trkpt lat="45.69671286928855" lon="9.91549323454173"><ele>337.0</ele><time>2026-05-03T09:32:22Z</time></trkpt><trkpt lat="45.69671442291659" lon="9.915598812241962"><ele>337.0</ele><time>2026-05-03T09:32:23Z</time></trkpt><trkpt lat="45.69671534039846" lon="9.915707568003151"><ele>337.0</ele><time>2026-05-03T09:32:24Z</time></trkpt><trkpt lat="45.69671102754174" lon="9.915817798601113"><ele>337.0</ele><time>2026-05-03T09:32:25Z</time></trkpt><trkpt lat="45.69669208049295" lon="9.915931237032769"><ele>337.0</ele><time>2026-05-03T09:32:26Z</time></trkpt><trkpt lat="45.69665801059158" lon="9.916041609380779"><ele>337.0</ele><time>2026-05-03T09:32:27Z</time></trkpt><trkpt lat="45.69660787034036" lon="9.916143413215126"><ele>337.0</ele><time>2026-05-03T09:32:28Z</time></trkpt><trkpt lat="45.69655317345931" lon="9.916246294508658"><ele>338.0</ele><time>2026-05-03T09:32:29Z</time></trkpt><trkpt lat="45.696488261783834" lon="9.916327470121098"><ele>339.0</ele><time>2026-05-03T09:32:30Z</time></trkpt><trkpt lat="45.69640282927003" lon="9.916378663574166"><ele>340.0</ele><time>2026-05-03T09:32:31Z</time></trkpt><trkpt lat="45.696317746354175" lon="9.916416251741481"><ele>341.0</ele><time>2026-05-03T09:32:32Z</time></trkpt><trkpt lat="45.69623552636638" lon="9.916479807513772"><ele>342.0</ele><time>2026-05-03T09:32:33Z</time></trkpt><trkpt lat="45.696160665713826" lon="9.916549625065732"><ele>342.0</ele><time>2026-05-03T09:32:34Z</time></trkpt><trkpt lat="45.69609717569565" lon="9.91664255208728"><ele>342.0</ele><time>2026-05-03T09:32:35Z</time></trkpt><trkpt lat="45.69605127665641" lon="9.916758473480408"><ele>342.0</ele><time>2026-05-03T09:32:36Z</time></trkpt><trkpt lat="45.69603105017681" lon="9.916885198771197"><ele>342.0</ele><time>2026-05-03T09:32:37Z</time></trkpt><trkpt lat="45.696039336643416" lon="9.917031738410682"><ele>342.0</ele><time>2026-05-03T09:32:38Z</time></trkpt><trkpt lat="45.69603802770085" lon="9.917167079332499"><ele>337.6</ele><time>2026-05-03T09:32:39Z</time></trkpt><trkpt lat="45.69604400716381" lon="9.917318114716604"><ele>333.20000000000005</ele><time>2026-05-03T09:32:40Z</time></trkpt><trkpt lat="45.69604910163435" lon="9.917470277247723"><ele>328.8</ele><time>2026-05-03T09:32:41Z</time></trkpt><trkpt lat="45.696042500700436" lon="9.917620538486986"><ele>324.4</ele><time>2026-05-03T09:32:42Z</time></trkpt><trkpt lat="45.69603570198581" lon="9.917772529891634"><ele>320.0</ele><time>2026-05-03T09:32:43Z</time></trkpt><trkpt lat="45.69602142876066" lon="9.917925770612756"><ele>320.0</ele><time>2026-05-03T09:32:44Z</time></trkpt><trkpt lat="45.696003468514654" lon="9.918079555955515"><ele>320.0</ele><time>2026-05-03T09:32:45Z</time></trkpt><trkpt lat="45.695988142685884" lon="9.918233271854165"><ele>320.0</ele><time>2026-05-03T09:32:46Z</time></trkpt><trkpt lat="45.69596996455915" lon="9.918387665276555"><ele>320.0</ele><time>2026-05-03T09:32:47Z</time></trkpt><trkpt lat="45.695942108253895" lon="9.918530072725817"><ele>320.0</ele><time>2026-05-03T09:32:48Z</time></trkpt><trkpt lat="45.6959028636029" lon="9.918659296001685"><ele>321.0</ele><time>2026-05-03T09:32:49Z</time></trkpt><trkpt lat="45.695851702062214" lon="9.918766410744665"><ele>322.0</ele><time>2026-05-03T09:32:50Z</time></trkpt><trkpt lat="45.695782799575774" lon="9.91885821365287"><ele>323.0</ele><time>2026-05-03T09:32:51Z</time></trkpt><trkpt lat="45.695708402530144" lon="9.918948441517774"><ele>324.0</ele><time>2026-05-03T09:32:52Z</time></trkpt><trkpt lat="45.695633116177824" lon="9.919037667368162"><ele>325.0</ele><time>2026-05-03T09:32:53Z</time></trkpt><trkpt lat="45.69555797607134" lon="9.919132610426887"><ele>325.0</ele><time>2026-05-03T09:32:54Z</time></trkpt><trkpt lat="45.69548147340407" lon="9.91922628257877"><ele>325.0</ele><time>2026-05-03T09:32:55Z</time></trkpt><trkpt lat="45.69539909124563" lon="9.919314350874371"><ele>325.0</ele><time>2026-05-03T09:32:56Z</time></trkpt><trkpt lat="45.69531785016205" lon="9.919402448351885"><ele>325.0</ele><time>2026-05-03T09:32:57Z</time></trkpt><trkpt lat="45.695239733681966" lon="9.91949474233192"><ele>325.0</ele><time>2026-05-03T09:32:58Z</time></trkpt><trkpt lat="45.6951685900386" lon="9.919595532777784"><ele>323.6</ele><time>2026-05-03T09:32:59Z</time></trkpt><trkpt lat="45.69510114810158" lon="9.919698059197977"><ele>322.2</ele><time>2026-05-03T09:33:00Z</time></trkpt><trkpt lat="45.69504003267061" lon="9.91980848449944"><ele>320.8</ele><time>2026-05-03T09:33:01Z</time></trkpt><trkpt lat="45.69498724363874" lon="9.919926953429162"><ele>319.4</ele><time>2026-05-03T09:33:02Z</time></trkpt><trkpt lat="45.69493478997192" lon="9.920044247178906"><ele>318.0</ele><time>2026-05-03T09:33:03Z</time></trkpt><trkpt lat="45.69488259347271" lon="9.920161087706306"><ele>317.1666666666667</ele><time>2026-05-03T09:33:04Z</time></trkpt><trkpt lat="45.69483368006291" lon="9.92026616963625"><ele>316.3333333333333</ele><time>2026-05-03T09:33:05Z</time></trkpt><trkpt lat="45.694786598093835" lon="9.920352651090155"><ele>315.5</ele><time>2026-05-03T09:33:06Z</time></trkpt><trkpt lat="45.69472968358636" lon="9.920479117033853"><ele>314.66666666666663</ele><time>2026-05-03T09:33:08Z</time></trkpt><trkpt lat="45.694721077982535" lon="9.9205714769985"><ele>313.8333333333333</ele><time>2026-05-03T09:33:09Z</time></trkpt><trkpt lat="45.6947384166344" lon="9.920670003774509"><ele>313.0</ele><time>2026-05-03T09:33:10Z</time></trkpt><trkpt lat="45.69477680612819" lon="9.920752334842533"><ele>313.0</ele><time>2026-05-03T09:33:11Z</time></trkpt><trkpt lat="45.69482682543937" lon="9.920827158252536"><ele>313.0</ele><time>2026-05-03T09:33:12Z</time></trkpt><trkpt lat="45.69487156339138" lon="9.920911203337615"><ele>313.0</ele><time>2026-05-03T09:33:13Z</time></trkpt><trkpt lat="45.69491600003923" lon="9.920994630022445"><ele>313.0</ele><time>2026-05-03T09:33:14Z</time></trkpt><trkpt lat="45.69496215630421" lon="9.921084247889434"><ele>313.0</ele><time>2026-05-03T09:33:15Z</time></trkpt><trkpt lat="45.695010704427574" lon="9.921175112595735"><ele>313.0</ele><time>2026-05-03T09:33:16Z</time></trkpt><trkpt lat="45.695060983782994" lon="9.921265871811173"><ele>312.8333333333333</ele><time>2026-05-03T09:33:17Z</time></trkpt><trkpt lat="45.695109542315095" lon="9.921363678098876"><ele>312.66666666666663</ele><time>2026-05-03T09:33:18Z</time></trkpt><trkpt lat="45.69515496495704" lon="9.921467000435399"><ele>312.5</ele><time>2026-05-03T09:33:19Z</time></trkpt><trkpt lat="45.69519461070815" lon="9.921577648826693"><ele>312.3333333333333</ele><time>2026-05-03T09:33:20Z</time></trkpt><trkpt lat="45.69522707055508" lon="9.921691683969838"><ele>312.1666666666667</ele><time>2026-05-03T09:33:21Z</time></trkpt><trkpt lat="45.6952595717769" lon="9.921809463434077"><ele>312.0</ele><time>2026-05-03T09:33:22Z</time></trkpt><trkpt lat="45.695289211184736" lon="9.92192815581018"><ele>312.0</ele><time>2026-05-03T09:33:23Z</time></trkpt><trkpt lat="45.695317223451525" lon="9.922048992091005"><ele>312.0</ele><time>2026-05-03T09:33:24Z</time></trkpt><trkpt lat="45.695345235317056" lon="9.922171995314221"><ele>312.0</ele><time>2026-05-03T09:33:25Z</time></trkpt><trkpt lat="45.69537726161972" lon="9.92229638755395"><ele>312.0</ele><time>2026-05-03T09:33:26Z</time></trkpt><trkpt lat="45.69541260557673" lon="9.922417708343483"><ele>312.0</ele><time>2026-05-03T09:33:27Z</time></trkpt><trkpt lat="45.695429895383384" lon="9.922529420676279"><ele>312.0</ele><time>2026-05-03T09:33:28Z</time></trkpt><trkpt lat="45.69542942486393" lon="9.922626676308377"><ele>312.6666666666667</ele><time>2026-05-03T09:33:29Z</time></trkpt><trkpt lat="45.695359885428054" lon="9.92276382379073"><ele>313.3333333333333</ele><time>2026-05-03T09:33:31Z</time></trkpt><trkpt lat="45.69529776617006" lon="9.922787285042212"><ele>314.0</ele><time>2026-05-03T09:33:32Z</time></trkpt><trkpt lat="45.695176180076174" lon="9.922772540445003"><ele>314.66666666666663</ele><time>2026-05-03T09:33:34Z</time></trkpt><trkpt lat="45.695106531051955" lon="9.922787263015431"><ele>315.3333333333333</ele><time>2026-05-03T09:33:35Z</time></trkpt><trkpt lat="45.69504273760292" lon="9.92279268980456"><ele>316.0</ele><time>2026-05-03T09:33:36Z</time></trkpt><trkpt lat="45.69497850437825" lon="9.922791749433042"><ele>316.0</ele><time>2026-05-03T09:33:37Z</time></trkpt><trkpt lat="45.69491437934749" lon="9.92279677136567"><ele>316.0</ele><time>2026-05-03T09:33:38Z</time></trkpt><trkpt lat="45.69485045317085" lon="9.922803138623518"><ele>316.0</ele><time>2026-05-03T09:33:39Z</time></trkpt><trkpt lat="45.6947253295378" lon="9.922816810276665"><ele>316.0</ele><time>2026-05-03T09:33:41Z</time></trkpt><trkpt lat="45.69466214869908" lon="9.922832178448031"><ele>316.0</ele><time>2026-05-03T09:33:42Z</time></trkpt><trkpt lat="45.694538099933226" lon="9.9228397729896"><ele>316.0</ele><time>2026-05-03T09:33:44Z</time></trkpt><trkpt lat="45.69441635330682" lon="9.922810415264697"><ele>314.7142857142857</ele><time>2026-05-03T09:33:46Z</time></trkpt><trkpt lat="45.694356467993046" lon="9.92277402200332"><ele>313.42857142857144</ele><time>2026-05-03T09:33:47Z</time></trkpt><trkpt lat="45.69429858458961" lon="9.922722867469195"><ele>312.1428571428571</ele><time>2026-05-03T09:33:48Z</time></trkpt><trkpt lat="45.69424300316749" lon="9.922670134628842"><ele>310.8571428571429</ele><time>2026-05-03T09:33:49Z</time></trkpt><trkpt lat="45.69418325611031" lon="9.922621431975172"><ele>309.57142857142856</ele><time>2026-05-03T09:33:50Z</time></trkpt><trkpt lat="45.69412341033392" lon="9.922577073571258"><ele>308.2857142857143</ele><time>2026-05-03T09:33:51Z</time></trkpt><trkpt lat="45.69406308022119" lon="9.922532301653288"><ele>307.0</ele><time>2026-05-03T09:33:52Z</time></trkpt><trkpt lat="45.693994015223915" lon="9.922510460357815"><ele>306.99999999999994</ele><time>2026-05-03T09:33:53Z</time></trkpt><trkpt lat="45.69392585274337" lon="9.92252276804444"><ele>307.0</ele><time>2026-05-03T09:33:54Z</time></trkpt><trkpt lat="45.69386708680657" lon="9.922576095181178"><ele>307.0</ele><time>2026-05-03T09:33:55Z</time></trkpt><trkpt lat="45.69382707768661" lon="9.922659772777994"><ele>307.0</ele><time>2026-05-03T09:33:56Z</time></trkpt><trkpt lat="45.693801785813555" lon="9.922752376825144"><ele>307.0</ele><time>2026-05-03T09:33:57Z</time></trkpt><trkpt lat="45.69377620774308" lon="9.922841728581053"><ele>306.99999999999994</ele><time>2026-05-03T09:33:58Z</time></trkpt><trkpt lat="45.69374727072965" lon="9.922936432383377"><ele>307.0</ele><time>2026-05-03T09:33:59Z</time></trkpt><trkpt lat="45.69371779300695" lon="9.923032169463033"><ele>307.0</ele><time>2026-05-03T09:34:00Z</time></trkpt><trkpt lat="45.69368134683702" lon="9.923106307327446"><ele>307.0</ele><time>2026-05-03T09:34:01Z</time></trkpt><trkpt lat="45.69355043808616" lon="9.923150821698528"><ele>307.0</ele><time>2026-05-03T09:34:03Z</time></trkpt><trkpt lat="45.693486804334874" lon="9.92317349632078"><ele>307.0</ele><time>2026-05-03T09:34:04Z</time></trkpt><trkpt lat="45.69342693962961" lon="9.923235801314469"><ele>307.0</ele><time>2026-05-03T09:34:05Z</time></trkpt><trkpt lat="45.693382429998096" lon="9.923304145908673"><ele>307.0</ele><time>2026-05-03T09:34:06Z</time></trkpt><trkpt lat="45.69330515907953" lon="9.923437042556513"><ele>305.8333333333333</ele><time>2026-05-03T09:34:08Z</time></trkpt><trkpt lat="45.69325313920639" lon="9.923597757064071"><ele>304.66666666666663</ele><time>2026-05-03T09:34:10Z</time></trkpt><trkpt lat="45.69323389562947" lon="9.923778878597057"><ele>303.5</ele><time>2026-05-03T09:34:12Z</time></trkpt><trkpt lat="45.693231409181834" lon="9.923870173660282"><ele>302.3333333333333</ele><time>2026-05-03T09:34:13Z</time></trkpt><trkpt lat="45.693245213629474" lon="9.92396148882336"><ele>301.1666666666667</ele><time>2026-05-03T09:34:14Z</time></trkpt><trkpt lat="45.69327333195617" lon="9.924045576729094"><ele>300.0</ele><time>2026-05-03T09:34:15Z</time></trkpt><trkpt lat="45.69331201899833" lon="9.924121127528897"><ele>300.0</ele><time>2026-05-03T09:34:16Z</time></trkpt><trkpt lat="45.69335652815533" lon="9.924185480291285"><ele>300.0</ele><time>2026-05-03T09:34:17Z</time></trkpt><trkpt lat="45.693440774114094" lon="9.924321247847883"><ele>300.0</ele><time>2026-05-03T09:34:19Z</time></trkpt><trkpt lat="45.693483724108695" lon="9.924389869378677"><ele>300.0</ele><time>2026-05-03T09:34:20Z</time></trkpt><trkpt lat="45.69353139209333" lon="9.924458440776315"><ele>300.0</ele><time>2026-05-03T09:34:21Z</time></trkpt><trkpt lat="45.693576635857376" lon="9.924532171972231"><ele>300.0</ele><time>2026-05-03T09:34:22Z</time></trkpt><trkpt lat="45.69362425126808" lon="9.92460394875101"><ele>300.2857142857143</ele><time>2026-05-03T09:34:23Z</time></trkpt><trkpt lat="45.693677124961845" lon="9.924673298147688"><ele>300.57142857142856</ele><time>2026-05-03T09:34:24Z</time></trkpt><trkpt lat="45.6937358101852" lon="9.924739922226765"><ele>300.8571428571429</ele><time>2026-05-03T09:34:25Z</time></trkpt><trkpt lat="45.69379754142579" lon="9.92480223441008"><ele>301.1428571428571</ele><time>2026-05-03T09:34:26Z</time></trkpt><trkpt lat="45.69386390054077" lon="9.924852835880191"><ele>301.42857142857144</ele><time>2026-05-03T09:34:27Z</time></trkpt><trkpt lat="45.69392638324918" lon="9.924909503144876"><ele>301.7142857142857</ele><time>2026-05-03T09:34:28Z</time></trkpt><trkpt lat="45.69398689428653" lon="9.924965149810697"><ele>302.0</ele><time>2026-05-03T09:34:29Z</time></trkpt><trkpt lat="45.69404293846837" lon="9.925024628009005"><ele>302.8</ele><time>2026-05-03T09:34:30Z</time></trkpt><trkpt lat="45.69408446140152" lon="9.92509963836202"><ele>303.6</ele><time>2026-05-03T09:34:31Z</time></trkpt><trkpt lat="45.694086829906425" lon="9.92519321652468"><ele>304.40000000000003</ele><time>2026-05-03T09:34:32Z</time></trkpt><trkpt lat="45.694016595831854" lon="9.925327964523072"><ele>305.2</ele><time>2026-05-03T09:34:34Z</time></trkpt><trkpt lat="45.69390127712927" lon="9.92538318253318"><ele>306.0</ele><time>2026-05-03T09:34:36Z</time></trkpt><trkpt lat="45.693784196730874" lon="9.925411362884153"><ele>306.0</ele><time>2026-05-03T09:34:38Z</time></trkpt><trkpt lat="45.69367662256857" lon="9.925474841958435"><ele>306.0</ele><time>2026-05-03T09:34:40Z</time></trkpt><trkpt lat="45.69359993906665" lon="9.92558844529642"><ele>306.0</ele><time>2026-05-03T09:34:42Z</time></trkpt><trkpt lat="45.6935664264272" lon="9.925750335406141"><ele>306.0</ele><time>2026-05-03T09:34:44Z</time></trkpt><trkpt lat="45.693545200853016" lon="9.92590814791519"><ele>306.6</ele><time>2026-05-03T09:34:46Z</time></trkpt><trkpt lat="45.69352750466267" lon="9.926067080106023"><ele>307.20000000000005</ele><time>2026-05-03T09:34:48Z</time></trkpt><trkpt lat="45.693506016091355" lon="9.926224477009747"><ele>307.79999999999995</ele><time>2026-05-03T09:34:50Z</time></trkpt><trkpt lat="45.69349686594302" lon="9.926377268546984"><ele>308.4</ele><time>2026-05-03T09:34:52Z</time></trkpt><trkpt lat="45.693492578107" lon="9.926530346505924"><ele>309.0</ele><time>2026-05-03T09:34:54Z</time></trkpt><trkpt lat="45.693472503797736" lon="9.926684101206675"><ele>309.8</ele><time>2026-05-03T09:34:56Z</time></trkpt><trkpt lat="45.693461927465535" lon="9.926836997442301"><ele>310.59999999999997</ele><time>2026-05-03T09:34:58Z</time></trkpt><trkpt lat="45.69346746301666" lon="9.926984282678585"><ele>311.4</ele><time>2026-05-03T09:35:00Z</time></trkpt><trkpt lat="45.69351189601038" lon="9.927131381565271"><ele>312.2</ele><time>2026-05-03T09:35:02Z</time></trkpt><trkpt lat="45.693595717994384" lon="9.927249083859591"><ele>313.0</ele><time>2026-05-03T09:35:04Z</time></trkpt><trkpt lat="45.693663428710884" lon="9.927375533851247"><ele>317.0</ele><time>2026-05-03T09:35:06Z</time></trkpt><trkpt lat="45.69373559591406" lon="9.927508511841834"><ele>321.0</ele><time>2026-05-03T09:35:08Z</time></trkpt><trkpt lat="45.69379822449574" lon="9.927649158066158"><ele>325.0</ele><time>2026-05-03T09:35:10Z</time></trkpt><trkpt lat="45.69384538539296" lon="9.927805466766777"><ele>329.0</ele><time>2026-05-03T09:35:12Z</time></trkpt><trkpt lat="45.693880587965644" lon="9.927967818908753"><ele>329.0</ele><time>2026-05-03T09:35:14Z</time></trkpt><trkpt lat="45.69391494265172" lon="9.9281282888055"><ele>329.0</ele><time>2026-05-03T09:35:16Z</time></trkpt><trkpt lat="45.69394037616512" lon="9.928289043472489"><ele>329.0</ele><time>2026-05-03T09:35:18Z</time></trkpt><trkpt lat="45.69394335569898" lon="9.928458596320336"><ele>329.0</ele><time>2026-05-03T09:35:20Z</time></trkpt><trkpt lat="45.69391896481935" lon="9.92861253324585"><ele>330.2</ele><time>2026-05-03T09:35:22Z</time></trkpt><trkpt lat="45.693900259675914" lon="9.928766566607507"><ele>331.4</ele><time>2026-05-03T09:35:24Z</time></trkpt><trkpt lat="45.693901030980896" lon="9.928923556668485"><ele>332.6</ele><time>2026-05-03T09:35:26Z</time></trkpt><trkpt lat="45.69396460818695" lon="9.929050130564011"><ele>333.8</ele><time>2026-05-03T09:35:28Z</time></trkpt><trkpt lat="45.69407772521439" lon="9.929050640225098"><ele>335.0</ele><time>2026-05-03T09:35:30Z</time></trkpt><trkpt lat="45.69416461077805" lon="9.928948758591618"><ele>335.0</ele><time>2026-05-03T09:35:32Z</time></trkpt><trkpt lat="45.694231667739224" lon="9.928826085737818"><ele>335.0</ele><time>2026-05-03T09:35:34Z</time></trkpt><trkpt lat="45.69429172521555" lon="9.928692353691895"><ele>335.0</ele><time>2026-05-03T09:35:36Z</time></trkpt><trkpt lat="45.69434632810226" lon="9.928566635286334"><ele>335.0</ele><time>2026-05-03T09:35:38Z</time></trkpt><trkpt lat="45.694395475315446" lon="9.9284516568095"><ele>335.0</ele><time>2026-05-03T09:35:40Z</time></trkpt><trkpt lat="45.69444970323874" lon="9.928345897020968"><ele>338.6</ele><time>2026-05-03T09:35:42Z</time></trkpt><trkpt lat="45.69450897385345" lon="9.928246362290073"><ele>342.2</ele><time>2026-05-03T09:35:44Z</time></trkpt><trkpt lat="45.69459967381233" lon="9.9282567451092"><ele>345.79999999999995</ele><time>2026-05-03T09:35:46Z</time></trkpt><trkpt lat="45.69462151679085" lon="9.928388697751439"><ele>349.4</ele><time>2026-05-03T09:35:48Z</time></trkpt><trkpt lat="45.69460626668538" lon="9.928552248400862"><ele>353.0</ele><time>2026-05-03T09:35:50Z</time></trkpt><trkpt lat="45.69458816012009" lon="9.928667619391934"><ele>355.59999999999997</ele><time>2026-05-03T09:35:52Z</time></trkpt><trkpt lat="45.694569766217086" lon="9.928796400173944"><ele>358.2</ele><time>2026-05-03T09:35:54Z</time></trkpt><trkpt lat="45.694546536114835" lon="9.928930267234824"><ele>360.8</ele><time>2026-05-03T09:35:56Z</time></trkpt><trkpt lat="45.69452760783323" lon="9.929084656979487"><ele>363.4</ele><time>2026-05-03T09:35:58Z</time></trkpt><trkpt lat="45.69453244119159" lon="9.929245377683145"><ele>366.0</ele><time>2026-05-03T09:36:00Z</time></trkpt><trkpt lat="45.694568892167034" lon="9.929404191117303"><ele>366.4</ele><time>2026-05-03T09:36:02Z</time></trkpt><trkpt lat="45.694617594080555" lon="9.929552622114592"><ele>366.8</ele><time>2026-05-03T09:36:04Z</time></trkpt><trkpt lat="45.6946797518039" lon="9.929688559800214"><ele>367.2</ele><time>2026-05-03T09:36:06Z</time></trkpt><trkpt lat="45.69473897164155" lon="9.929821603525404"><ele>367.59999999999997</ele><time>2026-05-03T09:36:08Z</time></trkpt><trkpt lat="45.694791283514405" lon="9.929961151781058"><ele>368.0</ele><time>2026-05-03T09:36:10Z</time></trkpt><trkpt lat="45.69484104226928" lon="9.930100936883294"><ele>369.2</ele><time>2026-05-03T09:36:12Z</time></trkpt><trkpt lat="45.694896257943164" lon="9.9302381990469"><ele>370.4</ele><time>2026-05-03T09:36:14Z</time></trkpt><trkpt lat="45.69496135171761" lon="9.930367060253573"><ele>371.59999999999997</ele><time>2026-05-03T09:36:16Z</time></trkpt><trkpt lat="45.69502563720839" lon="9.930491183251384"><ele>372.79999999999995</ele><time>2026-05-03T09:36:18Z</time></trkpt><trkpt lat="45.694994194761705" lon="9.930652851350963"><ele>374.0</ele><time>2026-05-03T09:36:20Z</time></trkpt><trkpt lat="45.694884654844834" lon="9.930684732966816"><ele>374.0</ele><time>2026-05-03T09:36:22Z</time></trkpt><trkpt lat="45.69477849282658" lon="9.930637628385611"><ele>374.0</ele><time>2026-05-03T09:36:24Z</time></trkpt><trkpt lat="45.694672794821294" lon="9.930613730760795"><ele>374.0</ele><time>2026-05-03T09:36:26Z</time></trkpt><trkpt lat="45.69456566624765" lon="9.930666696552949"><ele>374.0</ele><time>2026-05-03T09:36:28Z</time></trkpt><trkpt lat="45.694484035809666" lon="9.930769563515536"><ele>374.0</ele><time>2026-05-03T09:36:30Z</time></trkpt><trkpt lat="45.694426234635" lon="9.93090508068846"><ele>375.6</ele><time>2026-05-03T09:36:32Z</time></trkpt><trkpt lat="45.69438183352657" lon="9.931050671736184"><ele>377.2</ele><time>2026-05-03T09:36:34Z</time></trkpt><trkpt lat="45.694314065235176" lon="9.93117492951426"><ele>378.8</ele><time>2026-05-03T09:36:36Z</time></trkpt><trkpt lat="45.69422924613717" lon="9.931268423739683"><ele>380.40000000000003</ele><time>2026-05-03T09:36:38Z</time></trkpt><trkpt lat="45.69413899536447" lon="9.931364953486069"><ele>382.0</ele><time>2026-05-03T09:36:40Z</time></trkpt><trkpt lat="45.69404795968262" lon="9.931463630210082"><ele>382.0</ele><time>2026-05-03T09:36:42Z</time></trkpt><trkpt lat="45.69395271149541" lon="9.931555829291742"><ele>382.0</ele><time>2026-05-03T09:36:44Z</time></trkpt><trkpt lat="45.693865398095056" lon="9.93165249819486"><ele>382.0</ele><time>2026-05-03T09:36:46Z</time></trkpt><trkpt lat="45.693787852888484" lon="9.931765628492721"><ele>382.0</ele><time>2026-05-03T09:36:48Z</time></trkpt><trkpt lat="45.69374427334119" lon="9.931907068247012"><ele>382.0</ele><time>2026-05-03T09:36:50Z</time></trkpt><trkpt lat="45.69377341728748" lon="9.93205023904344"><ele>382.6</ele><time>2026-05-03T09:36:52Z</time></trkpt><trkpt lat="45.69384901394052" lon="9.932180351146608"><ele>383.20000000000005</ele><time>2026-05-03T09:36:54Z</time></trkpt><trkpt lat="45.69392417140816" lon="9.932301737674985"><ele>383.8</ele><time>2026-05-03T09:36:56Z</time></trkpt><trkpt lat="45.69400212488504" lon="9.932409003152635"><ele>384.4</ele><time>2026-05-03T09:36:58Z</time></trkpt><trkpt lat="45.694080509182264" lon="9.932504020889326"><ele>385.0</ele><time>2026-05-03T09:37:00Z</time></trkpt><trkpt lat="45.69416329040312" lon="9.932520635706146"><ele>385.0</ele><time>2026-05-03T09:37:02Z</time></trkpt><trkpt lat="45.69417036642321" lon="9.932405903386229"><ele>385.0</ele><time>2026-05-03T09:37:04Z</time></trkpt><trkpt lat="45.694113317084415" lon="9.93229232380926"><ele>385.0</ele><time>2026-05-03T09:37:06Z</time></trkpt><trkpt lat="45.694075240248935" lon="9.932161880476562"><ele>385.0</ele><time>2026-05-03T09:37:08Z</time></trkpt><trkpt lat="45.69406835296518" lon="9.93201225981097"><ele>385.0</ele><time>2026-05-03T09:37:10Z</time></trkpt><trkpt lat="45.69413235659777" lon="9.931884966033055"><ele>385.0</ele><time>2026-05-03T09:37:12Z</time></trkpt><trkpt lat="45.69424133564039" lon="9.931888075602243"><ele>385.0</ele><time>2026-05-03T09:37:14Z</time></trkpt><trkpt lat="45.69424965881694" lon="9.932037307586205"><ele>385.0</ele><time>2026-05-03T09:37:16Z</time></trkpt><trkpt lat="45.69424932192134" lon="9.93216893153379"><ele>385.0</ele><time>2026-05-03T09:37:18Z</time></trkpt><trkpt lat="45.694281027390076" lon="9.932306591005336"><ele>385.0</ele><time>2026-05-03T09:37:20Z</time></trkpt><trkpt lat="45.6943301797555" lon="9.932448923965733"><ele>384.4</ele><time>2026-05-03T09:37:22Z</time></trkpt><trkpt lat="45.69439533645056" lon="9.9325738756226"><ele>383.8</ele><time>2026-05-03T09:37:24Z</time></trkpt><trkpt lat="45.694473723794204" lon="9.932680042050338"><ele>383.20000000000005</ele><time>2026-05-03T09:37:26Z</time></trkpt><trkpt lat="45.69454354926172" lon="9.932788535703107"><ele>382.6</ele><time>2026-05-03T09:37:28Z</time></trkpt><trkpt lat="45.69461663421812" lon="9.932892081872405"><ele>382.0</ele><time>2026-05-03T09:37:30Z</time></trkpt><trkpt lat="45.694675451633884" lon="9.933009165231182"><ele>388.8</ele><time>2026-05-03T09:37:32Z</time></trkpt><trkpt lat="45.69471700510849" lon="9.93314637667047"><ele>395.6</ele><time>2026-05-03T09:37:34Z</time></trkpt><trkpt lat="45.69475139579803" lon="9.933288552904827"><ele>402.40000000000003</ele><time>2026-05-03T09:37:36Z</time></trkpt><trkpt lat="45.69480132660625" lon="9.93342168946186"><ele>409.20000000000005</ele><time>2026-05-03T09:37:38Z</time></trkpt><trkpt lat="45.69483538095729" lon="9.933544709053914"><ele>416.0</ele><time>2026-05-03T09:37:40Z</time></trkpt><trkpt lat="45.69486880025123" lon="9.933662048213309"><ele>415.99999999999994</ele><time>2026-05-03T09:37:42Z</time></trkpt><trkpt lat="45.69490321443195" lon="9.933780611815639"><ele>416.0</ele><time>2026-05-03T09:37:44Z</time></trkpt><trkpt lat="45.694944075066324" lon="9.933891135425263"><ele>416.0</ele><time>2026-05-03T09:37:46Z</time></trkpt><trkpt lat="45.69498809711756" lon="9.934005870274195"><ele>416.0</ele><time>2026-05-03T09:37:48Z</time></trkpt><trkpt lat="45.69502333296947" lon="9.93412543595434"><ele>415.99999999999994</ele><time>2026-05-03T09:37:50Z</time></trkpt><trkpt lat="45.69506487418226" lon="9.934235403774341"><ele>416.0</ele><time>2026-05-03T09:37:52Z</time></trkpt><trkpt lat="45.69510363361552" lon="9.934345264003822"><ele>415.3333333333333</ele><time>2026-05-03T09:37:54Z</time></trkpt><trkpt lat="45.6951534066372" lon="9.934450337438602"><ele>414.66666666666663</ele><time>2026-05-03T09:37:56Z</time></trkpt><trkpt lat="45.695215223151195" lon="9.934536179003363"><ele>414.0</ele><time>2026-05-03T09:37:58Z</time></trkpt><trkpt lat="45.69528822101903" lon="9.934617954209548"><ele>413.33333333333337</ele><time>2026-05-03T09:38:00Z</time></trkpt><trkpt lat="45.695348768546275" lon="9.934713980427452"><ele>412.6666666666667</ele><time>2026-05-03T09:38:02Z</time></trkpt><trkpt lat="45.69537944167033" lon="9.934835249032483"><ele>412.0</ele><time>2026-05-03T09:38:04Z</time></trkpt><trkpt lat="45.695396399938836" lon="9.934961858104746"><ele>419.33333333333337</ele><time>2026-05-03T09:38:06Z</time></trkpt><trkpt lat="45.69541010675541" lon="9.93507305138704"><ele>426.6666666666667</ele><time>2026-05-03T09:38:08Z</time></trkpt><trkpt lat="45.69543759137601" lon="9.935184179838666"><ele>434.0</ele><time>2026-05-03T09:38:10Z</time></trkpt><trkpt lat="45.69547892116215" lon="9.935296123708856"><ele>441.33333333333337</ele><time>2026-05-03T09:38:12Z</time></trkpt><trkpt lat="45.69550756750973" lon="9.935426497445112"><ele>448.6666666666667</ele><time>2026-05-03T09:38:14Z</time></trkpt><trkpt lat="45.69550366634371" lon="9.935551020864963"><ele>456.0</ele><time>2026-05-03T09:38:16Z</time></trkpt><trkpt lat="45.6954594147536" lon="9.935672235108534"><ele>456.0</ele><time>2026-05-03T09:38:18Z</time></trkpt><trkpt lat="45.69539260908014" lon="9.935764023824774"><ele>456.0</ele><time>2026-05-03T09:38:20Z</time></trkpt><trkpt lat="45.69533938860939" lon="9.935866453067801"><ele>456.0</ele><time>2026-05-03T09:38:22Z</time></trkpt><trkpt lat="45.69529105158657" lon="9.935967006033636"><ele>456.0</ele><time>2026-05-03T09:38:24Z</time></trkpt><trkpt lat="45.695230791903" lon="9.936067461730877"><ele>456.0</ele><time>2026-05-03T09:38:26Z</time></trkpt><trkpt lat="45.69518445043478" lon="9.93618829197759"><ele>455.6</ele><time>2026-05-03T09:38:28Z</time></trkpt><trkpt lat="45.69513666887612" lon="9.936336531700501"><ele>455.20000000000005</ele><time>2026-05-03T09:38:30Z</time></trkpt><trkpt lat="45.695102810319504" lon="9.936505233010456"><ele>454.79999999999995</ele><time>2026-05-03T09:38:32Z</time></trkpt><trkpt lat="45.69506591062546" lon="9.936648048806562"><ele>454.4</ele><time>2026-05-03T09:38:34Z</time></trkpt><trkpt lat="45.6950352719218" lon="9.936729551611402"><ele>454.0</ele><time>2026-05-03T09:38:35Z</time></trkpt><trkpt lat="45.69498839159274" lon="9.93686741112989"><ele>454.0</ele><time>2026-05-03T09:38:37Z</time></trkpt><trkpt lat="45.69494463555838" lon="9.93701060327354"><ele>454.0</ele><time>2026-05-03T09:38:39Z</time></trkpt><trkpt lat="45.69491016851943" lon="9.9371586214506"><ele>454.0</ele><time>2026-05-03T09:38:41Z</time></trkpt><trkpt lat="45.69487691764748" lon="9.937301955488598"><ele>454.0</ele><time>2026-05-03T09:38:43Z</time></trkpt><trkpt lat="45.69483314004199" lon="9.937435474718948"><ele>454.0</ele><time>2026-05-03T09:38:45Z</time></trkpt><trkpt lat="45.69478071949795" lon="9.937565426456501"><ele>457.0</ele><time>2026-05-03T09:38:47Z</time></trkpt><trkpt lat="45.6947374499092" lon="9.937698454899838"><ele>460.0</ele><time>2026-05-03T09:38:49Z</time></trkpt><trkpt lat="45.694708813009115" lon="9.937845872572252"><ele>463.0</ele><time>2026-05-03T09:38:51Z</time></trkpt><trkpt lat="45.694677795681876" lon="9.938002296096268"><ele>466.0</ele><time>2026-05-03T09:38:53Z</time></trkpt><trkpt lat="45.694654489280104" lon="9.938152886996326"><ele>469.0</ele><time>2026-05-03T09:38:55Z</time></trkpt><trkpt lat="45.69463083437853" lon="9.93830330238636"><ele>471.75</ele><time>2026-05-03T09:38:57Z</time></trkpt><trkpt lat="45.694604473394115" lon="9.938459583373355"><ele>474.5</ele><time>2026-05-03T09:38:59Z</time></trkpt><trkpt lat="45.69457960705417" lon="9.938627098409304"><ele>477.25</ele><time>2026-05-03T09:39:01Z</time></trkpt><trkpt lat="45.694557288897684" lon="9.93879408067508"><ele>480.0</ele><time>2026-05-03T09:39:03Z</time></trkpt><trkpt lat="45.69452639548474" lon="9.938962172270598"><ele>480.0</ele><time>2026-05-03T09:39:05Z</time></trkpt><trkpt lat="45.6945013936352" lon="9.939046733303082"><ele>480.0</ele><time>2026-05-03T09:39:06Z</time></trkpt><trkpt lat="45.69444648260689" lon="9.939202177734607"><ele>480.0</ele><time>2026-05-03T09:39:08Z</time></trkpt><trkpt lat="45.69439238096388" lon="9.939360243705325"><ele>480.0</ele><time>2026-05-03T09:39:10Z</time></trkpt><trkpt lat="45.69436380096903" lon="9.939441252048761"><ele>480.0</ele><time>2026-05-03T09:39:11Z</time></trkpt><trkpt lat="45.69429888086191" lon="9.939595273784601"><ele>477.6666666666667</ele><time>2026-05-03T09:39:13Z</time></trkpt><trkpt lat="45.69425175584128" lon="9.939659559565312"><ele>475.33333333333337</ele><time>2026-05-03T09:39:14Z</time></trkpt><trkpt lat="45.6941980140362" lon="9.939711999276428"><ele>473.0</ele><time>2026-05-03T09:39:15Z</time></trkpt><trkpt lat="45.694096711171795" lon="9.93981535785397"><ele>470.6666666666667</ele><time>2026-05-03T09:39:17Z</time></trkpt><trkpt lat="45.69399707575099" lon="9.93992243734009"><ele>468.33333333333337</ele><time>2026-05-03T09:39:19Z</time></trkpt><trkpt lat="45.693957353229614" lon="9.939992625630069"><ele>466.0</ele><time>2026-05-03T09:39:20Z</time></trkpt><trkpt lat="45.693919006655705" lon="9.940155549582691"><ele>466.0</ele><time>2026-05-03T09:39:22Z</time></trkpt><trkpt lat="45.693915191403796" lon="9.940248967645058"><ele>466.0</ele><time>2026-05-03T09:39:23Z</time></trkpt><trkpt lat="45.69392087721887" lon="9.940346295793292"><ele>466.0</ele><time>2026-05-03T09:39:24Z</time></trkpt><trkpt lat="45.69393081880897" lon="9.940440548682188"><ele>466.0</ele><time>2026-05-03T09:39:25Z</time></trkpt><trkpt lat="45.693942391119506" lon="9.940546131874072"><ele>466.0</ele><time>2026-05-03T09:39:26Z</time></trkpt><trkpt lat="45.6939542498235" lon="9.940648952359375"><ele>466.0</ele><time>2026-05-03T09:39:27Z</time></trkpt><trkpt lat="45.6939664498557" lon="9.94075454886555"><ele>466.0</ele><time>2026-05-03T09:39:28Z</time></trkpt><trkpt lat="45.693968874035036" lon="9.940859192855092"><ele>465.4</ele><time>2026-05-03T09:39:29Z</time></trkpt><trkpt lat="45.693969896387436" lon="9.940961943517086"><ele>464.8</ele><time>2026-05-03T09:39:30Z</time></trkpt><trkpt lat="45.69395883848358" lon="9.941057600076334"><ele>464.19999999999993</ele><time>2026-05-03T09:39:31Z</time></trkpt><trkpt lat="45.69394063320498" lon="9.941150214213911"><ele>463.59999999999997</ele><time>2026-05-03T09:39:32Z</time></trkpt><trkpt lat="45.69391393545544" lon="9.94132173719565"><ele>463.0</ele><time>2026-05-03T09:39:34Z</time></trkpt><trkpt lat="45.693884833555764" lon="9.94149785277365"><ele>463.0</ele><time>2026-05-03T09:39:36Z</time></trkpt><trkpt lat="45.69386958803033" lon="9.94158535490537"><ele>462.99999999999994</ele><time>2026-05-03T09:39:37Z</time></trkpt><trkpt lat="45.6938423505003" lon="9.941756444048254"><ele>462.99999999999994</ele><time>2026-05-03T09:39:39Z</time></trkpt><trkpt lat="45.69383383523413" lon="9.941915013614482"><ele>463.0</ele><time>2026-05-03T09:39:41Z</time></trkpt><trkpt lat="45.6938424182861" lon="9.942075418536545"><ele>463.0</ele><time>2026-05-03T09:39:43Z</time></trkpt><trkpt lat="45.693858632524865" lon="9.942227045181749"><ele>461.50000000000006</ele><time>2026-05-03T09:39:45Z</time></trkpt><trkpt lat="45.69388563812566" lon="9.942355861091384"><ele>460.0</ele><time>2026-05-03T09:39:47Z</time></trkpt><trkpt lat="45.69391496761869" lon="9.94247064295383"><ele>458.5</ele><time>2026-05-03T09:39:49Z</time></trkpt><trkpt lat="45.69396738932997" lon="9.942577201366868"><ele>457.0</ele><time>2026-05-03T09:39:52Z</time></trkpt><trkpt lat="45.69390795230625" lon="9.942648824115079"><ele>455.50000000000006</ele><time>2026-05-03T09:40:35Z</time></trkpt><trkpt lat="45.693864752909384" lon="9.94275050113913"><ele>454.0</ele><time>2026-05-03T09:40:38Z</time></trkpt><trkpt lat="45.69392794575263" lon="9.942789638237265"><ele>454.00000000000006</ele><time>2026-05-03T09:40:40Z</time></trkpt><trkpt lat="45.693984611950135" lon="9.942741618069848"><ele>454.0</ele><time>2026-05-03T09:40:41Z</time></trkpt><trkpt lat="45.69405054403077" lon="9.942707828170468"><ele>454.0</ele><time>2026-05-03T09:40:42Z</time></trkpt><trkpt lat="45.69412075047361" lon="9.94266576832425"><ele>454.0</ele><time>2026-05-03T09:40:43Z</time></trkpt><trkpt lat="45.69420206119683" lon="9.942622588488042"><ele>454.00000000000006</ele><time>2026-05-03T09:40:44Z</time></trkpt><trkpt lat="45.69429083166454" lon="9.942572407817092"><ele>454.0</ele><time>2026-05-03T09:40:45Z</time></trkpt><trkpt lat="45.694389423898" lon="9.942530470556664"><ele>451.0</ele><time>2026-05-03T09:40:46Z</time></trkpt><trkpt lat="45.694494725473625" lon="9.942502079198139"><ele>448.0</ele><time>2026-05-03T09:40:47Z</time></trkpt><trkpt lat="45.69459888881209" lon="9.942479105039732"><ele>445.0</ele><time>2026-05-03T09:40:48Z</time></trkpt><trkpt lat="45.69469817241178" lon="9.94246048615801"><ele>442.0</ele><time>2026-05-03T09:40:49Z</time></trkpt><trkpt lat="45.69479049040625" lon="9.942436677187128"><ele>439.0</ele><time>2026-05-03T09:40:50Z</time></trkpt><trkpt lat="45.69487052423633" lon="9.942391336320114"><ele>439.0</ele><time>2026-05-03T09:40:51Z</time></trkpt><trkpt lat="45.694950021844505" lon="9.942324641126035"><ele>439.0</ele><time>2026-05-03T09:40:52Z</time></trkpt><trkpt lat="45.695024004655" lon="9.942223522342559"><ele>439.0</ele><time>2026-05-03T09:40:53Z</time></trkpt><trkpt lat="45.69510062225748" lon="9.942120032938357"><ele>439.0</ele><time>2026-05-03T09:40:54Z</time></trkpt><trkpt lat="45.69519037548187" lon="9.94201988327551"><ele>439.0</ele><time>2026-05-03T09:40:55Z</time></trkpt><trkpt lat="45.69527769636017" lon="9.941934687528917"><ele>435.0</ele><time>2026-05-03T09:40:56Z</time></trkpt><trkpt lat="45.69536889897161" lon="9.941856962497008"><ele>431.0</ele><time>2026-05-03T09:40:57Z</time></trkpt><trkpt lat="45.69544992354191" lon="9.941782923591022"><ele>427.0</ele><time>2026-05-03T09:40:58Z</time></trkpt><trkpt lat="45.69554261599172" lon="9.941705063860729"><ele>423.0</ele><time>2026-05-03T09:40:59Z</time></trkpt><trkpt lat="45.69562910613118" lon="9.94161449760978"><ele>419.0</ele><time>2026-05-03T09:41:00Z</time></trkpt><trkpt lat="45.69569863655415" lon="9.94151540058207"><ele>418.99999999999994</ele><time>2026-05-03T09:41:01Z</time></trkpt><trkpt lat="45.69575517564036" lon="9.941398124371554"><ele>419.0</ele><time>2026-05-03T09:41:02Z</time></trkpt><trkpt lat="45.695801012867456" lon="9.94128453931637"><ele>419.0</ele><time>2026-05-03T09:41:03Z</time></trkpt><trkpt lat="45.6958333896317" lon="9.941196570136437"><ele>419.0</ele><time>2026-05-03T09:41:04Z</time></trkpt><trkpt lat="45.69590131465199" lon="9.941206155503261"><ele>418.99999999999994</ele><time>2026-05-03T09:41:06Z</time></trkpt><trkpt lat="45.69591042248146" lon="9.94136911576297"><ele>419.0</ele><time>2026-05-03T09:41:08Z</time></trkpt><trkpt lat="45.69586601536566" lon="9.941450911180743"><ele>419.0</ele><time>2026-05-03T09:41:09Z</time></trkpt><trkpt lat="45.69581986524452" lon="9.941541339769023"><ele>419.0</ele><time>2026-05-03T09:41:10Z</time></trkpt><trkpt lat="45.695753438728346" lon="9.941719029735482"><ele>419.0</ele><time>2026-05-03T09:41:12Z</time></trkpt><trkpt lat="45.69570957292133" lon="9.941828390716063"><ele>419.0</ele><time>2026-05-03T09:41:13Z</time></trkpt><trkpt lat="45.69566227800087" lon="9.941946604570212"><ele>419.0</ele><time>2026-05-03T09:41:14Z</time></trkpt><trkpt lat="45.695608589393586" lon="9.94206727916401"><ele>415.2</ele><time>2026-05-03T09:41:15Z</time></trkpt><trkpt lat="45.69554726950104" lon="9.942196342616901"><ele>411.4</ele><time>2026-05-03T09:41:16Z</time></trkpt><trkpt lat="45.695497036113366" lon="9.942336784058675"><ele>407.6</ele><time>2026-05-03T09:41:17Z</time></trkpt><trkpt lat="45.695465326658756" lon="9.942474732516182"><ele>403.8</ele><time>2026-05-03T09:41:18Z</time></trkpt><trkpt lat="45.69544667789547" lon="9.942618773935171"><ele>400.0</ele><time>2026-05-03T09:41:19Z</time></trkpt><trkpt lat="45.69543834266745" lon="9.942761112437575"><ele>397.83333333333337</ele><time>2026-05-03T09:41:20Z</time></trkpt><trkpt lat="45.69544576862618" lon="9.942890513599579"><ele>395.6666666666667</ele><time>2026-05-03T09:41:21Z</time></trkpt><trkpt lat="45.695455484904855" lon="9.942999457367868"><ele>393.5</ele><time>2026-05-03T09:41:22Z</time></trkpt><trkpt lat="45.69541345954239" lon="9.943154417541065"><ele>391.33333333333337</ele><time>2026-05-03T09:41:24Z</time></trkpt><trkpt lat="45.69534535310808" lon="9.943214301389785"><ele>389.1666666666667</ele><time>2026-05-03T09:41:25Z</time></trkpt><trkpt lat="45.69526011224433" lon="9.943226576575709"><ele>387.0</ele><time>2026-05-03T09:41:26Z</time></trkpt><trkpt lat="45.695179150998" lon="9.943251629125932"><ele>388.0</ele><time>2026-05-03T09:41:27Z</time></trkpt><trkpt lat="45.695089048226514" lon="9.943293246365432"><ele>389.0</ele><time>2026-05-03T09:41:28Z</time></trkpt><trkpt lat="45.69499923615066" lon="9.943331008921586"><ele>390.0</ele><time>2026-05-03T09:41:29Z</time></trkpt><trkpt lat="45.69491555661585" lon="9.94338638587105"><ele>391.0</ele><time>2026-05-03T09:41:30Z</time></trkpt><trkpt lat="45.69484186646547" lon="9.943448584012918"><ele>392.0</ele><time>2026-05-03T09:41:31Z</time></trkpt><trkpt lat="45.694787184640475" lon="9.943521694291809"><ele>393.0</ele><time>2026-05-03T09:41:32Z</time></trkpt><trkpt lat="45.6947476861033" lon="9.94361357709751"><ele>393.0</ele><time>2026-05-03T09:41:33Z</time></trkpt><trkpt lat="45.694754894419525" lon="9.943736695260338"><ele>393.0</ele><time>2026-05-03T09:41:34Z</time></trkpt><trkpt lat="45.694777243689465" lon="9.943856265829822"><ele>393.0</ele><time>2026-05-03T09:41:35Z</time></trkpt><trkpt lat="45.69479754938015" lon="9.94396244712964"><ele>393.0</ele><time>2026-05-03T09:41:36Z</time></trkpt><trkpt lat="45.694820515486875" lon="9.944064639268044"><ele>393.0</ele><time>2026-05-03T09:41:37Z</time></trkpt><trkpt lat="45.6948341793902" lon="9.944167678832946"><ele>393.0</ele><time>2026-05-03T09:41:38Z</time></trkpt><trkpt lat="45.69484072804462" lon="9.944272042063705"><ele>389.5</ele><time>2026-05-03T09:41:39Z</time></trkpt><trkpt lat="45.69484584501129" lon="9.944366933077273"><ele>386.0</ele><time>2026-05-03T09:41:40Z</time></trkpt><trkpt lat="45.69483240164399" lon="9.944456143404"><ele>382.5</ele><time>2026-05-03T09:41:41Z</time></trkpt><trkpt lat="45.69479510039203" lon="9.94453299976213"><ele>379.0</ele><time>2026-05-03T09:41:42Z</time></trkpt><trkpt lat="45.69474617563685" lon="9.944598102393195"><ele>375.5</ele><time>2026-05-03T09:41:43Z</time></trkpt><trkpt lat="45.69461690099679" lon="9.944673266673366"><ele>372.0</ele><time>2026-05-03T09:41:45Z</time></trkpt><trkpt lat="45.69454334929622" lon="9.944694394650037"><ele>372.0</ele><time>2026-05-03T09:41:46Z</time></trkpt><trkpt lat="45.694461838137244" lon="9.944739513294303"><ele>372.0</ele><time>2026-05-03T09:41:47Z</time></trkpt><trkpt lat="45.69437695139642" lon="9.944783103831037"><ele>372.0</ele><time>2026-05-03T09:41:48Z</time></trkpt><trkpt lat="45.69429609391384" lon="9.944829367878715"><ele>372.0</ele><time>2026-05-03T09:41:49Z</time></trkpt><trkpt lat="45.69423190616146" lon="9.944846994971087"><ele>372.0</ele><time>2026-05-03T09:41:50Z</time></trkpt><trkpt lat="45.694174673479274" lon="9.944889223048072"><ele>372.0</ele><time>2026-05-03T09:41:51Z</time></trkpt><trkpt lat="45.69416979041016" lon="9.945025696376344"><ele>372.0</ele><time>2026-05-03T09:41:53Z</time></trkpt><trkpt lat="45.694281655742465" lon="9.94505779000249"><ele>372.0</ele><time>2026-05-03T09:41:55Z</time></trkpt><trkpt lat="45.694369854054166" lon="9.945031681637447"><ele>372.0</ele><time>2026-05-03T09:41:56Z</time></trkpt><trkpt lat="45.69446245544081" lon="9.945031625058599"><ele>372.0</ele><time>2026-05-03T09:41:57Z</time></trkpt><trkpt lat="45.69457730854981" lon="9.945047908757614"><ele>372.0</ele><time>2026-05-03T09:41:58Z</time></trkpt><trkpt lat="45.69468968886222" lon="9.944960939581435"><ele>372.0</ele><time>2026-05-03T09:42:00Z</time></trkpt><trkpt lat="45.69478685348368" lon="9.944950087371593"><ele>372.0</ele><time>2026-05-03T09:42:01Z</time></trkpt><trkpt lat="45.694870190249645" lon="9.944938186839408"><ele>372.0</ele><time>2026-05-03T09:42:02Z</time></trkpt><trkpt lat="45.69495416770538" lon="9.944903528732528"><ele>372.0</ele><time>2026-05-03T09:42:03Z</time></trkpt><trkpt lat="45.695023215116755" lon="9.944854926399488"><ele>372.0</ele><time>2026-05-03T09:42:04Z</time></trkpt><trkpt lat="45.69507852729627" lon="9.94476535761971"><ele>372.0</ele><time>2026-05-03T09:42:05Z</time></trkpt><trkpt lat="45.69511704273516" lon="9.944656439873205"><ele>372.0</ele><time>2026-05-03T09:42:06Z</time></trkpt><trkpt lat="45.69513844513686" lon="9.944529612645795"><ele>372.0</ele><time>2026-05-03T09:42:07Z</time></trkpt><trkpt lat="45.695152066100945" lon="9.944397924534837"><ele>372.0</ele><time>2026-05-03T09:42:08Z</time></trkpt><trkpt lat="45.69515048043204" lon="9.944260232689857"><ele>372.0</ele><time>2026-05-03T09:42:09Z</time></trkpt><trkpt lat="45.69516285481602" lon="9.944130584217268"><ele>372.0</ele><time>2026-05-03T09:42:10Z</time></trkpt><trkpt lat="45.69517561874731" lon="9.944031282831602"><ele>372.0</ele><time>2026-05-03T09:42:11Z</time></trkpt><trkpt lat="45.69524957275196" lon="9.94391652795847"><ele>370.1666666666667</ele><time>2026-05-03T09:42:13Z</time></trkpt><trkpt lat="45.695322607286045" lon="9.943909555720762"><ele>368.3333333333333</ele><time>2026-05-03T09:42:14Z</time></trkpt><trkpt lat="45.69539762549783" lon="9.943931339893808"><ele>366.5</ele><time>2026-05-03T09:42:15Z</time></trkpt><trkpt lat="45.695471258228075" lon="9.943976749195834"><ele>364.66666666666663</ele><time>2026-05-03T09:42:16Z</time></trkpt><trkpt lat="45.69556378755439" lon="9.943990725614501"><ele>362.8333333333333</ele><time>2026-05-03T09:42:17Z</time></trkpt><trkpt lat="45.69565210385729" lon="9.9440137634638"><ele>361.0</ele><time>2026-05-03T09:42:18Z</time></trkpt><trkpt lat="45.69574163778" lon="9.944034110845935"><ele>361.0</ele><time>2026-05-03T09:42:19Z</time></trkpt><trkpt lat="45.69583069532803" lon="9.944051894094303"><ele>361.0</ele><time>2026-05-03T09:42:20Z</time></trkpt><trkpt lat="45.69592299347165" lon="9.944058282969575"><ele>361.0</ele><time>2026-05-03T09:42:21Z</time></trkpt><trkpt lat="45.696011768330145" lon="9.944064349345476"><ele>361.0</ele><time>2026-05-03T09:42:22Z</time></trkpt><trkpt lat="45.696095393332335" lon="9.944048475826365"><ele>361.0</ele><time>2026-05-03T09:42:23Z</time></trkpt><trkpt lat="45.696173526786424" lon="9.943982997450176"><ele>361.0</ele><time>2026-05-03T09:42:24Z</time></trkpt><trkpt lat="45.69625301481077" lon="9.943899842613261"><ele>360.20000000000005</ele><time>2026-05-03T09:42:25Z</time></trkpt><trkpt lat="45.696330421251936" lon="9.943804645994101"><ele>359.40000000000003</ele><time>2026-05-03T09:42:26Z</time></trkpt><trkpt lat="45.696397789196396" lon="9.943708851198954"><ele>358.6</ele><time>2026-05-03T09:42:27Z</time></trkpt><trkpt lat="45.6964603029325" lon="9.943578875361784"><ele>357.8</ele><time>2026-05-03T09:42:28Z</time></trkpt><trkpt lat="45.696513010750614" lon="9.943441436071462"><ele>357.0</ele><time>2026-05-03T09:42:29Z</time></trkpt><trkpt lat="45.696561829239705" lon="9.943314423851671"><ele>357.0</ele><time>2026-05-03T09:42:30Z</time></trkpt><trkpt lat="45.696609057094165" lon="9.943215836161436"><ele>357.0</ele><time>2026-05-03T09:42:31Z</time></trkpt><trkpt lat="45.69668082223258" lon="9.943130115623758"><ele>357.0</ele><time>2026-05-03T09:42:32Z</time></trkpt><trkpt lat="45.69677448531954" lon="9.943066265311284"><ele>357.0</ele><time>2026-05-03T09:42:33Z</time></trkpt><trkpt lat="45.69687007469836" lon="9.942997954591009"><ele>357.0</ele><time>2026-05-03T09:42:34Z</time></trkpt><trkpt lat="45.69696539034942" lon="9.942935641910712"><ele>351.8</ele><time>2026-05-03T09:42:35Z</time></trkpt><trkpt lat="45.697059327251196" lon="9.942875200554214"><ele>346.6</ele><time>2026-05-03T09:42:36Z</time></trkpt><trkpt lat="45.69713344058959" lon="9.942832331151294"><ele>341.40000000000003</ele><time>2026-05-03T09:42:37Z</time></trkpt><trkpt lat="45.69722313371331" lon="9.942777692332738"><ele>336.20000000000005</ele><time>2026-05-03T09:42:38Z</time></trkpt><trkpt lat="45.69730542461277" lon="9.942712127683466"><ele>331.0</ele><time>2026-05-03T09:42:39Z</time></trkpt><trkpt lat="45.69738214033486" lon="9.94261570488024"><ele>330.8333333333333</ele><time>2026-05-03T09:42:40Z</time></trkpt><trkpt lat="45.69745247029065" lon="9.942525273929492"><ele>330.66666666666663</ele><time>2026-05-03T09:42:41Z</time></trkpt><trkpt lat="45.69752521844433" lon="9.942451751611953"><ele>330.5</ele><time>2026-05-03T09:42:42Z</time></trkpt><trkpt lat="45.697602185709194" lon="9.94240746403218"><ele>330.3333333333333</ele><time>2026-05-03T09:42:43Z</time></trkpt><trkpt lat="45.69768136408776" lon="9.942385191852052"><ele>330.1666666666667</ele><time>2026-05-03T09:42:44Z</time></trkpt><trkpt lat="45.697745560770414" lon="9.942376006865652"><ele>330.0</ele><time>2026-05-03T09:42:45Z</time></trkpt><trkpt lat="45.69783218030096" lon="9.942435545791751"><ele>330.0</ele><time>2026-05-03T09:42:47Z</time></trkpt><trkpt lat="45.697848411827046" lon="9.942547369587595"><ele>330.0</ele><time>2026-05-03T09:42:48Z</time></trkpt><trkpt lat="45.69783734886366" lon="9.942681254630052"><ele>330.0</ele><time>2026-05-03T09:42:49Z</time></trkpt><trkpt lat="45.697822118095644" lon="9.942815536120921"><ele>330.0</ele><time>2026-05-03T09:42:50Z</time></trkpt><trkpt lat="45.697805477533166" lon="9.942927735988636"><ele>330.0</ele><time>2026-05-03T09:42:51Z</time></trkpt><trkpt lat="45.697762661695045" lon="9.943012360272002"><ele>330.0</ele><time>2026-05-03T09:42:52Z</time></trkpt><trkpt lat="45.6977153094178" lon="9.94307695125322"><ele>330.1666666666667</ele><time>2026-05-03T09:42:53Z</time></trkpt><trkpt lat="45.69767477796263" lon="9.943153543882211"><ele>330.3333333333333</ele><time>2026-05-03T09:42:54Z</time></trkpt><trkpt lat="45.697731278629625" lon="9.94329002124237"><ele>330.5</ele><time>2026-05-03T09:42:56Z</time></trkpt><trkpt lat="45.69781114998072" lon="9.943313341941643"><ele>330.66666666666663</ele><time>2026-05-03T09:42:57Z</time></trkpt><trkpt lat="45.69789126334301" lon="9.943315540531593"><ele>330.8333333333333</ele><time>2026-05-03T09:42:58Z</time></trkpt><trkpt lat="45.69796403497561" lon="9.943336158092912"><ele>331.0</ele><time>2026-05-03T09:42:59Z</time></trkpt><trkpt lat="45.698032844346855" lon="9.943366066954885"><ele>332.0</ele><time>2026-05-03T09:43:00Z</time></trkpt><trkpt lat="45.698099690567695" lon="9.943400001285157"><ele>333.0</ele><time>2026-05-03T09:43:01Z</time></trkpt><trkpt lat="45.69815928963232" lon="9.943438971840862"><ele>334.0</ele><time>2026-05-03T09:43:02Z</time></trkpt><trkpt lat="45.69827358155569" lon="9.943500511427326"><ele>335.0</ele><time>2026-05-03T09:43:04Z</time></trkpt><trkpt lat="45.69838157850314" lon="9.943563142352797"><ele>336.0</ele><time>2026-05-03T09:43:06Z</time></trkpt><trkpt lat="45.69849736334075" lon="9.943595185585268"><ele>339.0</ele><time>2026-05-03T09:43:08Z</time></trkpt><trkpt lat="45.69861347638225" lon="9.94362242519745"><ele>342.0</ele><time>2026-05-03T09:43:10Z</time></trkpt><trkpt lat="45.69871768390978" lon="9.943670890602789"><ele>345.0</ele><time>2026-05-03T09:43:12Z</time></trkpt><trkpt lat="45.6987339734169" lon="9.943832723265341"><ele>348.0</ele><time>2026-05-03T09:43:14Z</time></trkpt><trkpt lat="45.69864142929718" lon="9.943940459330788"><ele>347.4</ele><time>2026-05-03T09:43:16Z</time></trkpt><trkpt lat="45.698551341232864" lon="9.944013781200583"><ele>346.79999999999995</ele><time>2026-05-03T09:43:18Z</time></trkpt><trkpt lat="45.69847306761479" lon="9.94411842005868"><ele>346.2</ele><time>2026-05-03T09:43:20Z</time></trkpt><trkpt lat="45.698434135902055" lon="9.944261080588216"><ele>345.6</ele><time>2026-05-03T09:43:22Z</time></trkpt><trkpt lat="45.69845892253073" lon="9.944421141779133"><ele>345.0</ele><time>2026-05-03T09:43:24Z</time></trkpt><trkpt lat="45.69848905670773" lon="9.944566143931757"><ele>345.0</ele><time>2026-05-03T09:43:26Z</time></trkpt><trkpt lat="45.698506632593435" lon="9.944700355939652"><ele>345.0</ele><time>2026-05-03T09:43:28Z</time></trkpt><trkpt lat="45.69849329979795" lon="9.944833727029726"><ele>345.0</ele><time>2026-05-03T09:43:30Z</time></trkpt><trkpt lat="45.698486070836694" lon="9.944969859147278"><ele>345.0</ele><time>2026-05-03T09:43:32Z</time></trkpt><trkpt lat="45.69849940182052" lon="9.945107940520055"><ele>345.0</ele><time>2026-05-03T09:43:34Z</time></trkpt><trkpt lat="45.6985512449373" lon="9.945231293434205"><ele>346.2</ele><time>2026-05-03T09:43:36Z</time></trkpt><trkpt lat="45.69861145547669" lon="9.945330171792119"><ele>347.4</ele><time>2026-05-03T09:43:38Z</time></trkpt><trkpt lat="45.6986830455849" lon="9.945378852120069"><ele>348.6</ele><time>2026-05-03T09:43:40Z</time></trkpt><trkpt lat="45.69877966378136" lon="9.945347734644235"><ele>349.8</ele><time>2026-05-03T09:43:42Z</time></trkpt><trkpt lat="45.69886465500185" lon="9.94528694903937"><ele>351.0</ele><time>2026-05-03T09:43:44Z</time></trkpt><trkpt lat="45.69894232698382" lon="9.945226296997902"><ele>351.0</ele><time>2026-05-03T09:43:46Z</time></trkpt><trkpt lat="45.69902220477422" lon="9.9452068283596"><ele>351.0</ele><time>2026-05-03T09:43:48Z</time></trkpt><trkpt lat="45.699096830314744" lon="9.945223082169974"><ele>351.0</ele><time>2026-05-03T09:43:50Z</time></trkpt><trkpt lat="45.699129949409425" lon="9.945322339400395"><ele>351.0</ele><time>2026-05-03T09:43:52Z</time></trkpt><trkpt lat="45.69916446395149" lon="9.945452365657564"><ele>351.0</ele><time>2026-05-03T09:43:54Z</time></trkpt><trkpt lat="45.69920715581398" lon="9.945586152309208"><ele>351.0</ele><time>2026-05-03T09:43:56Z</time></trkpt><trkpt lat="45.69925619850841" lon="9.945713523652547"><ele>351.0</ele><time>2026-05-03T09:43:58Z</time></trkpt><trkpt lat="45.699307673397" lon="9.945863463482935"><ele>351.0</ele><time>2026-05-03T09:44:00Z</time></trkpt><trkpt lat="45.69934647910638" lon="9.94594878669264"><ele>351.0</ele><time>2026-05-03T09:44:01Z</time></trkpt><trkpt lat="45.69937267907585" lon="9.946031015413707"><ele>351.0</ele><time>2026-05-03T09:44:02Z</time></trkpt><trkpt lat="45.699366651526006" lon="9.94614882897344"><ele>351.0</ele><time>2026-05-03T09:44:04Z</time></trkpt><trkpt lat="45.699276385187005" lon="9.946236122411808"><ele>351.0</ele><time>2026-05-03T09:44:06Z</time></trkpt><trkpt lat="45.699206722655155" lon="9.946256719111384"><ele>349.8333333333333</ele><time>2026-05-03T09:44:07Z</time></trkpt><trkpt lat="45.699144709545045" lon="9.94628195564369"><ele>348.6666666666667</ele><time>2026-05-03T09:44:08Z</time></trkpt><trkpt lat="45.69908217448556" lon="9.946308961463876"><ele>347.5</ele><time>2026-05-03T09:44:09Z</time></trkpt><trkpt lat="45.698971613788615" lon="9.94633680096826"><ele>346.33333333333337</ele><time>2026-05-03T09:44:11Z</time></trkpt><trkpt lat="45.69888454481908" lon="9.946329300244276"><ele>345.1666666666667</ele><time>2026-05-03T09:44:13Z</time></trkpt><trkpt lat="45.698782079507176" lon="9.946372761027664"><ele>344.0</ele><time>2026-05-03T09:44:15Z</time></trkpt><trkpt lat="45.69867734989471" lon="9.946429232839133"><ele>344.0</ele><time>2026-05-03T09:44:17Z</time></trkpt><trkpt lat="45.69860679499473" lon="9.946451930322892"><ele>344.0</ele><time>2026-05-03T09:44:18Z</time></trkpt><trkpt lat="45.69853359624315" lon="9.946444607576113"><ele>344.0</ele><time>2026-05-03T09:44:19Z</time></trkpt><trkpt lat="45.698388785375556" lon="9.946478632486508"><ele>344.0</ele><time>2026-05-03T09:44:21Z</time></trkpt><trkpt lat="45.698302232802135" lon="9.946485731513521"><ele>344.0</ele><time>2026-05-03T09:44:22Z</time></trkpt><trkpt lat="45.69821487304168" lon="9.946509829264352"><ele>342.6</ele><time>2026-05-03T09:44:23Z</time></trkpt><trkpt lat="45.69812623192694" lon="9.946521829115195"><ele>341.2</ele><time>2026-05-03T09:44:24Z</time></trkpt><trkpt lat="45.69803363576793" lon="9.946531623764018"><ele>339.8</ele><time>2026-05-03T09:44:25Z</time></trkpt><trkpt lat="45.69793979554299" lon="9.946536503886959"><ele>338.40000000000003</ele><time>2026-05-03T09:44:26Z</time></trkpt><trkpt lat="45.69784340246934" lon="9.94654062294952"><ele>337.0</ele><time>2026-05-03T09:44:27Z</time></trkpt><trkpt lat="45.69774703067796" lon="9.946549459195728"><ele>336.40000000000003</ele><time>2026-05-03T09:44:28Z</time></trkpt><trkpt lat="45.69765162058545" lon="9.946558387444165"><ele>335.8</ele><time>2026-05-03T09:44:29Z</time></trkpt><trkpt lat="45.69755202445664" lon="9.94655676722743"><ele>335.2</ele><time>2026-05-03T09:44:30Z</time></trkpt><trkpt lat="45.697451138048095" lon="9.946553030512206"><ele>334.6</ele><time>2026-05-03T09:44:31Z</time></trkpt><trkpt lat="45.697348725849004" lon="9.946552365266653"><ele>334.0</ele><time>2026-05-03T09:44:32Z</time></trkpt><trkpt lat="45.6972507524116" lon="9.946545080689358"><ele>334.0</ele><time>2026-05-03T09:44:33Z</time></trkpt><trkpt lat="45.69714657109074" lon="9.946558605745084"><ele>334.0</ele><time>2026-05-03T09:44:34Z</time></trkpt><trkpt lat="45.69704505060674" lon="9.946589170192832"><ele>334.0</ele><time>2026-05-03T09:44:35Z</time></trkpt><trkpt lat="45.69694631858137" lon="9.946641966352232"><ele>334.0</ele><time>2026-05-03T09:44:36Z</time></trkpt><trkpt lat="45.69684988899265" lon="9.946703691489319"><ele>334.0</ele><time>2026-05-03T09:44:37Z</time></trkpt><trkpt lat="45.69675851081182" lon="9.946781986058534"><ele>332.2</ele><time>2026-05-03T09:44:38Z</time></trkpt><trkpt lat="45.69667545553559" lon="9.946877726740928"><ele>330.4</ele><time>2026-05-03T09:44:39Z</time></trkpt><trkpt lat="45.69660512461232" lon="9.946986768662597"><ele>328.6</ele><time>2026-05-03T09:44:40Z</time></trkpt><trkpt lat="45.69654545525352" lon="9.947109400947436"><ele>326.8</ele><time>2026-05-03T09:44:41Z</time></trkpt><trkpt lat="45.69649060482385" lon="9.947232341358669"><ele>325.0</ele><time>2026-05-03T09:44:42Z</time></trkpt><trkpt lat="45.696430930678275" lon="9.947357998538436"><ele>325.0</ele><time>2026-05-03T09:44:43Z</time></trkpt><trkpt lat="45.696364294071365" lon="9.94748126672392"><ele>325.0</ele><time>2026-05-03T09:44:44Z</time></trkpt><trkpt lat="45.69629167824148" lon="9.947603167092918"><ele>325.0</ele><time>2026-05-03T09:44:45Z</time></trkpt><trkpt lat="45.69621526819192" lon="9.94772137398623"><ele>325.0</ele><time>2026-05-03T09:44:46Z</time></trkpt><trkpt lat="45.69613115052574" lon="9.947836933991926"><ele>322.5</ele><time>2026-05-03T09:44:47Z</time></trkpt><trkpt lat="45.69604523692517" lon="9.947946178926015"><ele>320.0</ele><time>2026-05-03T09:44:48Z</time></trkpt><trkpt lat="45.69596120267595" lon="9.94806541813278"><ele>317.5</ele><time>2026-05-03T09:44:49Z</time></trkpt><trkpt lat="45.69587487695541" lon="9.948182677901348"><ele>315.0</ele><time>2026-05-03T09:44:50Z</time></trkpt><trkpt lat="45.69578548391068" lon="9.948302217008969"><ele>314.25</ele><time>2026-05-03T09:44:51Z</time></trkpt><trkpt lat="45.69569513242923" lon="9.948418127733836"><ele>313.5</ele><time>2026-05-03T09:44:52Z</time></trkpt><trkpt lat="45.695609038599194" lon="9.948539514617284"><ele>312.75</ele><time>2026-05-03T09:44:53Z</time></trkpt><trkpt lat="45.69552496519563" lon="9.948669531607692"><ele>312.0</ele><time>2026-05-03T09:44:54Z</time></trkpt><trkpt lat="45.695449254449166" lon="9.948801069009855"><ele>312.0</ele><time>2026-05-03T09:44:55Z</time></trkpt><trkpt lat="45.69538823609678" lon="9.948938103546352"><ele>312.0</ele><time>2026-05-03T09:44:56Z</time></trkpt><trkpt lat="45.69535094328693" lon="9.94908508335579"><ele>312.0</ele><time>2026-05-03T09:44:57Z</time></trkpt><trkpt lat="45.695334033014646" lon="9.949228175769889"><ele>312.0</ele><time>2026-05-03T09:44:58Z</time></trkpt><trkpt lat="45.69534366282463" lon="9.949374337665034"><ele>312.0</ele><time>2026-05-03T09:44:59Z</time></trkpt><trkpt lat="45.6953860998999" lon="9.94951245921044"><ele>311.1666666666667</ele><time>2026-05-03T09:45:00Z</time></trkpt><trkpt lat="45.69542220453726" lon="9.949626823000258"><ele>310.3333333333333</ele><time>2026-05-03T09:45:01Z</time></trkpt><trkpt lat="45.695434005570924" lon="9.949734869904205"><ele>309.5</ele><time>2026-05-03T09:45:02Z</time></trkpt><trkpt lat="45.69541162669959" lon="9.949840727289216"><ele>308.66666666666663</ele><time>2026-05-03T09:45:03Z</time></trkpt><trkpt lat="45.69535240754711" lon="9.949931131125451"><ele>307.8333333333333</ele><time>2026-05-03T09:45:04Z</time></trkpt><trkpt lat="45.69527345943895" lon="9.949983095292511"><ele>307.0</ele><time>2026-05-03T09:45:05Z</time></trkpt><trkpt lat="45.69519465593727" lon="9.94999803592093"><ele>304.4</ele><time>2026-05-03T09:45:06Z</time></trkpt><trkpt lat="45.69511646185619" lon="9.949964626645734"><ele>301.79999999999995</ele><time>2026-05-03T09:45:07Z</time></trkpt><trkpt lat="45.695049608552225" lon="9.949867743812232"><ele>299.2</ele><time>2026-05-03T09:45:08Z</time></trkpt><trkpt lat="45.6949996651177" lon="9.949747469295678"><ele>296.59999999999997</ele><time>2026-05-03T09:45:09Z</time></trkpt><trkpt lat="45.69495558261526" lon="9.949619169693193"><ele>294.0</ele><time>2026-05-03T09:45:10Z</time></trkpt><trkpt lat="45.69490434231892" lon="9.94950980067354"><ele>294.0</ele><time>2026-05-03T09:45:11Z</time></trkpt><trkpt lat="45.6948357507132" lon="9.949440596176073"><ele>294.0</ele><time>2026-05-03T09:45:12Z</time></trkpt><trkpt lat="45.69475539240262" lon="9.949430056378677"><ele>294.0</ele><time>2026-05-03T09:45:13Z</time></trkpt><trkpt lat="45.69467801251698" lon="9.949490822366766"><ele>294.0</ele><time>2026-05-03T09:45:14Z</time></trkpt><trkpt lat="45.6946309973007" lon="9.949609770239121"><ele>294.0</ele><time>2026-05-03T09:45:15Z</time></trkpt><trkpt lat="45.69461885025093" lon="9.949749769705566"><ele>294.0</ele><time>2026-05-03T09:45:16Z</time></trkpt><trkpt lat="45.694613096009185" lon="9.949884881810133"><ele>294.0</ele><time>2026-05-03T09:45:17Z</time></trkpt><trkpt lat="45.69459314774324" lon="9.950013067227308"><ele>294.0</ele><time>2026-05-03T09:45:18Z</time></trkpt><trkpt lat="45.694566412693" lon="9.950143578686955"><ele>294.0</ele><time>2026-05-03T09:45:19Z</time></trkpt><trkpt lat="45.69452398534799" lon="9.950274816746882"><ele>294.0</ele><time>2026-05-03T09:45:20Z</time></trkpt><trkpt lat="45.69446139841047" lon="9.950393416790764"><ele>294.0</ele><time>2026-05-03T09:45:21Z</time></trkpt><trkpt lat="45.694376271191075" lon="9.950491605928208"><ele>291.0</ele><time>2026-05-03T09:45:22Z</time></trkpt><trkpt lat="45.69428865728873" lon="9.950584608182233"><ele>288.0</ele><time>2026-05-03T09:45:23Z</time></trkpt><trkpt lat="45.69419894609019" lon="9.950685271037083"><ele>285.0</ele><time>2026-05-03T09:45:24Z</time></trkpt><trkpt lat="45.69410545923976" lon="9.950778831062074"><ele>282.0</ele><time>2026-05-03T09:45:25Z</time></trkpt><trkpt lat="45.69400142115811" lon="9.950855411030355"><ele>281.5</ele><time>2026-05-03T09:45:26Z</time></trkpt><trkpt lat="45.69388965216163" lon="9.950916084522953"><ele>281.0</ele><time>2026-05-03T09:45:27Z</time></trkpt><trkpt lat="45.69377641539245" lon="9.950972093330096"><ele>280.5</ele><time>2026-05-03T09:45:28Z</time></trkpt><trkpt lat="45.693670722653366" lon="9.951028210421478"><ele>280.0</ele><time>2026-05-03T09:45:29Z</time></trkpt><trkpt lat="45.693573159721296" lon="9.951082178045825"><ele>279.8333333333333</ele><time>2026-05-03T09:45:30Z</time></trkpt><trkpt lat="45.69348295761951" lon="9.951130681690273"><ele>279.66666666666663</ele><time>2026-05-03T09:45:31Z</time></trkpt><trkpt lat="45.69339946440907" lon="9.951172050128541"><ele>279.5</ele><time>2026-05-03T09:45:32Z</time></trkpt><trkpt lat="45.6933210368375" lon="9.95119996682457"><ele>279.3333333333333</ele><time>2026-05-03T09:45:33Z</time></trkpt><trkpt lat="45.693240888611584" lon="9.951211398997891"><ele>279.1666666666667</ele><time>2026-05-03T09:45:34Z</time></trkpt><trkpt lat="45.69316857959569" lon="9.951216129669268"><ele>279.0</ele><time>2026-05-03T09:45:35Z</time></trkpt><trkpt lat="45.69309722787913" lon="9.951208973092967"><ele>279.0</ele><time>2026-05-03T09:45:36Z</time></trkpt><trkpt lat="45.69297248852354" lon="9.951190061814424"><ele>279.0</ele><time>2026-05-03T09:45:38Z</time></trkpt><trkpt lat="45.69284869913166" lon="9.9511650684587"><ele>279.0</ele><time>2026-05-03T09:45:40Z</time></trkpt><trkpt lat="45.69278549872897" lon="9.951144238629473"><ele>279.0</ele><time>2026-05-03T09:45:41Z</time></trkpt><trkpt lat="45.69266337963204" lon="9.95110117454623"><ele>279.0</ele><time>2026-05-03T09:45:43Z</time></trkpt><trkpt lat="45.692601171029615" lon="9.951074995003886"><ele>278.5</ele><time>2026-05-03T09:45:44Z</time></trkpt><trkpt lat="45.69247369536444" lon="9.951038042144045"><ele>278.0</ele><time>2026-05-03T09:45:46Z</time></trkpt><trkpt lat="45.69241179365383" lon="9.95101289935465"><ele>277.5</ele><time>2026-05-03T09:45:47Z</time></trkpt><trkpt lat="45.692349133323916" lon="9.950991553311912"><ele>277.0</ele><time>2026-05-03T09:45:48Z</time></trkpt><trkpt lat="45.692283812888995" lon="9.950965877719394"><ele>276.5</ele><time>2026-05-03T09:45:49Z</time></trkpt><trkpt lat="45.69222079913886" lon="9.95094271184706"><ele>276.0</ele><time>2026-05-03T09:45:50Z</time></trkpt><trkpt lat="45.692155508644376" lon="9.95091854432964"><ele>276.0</ele><time>2026-05-03T09:45:51Z</time></trkpt><trkpt lat="45.69209144150123" lon="9.950899067405413"><ele>276.0</ele><time>2026-05-03T09:45:52Z</time></trkpt><trkpt lat="45.692027694994074" lon="9.950875353488101"><ele>276.0</ele><time>2026-05-03T09:45:53Z</time></trkpt><trkpt lat="45.69196316698429" lon="9.950853092358114"><ele>276.0</ele><time>2026-05-03T09:45:54Z</time></trkpt><trkpt lat="45.691898852395745" lon="9.950832467337344"><ele>276.0</ele><time>2026-05-03T09:45:55Z</time></trkpt><trkpt lat="45.69183494137373" lon="9.950813213335794"><ele>276.0</ele><time>2026-05-03T09:45:56Z</time></trkpt><trkpt lat="45.69177018610782" lon="9.950795542815827"><ele>276.0</ele><time>2026-05-03T09:45:57Z</time></trkpt><trkpt lat="45.69170552211599" lon="9.950784268158943"><ele>277.42857142857144</ele><time>2026-05-03T09:45:58Z</time></trkpt><trkpt lat="45.691639198928236" lon="9.950780718412053"><ele>278.8571428571429</ele><time>2026-05-03T09:45:59Z</time></trkpt><trkpt lat="45.69157421908547" lon="9.950781243078083"><ele>280.2857142857143</ele><time>2026-05-03T09:46:00Z</time></trkpt><trkpt lat="45.6915078218705" lon="9.950785342245632"><ele>281.7142857142857</ele><time>2026-05-03T09:46:01Z</time></trkpt><trkpt lat="45.69144137536162" lon="9.950791208014829"><ele>283.1428571428571</ele><time>2026-05-03T09:46:02Z</time></trkpt><trkpt lat="45.691375675544094" lon="9.950800453315406"><ele>284.57142857142856</ele><time>2026-05-03T09:46:03Z</time></trkpt><trkpt lat="45.69131001500926" lon="9.950811264693638"><ele>286.0</ele><time>2026-05-03T09:46:04Z</time></trkpt><trkpt lat="45.69124681630486" lon="9.950829474460066"><ele>286.0</ele><time>2026-05-03T09:46:05Z</time></trkpt><trkpt lat="45.69118196010221" lon="9.950845047264373"><ele>286.0</ele><time>2026-05-03T09:46:06Z</time></trkpt><trkpt lat="45.691117635761856" lon="9.95086017749973"><ele>286.0</ele><time>2026-05-03T09:46:07Z</time></trkpt><trkpt lat="45.69099116768598" lon="9.95088683272068"><ele>286.0</ele><time>2026-05-03T09:46:09Z</time></trkpt><trkpt lat="45.690867688490044" lon="9.95090191491764"><ele>286.0</ele><time>2026-05-03T09:46:11Z</time></trkpt><trkpt lat="45.69080472801616" lon="9.950907269676494"><ele>286.0</ele><time>2026-05-03T09:46:12Z</time></trkpt><trkpt lat="45.69074047000033" lon="9.950912303218727"><ele>284.8</ele><time>2026-05-03T09:46:13Z</time></trkpt><trkpt lat="45.690616614930505" lon="9.950926435299673"><ele>283.6</ele><time>2026-05-03T09:46:15Z</time></trkpt><trkpt lat="45.69049237780897" lon="9.950944432648313"><ele>282.4</ele><time>2026-05-03T09:46:17Z</time></trkpt><trkpt lat="45.69036863479958" lon="9.950958294393345"><ele>281.2</ele><time>2026-05-03T09:46:19Z</time></trkpt><trkpt lat="45.69030523724218" lon="9.950967854678128"><ele>280.0</ele><time>2026-05-03T09:46:20Z</time></trkpt><trkpt lat="45.69018066434294" lon="9.950978886198063"><ele>279.57142857142856</ele><time>2026-05-03T09:46:22Z</time></trkpt><trkpt lat="45.690115992327044" lon="9.950986269710286"><ele>279.1428571428571</ele><time>2026-05-03T09:46:23Z</time></trkpt><trkpt lat="45.690050158629624" lon="9.95099993486297"><ele>278.7142857142857</ele><time>2026-05-03T09:46:24Z</time></trkpt><trkpt lat="45.68998583114435" lon="9.95101000192638"><ele>278.2857142857143</ele><time>2026-05-03T09:46:25Z</time></trkpt><trkpt lat="45.68992079561229" lon="9.951029405023503"><ele>277.85714285714283</ele><time>2026-05-03T09:46:26Z</time></trkpt><trkpt lat="45.68985562449625" lon="9.951037802468754"><ele>277.42857142857144</ele><time>2026-05-03T09:46:27Z</time></trkpt><trkpt lat="45.68979054459615" lon="9.951065917253135"><ele>277.0</ele><time>2026-05-03T09:46:28Z</time></trkpt><trkpt lat="45.689726012318545" lon="9.951077447026083"><ele>277.0</ele><time>2026-05-03T09:46:29Z</time></trkpt><trkpt lat="45.689662375636914" lon="9.951096461195672"><ele>277.0</ele><time>2026-05-03T09:46:30Z</time></trkpt><trkpt lat="45.68959706613673" lon="9.951120117668555"><ele>277.0</ele><time>2026-05-03T09:46:31Z</time></trkpt><trkpt lat="45.689528828839215" lon="9.951156099528761"><ele>277.0</ele><time>2026-05-03T09:46:32Z</time></trkpt><trkpt lat="45.68940676739195" lon="9.951190876812772"><ele>277.0</ele><time>2026-05-03T09:46:34Z</time></trkpt><trkpt lat="45.689344494763304" lon="9.951218361751113"><ele>277.0</ele><time>2026-05-03T09:46:35Z</time></trkpt><trkpt lat="45.689279097982016" lon="9.951239803996431"><ele>278.6</ele><time>2026-05-03T09:46:36Z</time></trkpt><trkpt lat="45.68915379197166" lon="9.951279138862347"><ele>280.2</ele><time>2026-05-03T09:46:38Z</time></trkpt><trkpt lat="45.68903610489524" lon="9.951326010786625"><ele>281.8</ele><time>2026-05-03T09:46:40Z</time></trkpt><trkpt lat="45.68896934729116" lon="9.951350090766725"><ele>283.4</ele><time>2026-05-03T09:46:41Z</time></trkpt><trkpt lat="45.68885393702068" lon="9.951388058888531"><ele>285.0</ele><time>2026-05-03T09:46:43Z</time></trkpt><trkpt lat="45.688736595368" lon="9.951429212252712"><ele>285.0</ele><time>2026-05-03T09:46:45Z</time></trkpt><trkpt lat="45.68861680787509" lon="9.951463752159542"><ele>285.0</ele><time>2026-05-03T09:46:47Z</time></trkpt><trkpt lat="45.688503307226625" lon="9.951502244670072"><ele>285.0</ele><time>2026-05-03T09:46:49Z</time></trkpt><trkpt lat="45.68844407999435" lon="9.951534796594688"><ele>285.0</ele><time>2026-05-03T09:46:50Z</time></trkpt><trkpt lat="45.6883314386819" lon="9.951554557321382"><ele>285.0</ele><time>2026-05-03T09:46:52Z</time></trkpt><trkpt lat="45.68826561569555" lon="9.951569474711548"><ele>285.2857142857143</ele><time>2026-05-03T09:46:53Z</time></trkpt><trkpt lat="45.68820165230714" lon="9.951583581497028"><ele>285.57142857142856</ele><time>2026-05-03T09:46:54Z</time></trkpt><trkpt lat="45.68813272151952" lon="9.95160125269317"><ele>285.8571428571429</ele><time>2026-05-03T09:46:55Z</time></trkpt><trkpt lat="45.68806611011257" lon="9.951618850970776"><ele>286.1428571428571</ele><time>2026-05-03T09:46:56Z</time></trkpt><trkpt lat="45.68799533657724" lon="9.951641692876818"><ele>286.42857142857144</ele><time>2026-05-03T09:46:57Z</time></trkpt><trkpt lat="45.6879262011718" lon="9.951658977143165"><ele>286.7142857142857</ele><time>2026-05-03T09:46:58Z</time></trkpt><trkpt lat="45.68785456869473" lon="9.951668749265254"><ele>287.0</ele><time>2026-05-03T09:46:59Z</time></trkpt><trkpt lat="45.68772115725596" lon="9.951671810892794"><ele>283.5</ele><time>2026-05-03T09:47:01Z</time></trkpt><trkpt lat="45.68763447381142" lon="9.951707033660602"><ele>280.0</ele><time>2026-05-03T09:47:02Z</time></trkpt><trkpt lat="45.68755864848624" lon="9.95173273713884"><ele>276.5</ele><time>2026-05-03T09:47:03Z</time></trkpt><trkpt lat="45.68747476552185" lon="9.95175884458298"><ele>273.0</ele><time>2026-05-03T09:47:04Z</time></trkpt><trkpt lat="45.68739609132299" lon="9.951770563455772"><ele>269.5</ele><time>2026-05-03T09:47:05Z</time></trkpt><trkpt lat="45.687312666944194" lon="9.951791259200972"><ele>266.0</ele><time>2026-05-03T09:47:06Z</time></trkpt><trkpt lat="45.6872308855033" lon="9.951815757924757"><ele>266.0</ele><time>2026-05-03T09:47:07Z</time></trkpt><trkpt lat="45.687144794166066" lon="9.951840643837258"><ele>266.0</ele><time>2026-05-03T09:47:08Z</time></trkpt><trkpt lat="45.68705962057577" lon="9.951868478831885"><ele>266.0</ele><time>2026-05-03T09:47:09Z</time></trkpt><trkpt lat="45.68696874174164" lon="9.951877944629457"><ele>266.0</ele><time>2026-05-03T09:47:10Z</time></trkpt><trkpt lat="45.686878383286555" lon="9.951889972365286"><ele>266.0</ele><time>2026-05-03T09:47:11Z</time></trkpt><trkpt lat="45.68678700885269" lon="9.951893267629192"><ele>266.0</ele><time>2026-05-03T09:47:12Z</time></trkpt><trkpt lat="45.68669352333568" lon="9.951885223729471"><ele>265.6</ele><time>2026-05-03T09:47:13Z</time></trkpt><trkpt lat="45.686599050659794" lon="9.951875133320813"><ele>265.20000000000005</ele><time>2026-05-03T09:47:14Z</time></trkpt><trkpt lat="45.68650248493951" lon="9.951864342953094"><ele>264.79999999999995</ele><time>2026-05-03T09:47:15Z</time></trkpt><trkpt lat="45.68640752597928" lon="9.951847408628222"><ele>264.4</ele><time>2026-05-03T09:47:16Z</time></trkpt><trkpt lat="45.68631122705878" lon="9.951829811361957"><ele>264.0</ele><time>2026-05-03T09:47:17Z</time></trkpt><trkpt lat="45.68621263028168" lon="9.95181710785233"><ele>264.0</ele><time>2026-05-03T09:47:18Z</time></trkpt><trkpt lat="45.68611246309182" lon="9.951802168335616"><ele>264.0</ele><time>2026-05-03T09:47:19Z</time></trkpt><trkpt lat="45.68601376438659" lon="9.951786744568775"><ele>264.0</ele><time>2026-05-03T09:47:20Z</time></trkpt><trkpt lat="45.685913132336644" lon="9.951772515999565"><ele>264.0</ele><time>2026-05-03T09:47:21Z</time></trkpt><trkpt lat="45.68581122683179" lon="9.951759367489009"><ele>264.0</ele><time>2026-05-03T09:47:22Z</time></trkpt><trkpt lat="45.68570877483583" lon="9.95174277571643"><ele>262.4</ele><time>2026-05-03T09:47:23Z</time></trkpt><trkpt lat="45.685608498323326" lon="9.951716068949136"><ele>260.79999999999995</ele><time>2026-05-03T09:47:24Z</time></trkpt><trkpt lat="45.685507684613135" lon="9.95167988747848"><ele>259.20000000000005</ele><time>2026-05-03T09:47:25Z</time></trkpt><trkpt lat="45.68540972159551" lon="9.951629600088365"><ele>257.6</ele><time>2026-05-03T09:47:26Z</time></trkpt><trkpt lat="45.68531921121492" lon="9.951562698933238"><ele>256.0</ele><time>2026-05-03T09:47:27Z</time></trkpt><trkpt lat="45.68522651847947" lon="9.951492415438661"><ele>256.0</ele><time>2026-05-03T09:47:28Z</time></trkpt><trkpt lat="45.6851373689592" lon="9.95141298324823"><ele>256.0</ele><time>2026-05-03T09:47:29Z</time></trkpt><trkpt lat="45.68504569273938" lon="9.951334925823968"><ele>256.0</ele><time>2026-05-03T09:47:30Z</time></trkpt><trkpt lat="45.68495531167803" lon="9.951251079175739"><ele>256.0</ele><time>2026-05-03T09:47:31Z</time></trkpt><trkpt lat="45.684863880014284" lon="9.951160889556911"><ele>256.0</ele><time>2026-05-03T09:47:32Z</time></trkpt><trkpt lat="45.684780412766465" lon="9.951067444051136"><ele>256.0</ele><time>2026-05-03T09:47:33Z</time></trkpt><trkpt lat="45.68468914936393" lon="9.950970011666787"><ele>256.0</ele><time>2026-05-03T09:47:34Z</time></trkpt><trkpt lat="45.6846091803699" lon="9.950861703199436"><ele>256.0</ele><time>2026-05-03T09:47:35Z</time></trkpt><trkpt lat="45.68453813314109" lon="9.950742172675017"><ele>256.0</ele><time>2026-05-03T09:47:36Z</time></trkpt><trkpt lat="45.684467815945055" lon="9.950615174603703"><ele>256.0</ele><time>2026-05-03T09:47:37Z</time></trkpt><trkpt lat="45.68439798994484" lon="9.950493936029417"><ele>253.75</ele><time>2026-05-03T09:47:38Z</time></trkpt><trkpt lat="45.68431657030696" lon="9.950378948189963"><ele>251.5</ele><time>2026-05-03T09:47:39Z</time></trkpt><trkpt lat="45.68422730112766" lon="9.95027764629716"><ele>249.25</ele><time>2026-05-03T09:47:40Z</time></trkpt><trkpt lat="45.68412767666695" lon="9.950194796234578"><ele>247.0</ele><time>2026-05-03T09:47:41Z</time></trkpt><trkpt lat="45.684014830434364" lon="9.950136266983074"><ele>247.0</ele><time>2026-05-03T09:47:42Z</time></trkpt><trkpt lat="45.68390560467866" lon="9.950064558834562"><ele>247.0</ele><time>2026-05-03T09:47:43Z</time></trkpt><trkpt lat="45.68380080759137" lon="9.950007174436243"><ele>247.0</ele><time>2026-05-03T09:47:44Z</time></trkpt><trkpt lat="45.683691288566315" lon="9.949943856272037"><ele>247.0</ele><time>2026-05-03T09:47:45Z</time></trkpt><trkpt lat="45.683578000061786" lon="9.949870502427402"><ele>246.25</ele><time>2026-05-03T09:47:46Z</time></trkpt><trkpt lat="45.683467410068495" lon="9.949791617311075"><ele>245.5</ele><time>2026-05-03T09:47:47Z</time></trkpt><trkpt lat="45.68337169241812" lon="9.949719904994206"><ele>244.75</ele><time>2026-05-03T09:47:48Z</time></trkpt><trkpt lat="45.683272538726634" lon="9.949615360804295"><ele>244.0</ele><time>2026-05-03T09:47:49Z</time></trkpt><trkpt lat="45.6831769533339" lon="9.949504407415464"><ele>244.0</ele><time>2026-05-03T09:47:50Z</time></trkpt><trkpt lat="45.683089407941715" lon="9.949381177828503"><ele>244.0</ele><time>2026-05-03T09:47:51Z</time></trkpt><trkpt lat="45.68300793356251" lon="9.949249633965007"><ele>244.0</ele><time>2026-05-03T09:47:52Z</time></trkpt><trkpt lat="45.68293208229641" lon="9.949111424600549"><ele>244.0</ele><time>2026-05-03T09:47:53Z</time></trkpt><trkpt lat="45.68286117688765" lon="9.948966465242668"><ele>242.25</ele><time>2026-05-03T09:47:54Z</time></trkpt><trkpt lat="45.68279603190299" lon="9.948813038822912"><ele>240.5</ele><time>2026-05-03T09:47:55Z</time></trkpt><trkpt lat="45.682745498275196" lon="9.948651027826429"><ele>238.75</ele><time>2026-05-03T09:47:56Z</time></trkpt><trkpt lat="45.6827065708235" lon="9.948476222500272"><ele>237.0</ele><time>2026-05-03T09:47:57Z</time></trkpt><trkpt lat="45.68267725604056" lon="9.948296170474828"><ele>237.0</ele><time>2026-05-03T09:47:58Z</time></trkpt><trkpt lat="45.682652396132525" lon="9.94811625406582"><ele>237.0</ele><time>2026-05-03T09:47:59Z</time></trkpt><trkpt lat="45.68261353978402" lon="9.947957804607295"><ele>237.0</ele><time>2026-05-03T09:48:00Z</time></trkpt><trkpt lat="45.682546729723505" lon="9.947816393935355"><ele>237.0</ele><time>2026-05-03T09:48:01Z</time></trkpt><trkpt lat="45.682455052665105" lon="9.947706744190583"><ele>237.0</ele><time>2026-05-03T09:48:02Z</time></trkpt><trkpt lat="45.68234506083062" lon="9.94763291859062"><ele>237.0</ele><time>2026-05-03T09:48:03Z</time></trkpt><trkpt lat="45.68222892237609" lon="9.947580863059327"><ele>237.0</ele><time>2026-05-03T09:48:04Z</time></trkpt><trkpt lat="45.6821087825011" lon="9.947543447034489"><ele>237.0</ele><time>2026-05-03T09:48:05Z</time></trkpt><trkpt lat="45.681995778363515" lon="9.94750652212449"><ele>236.25</ele><time>2026-05-03T09:48:06Z</time></trkpt><trkpt lat="45.68187896713518" lon="9.947466278440196"><ele>235.5</ele><time>2026-05-03T09:48:07Z</time></trkpt><trkpt lat="45.68175979149704" lon="9.947425006502767"><ele>234.75</ele><time>2026-05-03T09:48:08Z</time></trkpt><trkpt lat="45.681649610402175" lon="9.947377864424352"><ele>234.0</ele><time>2026-05-03T09:48:09Z</time></trkpt><trkpt lat="45.68154408879647" lon="9.947332690363881"><ele>234.0</ele><time>2026-05-03T09:48:10Z</time></trkpt><trkpt lat="45.68143264112571" lon="9.94728889642972"><ele>234.0</ele><time>2026-05-03T09:48:11Z</time></trkpt><trkpt lat="45.68131960264255" lon="9.947256009183835"><ele>234.0</ele><time>2026-05-03T09:48:12Z</time></trkpt><trkpt lat="45.68121400937525" lon="9.947202798906115"><ele>234.0</ele><time>2026-05-03T09:48:13Z</time></trkpt><trkpt lat="45.68110389884167" lon="9.947162047459296"><ele>232.5</ele><time>2026-05-03T09:48:14Z</time></trkpt><trkpt lat="45.68099688883101" lon="9.947114521722192"><ele>231.0</ele><time>2026-05-03T09:48:15Z</time></trkpt><trkpt lat="45.68088623663146" lon="9.947070941112136"><ele>229.5</ele><time>2026-05-03T09:48:16Z</time></trkpt><trkpt lat="45.68076967589262" lon="9.94703169119877"><ele>228.0</ele><time>2026-05-03T09:48:17Z</time></trkpt><trkpt lat="45.680672889235595" lon="9.946976202648699"><ele>228.0</ele><time>2026-05-03T09:48:18Z</time></trkpt><trkpt lat="45.68057190341242" lon="9.946918796488838"><ele>228.0</ele><time>2026-05-03T09:48:19Z</time></trkpt><trkpt lat="45.68047072424728" lon="9.94685822339161"><ele>228.0</ele><time>2026-05-03T09:48:20Z</time></trkpt><trkpt lat="45.68037435320527" lon="9.946794941100412"><ele>228.0</ele><time>2026-05-03T09:48:21Z</time></trkpt><trkpt lat="45.680281822002236" lon="9.946729469188364"><ele>228.0</ele><time>2026-05-03T09:48:22Z</time></trkpt><trkpt lat="45.68018772020935" lon="9.946672201211236"><ele>227.8</ele><time>2026-05-03T09:48:23Z</time></trkpt><trkpt lat="45.68010944611231" lon="9.946588550829064"><ele>227.60000000000002</ele><time>2026-05-03T09:48:24Z</time></trkpt><trkpt lat="45.68002619486667" lon="9.94650763854727"><ele>227.39999999999998</ele><time>2026-05-03T09:48:25Z</time></trkpt><trkpt lat="45.67994780008976" lon="9.946426973023158"><ele>227.2</ele><time>2026-05-03T09:48:26Z</time></trkpt><trkpt lat="45.6798704808756" lon="9.946340545735602"><ele>227.0</ele><time>2026-05-03T09:48:27Z</time></trkpt><trkpt lat="45.67980237926269" lon="9.946256928192753"><ele>227.0</ele><time>2026-05-03T09:48:28Z</time></trkpt><trkpt lat="45.67973006312568" lon="9.946171394099688"><ele>227.0</ele><time>2026-05-03T09:48:29Z</time></trkpt><trkpt lat="45.67965667603798" lon="9.946090753121652"><ele>227.0</ele><time>2026-05-03T09:48:30Z</time></trkpt><trkpt lat="45.67958365979597" lon="9.946011326420624"><ele>227.0</ele><time>2026-05-03T09:48:31Z</time></trkpt><trkpt lat="45.679514415412605" lon="9.9459331424602"><ele>227.0</ele><time>2026-05-03T09:48:32Z</time></trkpt><trkpt lat="45.67944322280365" lon="9.945854564188659"><ele>226.83333333333334</ele><time>2026-05-03T09:48:33Z</time></trkpt><trkpt lat="45.67936917956389" lon="9.945788180179767"><ele>226.66666666666669</ele><time>2026-05-03T09:48:34Z</time></trkpt><trkpt lat="45.679308006177386" lon="9.945703852719015"><ele>226.5</ele><time>2026-05-03T09:48:35Z</time></trkpt><trkpt lat="45.67923894859848" lon="9.945632384153937"><ele>226.33333333333331</ele><time>2026-05-03T09:48:36Z</time></trkpt><trkpt lat="45.67917099697041" lon="9.945555413719916"><ele>226.16666666666666</ele><time>2026-05-03T09:48:37Z</time></trkpt><trkpt lat="45.67910389871671" lon="9.945479175083369"><ele>226.0</ele><time>2026-05-03T09:48:38Z</time></trkpt><trkpt lat="45.6790365465235" lon="9.945405486437926"><ele>225.99999999999997</ele><time>2026-05-03T09:48:39Z</time></trkpt><trkpt lat="45.67896277443524" lon="9.945339703995177"><ele>226.0</ele><time>2026-05-03T09:48:40Z</time></trkpt><trkpt lat="45.6789054927609" lon="9.945256292023164"><ele>226.0</ele><time>2026-05-03T09:48:41Z</time></trkpt><trkpt lat="45.67883393803194" lon="9.945184031453092"><ele>226.0</ele><time>2026-05-03T09:48:42Z</time></trkpt><trkpt lat="45.678768253426306" lon="9.945105849571785"><ele>225.99999999999997</ele><time>2026-05-03T09:48:43Z</time></trkpt><trkpt lat="45.67870443450924" lon="9.945035405665529"><ele>226.0</ele><time>2026-05-03T09:48:44Z</time></trkpt><trkpt lat="45.67864098779442" lon="9.944965617781289"><ele>225.83333333333331</ele><time>2026-05-03T09:48:45Z</time></trkpt><trkpt lat="45.67857974428971" lon="9.944894551995823"><ele>225.66666666666666</ele><time>2026-05-03T09:48:46Z</time></trkpt><trkpt lat="45.67851915253825" lon="9.944824475377237"><ele>225.5</ele><time>2026-05-03T09:48:47Z</time></trkpt><trkpt lat="45.67846125287318" lon="9.944751778704449"><ele>225.33333333333331</ele><time>2026-05-03T09:48:48Z</time></trkpt><trkpt lat="45.67840258925322" lon="9.944687153843724"><ele>225.16666666666666</ele><time>2026-05-03T09:48:49Z</time></trkpt><trkpt lat="45.67834954217316" lon="9.944624520561128"><ele>225.0</ele><time>2026-05-03T09:48:50Z</time></trkpt><trkpt lat="45.678293746399376" lon="9.944552451181321"><ele>225.00000000000003</ele><time>2026-05-03T09:48:51Z</time></trkpt><trkpt lat="45.67824395321534" lon="9.944480891674552"><ele>225.0</ele><time>2026-05-03T09:48:52Z</time></trkpt><trkpt lat="45.67819962225219" lon="9.944412023373962"><ele>225.00000000000003</ele><time>2026-05-03T09:48:53Z</time></trkpt><trkpt lat="45.678153823802326" lon="9.944341254780644"><ele>225.00000000000003</ele><time>2026-05-03T09:48:54Z</time></trkpt><trkpt lat="45.678112457097455" lon="9.944270819185894"><ele>225.0</ele><time>2026-05-03T09:48:55Z</time></trkpt><trkpt lat="45.6780743658459" lon="9.944194001423192"><ele>225.00000000000003</ele><time>2026-05-03T09:48:56Z</time></trkpt><trkpt lat="45.67803316490371" lon="9.944119762983256"><ele>225.00000000000003</ele><time>2026-05-03T09:48:57Z</time></trkpt><trkpt lat="45.67795828938006" lon="9.943971386215662"><ele>225.66666666666666</ele><time>2026-05-03T09:48:59Z</time></trkpt><trkpt lat="45.67788343746172" lon="9.943815374800797"><ele>226.33333333333331</ele><time>2026-05-03T09:49:01Z</time></trkpt><trkpt lat="45.677845881381565" lon="9.943738097894384"><ele>227.0</ele><time>2026-05-03T09:49:02Z</time></trkpt><trkpt lat="45.67780691292287" lon="9.943662649498739"><ele>227.66666666666666</ele><time>2026-05-03T09:49:03Z</time></trkpt><trkpt lat="45.677769066628755" lon="9.943587566207968"><ele>228.33333333333331</ele><time>2026-05-03T09:49:04Z</time></trkpt><trkpt lat="45.67772689199139" lon="9.943508879983654"><ele>229.0</ele><time>2026-05-03T09:49:05Z</time></trkpt><trkpt lat="45.6776563631617" lon="9.943366498330963"><ele>229.14285714285714</ele><time>2026-05-03T09:49:07Z</time></trkpt><trkpt lat="45.67758548230427" lon="9.943229071630329"><ele>229.28571428571428</ele><time>2026-05-03T09:49:09Z</time></trkpt><trkpt lat="45.67754731904618" lon="9.94315376847257"><ele>229.42857142857142</ele><time>2026-05-03T09:49:10Z</time></trkpt><trkpt lat="45.67749623927301" lon="9.943092334948714"><ele>229.57142857142856</ele><time>2026-05-03T09:49:11Z</time></trkpt><trkpt lat="45.67745068103669" lon="9.943027415074795"><ele>229.71428571428572</ele><time>2026-05-03T09:49:12Z</time></trkpt><trkpt lat="45.677404489098194" lon="9.94296416734391"><ele>229.85714285714283</ele><time>2026-05-03T09:49:13Z</time></trkpt><trkpt lat="45.677353768787455" lon="9.942903777771345"><ele>229.99999999999997</ele><time>2026-05-03T09:49:14Z</time></trkpt><trkpt lat="45.67730044139965" lon="9.942852799096437"><ele>230.00000000000003</ele><time>2026-05-03T09:49:15Z</time></trkpt><trkpt lat="45.67724725268084" lon="9.942804117939287"><ele>230.0</ele><time>2026-05-03T09:49:16Z</time></trkpt><trkpt lat="45.67719223089341" lon="9.942754922030865"><ele>230.0</ele><time>2026-05-03T09:49:17Z</time></trkpt><trkpt lat="45.6771379196703" lon="9.942706204472442"><ele>230.0</ele><time>2026-05-03T09:49:18Z</time></trkpt><trkpt lat="45.677033441815226" lon="9.942602966363221"><ele>230.00000000000003</ele><time>2026-05-03T09:49:20Z</time></trkpt><trkpt lat="45.67698216554394" lon="9.942549918983005"><ele>230.0</ele><time>2026-05-03T09:49:21Z</time></trkpt><trkpt lat="45.676877855944156" lon="9.942445496471784"><ele>229.16666666666669</ele><time>2026-05-03T09:49:23Z</time></trkpt><trkpt lat="45.676823441220016" lon="9.942393450673613"><ele>228.33333333333334</ele><time>2026-05-03T09:49:24Z</time></trkpt><trkpt lat="45.67676929495002" lon="9.942344476560244"><ele>227.5</ele><time>2026-05-03T09:49:25Z</time></trkpt><trkpt lat="45.676717241882315" lon="9.942289466439442"><ele>226.66666666666669</ele><time>2026-05-03T09:49:26Z</time></trkpt><trkpt lat="45.67666574100084" lon="9.942236253487902"><ele>225.83333333333334</ele><time>2026-05-03T09:49:27Z</time></trkpt><trkpt lat="45.67656202638217" lon="9.942125989181864"><ele>225.0</ele><time>2026-05-03T09:49:29Z</time></trkpt><trkpt lat="45.67650812797142" lon="9.942078203004213"><ele>225.0</ele><time>2026-05-03T09:49:30Z</time></trkpt><trkpt lat="45.67645073960692" lon="9.942023307303069"><ele>225.0</ele><time>2026-05-03T09:49:31Z</time></trkpt><trkpt lat="45.67635040888625" lon="9.941917570222577"><ele>225.0</ele><time>2026-05-03T09:49:33Z</time></trkpt><trkpt lat="45.67629816456195" lon="9.941863179452099"><ele>225.0</ele><time>2026-05-03T09:49:34Z</time></trkpt><trkpt lat="45.67624493163138" lon="9.941810567779587"><ele>225.0</ele><time>2026-05-03T09:49:35Z</time></trkpt><trkpt lat="45.67619100833704" lon="9.941758053416374"><ele>225.0</ele><time>2026-05-03T09:49:36Z</time></trkpt><trkpt lat="45.67613850667459" lon="9.941702862416543"><ele>225.2</ele><time>2026-05-03T09:49:37Z</time></trkpt><trkpt lat="45.676086386529256" lon="9.941644068387932"><ele>225.4</ele><time>2026-05-03T09:49:38Z</time></trkpt><trkpt lat="45.675983091312254" lon="9.941538685928776"><ele>225.60000000000002</ele><time>2026-05-03T09:49:40Z</time></trkpt><trkpt lat="45.675870128314436" lon="9.94145634250251"><ele>225.8</ele><time>2026-05-03T09:49:42Z</time></trkpt><trkpt lat="45.67575466754814" lon="9.94140617666779"><ele>226.0</ele><time>2026-05-03T09:49:44Z</time></trkpt><trkpt lat="45.67569212819849" lon="9.941383381442954"><ele>226.0</ele><time>2026-05-03T09:49:45Z</time></trkpt><trkpt lat="45.675571872565726" lon="9.941355022599396"><ele>226.00000000000003</ele><time>2026-05-03T09:49:47Z</time></trkpt><trkpt lat="45.67550929606058" lon="9.94134433511437"><ele>226.00000000000003</ele><time>2026-05-03T09:49:48Z</time></trkpt><trkpt lat="45.67538921172298" lon="9.941321545135848"><ele>226.0</ele><time>2026-05-03T09:49:50Z</time></trkpt><trkpt lat="45.67527060992347" lon="9.941303133762888"><ele>226.0</ele><time>2026-05-03T09:49:52Z</time></trkpt><trkpt lat="45.67515544162742" lon="9.941276101316811"><ele>226.5</ele><time>2026-05-03T09:49:54Z</time></trkpt><trkpt lat="45.675039569764806" lon="9.941264081088276"><ele>227.0</ele><time>2026-05-03T09:49:56Z</time></trkpt><trkpt lat="45.67492570662055" lon="9.941251261700003"><ele>227.5</ele><time>2026-05-03T09:49:58Z</time></trkpt><trkpt lat="45.67481636176504" lon="9.941225209042718"><ele>228.0</ele><time>2026-05-03T09:50:00Z</time></trkpt><trkpt lat="45.67470397397673" lon="9.941194294599413"><ele>228.0</ele><time>2026-05-03T09:50:02Z</time></trkpt><trkpt lat="45.67459120790268" lon="9.94117202107243"><ele>228.0</ele><time>2026-05-03T09:50:04Z</time></trkpt><trkpt lat="45.67448140906379" lon="9.941147230234527"><ele>228.0</ele><time>2026-05-03T09:50:06Z</time></trkpt><trkpt lat="45.67436939844852" lon="9.941116554168055"><ele>228.0</ele><time>2026-05-03T09:50:08Z</time></trkpt><trkpt lat="45.67425286731317" lon="9.941089729394044"><ele>229.0</ele><time>2026-05-03T09:50:10Z</time></trkpt><trkpt lat="45.674136837237505" lon="9.941045826715447"><ele>230.0</ele><time>2026-05-03T09:50:12Z</time></trkpt><trkpt lat="45.67407596191528" lon="9.941022349916295"><ele>231.0</ele><time>2026-05-03T09:50:13Z</time></trkpt><trkpt lat="45.67395762404247" lon="9.94097027403697"><ele>232.0</ele><time>2026-05-03T09:50:15Z</time></trkpt><trkpt lat="45.67389493164438" lon="9.940942094534819"><ele>233.0</ele><time>2026-05-03T09:50:16Z</time></trkpt><trkpt lat="45.673778502885725" lon="9.940882254083574"><ele>233.28571428571428</ele><time>2026-05-03T09:50:18Z</time></trkpt><trkpt lat="45.67371744996995" lon="9.940850484630444"><ele>233.57142857142856</ele><time>2026-05-03T09:50:19Z</time></trkpt><trkpt lat="45.67359948475937" lon="9.94078622371098"><ele>233.85714285714283</ele><time>2026-05-03T09:50:21Z</time></trkpt><trkpt lat="45.67353924238073" lon="9.940756440569679"><ele>234.14285714285714</ele><time>2026-05-03T09:50:22Z</time></trkpt><trkpt lat="45.673479939027075" lon="9.940725841184117"><ele>234.4285714285714</ele><time>2026-05-03T09:50:23Z</time></trkpt><trkpt lat="45.67341688782813" lon="9.940697660194381"><ele>234.7142857142857</ele><time>2026-05-03T09:50:24Z</time></trkpt><trkpt lat="45.67335700421871" lon="9.940662777368248"><ele>235.0</ele><time>2026-05-03T09:50:25Z</time></trkpt><trkpt lat="45.67329553050301" lon="9.940630731866964"><ele>235.0</ele><time>2026-05-03T09:50:26Z</time></trkpt><trkpt lat="45.67323489565365" lon="9.94059974902009"><ele>234.99999999999997</ele><time>2026-05-03T09:50:27Z</time></trkpt><trkpt lat="45.67317511519435" lon="9.940569531475653"><ele>235.0</ele><time>2026-05-03T09:50:28Z</time></trkpt><trkpt lat="45.67311337757245" lon="9.94053253544514"><ele>235.0</ele><time>2026-05-03T09:50:29Z</time></trkpt><trkpt lat="45.67305308883026" lon="9.94050113753562"><ele>234.99999999999997</ele><time>2026-05-03T09:50:30Z</time></trkpt><trkpt lat="45.6729925856543" lon="9.940471479817827"><ele>235.0</ele><time>2026-05-03T09:50:31Z</time></trkpt><trkpt lat="45.672932194777644" lon="9.940440879920667"><ele>235.0</ele><time>2026-05-03T09:50:32Z</time></trkpt><trkpt lat="45.672871381269374" lon="9.94041581687421"><ele>235.0</ele><time>2026-05-03T09:50:33Z</time></trkpt><trkpt lat="45.67281126921429" lon="9.940383708343177"><ele>234.99999999999997</ele><time>2026-05-03T09:50:34Z</time></trkpt><trkpt lat="45.67274862407329" lon="9.940359425446445"><ele>235.0</ele><time>2026-05-03T09:50:35Z</time></trkpt><trkpt lat="45.6726865154025" lon="9.940331647495956"><ele>235.0</ele><time>2026-05-03T09:50:36Z</time></trkpt><trkpt lat="45.67262341468075" lon="9.94030336370948"><ele>234.99999999999997</ele><time>2026-05-03T09:50:37Z</time></trkpt><trkpt lat="45.672560332129805" lon="9.940274241992885"><ele>235.0</ele><time>2026-05-03T09:50:38Z</time></trkpt><trkpt lat="45.67249659059953" lon="9.940256968010925"><ele>235.0</ele><time>2026-05-03T09:50:39Z</time></trkpt><trkpt lat="45.67243461196147" lon="9.940237685087636"><ele>234.28571428571428</ele><time>2026-05-03T09:50:40Z</time></trkpt><trkpt lat="45.67236896192685" lon="9.940217933055308"><ele>233.57142857142856</ele><time>2026-05-03T09:50:41Z</time></trkpt><trkpt lat="45.67230282674945" lon="9.940207325809713"><ele>232.85714285714283</ele><time>2026-05-03T09:50:42Z</time></trkpt><trkpt lat="45.672239748163506" lon="9.940202987379616"><ele>232.1428571428571</ele><time>2026-05-03T09:50:43Z</time></trkpt><trkpt lat="45.67217291023956" lon="9.940198585568922"><ele>231.42857142857142</ele><time>2026-05-03T09:50:44Z</time></trkpt><trkpt lat="45.67210652221406" lon="9.940193382989351"><ele>230.71428571428567</ele><time>2026-05-03T09:50:45Z</time></trkpt><trkpt lat="45.67204254162645" lon="9.940186089847817"><ele>229.99999999999997</ele><time>2026-05-03T09:50:46Z</time></trkpt><trkpt lat="45.671978546925565" lon="9.940184608124888"><ele>229.83333333333334</ele><time>2026-05-03T09:50:47Z</time></trkpt><trkpt lat="45.67191354709643" lon="9.940181273564878"><ele>229.66666666666669</ele><time>2026-05-03T09:50:48Z</time></trkpt><trkpt lat="45.67184946023897" lon="9.940177953180697"><ele>229.5</ele><time>2026-05-03T09:50:49Z</time></trkpt><trkpt lat="45.67178507676229" lon="9.940179917381185"><ele>229.33333333333331</ele><time>2026-05-03T09:50:50Z</time></trkpt><trkpt lat="45.67165627020125" lon="9.94017862613782"><ele>229.16666666666666</ele><time>2026-05-03T09:50:52Z</time></trkpt><trkpt lat="45.67152967499419" lon="9.940175368419752"><ele>229.0</ele><time>2026-05-03T09:50:54Z</time></trkpt><trkpt lat="45.67146554647161" lon="9.94017324362626"><ele>228.99999999999997</ele><time>2026-05-03T09:50:55Z</time></trkpt><trkpt lat="45.67140064690795" lon="9.940170102984176"><ele>229.0</ele><time>2026-05-03T09:50:56Z</time></trkpt><trkpt lat="45.67133664575753" lon="9.940165529302506"><ele>229.0</ele><time>2026-05-03T09:50:57Z</time></trkpt><trkpt lat="45.67127342208579" lon="9.940166048322014"><ele>229.0</ele><time>2026-05-03T09:50:58Z</time></trkpt><trkpt lat="45.671149378476755" lon="9.940167378945707"><ele>228.99999999999997</ele><time>2026-05-03T09:51:00Z</time></trkpt><trkpt lat="45.671086036823176" lon="9.940168123452723"><ele>229.0</ele><time>2026-05-03T09:51:01Z</time></trkpt><trkpt lat="45.67096309809323" lon="9.940163722824376"><ele>229.39999999999998</ele><time>2026-05-03T09:51:03Z</time></trkpt><trkpt lat="45.670840520584456" lon="9.940164539714"><ele>229.79999999999998</ele><time>2026-05-03T09:51:05Z</time></trkpt><trkpt lat="45.670715229525264" lon="9.940163624561974"><ele>230.20000000000002</ele><time>2026-05-03T09:51:07Z</time></trkpt><trkpt lat="45.67059182736765" lon="9.940156689258544"><ele>230.60000000000002</ele><time>2026-05-03T09:51:09Z</time></trkpt><trkpt lat="45.670527668901585" lon="9.940153998052981"><ele>231.0</ele><time>2026-05-03T09:51:10Z</time></trkpt><trkpt lat="45.67040117492941" lon="9.940156165268967"><ele>231.0</ele><time>2026-05-03T09:51:12Z</time></trkpt><trkpt lat="45.67027758194411" lon="9.940149288432258"><ele>231.00000000000003</ele><time>2026-05-03T09:51:14Z</time></trkpt><trkpt lat="45.670153850254536" lon="9.940134774303223"><ele>231.00000000000003</ele><time>2026-05-03T09:51:16Z</time></trkpt><trkpt lat="45.670090974081845" lon="9.940128444045786"><ele>231.0</ele><time>2026-05-03T09:51:17Z</time></trkpt><trkpt lat="45.6699688145631" lon="9.940114862123226"><ele>231.0</ele><time>2026-05-03T09:51:19Z</time></trkpt><trkpt lat="45.66985088532742" lon="9.94009925017268"><ele>231.20000000000002</ele><time>2026-05-03T09:51:21Z</time></trkpt><trkpt lat="45.66973885739537" lon="9.94006715119017"><ele>231.40000000000003</ele><time>2026-05-03T09:51:23Z</time></trkpt><trkpt lat="45.66963282843722" lon="9.940023471985434"><ele>231.6</ele><time>2026-05-03T09:51:25Z</time></trkpt><trkpt lat="45.66951419648424" lon="9.939969964036946"><ele>231.8</ele><time>2026-05-03T09:51:27Z</time></trkpt><trkpt lat="45.669454547523834" lon="9.939938863301876"><ele>232.0</ele><time>2026-05-03T09:51:28Z</time></trkpt><trkpt lat="45.66939515490293" lon="9.939906687267445"><ele>232.0</ele><time>2026-05-03T09:51:29Z</time></trkpt><trkpt lat="45.66933395579003" lon="9.93987468064978"><ele>232.0</ele><time>2026-05-03T09:51:30Z</time></trkpt><trkpt lat="45.66921476270723" lon="9.939836756951777"><ele>232.0</ele><time>2026-05-03T09:51:32Z</time></trkpt><trkpt lat="45.66909553367165" lon="9.939803500804933"><ele>232.0</ele><time>2026-05-03T09:51:34Z</time></trkpt><trkpt lat="45.6689924526141" lon="9.939716203248661"><ele>232.0</ele><time>2026-05-03T09:51:36Z</time></trkpt><trkpt lat="45.66891154704189" lon="9.939581677829127"><ele>231.99999999999997</ele><time>2026-05-03T09:51:38Z</time></trkpt><trkpt lat="45.6688843263617" lon="9.939499609539395"><ele>232.0</ele><time>2026-05-03T09:51:39Z</time></trkpt><trkpt lat="45.66886209543567" lon="9.939414599388316"><ele>232.0</ele><time>2026-05-03T09:51:40Z</time></trkpt><trkpt lat="45.66881277803622" lon="9.939251464499655"><ele>232.0</ele><time>2026-05-03T09:51:42Z</time></trkpt><trkpt lat="45.668759277446455" lon="9.939090799851108"><ele>231.99999999999997</ele><time>2026-05-03T09:51:44Z</time></trkpt><trkpt lat="45.66873268453321" lon="9.939006636866083"><ele>232.0</ele><time>2026-05-03T09:51:45Z</time></trkpt><trkpt lat="45.668684561952304" lon="9.938851118808348"><ele>232.16666666666666</ele><time>2026-05-03T09:51:47Z</time></trkpt><trkpt lat="45.66865222957259" lon="9.938768197687654"><ele>232.33333333333331</ele><time>2026-05-03T09:51:48Z</time></trkpt><trkpt lat="45.66862567272369" lon="9.938683871215552"><ele>232.5</ele><time>2026-05-03T09:51:49Z</time></trkpt><trkpt lat="45.66857339391489" lon="9.938524926364423"><ele>232.66666666666669</ele><time>2026-05-03T09:51:51Z</time></trkpt><trkpt lat="45.668519348642356" lon="9.938359773339357"><ele>232.83333333333334</ele><time>2026-05-03T09:51:53Z</time></trkpt><trkpt lat="45.66848847923277" lon="9.938281192232656"><ele>233.0</ele><time>2026-05-03T09:51:54Z</time></trkpt><trkpt lat="45.668458269886024" lon="9.93820091985661"><ele>233.0</ele><time>2026-05-03T09:51:55Z</time></trkpt><trkpt lat="45.668433202134274" lon="9.938116051014365"><ele>233.0</ele><time>2026-05-03T09:51:56Z</time></trkpt><trkpt lat="45.66837099458653" lon="9.937972480054063"><ele>233.0</ele><time>2026-05-03T09:51:58Z</time></trkpt><trkpt lat="45.668322215620606" lon="9.937822749392259"><ele>233.0</ele><time>2026-05-03T09:52:00Z</time></trkpt><trkpt lat="45.668276112099605" lon="9.937675341484798"><ele>233.0</ele><time>2026-05-03T09:52:02Z</time></trkpt><trkpt lat="45.66822182473496" lon="9.937512412017748"><ele>233.16666666666669</ele><time>2026-05-03T09:52:04Z</time></trkpt><trkpt lat="45.66818034317466" lon="9.937373040560558"><ele>233.33333333333334</ele><time>2026-05-03T09:52:06Z</time></trkpt><trkpt lat="45.66813635115598" lon="9.937257279719155"><ele>233.5</ele><time>2026-05-03T09:52:08Z</time></trkpt><trkpt lat="45.66808338047917" lon="9.937193067717597"><ele>233.66666666666669</ele><time>2026-05-03T09:52:10Z</time></trkpt><trkpt lat="45.66802475504789" lon="9.93725616459827"><ele>233.83333333333334</ele><time>2026-05-03T09:52:12Z</time></trkpt><trkpt lat="45.66796034281938" lon="9.937333009462037"><ele>234.0</ele><time>2026-05-03T09:52:15Z</time></trkpt><trkpt lat="45.66789440044746" lon="9.937297841503366"><ele>234.0</ele><time>2026-05-03T09:52:17Z</time></trkpt><trkpt lat="45.667884364317004" lon="9.937208635665895"><ele>234.00000000000003</ele><time>2026-05-03T09:52:19Z</time></trkpt><trkpt lat="45.66792987853228" lon="9.937145446638887"><ele>234.0</ele><time>2026-05-03T09:52:28Z</time></trkpt><trkpt lat="45.66787587516213" lon="9.937236476072165"><ele>234.0</ele><time>2026-05-03T09:54:38Z</time></trkpt><trkpt lat="45.66788484850026" lon="9.93734185471813"><ele>234.00000000000003</ele><time>2026-05-03T09:55:09.03Z</time></trkpt><trkpt lat="45.667936027246306" lon="9.93723175786415"><ele>234.0</ele><time>2026-05-03T09:55:50Z</time></trkpt><trkpt lat="45.66787177150197" lon="9.937237003585883"><ele>234.0</ele><time>2026-05-03T09:55:52Z</time></trkpt><trkpt lat="45.66781705326196" lon="9.937288768563779"><ele>234.0</ele><time>2026-05-03T09:55:55Z</time></trkpt><trkpt lat="45.66785838136818" lon="9.937189432805466"><ele>234.0</ele><time>2026-05-03T09:56:03Z</time></trkpt><trkpt lat="45.667828272639696" lon="9.937072590882096"><ele>234.0</ele><time>2026-05-03T09:56:07Z</time></trkpt><trkpt lat="45.667814657249316" lon="9.936982130404616"><ele>234.0</ele><time>2026-05-03T10:01:30Z</time></trkpt><trkpt lat="45.66776724244728" lon="9.936903591394566"><ele>234.0</ele><time>2026-05-03T10:01:32Z</time></trkpt><trkpt lat="45.66769796358454" lon="9.93683688861326"><ele>234.0</ele><time>2026-05-03T10:01:36Z</time></trkpt><trkpt lat="45.66771073692857" lon="9.936734923071432"><ele>233.85714285714286</ele><time>2026-05-03T10:01:39Z</time></trkpt><trkpt lat="45.66771483798825" lon="9.936637599779495"><ele>233.71428571428572</ele><time>2026-05-03T10:01:42Z</time></trkpt><trkpt lat="45.667721831506725" lon="9.93651053783155"><ele>233.57142857142858</ele><time>2026-05-03T10:01:45Z</time></trkpt><trkpt lat="45.66771022425056" lon="9.936402171017988"><ele>233.42857142857144</ele><time>2026-05-03T10:01:47Z</time></trkpt><trkpt lat="45.66770562836813" lon="9.93630087399108"><ele>233.28571428571428</ele><time>2026-05-03T10:01:49Z</time></trkpt><trkpt lat="45.66770199158516" lon="9.936208584831531"><ele>233.14285714285717</ele><time>2026-05-03T10:01:51Z</time></trkpt><trkpt lat="45.667761569670546" lon="9.936162859338602"><ele>233.0</ele><time>2026-05-03T10:01:55Z</time></trkpt><trkpt lat="45.66782211339954" lon="9.936118199919937"><ele>233.0</ele><time>2026-05-03T10:01:57Z</time></trkpt><trkpt lat="45.6678753096153" lon="9.935996306082034"><ele>233.0</ele><time>2026-05-03T10:01:59Z</time></trkpt><trkpt lat="45.66781327011079" lon="9.935871436009991"><ele>233.0</ele><time>2026-05-03T10:02:01Z</time></trkpt><trkpt lat="45.667750299616685" lon="9.935764826770658"><ele>233.0</ele><time>2026-05-03T10:02:03Z</time></trkpt><trkpt lat="45.66770748268662" lon="9.935653949144154"><ele>233.0</ele><time>2026-05-03T10:02:05Z</time></trkpt><trkpt lat="45.66763573271098" lon="9.935547958620369"><ele>232.8</ele><time>2026-05-03T10:02:07Z</time></trkpt><trkpt lat="45.66758012588026" lon="9.935504922923537"><ele>232.60000000000002</ele><time>2026-05-03T10:02:08Z</time></trkpt><trkpt lat="45.66752454118181" lon="9.935448021981147"><ele>232.39999999999998</ele><time>2026-05-03T10:02:09Z</time></trkpt><trkpt lat="45.66744112833868" lon="9.935331026364612"><ele>232.2</ele><time>2026-05-03T10:02:11Z</time></trkpt><trkpt lat="45.66736547190616" lon="9.935209088240411"><ele>232.0</ele><time>2026-05-03T10:02:13Z</time></trkpt><trkpt lat="45.667295435440785" lon="9.935086328369433"><ele>232.0</ele><time>2026-05-03T10:02:15Z</time></trkpt><trkpt lat="45.66720802479244" lon="9.934955376584929"><ele>232.0</ele><time>2026-05-03T10:02:17Z</time></trkpt><trkpt lat="45.66716489664153" lon="9.934887942015173"><ele>232.0</ele><time>2026-05-03T10:02:18Z</time></trkpt><trkpt lat="45.667083297291676" lon="9.934759009510364"><ele>232.0</ele><time>2026-05-03T10:02:20Z</time></trkpt><trkpt lat="45.66700783204292" lon="9.934640157233867"><ele>232.0</ele><time>2026-05-03T10:02:22Z</time></trkpt><trkpt lat="45.66690341893029" lon="9.934474872701525"><ele>231.8</ele><time>2026-05-03T10:02:25Z</time></trkpt><trkpt lat="45.66683692409404" lon="9.934372938383028"><ele>231.6</ele><time>2026-05-03T10:02:27Z</time></trkpt><trkpt lat="45.66677487971673" lon="9.934277082501472"><ele>231.40000000000003</ele><time>2026-05-03T10:02:29Z</time></trkpt><trkpt lat="45.666712428818414" lon="9.934177929568689"><ele>231.20000000000002</ele><time>2026-05-03T10:02:31Z</time></trkpt><trkpt lat="45.66663945385143" lon="9.934062887659984"><ele>231.0</ele><time>2026-05-03T10:02:33Z</time></trkpt><trkpt lat="45.66657039301587" lon="9.933960944796738"><ele>231.0</ele><time>2026-05-03T10:02:35Z</time></trkpt><trkpt lat="45.66648822186623" lon="9.93383296152437"><ele>231.0</ele><time>2026-05-03T10:02:37Z</time></trkpt><trkpt lat="45.666446842378086" lon="9.93375785739132"><ele>231.0</ele><time>2026-05-03T10:02:38Z</time></trkpt><trkpt lat="45.66639654431633" lon="9.933695811528265"><ele>231.0</ele><time>2026-05-03T10:02:39Z</time></trkpt><trkpt lat="45.6663466748775" lon="9.933631199014732"><ele>231.0</ele><time>2026-05-03T10:02:40Z</time></trkpt><trkpt lat="45.66626034913797" lon="9.933507495363799"><ele>231.0</ele><time>2026-05-03T10:02:42Z</time></trkpt><trkpt lat="45.66618318610988" lon="9.933365453049717"><ele>230.66666666666666</ele><time>2026-05-03T10:02:44Z</time></trkpt><trkpt lat="45.66614271708118" lon="9.933294389491042"><ele>230.33333333333331</ele><time>2026-05-03T10:02:45Z</time></trkpt><trkpt lat="45.66609951716855" lon="9.933224600636224"><ele>230.0</ele><time>2026-05-03T10:02:46Z</time></trkpt><trkpt lat="45.66605308177118" lon="9.933155898141594"><ele>229.66666666666666</ele><time>2026-05-03T10:02:47Z</time></trkpt><trkpt lat="45.66600439378989" lon="9.933088523803772"><ele>229.33333333333331</ele><time>2026-05-03T10:02:48Z</time></trkpt><trkpt lat="45.66592249454577" lon="9.932950589749291"><ele>229.0</ele><time>2026-05-03T10:02:50Z</time></trkpt><trkpt lat="45.66588073209073" lon="9.932882519403718"><ele>229.0</ele><time>2026-05-03T10:02:51Z</time></trkpt><trkpt lat="45.66583680054437" lon="9.932816282154754"><ele>229.0</ele><time>2026-05-03T10:02:52Z</time></trkpt><trkpt lat="45.66579430247352" lon="9.932746681935576"><ele>229.0</ele><time>2026-05-03T10:02:53Z</time></trkpt><trkpt lat="45.66574770711785" lon="9.932678174325515"><ele>229.0</ele><time>2026-05-03T10:02:54Z</time></trkpt><trkpt lat="45.66570998886268" lon="9.932605520933157"><ele>229.0</ele><time>2026-05-03T10:02:55Z</time></trkpt><trkpt lat="45.66566265877605" lon="9.932538469609135"><ele>229.0</ele><time>2026-05-03T10:02:56Z</time></trkpt><trkpt lat="45.665620887446124" lon="9.932469254578198"><ele>229.0</ele><time>2026-05-03T10:02:57Z</time></trkpt><trkpt lat="45.66553075967679" lon="9.932335648474428"><ele>229.0</ele><time>2026-05-03T10:02:59Z</time></trkpt><trkpt lat="45.665488521371316" lon="9.932265141272769"><ele>228.99999999999997</ele><time>2026-05-03T10:03:00Z</time></trkpt><trkpt lat="45.6654070347057" lon="9.93213589085882"><ele>228.99999999999997</ele><time>2026-05-03T10:03:02Z</time></trkpt><trkpt lat="45.66533127811988" lon="9.932013990911702"><ele>229.0</ele><time>2026-05-03T10:03:04Z</time></trkpt><trkpt lat="45.6652546809968" lon="9.931892524067036"><ele>229.0</ele><time>2026-05-03T10:03:06Z</time></trkpt><trkpt lat="45.66516742033973" lon="9.931764693198794"><ele>229.16666666666666</ele><time>2026-05-03T10:03:08Z</time></trkpt><trkpt lat="45.66513290041482" lon="9.93168721262616"><ele>229.33333333333331</ele><time>2026-05-03T10:03:09Z</time></trkpt><trkpt lat="45.665102496675665" lon="9.93150407257311"><ele>229.5</ele><time>2026-05-03T10:03:11Z</time></trkpt><trkpt lat="45.66512373744589" lon="9.93133671165985"><ele>229.66666666666669</ele><time>2026-05-03T10:03:13Z</time></trkpt><trkpt lat="45.66511312103481" lon="9.931243636941844"><ele>229.83333333333334</ele><time>2026-05-03T10:03:14Z</time></trkpt><trkpt lat="45.665085364535656" lon="9.931160177042806"><ele>230.0</ele><time>2026-05-03T10:03:15Z</time></trkpt><trkpt lat="45.66497906162677" lon="9.931060559124857"><ele>230.0</ele><time>2026-05-03T10:03:17Z</time></trkpt><trkpt lat="45.664902298230245" lon="9.931029314507207"><ele>230.0</ele><time>2026-05-03T10:03:18Z</time></trkpt><trkpt lat="45.66478599908831" lon="9.931065133208248"><ele>230.0</ele><time>2026-05-03T10:03:20Z</time></trkpt><trkpt lat="45.66472321358345" lon="9.93108303784092"><ele>230.0</ele><time>2026-05-03T10:03:21Z</time></trkpt><trkpt lat="45.664589718729566" lon="9.931076639454336"><ele>230.0</ele><time>2026-05-03T10:03:23Z</time></trkpt><trkpt lat="45.664529847777004" lon="9.931046099060753"><ele>230.00000000000003</ele><time>2026-05-03T10:03:24Z</time></trkpt><trkpt lat="45.66440946543179" lon="9.931004922797332"><ele>230.0</ele><time>2026-05-03T10:03:26Z</time></trkpt><trkpt lat="45.66434807401563" lon="9.930973749402552"><ele>230.0</ele><time>2026-05-03T10:03:27Z</time></trkpt><trkpt lat="45.664283411739284" lon="9.930951671132107"><ele>230.0</ele><time>2026-05-03T10:03:28Z</time></trkpt><trkpt lat="45.6642149860953" lon="9.930928959840701"><ele>230.00000000000003</ele><time>2026-05-03T10:03:29Z</time></trkpt><trkpt lat="45.664152737682166" lon="9.93090317257144"><ele>230.0</ele><time>2026-05-03T10:03:30Z</time></trkpt><trkpt lat="45.66408908472026" lon="9.930881464791648"><ele>230.00000000000003</ele><time>2026-05-03T10:03:31Z</time></trkpt><trkpt lat="45.66402415531674" lon="9.930858637896222"><ele>230.0</ele><time>2026-05-03T10:03:32Z</time></trkpt><trkpt lat="45.66389862270372" lon="9.930806951239623"><ele>230.0</ele><time>2026-05-03T10:03:34Z</time></trkpt><trkpt lat="45.66383146277923" lon="9.930787090644067"><ele>230.0</ele><time>2026-05-03T10:03:35Z</time></trkpt><trkpt lat="45.66377133556541" lon="9.93075769930928"><ele>230.00000000000003</ele><time>2026-05-03T10:03:36Z</time></trkpt><trkpt lat="45.663709098544516" lon="9.930722803651408"><ele>230.0</ele><time>2026-05-03T10:03:37Z</time></trkpt><trkpt lat="45.66364624725036" lon="9.930689164772927"><ele>231.83333333333334</ele><time>2026-05-03T10:03:38Z</time></trkpt><trkpt lat="45.66358620517458" lon="9.930652612554582"><ele>233.66666666666669</ele><time>2026-05-03T10:03:39Z</time></trkpt><trkpt lat="45.66352747917722" lon="9.930606382680734"><ele>235.5</ele><time>2026-05-03T10:03:40Z</time></trkpt><trkpt lat="45.6634716197802" lon="9.930556098523779"><ele>237.33333333333331</ele><time>2026-05-03T10:03:41Z</time></trkpt><trkpt lat="45.663406390790406" lon="9.930519940750653"><ele>239.16666666666666</ele><time>2026-05-03T10:03:42Z</time></trkpt><trkpt lat="45.66330405002133" lon="9.93041268133496"><ele>241.0</ele><time>2026-05-03T10:03:44Z</time></trkpt><trkpt lat="45.66324811590804" lon="9.930363412221258"><ele>240.99999999999997</ele><time>2026-05-03T10:03:45Z</time></trkpt><trkpt lat="45.66319298027969" lon="9.930319161281796"><ele>241.0</ele><time>2026-05-03T10:03:46Z</time></trkpt><trkpt lat="45.66314040971272" lon="9.93025982860946"><ele>241.0</ele><time>2026-05-03T10:03:47Z</time></trkpt><trkpt lat="45.663078496977015" lon="9.930204620623268"><ele>241.0</ele><time>2026-05-03T10:03:48Z</time></trkpt><trkpt lat="45.66297354485514" lon="9.930108290780236"><ele>240.99999999999997</ele><time>2026-05-03T10:03:50Z</time></trkpt><trkpt lat="45.66291623278635" lon="9.930048997465175"><ele>241.0</ele><time>2026-05-03T10:03:51Z</time></trkpt><trkpt lat="45.66281204676384" lon="9.929944183525542"><ele>240.16666666666666</ele><time>2026-05-03T10:03:53Z</time></trkpt><trkpt lat="45.66270666385421" lon="9.929844139639632"><ele>239.33333333333331</ele><time>2026-05-03T10:03:55Z</time></trkpt><trkpt lat="45.66264871673436" lon="9.929792951428926"><ele>238.5</ele><time>2026-05-03T10:03:56Z</time></trkpt><trkpt lat="45.6625988055471" lon="9.929737002318907"><ele>237.66666666666669</ele><time>2026-05-03T10:03:57Z</time></trkpt><trkpt lat="45.662544342863654" lon="9.929684901352248"><ele>236.83333333333334</ele><time>2026-05-03T10:03:58Z</time></trkpt><trkpt lat="45.66248580508272" lon="9.92963123914449"><ele>236.0</ele><time>2026-05-03T10:03:59Z</time></trkpt><trkpt lat="45.66242656472213" lon="9.929578077203622"><ele>236.0</ele><time>2026-05-03T10:04:00Z</time></trkpt><trkpt lat="45.66233215574522" lon="9.929470054947888"><ele>236.00000000000003</ele><time>2026-05-03T10:04:02Z</time></trkpt><trkpt lat="45.66229186308856" lon="9.929395934191442"><ele>236.00000000000003</ele><time>2026-05-03T10:04:03Z</time></trkpt><trkpt lat="45.66223187246248" lon="9.929341091712024"><ele>236.0</ele><time>2026-05-03T10:04:04Z</time></trkpt><trkpt lat="45.66214450832048" lon="9.92920300314897"><ele>236.0</ele><time>2026-05-03T10:04:06Z</time></trkpt><trkpt lat="45.662064307386764" lon="9.929050870733631"><ele>234.0</ele><time>2026-05-03T10:04:08Z</time></trkpt><trkpt lat="45.66201214762013" lon="9.928999755659113"><ele>232.00000000000003</ele><time>2026-05-03T10:04:09Z</time></trkpt><trkpt lat="45.66193055797739" lon="9.928876065101086"><ele>230.00000000000003</ele><time>2026-05-03T10:04:11Z</time></trkpt><trkpt lat="45.661931363342966" lon="9.928720001129719"><ele>228.0</ele><time>2026-05-03T10:04:13Z</time></trkpt><trkpt lat="45.661846032437246" lon="9.928593550028149"><ele>226.0</ele><time>2026-05-03T10:04:15Z</time></trkpt><trkpt lat="45.661786512983916" lon="9.928542327803784"><ele>225.99999999999997</ele><time>2026-05-03T10:04:16Z</time></trkpt><trkpt lat="45.661718607994636" lon="9.928543287128374"><ele>226.0</ele><time>2026-05-03T10:04:17Z</time></trkpt><trkpt lat="45.66159499104814" lon="9.928501712234246"><ele>226.0</ele><time>2026-05-03T10:04:19Z</time></trkpt><trkpt lat="45.66153609470061" lon="9.928460900648757"><ele>226.0</ele><time>2026-05-03T10:04:20Z</time></trkpt><trkpt lat="45.6614769941524" lon="9.928418491641152"><ele>225.99999999999997</ele><time>2026-05-03T10:04:21Z</time></trkpt><trkpt lat="45.661416067331515" lon="9.928384051059147"><ele>226.0</ele><time>2026-05-03T10:04:22Z</time></trkpt><trkpt lat="45.66135358178829" lon="9.928352981371482"><ele>225.85714285714286</ele><time>2026-05-03T10:04:23Z</time></trkpt><trkpt lat="45.66129239448992" lon="9.928318101032435"><ele>225.71428571428572</ele><time>2026-05-03T10:04:24Z</time></trkpt><trkpt lat="45.66122795647438" lon="9.928288094157343"><ele>225.57142857142858</ele><time>2026-05-03T10:04:25Z</time></trkpt><trkpt lat="45.66116314106358" lon="9.928261265639943"><ele>225.42857142857144</ele><time>2026-05-03T10:04:26Z</time></trkpt><trkpt lat="45.661100518974166" lon="9.928231099315166"><ele>225.28571428571428</ele><time>2026-05-03T10:04:27Z</time></trkpt><trkpt lat="45.661038786797754" lon="9.928197843303973"><ele>225.14285714285717</ele><time>2026-05-03T10:04:28Z</time></trkpt><trkpt lat="45.660979360228254" lon="9.928157307331173"><ele>225.00000000000003</ele><time>2026-05-03T10:04:29Z</time></trkpt><trkpt lat="45.660919493280765" lon="9.928113988594847"><ele>224.83333333333334</ele><time>2026-05-03T10:04:30Z</time></trkpt><trkpt lat="45.66085937583423" lon="9.928072935170887"><ele>224.66666666666669</ele><time>2026-05-03T10:04:31Z</time></trkpt><trkpt lat="45.66079928768005" lon="9.928032226140541"><ele>224.5</ele><time>2026-05-03T10:04:32Z</time></trkpt><trkpt lat="45.66074159551872" lon="9.927990574340546"><ele>224.33333333333334</ele><time>2026-05-03T10:04:33Z</time></trkpt><trkpt lat="45.66068547315198" lon="9.927944877626784"><ele>224.16666666666669</ele><time>2026-05-03T10:04:34Z</time></trkpt><trkpt lat="45.66062504614815" lon="9.927900790182559"><ele>224.0</ele><time>2026-05-03T10:04:35Z</time></trkpt><trkpt lat="45.66051098318112" lon="9.92781009607124"><ele>224.00000000000003</ele><time>2026-05-03T10:04:37Z</time></trkpt><trkpt lat="45.66045633118294" lon="9.92775917216891"><ele>224.0</ele><time>2026-05-03T10:04:38Z</time></trkpt><trkpt lat="45.660347022626496" lon="9.927647440043444"><ele>224.0</ele><time>2026-05-03T10:04:40Z</time></trkpt><trkpt lat="45.66029203790779" lon="9.927589787702527"><ele>224.0</ele><time>2026-05-03T10:04:41Z</time></trkpt><trkpt lat="45.66023325246276" lon="9.927534975512206"><ele>224.00000000000003</ele><time>2026-05-03T10:04:42Z</time></trkpt><trkpt lat="45.66017474959307" lon="9.927476351879145"><ele>224.0</ele><time>2026-05-03T10:04:43Z</time></trkpt><trkpt lat="45.66011687463481" lon="9.92741567072985"><ele>223.16666666666669</ele><time>2026-05-03T10:04:44Z</time></trkpt><trkpt lat="45.66005622411943" lon="9.927352389770078"><ele>222.33333333333334</ele><time>2026-05-03T10:04:45Z</time></trkpt><trkpt lat="45.6600066559497" lon="9.927277646894058"><ele>221.5</ele><time>2026-05-03T10:04:46Z</time></trkpt><trkpt lat="45.65994287368514" lon="9.927203508644718"><ele>220.66666666666669</ele><time>2026-05-03T10:04:47Z</time></trkpt><trkpt lat="45.65989860581397" lon="9.92711362934834"><ele>219.83333333333334</ele><time>2026-05-03T10:04:48Z</time></trkpt><trkpt lat="45.65986871809836" lon="9.927007008160206"><ele>219.0</ele><time>2026-05-03T10:04:49Z</time></trkpt><trkpt lat="45.659836673293704" lon="9.926909561943251"><ele>219.0</ele><time>2026-05-03T10:04:50Z</time></trkpt><trkpt lat="45.65980065102865" lon="9.926814314877939"><ele>219.0</ele><time>2026-05-03T10:04:51Z</time></trkpt><trkpt lat="45.65976032092926" lon="9.92672207449427"><ele>219.0</ele><time>2026-05-03T10:04:52Z</time></trkpt><trkpt lat="45.65971750626249" lon="9.926635210016045"><ele>219.0</ele><time>2026-05-03T10:04:53Z</time></trkpt><trkpt lat="45.659666698907685" lon="9.92655679369499"><ele>219.0</ele><time>2026-05-03T10:04:54Z</time></trkpt><trkpt lat="45.65961064333401" lon="9.92648446675032"><ele>219.0</ele><time>2026-05-03T10:04:55Z</time></trkpt><trkpt lat="45.65955203800494" lon="9.92642037914272"><ele>218.71428571428572</ele><time>2026-05-03T10:04:56Z</time></trkpt><trkpt lat="45.65949123389905" lon="9.926367225553355"><ele>218.42857142857142</ele><time>2026-05-03T10:04:57Z</time></trkpt><trkpt lat="45.659430944111904" lon="9.926315611790393"><ele>218.14285714285714</ele><time>2026-05-03T10:04:58Z</time></trkpt><trkpt lat="45.65937166962731" lon="9.926267046085766"><ele>217.85714285714286</ele><time>2026-05-03T10:04:59Z</time></trkpt><trkpt lat="45.65931484891275" lon="9.926214500662324"><ele>217.57142857142856</ele><time>2026-05-03T10:05:00Z</time></trkpt><trkpt lat="45.65926042542751" lon="9.926164765218337"><ele>217.28571428571428</ele><time>2026-05-03T10:05:01Z</time></trkpt><trkpt lat="45.659206733639614" lon="9.926117425791663"><ele>217.0</ele><time>2026-05-03T10:05:02Z</time></trkpt><trkpt lat="45.65915319887969" lon="9.926069162239193"><ele>216.99999999999997</ele><time>2026-05-03T10:05:03Z</time></trkpt><trkpt lat="45.65904888472458" lon="9.92597081690055"><ele>217.0</ele><time>2026-05-03T10:05:05Z</time></trkpt><trkpt lat="45.658993068190725" lon="9.925924893698207"><ele>217.0</ele><time>2026-05-03T10:05:06Z</time></trkpt><trkpt lat="45.658937990439554" lon="9.9258784924345"><ele>217.0</ele><time>2026-05-03T10:05:07Z</time></trkpt><trkpt lat="45.658882459918104" lon="9.925832483695062"><ele>216.99999999999997</ele><time>2026-05-03T10:05:08Z</time></trkpt><trkpt lat="45.658777537408454" lon="9.92573695253803"><ele>217.0</ele><time>2026-05-03T10:05:10Z</time></trkpt><trkpt lat="45.65867164719265" lon="9.925650754950553"><ele>217.2</ele><time>2026-05-03T10:05:12Z</time></trkpt><trkpt lat="45.658616930338546" lon="9.925599241750668"><ele>217.39999999999998</ele><time>2026-05-03T10:05:13Z</time></trkpt><trkpt lat="45.658512376717326" lon="9.925507325772001"><ele>217.60000000000002</ele><time>2026-05-03T10:05:15Z</time></trkpt><trkpt lat="45.65840799032902" lon="9.925414826060726"><ele>217.8</ele><time>2026-05-03T10:05:17Z</time></trkpt><trkpt lat="45.65830424078724" lon="9.925324988729374"><ele>218.0</ele><time>2026-05-03T10:05:19Z</time></trkpt><trkpt lat="45.6582000043626" lon="9.925234052790875"><ele>218.0</ele><time>2026-05-03T10:05:21Z</time></trkpt><trkpt lat="45.65809578255434" lon="9.925137782145288"><ele>218.0</ele><time>2026-05-03T10:05:23Z</time></trkpt><trkpt lat="45.65799195479541" lon="9.92504734007359"><ele>218.0</ele><time>2026-05-03T10:05:25Z</time></trkpt><trkpt lat="45.65788967021801" lon="9.924953461145352"><ele>218.0</ele><time>2026-05-03T10:05:27Z</time></trkpt><trkpt lat="45.65778346193945" lon="9.924859457552413"><ele>218.8</ele><time>2026-05-03T10:05:29Z</time></trkpt><trkpt lat="45.65768173796392" lon="9.92476069746764"><ele>219.60000000000002</ele><time>2026-05-03T10:05:31Z</time></trkpt><trkpt lat="45.65763134609707" lon="9.924706360389415"><ele>220.39999999999998</ele><time>2026-05-03T10:05:32Z</time></trkpt><trkpt lat="45.6575336461141" lon="9.924596919858057"><ele>221.2</ele><time>2026-05-03T10:05:34Z</time></trkpt><trkpt lat="45.65743458442585" lon="9.924486033445536"><ele>222.0</ele><time>2026-05-03T10:05:36Z</time></trkpt><trkpt lat="45.65734121326462" lon="9.924369648284964"><ele>222.0</ele><time>2026-05-03T10:05:38Z</time></trkpt><trkpt lat="45.65725209753081" lon="9.924248550174342"><ele>222.0</ele><time>2026-05-03T10:05:40Z</time></trkpt><trkpt lat="45.657163419067615" lon="9.924124441011433"><ele>222.0</ele><time>2026-05-03T10:05:42Z</time></trkpt><trkpt lat="45.65707209386976" lon="9.92399546411852"><ele>222.0</ele><time>2026-05-03T10:05:44Z</time></trkpt><trkpt lat="45.65698787985598" lon="9.923869337732528"><ele>222.0</ele><time>2026-05-03T10:05:46Z</time></trkpt><trkpt lat="45.6569007920998" lon="9.923741765159285"><ele>222.0</ele><time>2026-05-03T10:05:48Z</time></trkpt><trkpt lat="45.65685238053585" lon="9.923676236686232"><ele>222.0</ele><time>2026-05-03T10:05:49Z</time></trkpt><trkpt lat="45.656774692765296" lon="9.923543554239782"><ele>222.0</ele><time>2026-05-03T10:05:51Z</time></trkpt><trkpt lat="45.65669888072532" lon="9.923409660274585"><ele>222.0</ele><time>2026-05-03T10:05:53Z</time></trkpt><trkpt lat="45.656659409564206" lon="9.923336352021595"><ele>223.33333333333334</ele><time>2026-05-03T10:05:54Z</time></trkpt><trkpt lat="45.656605962075744" lon="9.923177638671621"><ele>224.66666666666669</ele><time>2026-05-03T10:05:56Z</time></trkpt><trkpt lat="45.65659430779898" lon="9.923007726176127"><ele>226.0</ele><time>2026-05-03T10:05:58Z</time></trkpt><trkpt lat="45.65656672548049" lon="9.922921466786319"><ele>227.33333333333334</ele><time>2026-05-03T10:05:59Z</time></trkpt><trkpt lat="45.65651496031031" lon="9.922863567829921"><ele>228.66666666666669</ele><time>2026-05-03T10:06:00Z</time></trkpt><trkpt lat="45.65645155136048" lon="9.922835035480853"><ele>230.0</ele><time>2026-05-03T10:06:01Z</time></trkpt><trkpt lat="45.65638904024542" lon="9.922822337444497"><ele>230.00000000000003</ele><time>2026-05-03T10:06:02Z</time></trkpt><trkpt lat="45.656265081004605" lon="9.922776092522426"><ele>230.0</ele><time>2026-05-03T10:06:04Z</time></trkpt><trkpt lat="45.656216916884944" lon="9.922715622844667"><ele>230.0</ele><time>2026-05-03T10:06:05Z</time></trkpt><trkpt lat="45.65618131332957" lon="9.922640075230587"><ele>230.0</ele><time>2026-05-03T10:06:06Z</time></trkpt><trkpt lat="45.65609529676255" lon="9.922516683658035"><ele>230.00000000000003</ele><time>2026-05-03T10:06:08Z</time></trkpt><trkpt lat="45.65605320221698" lon="9.922448462270918"><ele>230.0</ele><time>2026-05-03T10:06:09Z</time></trkpt><trkpt lat="45.65597608486039" lon="9.922309633238727"><ele>228.5</ele><time>2026-05-03T10:06:11Z</time></trkpt><trkpt lat="45.65590015630808" lon="9.922168254289756"><ele>227.0</ele><time>2026-05-03T10:06:13Z</time></trkpt><trkpt lat="45.65583128870711" lon="9.922026024952224"><ele>225.5</ele><time>2026-05-03T10:06:15Z</time></trkpt><trkpt lat="45.65575978822746" lon="9.921883745398882"><ele>224.0</ele><time>2026-05-03T10:06:17Z</time></trkpt><trkpt lat="45.65568974122167" lon="9.92174277706764"><ele>228.0</ele><time>2026-05-03T10:06:19Z</time></trkpt><trkpt lat="45.65561461983856" lon="9.921602587924047"><ele>232.0</ele><time>2026-05-03T10:06:21Z</time></trkpt><trkpt lat="45.65553418089048" lon="9.921465026355405"><ele>236.0</ele><time>2026-05-03T10:06:23Z</time></trkpt><trkpt lat="45.65545417804919" lon="9.921329407582398"><ele>240.0</ele><time>2026-05-03T10:06:25Z</time></trkpt><trkpt lat="45.65537500763188" lon="9.921198503838072"><ele>240.0</ele><time>2026-05-03T10:06:27Z</time></trkpt><trkpt lat="45.65529726433566" lon="9.92106919583984"><ele>240.0</ele><time>2026-05-03T10:06:29Z</time></trkpt><trkpt lat="45.65522262505678" lon="9.920935317168798"><ele>240.0</ele><time>2026-05-03T10:06:31Z</time></trkpt><trkpt lat="45.655145084334464" lon="9.920803689475903"><ele>240.0</ele><time>2026-05-03T10:06:33Z</time></trkpt><trkpt lat="45.655067936227" lon="9.920675239878985"><ele>237.25</ele><time>2026-05-03T10:06:35Z</time></trkpt><trkpt lat="45.65499428747293" lon="9.920546334341424"><ele>234.5</ele><time>2026-05-03T10:06:37Z</time></trkpt><trkpt lat="45.65491633552732" lon="9.920420246148408"><ele>231.75</ele><time>2026-05-03T10:06:39Z</time></trkpt><trkpt lat="45.65483730675951" lon="9.920301980060605"><ele>229.0</ele><time>2026-05-03T10:06:41Z</time></trkpt><trkpt lat="45.65475000962899" lon="9.920183763676155"><ele>229.0</ele><time>2026-05-03T10:06:43Z</time></trkpt><trkpt lat="45.65465717697235" lon="9.920084784136131"><ele>229.0</ele><time>2026-05-03T10:06:45Z</time></trkpt><trkpt lat="45.6545627963892" lon="9.91998667024368"><ele>229.0</ele><time>2026-05-03T10:06:47Z</time></trkpt><trkpt lat="45.654469116245906" lon="9.919885512770188"><ele>229.0</ele><time>2026-05-03T10:06:49Z</time></trkpt><trkpt lat="45.65437137156604" lon="9.919777278006315"><ele>230.5</ele><time>2026-05-03T10:06:51Z</time></trkpt><trkpt lat="45.65429112501572" lon="9.919664634076094"><ele>232.0</ele><time>2026-05-03T10:06:53Z</time></trkpt><trkpt lat="45.654206556776984" lon="9.91954904564885"><ele>233.5</ele><time>2026-05-03T10:06:55Z</time></trkpt><trkpt lat="45.65412930707648" lon="9.919422155168146"><ele>235.0</ele><time>2026-05-03T10:06:57Z</time></trkpt><trkpt lat="45.6540512169961" lon="9.91929076001116"><ele>237.2</ele><time>2026-05-03T10:06:59Z</time></trkpt><trkpt lat="45.65398377752711" lon="9.919155836900927"><ele>239.4</ele><time>2026-05-03T10:07:01Z</time></trkpt><trkpt lat="45.65394920447277" lon="9.91908032059485"><ele>241.60000000000002</ele><time>2026-05-03T10:07:02Z</time></trkpt><trkpt lat="45.65389596475919" lon="9.918931890486698"><ele>243.8</ele><time>2026-05-03T10:07:04Z</time></trkpt><trkpt lat="45.653858339361214" lon="9.918775896085743"><ele>246.0</ele><time>2026-05-03T10:07:06Z</time></trkpt><trkpt lat="45.653833532436984" lon="9.918689850625972"><ele>246.0</ele><time>2026-05-03T10:07:07Z</time></trkpt><trkpt lat="45.65381933794477" lon="9.918531784433403"><ele>246.0</ele><time>2026-05-03T10:07:09Z</time></trkpt><trkpt lat="45.653812046624004" lon="9.918358747315404"><ele>246.0</ele><time>2026-05-03T10:07:11Z</time></trkpt><trkpt lat="45.65381046236857" lon="9.91818463965314"><ele>246.0</ele><time>2026-05-03T10:07:13Z</time></trkpt><trkpt lat="45.65381187839418" lon="9.918017409140354"><ele>247.60000000000002</ele><time>2026-05-03T10:07:15Z</time></trkpt><trkpt lat="45.65381434355142" lon="9.917843628651674"><ele>249.20000000000002</ele><time>2026-05-03T10:07:17Z</time></trkpt><trkpt lat="45.65381041129249" lon="9.917752187636209"><ele>250.79999999999998</ele><time>2026-05-03T10:07:18Z</time></trkpt><trkpt lat="45.65380741959456" lon="9.917580904348313"><ele>252.39999999999998</ele><time>2026-05-03T10:07:20Z</time></trkpt><trkpt lat="45.65380262859743" lon="9.917407934808965"><ele>254.0</ele><time>2026-05-03T10:07:22Z</time></trkpt><trkpt lat="45.653806838114726" lon="9.917238308689512"><ele>255.39999999999998</ele><time>2026-05-03T10:07:24Z</time></trkpt><trkpt lat="45.653804520621755" lon="9.91706612486497"><ele>256.79999999999995</ele><time>2026-05-03T10:07:26Z</time></trkpt><trkpt lat="45.65379272042819" lon="9.91689312987524"><ele>258.20000000000005</ele><time>2026-05-03T10:07:28Z</time></trkpt><trkpt lat="45.65378039161332" lon="9.916804748435007"><ele>259.6</ele><time>2026-05-03T10:07:29Z</time></trkpt><trkpt lat="45.65375068579894" lon="9.916634664995636"><ele>261.0</ele><time>2026-05-03T10:07:31Z</time></trkpt><trkpt lat="45.65368612047246" lon="9.916486281836912"><ele>256.25</ele><time>2026-05-03T10:07:33Z</time></trkpt><trkpt lat="45.6536095867042" lon="9.9163540336731"><ele>251.5</ele><time>2026-05-03T10:07:35Z</time></trkpt><trkpt lat="45.65352050068129" lon="9.91624653767999"><ele>246.75</ele><time>2026-05-03T10:07:37Z</time></trkpt><trkpt lat="45.6534266671781" lon="9.916143186018271"><ele>242.0</ele><time>2026-05-03T10:07:39Z</time></trkpt><trkpt lat="45.65333786784139" lon="9.916036302251076"><ele>242.0</ele><time>2026-05-03T10:07:41Z</time></trkpt><trkpt lat="45.65324780220781" lon="9.915925343409743"><ele>242.0</ele><time>2026-05-03T10:07:43Z</time></trkpt><trkpt lat="45.65316362552333" lon="9.915803510856296"><ele>242.0</ele><time>2026-05-03T10:07:45Z</time></trkpt><trkpt lat="45.65308433012805" lon="9.91567544491377"><ele>242.0</ele><time>2026-05-03T10:07:47Z</time></trkpt><trkpt lat="45.65304631372376" lon="9.91560153676832"><ele>242.0</ele><time>2026-05-03T10:07:48Z</time></trkpt><trkpt lat="45.65297918539567" lon="9.915455512005037"><ele>243.0</ele><time>2026-05-03T10:07:50Z</time></trkpt><trkpt lat="45.652935141619565" lon="9.91538092756104"><ele>244.0</ele><time>2026-05-03T10:07:51Z</time></trkpt><trkpt lat="45.65287527766316" lon="9.915237907591234"><ele>245.0</ele><time>2026-05-03T10:07:53Z</time></trkpt><trkpt lat="45.65281582092603" lon="9.915086721696463"><ele>246.0</ele><time>2026-05-03T10:07:55Z</time></trkpt><trkpt lat="45.652753067969314" lon="9.91493973065288"><ele>247.0</ele><time>2026-05-03T10:07:57Z</time></trkpt><trkpt lat="45.65269199891233" lon="9.914795491030645"><ele>247.0</ele><time>2026-05-03T10:07:59Z</time></trkpt><trkpt lat="45.652623736801054" lon="9.914648701909815"><ele>247.0</ele><time>2026-05-03T10:08:01Z</time></trkpt><trkpt lat="45.652557559383204" lon="9.914502935958687"><ele>247.0</ele><time>2026-05-03T10:08:03Z</time></trkpt><trkpt lat="45.652494920583734" lon="9.914354963584342"><ele>247.0</ele><time>2026-05-03T10:08:05Z</time></trkpt><trkpt lat="45.65243248881481" lon="9.914199088072063"><ele>248.39999999999998</ele><time>2026-05-03T10:08:07Z</time></trkpt><trkpt lat="45.65236805387367" lon="9.914039367361198"><ele>249.79999999999998</ele><time>2026-05-03T10:08:09Z</time></trkpt><trkpt lat="45.652337791524275" lon="9.913960246154334"><ele>251.2</ele><time>2026-05-03T10:08:10Z</time></trkpt><trkpt lat="45.652304452247904" lon="9.913876570443435"><ele>252.6</ele><time>2026-05-03T10:08:11Z</time></trkpt><trkpt lat="45.65224589457988" lon="9.913715395405877"><ele>254.0</ele><time>2026-05-03T10:08:13Z</time></trkpt><trkpt lat="45.65218829077342" lon="9.91356166541753"><ele>254.00000000000003</ele><time>2026-05-03T10:08:15Z</time></trkpt><trkpt lat="45.65215859055953" lon="9.913478324865098"><ele>254.0</ele><time>2026-05-03T10:08:16Z</time></trkpt><trkpt lat="45.65211462513058" lon="9.913314254194553"><ele>254.0</ele><time>2026-05-03T10:08:18Z</time></trkpt><trkpt lat="45.65207524964653" lon="9.913142816600859"><ele>254.0</ele><time>2026-05-03T10:08:20Z</time></trkpt><trkpt lat="45.65205094385252" lon="9.913058401632515"><ele>254.00000000000003</ele><time>2026-05-03T10:08:21Z</time></trkpt><trkpt lat="45.65202321778232" lon="9.912975539327503"><ele>254.0</ele><time>2026-05-03T10:08:22Z</time></trkpt><trkpt lat="45.65198474937918" lon="9.912897535099335"><ele>253.2</ele><time>2026-05-03T10:08:23Z</time></trkpt><trkpt lat="45.65193873517006" lon="9.91283470373247"><ele>252.39999999999998</ele><time>2026-05-03T10:08:24Z</time></trkpt><trkpt lat="45.65184070538875" lon="9.912715599441011"><ele>251.6</ele><time>2026-05-03T10:08:26Z</time></trkpt><trkpt lat="45.65174627080617" lon="9.912611604731444"><ele>250.8</ele><time>2026-05-03T10:08:28Z</time></trkpt><trkpt lat="45.6516542595008" lon="9.912503564226697"><ele>250.0</ele><time>2026-05-03T10:08:30Z</time></trkpt><trkpt lat="45.65160624407919" lon="9.912440567589718"><ele>250.0</ele><time>2026-05-03T10:08:31Z</time></trkpt><trkpt lat="45.651511228970335" lon="9.912323348310071"><ele>250.0</ele><time>2026-05-03T10:08:33Z</time></trkpt><trkpt lat="45.65146321052961" lon="9.912262710219666"><ele>250.0</ele><time>2026-05-03T10:08:34Z</time></trkpt><trkpt lat="45.65141794896195" lon="9.912199556271577"><ele>250.0</ele><time>2026-05-03T10:08:35Z</time></trkpt><trkpt lat="45.65136903104954" lon="9.91214129321652"><ele>250.0</ele><time>2026-05-03T10:08:36Z</time></trkpt><trkpt lat="45.65132151811616" lon="9.912081323682811"><ele>250.0</ele><time>2026-05-03T10:08:37Z</time></trkpt><trkpt lat="45.65127374538557" lon="9.912021206220013"><ele>250.0</ele><time>2026-05-03T10:08:38Z</time></trkpt><trkpt lat="45.65118051251668" lon="9.911904741076174"><ele>249.99999999999997</ele><time>2026-05-03T10:08:40Z</time></trkpt><trkpt lat="45.651132939744755" lon="9.911844718108927"><ele>250.0</ele><time>2026-05-03T10:08:41Z</time></trkpt><trkpt lat="45.65108068460103" lon="9.911793341523241"><ele>250.0</ele><time>2026-05-03T10:08:42Z</time></trkpt><trkpt lat="45.65097427531316" lon="9.911697616788949"><ele>250.0</ele><time>2026-05-03T10:08:44Z</time></trkpt><trkpt lat="45.65091575142658" lon="9.911645734768214"><ele>249.99999999999997</ele><time>2026-05-03T10:08:45Z</time></trkpt><trkpt lat="45.65086006144783" lon="9.911600998352561"><ele>250.0</ele><time>2026-05-03T10:08:46Z</time></trkpt><trkpt lat="45.650750166198215" lon="9.91151218245277"><ele>249.875</ele><time>2026-05-03T10:08:48Z</time></trkpt><trkpt lat="45.65069338776998" lon="9.911466143128454"><ele>249.75</ele><time>2026-05-03T10:08:49Z</time></trkpt><trkpt lat="45.65064046892851" lon="9.91141732593257"><ele>249.625</ele><time>2026-05-03T10:08:50Z</time></trkpt><trkpt lat="45.650586681738886" lon="9.911370101662492"><ele>249.5</ele><time>2026-05-03T10:08:51Z</time></trkpt><trkpt lat="45.65053206080638" lon="9.911324095338697"><ele>249.375</ele><time>2026-05-03T10:08:52Z</time></trkpt><trkpt lat="45.650475779822656" lon="9.911279308377125"><ele>249.25</ele><time>2026-05-03T10:08:53Z</time></trkpt><trkpt lat="45.65042106446941" lon="9.91123335362444"><ele>249.125</ele><time>2026-05-03T10:08:54Z</time></trkpt><trkpt lat="45.6503650835986" lon="9.911187494160387"><ele>249.0</ele><time>2026-05-03T10:08:55Z</time></trkpt><trkpt lat="45.650308686022704" lon="9.911142048247083"><ele>248.42857142857142</ele><time>2026-05-03T10:08:56Z</time></trkpt><trkpt lat="45.65025239416634" lon="9.911092710157128"><ele>247.85714285714283</ele><time>2026-05-03T10:08:57Z</time></trkpt><trkpt lat="45.65019801552262" lon="9.911044554058408"><ele>247.28571428571428</ele><time>2026-05-03T10:08:58Z</time></trkpt><trkpt lat="45.65014336875783" lon="9.910990575226725"><ele>246.71428571428572</ele><time>2026-05-03T10:08:59Z</time></trkpt><trkpt lat="45.650089451277786" lon="9.91093340113769"><ele>246.14285714285714</ele><time>2026-05-03T10:09:00Z</time></trkpt><trkpt lat="45.65003898236775" lon="9.91087127560345"><ele>245.57142857142856</ele><time>2026-05-03T10:09:01Z</time></trkpt><trkpt lat="45.64999276897691" lon="9.910803454761162"><ele>245.0</ele><time>2026-05-03T10:09:02Z</time></trkpt><trkpt lat="45.649946742693494" lon="9.910732365854011"><ele>245.0</ele><time>2026-05-03T10:09:03Z</time></trkpt><trkpt lat="45.64990669797393" lon="9.910654201815003"><ele>245.0</ele><time>2026-05-03T10:09:04Z</time></trkpt><trkpt lat="45.6498709733256" lon="9.910572450195144"><ele>245.0</ele><time>2026-05-03T10:09:05Z</time></trkpt><trkpt lat="45.649838069788615" lon="9.910489928620557"><ele>245.0</ele><time>2026-05-03T10:09:06Z</time></trkpt><trkpt lat="45.64981577087017" lon="9.910397814678792"><ele>245.0</ele><time>2026-05-03T10:09:07Z</time></trkpt><trkpt lat="45.64980511556035" lon="9.910299382767063"><ele>245.0</ele><time>2026-05-03T10:09:08Z</time></trkpt><trkpt lat="45.64980636539306" lon="9.910203526908957"><ele>245.0</ele><time>2026-05-03T10:09:09Z</time></trkpt><trkpt lat="45.64981317762078" lon="9.910106269208354"><ele>245.71428571428572</ele><time>2026-05-03T10:09:10Z</time></trkpt><trkpt lat="45.649824624901065" lon="9.910010208807156"><ele>246.42857142857144</ele><time>2026-05-03T10:09:11Z</time></trkpt><trkpt lat="45.649831873297394" lon="9.909916620104672"><ele>247.14285714285714</ele><time>2026-05-03T10:09:12Z</time></trkpt><trkpt lat="45.649838181719794" lon="9.909824527605679"><ele>247.85714285714286</ele><time>2026-05-03T10:09:13Z</time></trkpt><trkpt lat="45.64983518339993" lon="9.909731685962926"><ele>248.57142857142858</ele><time>2026-05-03T10:09:14Z</time></trkpt><trkpt lat="45.64982535874024" lon="9.909639500768062"><ele>249.28571428571428</ele><time>2026-05-03T10:09:15Z</time></trkpt><trkpt lat="45.6498002176717" lon="9.909549021666441"><ele>250.0</ele><time>2026-05-03T10:09:16Z</time></trkpt><trkpt lat="45.64976105318386" lon="9.909467433304128"><ele>250.0</ele><time>2026-05-03T10:09:17Z</time></trkpt><trkpt lat="45.64971944602025" lon="9.909393142498539"><ele>250.0</ele><time>2026-05-03T10:09:18Z</time></trkpt><trkpt lat="45.64967216293455" lon="9.909326230827046"><ele>250.0</ele><time>2026-05-03T10:09:19Z</time></trkpt><trkpt lat="45.64961747054648" lon="9.90926963111337"><ele>250.0</ele><time>2026-05-03T10:09:20Z</time></trkpt><trkpt lat="45.64955956641669" lon="9.909227680524552"><ele>250.0</ele><time>2026-05-03T10:09:21Z</time></trkpt><trkpt lat="45.64949732494249" lon="9.909194099665743"><ele>250.0</ele><time>2026-05-03T10:09:22Z</time></trkpt><trkpt lat="45.64943339382305" lon="9.90917127123349"><ele>250.0</ele><time>2026-05-03T10:09:23Z</time></trkpt><trkpt lat="45.64936668346365" lon="9.909160129544878"><ele>248.85714285714283</ele><time>2026-05-03T10:09:24Z</time></trkpt><trkpt lat="45.649300634182346" lon="9.909157045213023"><ele>247.71428571428572</ele><time>2026-05-03T10:09:25Z</time></trkpt><trkpt lat="45.64923433028563" lon="9.909160153159362"><ele>246.57142857142856</ele><time>2026-05-03T10:09:26Z</time></trkpt><trkpt lat="45.64916652143438" lon="9.909171248391594"><ele>245.42857142857142</ele><time>2026-05-03T10:09:27Z</time></trkpt><trkpt lat="45.64910099350883" lon="9.909190365113355"><ele>244.28571428571428</ele><time>2026-05-03T10:09:28Z</time></trkpt><trkpt lat="45.64903264196074" lon="9.909207403268882"><ele>243.14285714285714</ele><time>2026-05-03T10:09:29Z</time></trkpt><trkpt lat="45.648965435613384" lon="9.909222585225642"><ele>242.0</ele><time>2026-05-03T10:09:30Z</time></trkpt><trkpt lat="45.6488973760758" lon="9.9092369240861"><ele>241.85714285714283</ele><time>2026-05-03T10:09:31Z</time></trkpt><trkpt lat="45.648829215424236" lon="9.909255776739995"><ele>241.7142857142857</ele><time>2026-05-03T10:09:32Z</time></trkpt><trkpt lat="45.64875955594997" lon="9.909272107017644"><ele>241.57142857142856</ele><time>2026-05-03T10:09:33Z</time></trkpt><trkpt lat="45.64869133718518" lon="9.909286144216747"><ele>241.42857142857144</ele><time>2026-05-03T10:09:34Z</time></trkpt><trkpt lat="45.64862184398707" lon="9.909300920345064"><ele>241.2857142857143</ele><time>2026-05-03T10:09:35Z</time></trkpt><trkpt lat="45.64855261205351" lon="9.909316396974116"><ele>241.14285714285717</ele><time>2026-05-03T10:09:36Z</time></trkpt><trkpt lat="45.64848292935529" lon="9.909334271970598"><ele>241.0</ele><time>2026-05-03T10:09:37Z</time></trkpt><trkpt lat="45.648412457200436" lon="9.90934956322751"><ele>240.71428571428572</ele><time>2026-05-03T10:09:38Z</time></trkpt><trkpt lat="45.64834414759135" lon="9.909365706875995"><ele>240.42857142857144</ele><time>2026-05-03T10:09:39Z</time></trkpt><trkpt lat="45.64827412503384" lon="9.909380432641006"><ele>240.14285714285717</ele><time>2026-05-03T10:09:40Z</time></trkpt><trkpt lat="45.648204111831596" lon="9.909395241811495"><ele>239.8571428571429</ele><time>2026-05-03T10:09:41Z</time></trkpt><trkpt lat="45.648133652644546" lon="9.909411545004103"><ele>239.57142857142858</ele><time>2026-05-03T10:09:42Z</time></trkpt><trkpt lat="45.648064211653896" lon="9.909426317195923"><ele>239.28571428571433</ele><time>2026-05-03T10:09:43Z</time></trkpt><trkpt lat="45.64799419703181" lon="9.909441272092877"><ele>239.00000000000003</ele><time>2026-05-03T10:09:44Z</time></trkpt><trkpt lat="45.647924460015936" lon="9.909455566636352"><ele>239.00000000000003</ele><time>2026-05-03T10:09:45Z</time></trkpt><trkpt lat="45.64785353640155" lon="9.909470754031526"><ele>239.0</ele><time>2026-05-03T10:09:46Z</time></trkpt><trkpt lat="45.647784886231534" lon="9.909486885837437"><ele>239.00000000000003</ele><time>2026-05-03T10:09:47Z</time></trkpt><trkpt lat="45.64771881180964" lon="9.90950569213362"><ele>239.00000000000003</ele><time>2026-05-03T10:09:48Z</time></trkpt><trkpt lat="45.64765232715986" lon="9.909523469048288"><ele>239.0</ele><time>2026-05-03T10:09:49Z</time></trkpt><trkpt lat="45.64758758696255" lon="9.909539452167493"><ele>239.00000000000003</ele><time>2026-05-03T10:09:50Z</time></trkpt><trkpt lat="45.64752456362831" lon="9.909554629874018"><ele>239.00000000000003</ele><time>2026-05-03T10:09:51Z</time></trkpt><trkpt lat="45.64746024125373" lon="9.909568087878021"><ele>238.5714285714286</ele><time>2026-05-03T10:09:52Z</time></trkpt><trkpt lat="45.64739584755407" lon="9.909581521531631"><ele>238.14285714285717</ele><time>2026-05-03T10:09:53Z</time></trkpt><trkpt lat="45.64733062884449" lon="9.909592583578373"><ele>237.71428571428572</ele><time>2026-05-03T10:09:54Z</time></trkpt><trkpt lat="45.64726486910275" lon="9.909604155811085"><ele>237.2857142857143</ele><time>2026-05-03T10:09:55Z</time></trkpt><trkpt lat="45.64720029042576" lon="9.909619057848396"><ele>236.8571428571429</ele><time>2026-05-03T10:09:56Z</time></trkpt><trkpt lat="45.64713535378025" lon="9.90963242315684"><ele>236.42857142857142</ele><time>2026-05-03T10:09:57Z</time></trkpt><trkpt lat="45.6470696574212" lon="9.90964594799938"><ele>236.0</ele><time>2026-05-03T10:09:58Z</time></trkpt><trkpt lat="45.6470038869836" lon="9.909659225709143"><ele>236.0</ele><time>2026-05-03T10:09:59Z</time></trkpt><trkpt lat="45.64693779510493" lon="9.909671576641411"><ele>236.0</ele><time>2026-05-03T10:10:00Z</time></trkpt><trkpt lat="45.646872770259684" lon="9.909677181324202"><ele>236.0</ele><time>2026-05-03T10:10:01Z</time></trkpt><trkpt lat="45.64680788286111" lon="9.90968060944916"><ele>236.0</ele><time>2026-05-03T10:10:02Z</time></trkpt><trkpt lat="45.646742986507036" lon="9.909679631040575"><ele>236.0</ele><time>2026-05-03T10:10:03Z</time></trkpt><trkpt lat="45.64667914735448" lon="9.909673179318846"><ele>236.0</ele><time>2026-05-03T10:10:04Z</time></trkpt><trkpt lat="45.646616006340466" lon="9.909662227994708"><ele>236.0</ele><time>2026-05-03T10:10:05Z</time></trkpt><trkpt lat="45.646552426215344" lon="9.90964905420596"><ele>236.00000000000003</ele><time>2026-05-03T10:10:06Z</time></trkpt><trkpt lat="45.64648914895095" lon="9.909635521311296"><ele>236.0</ele><time>2026-05-03T10:10:07Z</time></trkpt><trkpt lat="45.646425390464714" lon="9.909617189572034"><ele>236.0</ele><time>2026-05-03T10:10:08Z</time></trkpt><trkpt lat="45.64630162609412" lon="9.909580750644507"><ele>236.0</ele><time>2026-05-03T10:10:10Z</time></trkpt><trkpt lat="45.646236653888565" lon="9.909564613583148"><ele>236.00000000000003</ele><time>2026-05-03T10:10:11Z</time></trkpt><trkpt lat="45.646171110830814" lon="9.90954582958948"><ele>236.0</ele><time>2026-05-03T10:10:12Z</time></trkpt><trkpt lat="45.646107873054945" lon="9.909523499735775"><ele>235.71428571428572</ele><time>2026-05-03T10:10:13Z</time></trkpt><trkpt lat="45.646044546314954" lon="9.909507224038416"><ele>235.42857142857144</ele><time>2026-05-03T10:10:14Z</time></trkpt><trkpt lat="45.64597974858578" lon="9.909488376323532"><ele>235.14285714285717</ele><time>2026-05-03T10:10:15Z</time></trkpt><trkpt lat="45.645916510793505" lon="9.909467001882948"><ele>234.85714285714286</ele><time>2026-05-03T10:10:16Z</time></trkpt><trkpt lat="45.645851933102236" lon="9.909447169492168"><ele>234.5714285714286</ele><time>2026-05-03T10:10:17Z</time></trkpt><trkpt lat="45.64578821177392" lon="9.909430010842506"><ele>234.2857142857143</ele><time>2026-05-03T10:10:18Z</time></trkpt><trkpt lat="45.645723059879636" lon="9.909409071802921"><ele>234.0</ele><time>2026-05-03T10:10:19Z</time></trkpt><trkpt lat="45.64565940519258" lon="9.909387041071799"><ele>234.0</ele><time>2026-05-03T10:10:20Z</time></trkpt><trkpt lat="45.645594613832145" lon="9.909368036620696"><ele>234.00000000000003</ele><time>2026-05-03T10:10:21Z</time></trkpt><trkpt lat="45.64552748343136" lon="9.909350552220527"><ele>234.0</ele><time>2026-05-03T10:10:22Z</time></trkpt><trkpt lat="45.64546095969967" lon="9.909331849955061"><ele>234.0</ele><time>2026-05-03T10:10:23Z</time></trkpt><trkpt lat="45.64539477235815" lon="9.909310619161616"><ele>234.00000000000003</ele><time>2026-05-03T10:10:24Z</time></trkpt><trkpt lat="45.6453301872337" lon="9.909292353683654"><ele>234.0</ele><time>2026-05-03T10:10:25Z</time></trkpt><trkpt lat="45.64526478099154" lon="9.909273093112827"><ele>234.0</ele><time>2026-05-03T10:10:26Z</time></trkpt><trkpt lat="45.645197206959836" lon="9.909254262986055"><ele>233.71428571428572</ele><time>2026-05-03T10:10:27Z</time></trkpt><trkpt lat="45.64513190369188" lon="9.909232986438877"><ele>233.42857142857144</ele><time>2026-05-03T10:10:28Z</time></trkpt><trkpt lat="45.64506687740347" lon="9.909210407732557"><ele>233.14285714285717</ele><time>2026-05-03T10:10:29Z</time></trkpt><trkpt lat="45.644999988630275" lon="9.909191592918523"><ele>232.8571428571429</ele><time>2026-05-03T10:10:30Z</time></trkpt><trkpt lat="45.644934983837466" lon="9.909171992604632"><ele>232.57142857142858</ele><time>2026-05-03T10:10:31Z</time></trkpt><trkpt lat="45.64486886609082" lon="9.909154763901263"><ele>232.28571428571433</ele><time>2026-05-03T10:10:32Z</time></trkpt><trkpt lat="45.64480475954445" lon="9.909136556051967"><ele>232.00000000000003</ele><time>2026-05-03T10:10:33Z</time></trkpt><trkpt lat="45.64474044535048" lon="9.909118549524432"><ele>232.00000000000003</ele><time>2026-05-03T10:10:34Z</time></trkpt><trkpt lat="45.64467685567692" lon="9.909097911977097"><ele>232.0</ele><time>2026-05-03T10:10:35Z</time></trkpt><trkpt lat="45.6446134990559" lon="9.909076007566952"><ele>232.00000000000003</ele><time>2026-05-03T10:10:36Z</time></trkpt><trkpt lat="45.644549777250106" lon="9.909056309556648"><ele>232.00000000000003</ele><time>2026-05-03T10:10:37Z</time></trkpt><trkpt lat="45.644486795932444" lon="9.909038515405983"><ele>232.0</ele><time>2026-05-03T10:10:38Z</time></trkpt><trkpt lat="45.64442435300828" lon="9.909020705367688"><ele>232.00000000000003</ele><time>2026-05-03T10:10:39Z</time></trkpt><trkpt lat="45.644360229632774" lon="9.90900288840782"><ele>232.00000000000003</ele><time>2026-05-03T10:10:40Z</time></trkpt><trkpt lat="45.64429694491651" lon="9.908983336688904"><ele>232.00000000000003</ele><time>2026-05-03T10:10:41Z</time></trkpt><trkpt lat="45.64423036071596" lon="9.908964595373956"><ele>232.0</ele><time>2026-05-03T10:10:42Z</time></trkpt><trkpt lat="45.64416553685289" lon="9.908949577969707"><ele>232.00000000000003</ele><time>2026-05-03T10:10:43Z</time></trkpt><trkpt lat="45.6441034316937" lon="9.908927819925092"><ele>232.00000000000003</ele><time>2026-05-03T10:10:44Z</time></trkpt><trkpt lat="45.64403713114819" lon="9.908908908706508"><ele>232.0</ele><time>2026-05-03T10:10:45Z</time></trkpt><trkpt lat="45.643974457037835" lon="9.908889951692935"><ele>232.00000000000003</ele><time>2026-05-03T10:10:46Z</time></trkpt><trkpt lat="45.64391167940121" lon="9.908873513960707"><ele>232.00000000000003</ele><time>2026-05-03T10:10:47Z</time></trkpt><trkpt lat="45.64384980258008" lon="9.908854644840105"><ele>232.0</ele><time>2026-05-03T10:10:48Z</time></trkpt><trkpt lat="45.643728721440766" lon="9.908814851313535"><ele>232.0</ele><time>2026-05-03T10:10:50Z</time></trkpt><trkpt lat="45.64361058639175" lon="9.908783500081672"><ele>232.0</ele><time>2026-05-03T10:10:52Z</time></trkpt><trkpt lat="45.64348850494863" lon="9.90874688254882"><ele>232.0</ele><time>2026-05-03T10:10:54Z</time></trkpt><trkpt lat="45.64342408932602" lon="9.908727083652504"><ele>232.0</ele><time>2026-05-03T10:10:55Z</time></trkpt><trkpt lat="45.64336028285106" lon="9.90870750130221"><ele>231.71428571428575</ele><time>2026-05-03T10:10:56Z</time></trkpt><trkpt lat="45.64329502941454" lon="9.908692086436506"><ele>231.42857142857144</ele><time>2026-05-03T10:10:57Z</time></trkpt><trkpt lat="45.64323049695391" lon="9.908673679043158"><ele>231.14285714285714</ele><time>2026-05-03T10:10:58Z</time></trkpt><trkpt lat="45.643165560956895" lon="9.908652461108309"><ele>230.85714285714286</ele><time>2026-05-03T10:10:59Z</time></trkpt><trkpt lat="45.64310050315552" lon="9.908634142908712"><ele>230.57142857142856</ele><time>2026-05-03T10:11:00Z</time></trkpt><trkpt lat="45.64303442989142" lon="9.908615252114298"><ele>230.28571428571425</ele><time>2026-05-03T10:11:01Z</time></trkpt><trkpt lat="45.642968231155194" lon="9.908594991032336"><ele>229.99999999999997</ele><time>2026-05-03T10:11:02Z</time></trkpt><trkpt lat="45.64290312888474" lon="9.908576837984969"><ele>229.99999999999997</ele><time>2026-05-03T10:11:03Z</time></trkpt><trkpt lat="45.64283839708944" lon="9.908555069808212"><ele>230.0</ele><time>2026-05-03T10:11:04Z</time></trkpt><trkpt lat="45.64277390561184" lon="9.90853934369651"><ele>229.99999999999997</ele><time>2026-05-03T10:11:05Z</time></trkpt><trkpt lat="45.64270728539208" lon="9.908523023193268"><ele>229.99999999999997</ele><time>2026-05-03T10:11:06Z</time></trkpt><trkpt lat="45.642642882985115" lon="9.908507336688608"><ele>230.0</ele><time>2026-05-03T10:11:07Z</time></trkpt><trkpt lat="45.642580931197145" lon="9.908477383178136"><ele>229.99999999999997</ele><time>2026-05-03T10:11:08Z</time></trkpt><trkpt lat="45.64251757510393" lon="9.908454660215396"><ele>229.99999999999997</ele><time>2026-05-03T10:11:09Z</time></trkpt><trkpt lat="45.64245616572246" lon="9.908423814539187"><ele>229.57142857142856</ele><time>2026-05-03T10:11:10Z</time></trkpt><trkpt lat="45.64239284779098" lon="9.908399078498892"><ele>229.14285714285714</ele><time>2026-05-03T10:11:11Z</time></trkpt><trkpt lat="45.642329258440554" lon="9.908372490288532"><ele>228.71428571428572</ele><time>2026-05-03T10:11:12Z</time></trkpt><trkpt lat="45.64226819628487" lon="9.908347313851932"><ele>228.28571428571428</ele><time>2026-05-03T10:11:13Z</time></trkpt><trkpt lat="45.64220409435697" lon="9.908320281610294"><ele>227.8571428571429</ele><time>2026-05-03T10:11:14Z</time></trkpt><trkpt lat="45.64214396915509" lon="9.908287445442358"><ele>227.42857142857144</ele><time>2026-05-03T10:11:15Z</time></trkpt><trkpt lat="45.64208659573512" lon="9.908248234836003"><ele>227.0</ele><time>2026-05-03T10:11:16Z</time></trkpt><trkpt lat="45.642027557266076" lon="9.908200794511595"><ele>227.0</ele><time>2026-05-03T10:11:17Z</time></trkpt><trkpt lat="45.6419713576742" lon="9.908154203989682"><ele>227.00000000000003</ele><time>2026-05-03T10:11:18Z</time></trkpt><trkpt lat="45.64190645395018" lon="9.90812584957083"><ele>227.0</ele><time>2026-05-03T10:11:19Z</time></trkpt><trkpt lat="45.641839757202085" lon="9.908112764349866"><ele>227.0</ele><time>2026-05-03T10:11:20Z</time></trkpt><trkpt lat="45.64177317105813" lon="9.908107677152714"><ele>227.00000000000003</ele><time>2026-05-03T10:11:21Z</time></trkpt><trkpt lat="45.641707035312166" lon="9.908083313300223"><ele>227.0</ele><time>2026-05-03T10:11:22Z</time></trkpt><trkpt lat="45.6416439420395" lon="9.908033019504499"><ele>227.0</ele><time>2026-05-03T10:11:23Z</time></trkpt><trkpt lat="45.64160448877926" lon="9.907942247484376"><ele>227.0</ele><time>2026-05-03T10:11:24Z</time></trkpt><trkpt lat="45.641581086523686" lon="9.907837457519816"><ele>227.00000000000003</ele><time>2026-05-03T10:11:25Z</time></trkpt><trkpt lat="45.64156587107724" lon="9.907741999175872"><ele>227.0</ele><time>2026-05-03T10:11:26Z</time></trkpt><trkpt lat="45.6415381121047" lon="9.907647742314383"><ele>227.0</ele><time>2026-05-03T10:11:27Z</time></trkpt><trkpt lat="45.64151648267325" lon="9.90755372172179"><ele>227.00000000000003</ele><time>2026-05-03T10:11:28Z</time></trkpt><trkpt lat="45.6414958337815" lon="9.907465163288725"><ele>227.0</ele><time>2026-05-03T10:11:29Z</time></trkpt><trkpt lat="45.641476127245454" lon="9.907375192477446"><ele>227.0</ele><time>2026-05-03T10:11:30Z</time></trkpt><trkpt lat="45.64145185450233" lon="9.90728888023175"><ele>227.0</ele><time>2026-05-03T10:11:31Z</time></trkpt><trkpt lat="45.64143084488577" lon="9.907198152640953"><ele>227.00000000000003</ele><time>2026-05-03T10:11:32Z</time></trkpt><trkpt lat="45.641407917000734" lon="9.907110434239126"><ele>227.0</ele><time>2026-05-03T10:11:33Z</time></trkpt><trkpt lat="45.64138788454981" lon="9.907023353558362"><ele>227.0</ele><time>2026-05-03T10:11:34Z</time></trkpt><trkpt lat="45.64136641668988" lon="9.906937628355703"><ele>227.00000000000003</ele><time>2026-05-03T10:11:35Z</time></trkpt><trkpt lat="45.641346665626294" lon="9.90684848093526"><ele>227.0</ele><time>2026-05-03T10:11:36Z</time></trkpt><trkpt lat="45.641326873861814" lon="9.906760090901622"><ele>227.0</ele><time>2026-05-03T10:11:37Z</time></trkpt><trkpt lat="45.641308884929074" lon="9.90667309294105"><ele>227.16666666666669</ele><time>2026-05-03T10:11:38Z</time></trkpt><trkpt lat="45.641268558908976" lon="9.906503971895683"><ele>227.33333333333334</ele><time>2026-05-03T10:11:40Z</time></trkpt><trkpt lat="45.641249749488914" lon="9.906414664832612"><ele>227.5</ele><time>2026-05-03T10:11:41Z</time></trkpt><trkpt lat="45.64123214041753" lon="9.906327490319393"><ele>227.66666666666669</ele><time>2026-05-03T10:11:42Z</time></trkpt><trkpt lat="45.64121250671457" lon="9.906237944472009"><ele>227.83333333333334</ele><time>2026-05-03T10:11:43Z</time></trkpt><trkpt lat="45.64119195598406" lon="9.906150524876091"><ele>228.0</ele><time>2026-05-03T10:11:44Z</time></trkpt><trkpt lat="45.64115774465766" lon="9.905971087838875"><ele>228.0</ele><time>2026-05-03T10:11:46Z</time></trkpt><trkpt lat="45.64112048453661" lon="9.905798124272804"><ele>228.0</ele><time>2026-05-03T10:11:48Z</time></trkpt><trkpt lat="45.641087863816395" lon="9.905624336206824"><ele>228.0</ele><time>2026-05-03T10:11:50Z</time></trkpt><trkpt lat="45.641071859104265" lon="9.905536675122024"><ele>228.0</ele><time>2026-05-03T10:11:51Z</time></trkpt><trkpt lat="45.64104947377963" lon="9.905448381344415"><ele>228.0</ele><time>2026-05-03T10:11:52Z</time></trkpt><trkpt lat="45.64101366060783" lon="9.905276123096856"><ele>228.0</ele><time>2026-05-03T10:11:54Z</time></trkpt><trkpt lat="45.6409932179437" lon="9.905108119664153"><ele>228.0</ele><time>2026-05-03T10:11:56Z</time></trkpt><trkpt lat="45.64099428377287" lon="9.904938600902286"><ele>228.0</ele><time>2026-05-03T10:11:58Z</time></trkpt><trkpt lat="45.640951248394664" lon="9.9047792547902"><ele>228.0</ele><time>2026-05-03T10:12:00Z</time></trkpt><trkpt lat="45.64092635470179" lon="9.904694287132758"><ele>228.0</ele><time>2026-05-03T10:12:01Z</time></trkpt><trkpt lat="45.64089766546065" lon="9.904611434750601"><ele>228.0</ele><time>2026-05-03T10:12:02Z</time></trkpt><trkpt lat="45.64086600576671" lon="9.904532426425847"><ele>228.0</ele><time>2026-05-03T10:12:03Z</time></trkpt><trkpt lat="45.640802821098205" lon="9.904386760177058"><ele>228.0</ele><time>2026-05-03T10:12:05Z</time></trkpt><trkpt lat="45.64078615556102" lon="9.904213639798318"><ele>228.0</ele><time>2026-05-03T10:12:07Z</time></trkpt><trkpt lat="45.64077047359867" lon="9.904125221012947"><ele>228.0</ele><time>2026-05-03T10:12:08Z</time></trkpt><trkpt lat="45.64072634882511" lon="9.903960124255198"><ele>228.0</ele><time>2026-05-03T10:12:10Z</time></trkpt><trkpt lat="45.64070540547898" lon="9.903874711510973"><ele>228.0</ele><time>2026-05-03T10:12:11Z</time></trkpt><trkpt lat="45.640687402656056" lon="9.903699193846137"><ele>228.0</ele><time>2026-05-03T10:12:13Z</time></trkpt><trkpt lat="45.640675739300306" lon="9.903609300648037"><ele>228.0</ele><time>2026-05-03T10:12:14Z</time></trkpt><trkpt lat="45.64064567278558" lon="9.903528292800363"><ele>228.0</ele><time>2026-05-03T10:12:15Z</time></trkpt><trkpt lat="45.64060270262962" lon="9.903452021806263"><ele>228.0</ele><time>2026-05-03T10:12:16Z</time></trkpt><trkpt lat="45.640593749966825" lon="9.903281815331082"><ele>228.0</ele><time>2026-05-03T10:12:18Z</time></trkpt><trkpt lat="45.64057767208867" lon="9.90319145804054"><ele>228.0</ele><time>2026-05-03T10:12:19Z</time></trkpt><trkpt lat="45.64054802271525" lon="9.903025006559517"><ele>228.0</ele><time>2026-05-03T10:12:21Z</time></trkpt><trkpt lat="45.640511071045125" lon="9.90287468732928"><ele>228.0</ele><time>2026-05-03T10:12:23Z</time></trkpt><trkpt lat="45.64047372650816" lon="9.902727564448385"><ele>228.0</ele><time>2026-05-03T10:12:25Z</time></trkpt><trkpt lat="45.64044920097177" lon="9.902583758348369"><ele>228.2</ele><time>2026-05-03T10:12:27Z</time></trkpt><trkpt lat="45.64042587397138" lon="9.902450263492701"><ele>228.4</ele><time>2026-05-03T10:12:29Z</time></trkpt><trkpt lat="45.64039964487654" lon="9.902293153977988"><ele>228.59999999999997</ele><time>2026-05-03T10:12:31Z</time></trkpt><trkpt lat="45.640375358244185" lon="9.902145036479908"><ele>228.79999999999998</ele><time>2026-05-03T10:12:33Z</time></trkpt><trkpt lat="45.6403524369874" lon="9.901999828945744"><ele>229.0</ele><time>2026-05-03T10:12:35Z</time></trkpt><trkpt lat="45.6403325899112" lon="9.901865339649966"><ele>228.75</ele><time>2026-05-03T10:12:37Z</time></trkpt><trkpt lat="45.64030057967483" lon="9.901714306162127"><ele>228.5</ele><time>2026-05-03T10:12:39Z</time></trkpt><trkpt lat="45.64027651608611" lon="9.901540703204175"><ele>228.25</ele><time>2026-05-03T10:12:41Z</time></trkpt><trkpt lat="45.64025490518715" lon="9.901371041056612"><ele>228.0</ele><time>2026-05-03T10:12:43Z</time></trkpt><trkpt lat="45.64022496753554" lon="9.90121108005359"><ele>228.0</ele><time>2026-05-03T10:12:45Z</time></trkpt><trkpt lat="45.64019901080597" lon="9.901060105439765"><ele>228.0</ele><time>2026-05-03T10:12:47Z</time></trkpt><trkpt lat="45.64017205508084" lon="9.900900529062007"><ele>228.0</ele><time>2026-05-03T10:12:49Z</time></trkpt><trkpt lat="45.640156185620135" lon="9.900812152502478"><ele>228.0</ele><time>2026-05-03T10:12:50Z</time></trkpt><trkpt lat="45.640125535689386" lon="9.9006325462329"><ele>228.0</ele><time>2026-05-03T10:12:52Z</time></trkpt><trkpt lat="45.64011016337676" lon="9.900541834018686"><ele>227.75</ele><time>2026-05-03T10:12:53Z</time></trkpt><trkpt lat="45.640077872596386" lon="9.900366129131363"><ele>227.5</ele><time>2026-05-03T10:12:55Z</time></trkpt><trkpt lat="45.64004518746977" lon="9.900185483850567"><ele>227.25</ele><time>2026-05-03T10:12:57Z</time></trkpt><trkpt lat="45.64001972587862" lon="9.900010009474286"><ele>227.0</ele><time>2026-05-03T10:12:59Z</time></trkpt><trkpt lat="45.63999815714001" lon="9.899830794578902"><ele>227.0</ele><time>2026-05-03T10:13:01Z</time></trkpt><trkpt lat="45.63998240070423" lon="9.899741771527609"><ele>227.00000000000003</ele><time>2026-05-03T10:13:02Z</time></trkpt><trkpt lat="45.6399716826792" lon="9.899650911778373"><ele>227.0</ele><time>2026-05-03T10:13:03Z</time></trkpt><trkpt lat="45.63995480182816" lon="9.899562987006059"><ele>227.0</ele><time>2026-05-03T10:13:04Z</time></trkpt><trkpt lat="45.63992840691622" lon="9.899385130864577"><ele>227.00000000000003</ele><time>2026-05-03T10:13:06Z</time></trkpt><trkpt lat="45.63991209712217" lon="9.899296554566643"><ele>227.0</ele><time>2026-05-03T10:13:07Z</time></trkpt><trkpt lat="45.63989683244338" lon="9.899208357305351"><ele>227.0</ele><time>2026-05-03T10:13:08Z</time></trkpt><trkpt lat="45.63986460960189" lon="9.899034394606836"><ele>227.0</ele><time>2026-05-03T10:13:10Z</time></trkpt><trkpt lat="45.63983073674747" lon="9.898861805277665"><ele>227.0</ele><time>2026-05-03T10:13:12Z</time></trkpt><trkpt lat="45.63981635845334" lon="9.898771102275385"><ele>227.0</ele><time>2026-05-03T10:13:13Z</time></trkpt><trkpt lat="45.639798172813606" lon="9.898684780339604"><ele>227.0</ele><time>2026-05-03T10:13:14Z</time></trkpt><trkpt lat="45.63976831420414" lon="9.898508339336622"><ele>227.0</ele><time>2026-05-03T10:13:16Z</time></trkpt><trkpt lat="45.63974097959155" lon="9.898331262314109"><ele>226.6</ele><time>2026-05-03T10:13:18Z</time></trkpt><trkpt lat="45.639711265045705" lon="9.898166239279956"><ele>226.2</ele><time>2026-05-03T10:13:20Z</time></trkpt><trkpt lat="45.63968999278073" lon="9.898064151996227"><ele>225.8</ele><time>2026-05-03T10:13:21Z</time></trkpt><trkpt lat="45.63966594261507" lon="9.897895453849126"><ele>225.4</ele><time>2026-05-03T10:13:23Z</time></trkpt><trkpt lat="45.63965091776072" lon="9.8978017069443"><ele>225.0</ele><time>2026-05-03T10:13:24Z</time></trkpt><trkpt lat="45.639624187764724" lon="9.897626369070764"><ele>224.8</ele><time>2026-05-03T10:13:26Z</time></trkpt><trkpt lat="45.63960943637762" lon="9.89753593494696"><ele>224.6</ele><time>2026-05-03T10:13:27Z</time></trkpt><trkpt lat="45.639584344999236" lon="9.897355971745517"><ele>224.39999999999998</ele><time>2026-05-03T10:13:29Z</time></trkpt><trkpt lat="45.6395539853869" lon="9.89718616119749"><ele>224.2</ele><time>2026-05-03T10:13:31Z</time></trkpt><trkpt lat="45.63952473451452" lon="9.897035036347349"><ele>224.0</ele><time>2026-05-03T10:13:33Z</time></trkpt><trkpt lat="45.63950293336194" lon="9.896889985131732"><ele>223.79999999999998</ele><time>2026-05-03T10:13:35Z</time></trkpt><trkpt lat="45.63944742127914" lon="9.896781270005846"><ele>223.59999999999997</ele><time>2026-05-03T10:13:37Z</time></trkpt><trkpt lat="45.639526916357866" lon="9.896612381130959"><ele>223.4</ele><time>2026-05-03T10:13:38Z</time></trkpt><trkpt lat="45.63947948487025" lon="9.896442763251255"><ele>223.2</ele><time>2026-05-03T10:13:40Z</time></trkpt><trkpt lat="45.63943263780072" lon="9.89636980022057"><ele>223.0</ele><time>2026-05-03T10:13:41Z</time></trkpt><trkpt lat="45.63939058632812" lon="9.896295362110518"><ele>222.99999999999997</ele><time>2026-05-03T10:13:42Z</time></trkpt><trkpt lat="45.639364154391885" lon="9.896208555120479"><ele>223.0</ele><time>2026-05-03T10:13:43Z</time></trkpt><trkpt lat="45.639332510977226" lon="9.896033535782582"><ele>223.0</ele><time>2026-05-03T10:13:45Z</time></trkpt><trkpt lat="45.6393176557833" lon="9.895942019834779"><ele>223.0</ele><time>2026-05-03T10:13:46Z</time></trkpt><trkpt lat="45.63930473095459" lon="9.895849514320506"><ele>222.99999999999997</ele><time>2026-05-03T10:13:47Z</time></trkpt><trkpt lat="45.63929275569531" lon="9.89575843184338"><ele>223.0</ele><time>2026-05-03T10:13:48Z</time></trkpt><trkpt lat="45.639275308150474" lon="9.895671215104198"><ele>223.14285714285714</ele><time>2026-05-03T10:13:49Z</time></trkpt><trkpt lat="45.63926303297335" lon="9.895580558839322"><ele>223.28571428571428</ele><time>2026-05-03T10:13:50Z</time></trkpt><trkpt lat="45.63925426466132" lon="9.895487208821203"><ele>223.42857142857144</ele><time>2026-05-03T10:13:51Z</time></trkpt><trkpt lat="45.63924439759142" lon="9.895397579788845"><ele>223.57142857142856</ele><time>2026-05-03T10:13:52Z</time></trkpt><trkpt lat="45.63922975659452" lon="9.8953067597252"><ele>223.71428571428572</ele><time>2026-05-03T10:13:53Z</time></trkpt><trkpt lat="45.63921820167387" lon="9.89521447875095"><ele>223.85714285714286</ele><time>2026-05-03T10:13:54Z</time></trkpt><trkpt lat="45.639203900624096" lon="9.895124030944164"><ele>224.0</ele><time>2026-05-03T10:13:55Z</time></trkpt><trkpt lat="45.639188766933316" lon="9.895036079930474"><ele>223.71428571428572</ele><time>2026-05-03T10:13:56Z</time></trkpt><trkpt lat="45.63917652581495" lon="9.894947751489566"><ele>223.42857142857144</ele><time>2026-05-03T10:13:57Z</time></trkpt><trkpt lat="45.63916206500454" lon="9.894854227090278"><ele>223.14285714285714</ele><time>2026-05-03T10:13:58Z</time></trkpt><trkpt lat="45.63914665134936" lon="9.894761760874998"><ele>222.85714285714286</ele><time>2026-05-03T10:13:59Z</time></trkpt><trkpt lat="45.63913233564326" lon="9.89467404547172"><ele>222.57142857142858</ele><time>2026-05-03T10:14:00Z</time></trkpt><trkpt lat="45.63911631836618" lon="9.894578790360482"><ele>222.28571428571428</ele><time>2026-05-03T10:14:01Z</time></trkpt><trkpt lat="45.63910248878171" lon="9.894490857550197"><ele>222.0</ele><time>2026-05-03T10:14:02Z</time></trkpt><trkpt lat="45.63909047982257" lon="9.894396842133123"><ele>222.0</ele><time>2026-05-03T10:14:03Z</time></trkpt><trkpt lat="45.63907693188137" lon="9.894305467474993"><ele>222.0</ele><time>2026-05-03T10:14:04Z</time></trkpt><trkpt lat="45.63904972493017" lon="9.894124015121967"><ele>222.0</ele><time>2026-05-03T10:14:06Z</time></trkpt><trkpt lat="45.63903478794696" lon="9.894033925121057"><ele>222.0</ele><time>2026-05-03T10:14:07Z</time></trkpt><trkpt lat="45.63902195005909" lon="9.893945220065879"><ele>222.0</ele><time>2026-05-03T10:14:08Z</time></trkpt><trkpt lat="45.63899043199935" lon="9.893771270046367"><ele>222.0</ele><time>2026-05-03T10:14:10Z</time></trkpt><trkpt lat="45.63896469525333" lon="9.893602103491233"><ele>221.8</ele><time>2026-05-03T10:14:12Z</time></trkpt><trkpt lat="45.638939855735515" lon="9.893432729957421"><ele>221.6</ele><time>2026-05-03T10:14:14Z</time></trkpt><trkpt lat="45.638910879045994" lon="9.893258939477816"><ele>221.40000000000003</ele><time>2026-05-03T10:14:16Z</time></trkpt><trkpt lat="45.63889461369625" lon="9.893170779996819"><ele>221.20000000000002</ele><time>2026-05-03T10:14:17Z</time></trkpt><trkpt lat="45.63886319799963" lon="9.892996398168144"><ele>221.0</ele><time>2026-05-03T10:14:19Z</time></trkpt><trkpt lat="45.63883848782014" lon="9.892821087814761"><ele>221.14285714285717</ele><time>2026-05-03T10:14:21Z</time></trkpt><trkpt lat="45.638827182253685" lon="9.892731525075462"><ele>221.28571428571428</ele><time>2026-05-03T10:14:22Z</time></trkpt><trkpt lat="45.63881104132818" lon="9.892643192132182"><ele>221.42857142857144</ele><time>2026-05-03T10:14:23Z</time></trkpt><trkpt lat="45.63879426865736" lon="9.892555650377002"><ele>221.57142857142858</ele><time>2026-05-03T10:14:24Z</time></trkpt><trkpt lat="45.638781059387156" lon="9.89246548477946"><ele>221.71428571428572</ele><time>2026-05-03T10:14:25Z</time></trkpt><trkpt lat="45.63876506693591" lon="9.892377748761294"><ele>221.85714285714286</ele><time>2026-05-03T10:14:26Z</time></trkpt><trkpt lat="45.63875073000041" lon="9.892289745347854"><ele>222.0</ele><time>2026-05-03T10:14:27Z</time></trkpt><trkpt lat="45.63872800123061" lon="9.892119453380767"><ele>222.0</ele><time>2026-05-03T10:14:29Z</time></trkpt><trkpt lat="45.63870246325282" lon="9.891943610246875"><ele>222.0</ele><time>2026-05-03T10:14:31Z</time></trkpt><trkpt lat="45.63868791185954" lon="9.891855538881432"><ele>222.0</ele><time>2026-05-03T10:14:32Z</time></trkpt><trkpt lat="45.63867289527092" lon="9.891766791649134"><ele>222.0</ele><time>2026-05-03T10:14:33Z</time></trkpt><trkpt lat="45.63866086407091" lon="9.891675608731612"><ele>222.0</ele><time>2026-05-03T10:14:34Z</time></trkpt><trkpt lat="45.638643619519996" lon="9.891585038010918"><ele>222.0</ele><time>2026-05-03T10:14:35Z</time></trkpt><trkpt lat="45.63863440506842" lon="9.891491304973185"><ele>222.0</ele><time>2026-05-03T10:14:36Z</time></trkpt><trkpt lat="45.6386204943459" lon="9.8914003748405"><ele>221.7142857142857</ele><time>2026-05-03T10:14:37Z</time></trkpt><trkpt lat="45.6386069803152" lon="9.891309548512995"><ele>221.42857142857144</ele><time>2026-05-03T10:14:38Z</time></trkpt><trkpt lat="45.63859122173152" lon="9.891217937787404"><ele>221.14285714285714</ele><time>2026-05-03T10:14:39Z</time></trkpt><trkpt lat="45.63857934761418" lon="9.891124974369331"><ele>220.85714285714283</ele><time>2026-05-03T10:14:40Z</time></trkpt><trkpt lat="45.63856445301747" lon="9.891032000623811"><ele>220.57142857142856</ele><time>2026-05-03T10:14:41Z</time></trkpt><trkpt lat="45.638550471118116" lon="9.890938750347845"><ele>220.28571428571428</ele><time>2026-05-03T10:14:42Z</time></trkpt><trkpt lat="45.63853941120857" lon="9.890850008240037"><ele>220.0</ele><time>2026-05-03T10:14:43Z</time></trkpt><trkpt lat="45.6385245102023" lon="9.890758906567399"><ele>219.8</ele><time>2026-05-03T10:14:44Z</time></trkpt><trkpt lat="45.638499778308535" lon="9.890578635966529"><ele>219.6</ele><time>2026-05-03T10:14:46Z</time></trkpt><trkpt lat="45.638487749976456" lon="9.89048985892489"><ele>219.39999999999998</ele><time>2026-05-03T10:14:47Z</time></trkpt><trkpt lat="45.63846562131884" lon="9.8903137185861"><ele>219.2</ele><time>2026-05-03T10:14:49Z</time></trkpt><trkpt lat="45.638441645281524" lon="9.8901460871768"><ele>219.0</ele><time>2026-05-03T10:14:51Z</time></trkpt><trkpt lat="45.6384169155373" lon="9.889984893073901"><ele>218.79999999999998</ele><time>2026-05-03T10:14:53Z</time></trkpt><trkpt lat="45.638395882430494" lon="9.88983043782199"><ele>218.59999999999997</ele><time>2026-05-03T10:14:55Z</time></trkpt><trkpt lat="45.63838151244651" lon="9.88967476951385"><ele>218.4</ele><time>2026-05-03T10:14:57Z</time></trkpt><trkpt lat="45.6383576066223" lon="9.88952863348544"><ele>218.2</ele><time>2026-05-03T10:14:59Z</time></trkpt><trkpt lat="45.638352450936054" lon="9.889385129463061"><ele>218.0</ele><time>2026-05-03T10:15:01Z</time></trkpt><trkpt lat="45.63838962001631" lon="9.889225637831018"><ele>217.8</ele><time>2026-05-03T10:15:03Z</time></trkpt><trkpt lat="45.63838576592823" lon="9.889124570979087"><ele>217.60000000000002</ele><time>2026-05-03T10:15:04Z</time></trkpt><trkpt lat="45.63837626968921" lon="9.88903079327273"><ele>217.39999999999998</ele><time>2026-05-03T10:15:05Z</time></trkpt><trkpt lat="45.638305985599985" lon="9.888889320935018"><ele>217.2</ele><time>2026-05-03T10:15:07Z</time></trkpt><trkpt lat="45.6382401800694" lon="9.888756964414624"><ele>217.0</ele><time>2026-05-03T10:15:09Z</time></trkpt><trkpt lat="45.63820998523522" lon="9.888593082901867"><ele>217.0</ele><time>2026-05-03T10:15:11Z</time></trkpt><trkpt lat="45.63819948931897" lon="9.888503709936549"><ele>217.0</ele><time>2026-05-03T10:15:12Z</time></trkpt><trkpt lat="45.63818511204639" lon="9.888410703346654"><ele>217.0</ele><time>2026-05-03T10:15:13Z</time></trkpt><trkpt lat="45.638172574866616" lon="9.888318924781402"><ele>217.0</ele><time>2026-05-03T10:15:14Z</time></trkpt><trkpt lat="45.638160048903195" lon="9.888226553147305"><ele>217.0</ele><time>2026-05-03T10:15:15Z</time></trkpt><trkpt lat="45.63814725407751" lon="9.888138124921822"><ele>217.0</ele><time>2026-05-03T10:15:16Z</time></trkpt><trkpt lat="45.638133112490856" lon="9.888049284403023"><ele>217.0</ele><time>2026-05-03T10:15:17Z</time></trkpt><trkpt lat="45.63810775030533" lon="9.887879715425605"><ele>216.99999999999997</ele><time>2026-05-03T10:15:19Z</time></trkpt><trkpt lat="45.638080561833625" lon="9.887704039809739"><ele>217.0</ele><time>2026-05-03T10:15:21Z</time></trkpt><trkpt lat="45.638066815942445" lon="9.887611231470439"><ele>217.0</ele><time>2026-05-03T10:15:22Z</time></trkpt><trkpt lat="45.63805235583412" lon="9.887521003282277"><ele>217.0</ele><time>2026-05-03T10:15:23Z</time></trkpt><trkpt lat="45.63804230643616" lon="9.887428970928834"><ele>216.99999999999997</ele><time>2026-05-03T10:15:24Z</time></trkpt><trkpt lat="45.63802870710446" lon="9.887338882469644"><ele>217.0</ele><time>2026-05-03T10:15:25Z</time></trkpt><trkpt lat="45.63801505646803" lon="9.887247575159659"><ele>216.99999999999997</ele><time>2026-05-03T10:15:26Z</time></trkpt><trkpt lat="45.63800180192832" lon="9.88715648166349"><ele>217.0</ele><time>2026-05-03T10:15:27Z</time></trkpt><trkpt lat="45.637991168824364" lon="9.88706550498859"><ele>217.0</ele><time>2026-05-03T10:15:28Z</time></trkpt><trkpt lat="45.637981823554874" lon="9.886974313490812"><ele>217.0</ele><time>2026-05-03T10:15:29Z</time></trkpt><trkpt lat="45.63795698550486" lon="9.886805199663522"><ele>216.99999999999997</ele><time>2026-05-03T10:15:31Z</time></trkpt><trkpt lat="45.63793335836762" lon="9.886648657177052"><ele>217.0</ele><time>2026-05-03T10:15:33Z</time></trkpt><trkpt lat="45.637911839762836" lon="9.886500704969777"><ele>216.99999999999997</ele><time>2026-05-03T10:15:35Z</time></trkpt><trkpt lat="45.637892466418165" lon="9.886337781209193"><ele>217.0</ele><time>2026-05-03T10:15:37Z</time></trkpt><trkpt lat="45.63787118822973" lon="9.886164762232301"><ele>217.0</ele><time>2026-05-03T10:15:39Z</time></trkpt><trkpt lat="45.637875256236754" lon="9.886074896381487"><ele>217.0</ele><time>2026-05-03T10:15:40Z</time></trkpt><trkpt lat="45.637894887561366" lon="9.885988341770794"><ele>216.99999999999997</ele><time>2026-05-03T10:15:41Z</time></trkpt><trkpt lat="45.63793395277065" lon="9.88590817883772"><ele>217.0</ele><time>2026-05-03T10:15:42Z</time></trkpt><trkpt lat="45.63795611883053" lon="9.885823480428774"><ele>216.71428571428572</ele><time>2026-05-03T10:15:43Z</time></trkpt><trkpt lat="45.63796526764063" lon="9.885729342724229"><ele>216.42857142857144</ele><time>2026-05-03T10:15:44Z</time></trkpt><trkpt lat="45.63796517320157" lon="9.885634591146447"><ele>216.14285714285714</ele><time>2026-05-03T10:15:45Z</time></trkpt><trkpt lat="45.637956943226904" lon="9.885541766933208"><ele>215.85714285714286</ele><time>2026-05-03T10:15:46Z</time></trkpt><trkpt lat="45.637938602035874" lon="9.885452097372337"><ele>215.57142857142858</ele><time>2026-05-03T10:15:47Z</time></trkpt><trkpt lat="45.637906123982134" lon="9.885369154649604"><ele>215.28571428571428</ele><time>2026-05-03T10:15:48Z</time></trkpt><trkpt lat="45.63786500728842" lon="9.885295300129496"><ele>215.0</ele><time>2026-05-03T10:15:49Z</time></trkpt><trkpt lat="45.63782021406549" lon="9.885229571132982"><ele>214.83333333333334</ele><time>2026-05-03T10:15:50Z</time></trkpt><trkpt lat="45.637730364029714" lon="9.885107238169487"><ele>214.66666666666669</ele><time>2026-05-03T10:15:52Z</time></trkpt><trkpt lat="45.63769986169094" lon="9.88502589809678"><ele>214.5</ele><time>2026-05-03T10:15:53Z</time></trkpt><trkpt lat="45.63768543543251" lon="9.884932446947955"><ele>214.33333333333331</ele><time>2026-05-03T10:15:54Z</time></trkpt><trkpt lat="45.637676382795796" lon="9.884835908337777"><ele>214.16666666666666</ele><time>2026-05-03T10:15:55Z</time></trkpt><trkpt lat="45.637668761649614" lon="9.88474286402569"><ele>214.0</ele><time>2026-05-03T10:15:56Z</time></trkpt><trkpt lat="45.6376586603893" lon="9.884647059047422"><ele>214.00000000000003</ele><time>2026-05-03T10:15:57Z</time></trkpt><trkpt lat="45.637646572935566" lon="9.884553418397587"><ele>214.0</ele><time>2026-05-03T10:15:58Z</time></trkpt><trkpt lat="45.63763340276034" lon="9.884458810999316"><ele>214.0</ele><time>2026-05-03T10:15:59Z</time></trkpt><trkpt lat="45.63761867306367" lon="9.88436867132146"><ele>214.0</ele><time>2026-05-03T10:16:00Z</time></trkpt><trkpt lat="45.637602954837696" lon="9.88428002884282"><ele>214.0</ele><time>2026-05-03T10:16:01Z</time></trkpt><trkpt lat="45.6375805107158" lon="9.884107106823263"><ele>214.00000000000003</ele><time>2026-05-03T10:16:03Z</time></trkpt><trkpt lat="45.637572617785146" lon="9.88401770177373"><ele>214.0</ele><time>2026-05-03T10:16:04Z</time></trkpt><trkpt lat="45.63754980846226" lon="9.883840592169214"><ele>213.79999999999998</ele><time>2026-05-03T10:16:06Z</time></trkpt><trkpt lat="45.63753232596476" lon="9.883753187474452"><ele>213.59999999999997</ele><time>2026-05-03T10:16:07Z</time></trkpt><trkpt lat="45.63751560901136" lon="9.88358670028839"><ele>213.4</ele><time>2026-05-03T10:16:09Z</time></trkpt><trkpt lat="45.63749353622181" lon="9.883430523277063"><ele>213.2</ele><time>2026-05-03T10:16:11Z</time></trkpt><trkpt lat="45.63747189177528" lon="9.883285515765909"><ele>213.0</ele><time>2026-05-03T10:16:13Z</time></trkpt><trkpt lat="45.63745532655737" lon="9.883144970913246"><ele>213.0</ele><time>2026-05-03T10:16:15Z</time></trkpt><trkpt lat="45.63743844174167" lon="9.883012602929293"><ele>213.0</ele><time>2026-05-03T10:16:17Z</time></trkpt><trkpt lat="45.63741745857426" lon="9.882863060577066"><ele>213.0</ele><time>2026-05-03T10:16:19Z</time></trkpt><trkpt lat="45.63738704858611" lon="9.88269195491639"><ele>213.0</ele><time>2026-05-03T10:16:21Z</time></trkpt><trkpt lat="45.63736002401327" lon="9.88251629925332"><ele>213.0</ele><time>2026-05-03T10:16:23Z</time></trkpt><trkpt lat="45.63734582203807" lon="9.88242769736755"><ele>213.0</ele><time>2026-05-03T10:16:24Z</time></trkpt><trkpt lat="45.637332621059514" lon="9.882338498797592"><ele>213.0</ele><time>2026-05-03T10:16:25Z</time></trkpt><trkpt lat="45.63731850388354" lon="9.882250479879044"><ele>213.0</ele><time>2026-05-03T10:16:26Z</time></trkpt><trkpt lat="45.63729360133644" lon="9.88207633631727"><ele>213.0</ele><time>2026-05-03T10:16:28Z</time></trkpt><trkpt lat="45.637281931229325" lon="9.881985739315741"><ele>213.0</ele><time>2026-05-03T10:16:29Z</time></trkpt><trkpt lat="45.63726171660497" lon="9.88180855841284"><ele>212.99999999999997</ele><time>2026-05-03T10:16:31Z</time></trkpt><trkpt lat="45.63724959112909" lon="9.881719918331799"><ele>213.0</ele><time>2026-05-03T10:16:32Z</time></trkpt><trkpt lat="45.637236914270254" lon="9.881630702118164"><ele>213.0</ele><time>2026-05-03T10:16:33Z</time></trkpt><trkpt lat="45.63722139273225" lon="9.881542699883058"><ele>213.0</ele><time>2026-05-03T10:16:34Z</time></trkpt><trkpt lat="45.6372100713507" lon="9.881454090841013"><ele>213.0</ele><time>2026-05-03T10:16:35Z</time></trkpt><trkpt lat="45.63720170853576" lon="9.881363280592625"><ele>212.99999999999997</ele><time>2026-05-03T10:16:36Z</time></trkpt><trkpt lat="45.637192236430856" lon="9.88127045688116"><ele>213.0</ele><time>2026-05-03T10:16:37Z</time></trkpt><trkpt lat="45.63716726576977" lon="9.881090509434646"><ele>213.0</ele><time>2026-05-03T10:16:39Z</time></trkpt><trkpt lat="45.63715131470159" lon="9.881001430256164"><ele>213.0</ele><time>2026-05-03T10:16:40Z</time></trkpt><trkpt lat="45.637139667301824" lon="9.880910883512547"><ele>213.0</ele><time>2026-05-03T10:16:41Z</time></trkpt><trkpt lat="45.63711511316951" lon="9.880730807634619"><ele>213.0</ele><time>2026-05-03T10:16:43Z</time></trkpt><trkpt lat="45.63710318326082" lon="9.880638856938681"><ele>213.0</ele><time>2026-05-03T10:16:44Z</time></trkpt><trkpt lat="45.637090612842044" lon="9.880550080525396"><ele>213.0</ele><time>2026-05-03T10:16:45Z</time></trkpt><trkpt lat="45.637063356308474" lon="9.880382843713416"><ele>213.0</ele><time>2026-05-03T10:16:47Z</time></trkpt><trkpt lat="45.637047844022064" lon="9.880220152462295"><ele>213.0</ele><time>2026-05-03T10:16:49Z</time></trkpt><trkpt lat="45.63705349192512" lon="9.880067597826631"><ele>213.0</ele><time>2026-05-03T10:16:51Z</time></trkpt><trkpt lat="45.63703426888539" lon="9.879902688218644"><ele>213.0</ele><time>2026-05-03T10:16:53Z</time></trkpt><trkpt lat="45.63697990778464" lon="9.879744687196816"><ele>212.83333333333334</ele><time>2026-05-03T10:16:55Z</time></trkpt><trkpt lat="45.63695352314039" lon="9.879660597786017"><ele>212.66666666666669</ele><time>2026-05-03T10:16:56Z</time></trkpt><trkpt lat="45.636913919918676" lon="9.879490112642697"><ele>212.5</ele><time>2026-05-03T10:16:58Z</time></trkpt><trkpt lat="45.63690044936502" lon="9.879402126669895"><ele>212.33333333333334</ele><time>2026-05-03T10:16:59Z</time></trkpt><trkpt lat="45.636882612472704" lon="9.879226092084151"><ele>212.16666666666669</ele><time>2026-05-03T10:17:01Z</time></trkpt><trkpt lat="45.636869698027866" lon="9.879134562423687"><ele>212.0</ele><time>2026-05-03T10:17:02Z</time></trkpt><trkpt lat="45.63685663943286" lon="9.879045821614149"><ele>212.0</ele><time>2026-05-03T10:17:03Z</time></trkpt><trkpt lat="45.636825039000286" lon="9.878873866069453"><ele>212.0</ele><time>2026-05-03T10:17:05Z</time></trkpt><trkpt lat="45.636829484555605" lon="9.878718346368954"><ele>212.0</ele><time>2026-05-03T10:17:07Z</time></trkpt><trkpt lat="45.6369531363937" lon="9.878674191352175"><ele>212.0</ele><time>2026-05-03T10:17:09Z</time></trkpt><trkpt lat="45.63702292157699" lon="9.878698366911147"><ele>212.0</ele><time>2026-05-03T10:17:10Z</time></trkpt><trkpt lat="45.63714726286966" lon="9.878711998683393"><ele>212.39999999999998</ele><time>2026-05-03T10:17:12Z</time></trkpt><trkpt lat="45.63721131814357" lon="9.878713392982927"><ele>212.79999999999998</ele><time>2026-05-03T10:17:13Z</time></trkpt><trkpt lat="45.63733694527004" lon="9.878712938115692"><ele>213.2</ele><time>2026-05-03T10:17:15Z</time></trkpt><trkpt lat="45.63746081121029" lon="9.87871937505008"><ele>213.6</ele><time>2026-05-03T10:17:17Z</time></trkpt><trkpt lat="45.63752415363846" lon="9.878719186713226"><ele>214.0</ele><time>2026-05-03T10:17:18Z</time></trkpt><trkpt lat="45.63764674941668" lon="9.878727285512737"><ele>214.0</ele><time>2026-05-03T10:17:20Z</time></trkpt><trkpt lat="45.63776939080085" lon="9.878733376861673"><ele>214.0</ele><time>2026-05-03T10:17:22Z</time></trkpt><trkpt lat="45.637893180120415" lon="9.878735703782525"><ele>214.0</ele><time>2026-05-03T10:17:24Z</time></trkpt><trkpt lat="45.63801793228552" lon="9.87873550130934"><ele>214.0</ele><time>2026-05-03T10:17:26Z</time></trkpt><trkpt lat="45.63814976753023" lon="9.878738851468063"><ele>213.85714285714286</ele><time>2026-05-03T10:17:28Z</time></trkpt><trkpt lat="45.63827097034118" lon="9.878731714235581"><ele>213.71428571428572</ele><time>2026-05-03T10:17:30Z</time></trkpt><trkpt lat="45.6383350733243" lon="9.87872951747067"><ele>213.57142857142856</ele><time>2026-05-03T10:17:31Z</time></trkpt><trkpt lat="45.63839924515136" lon="9.878739384897406"><ele>213.42857142857144</ele><time>2026-05-03T10:17:32Z</time></trkpt><trkpt lat="45.63846288476842" lon="9.878742203825402"><ele>213.28571428571428</ele><time>2026-05-03T10:17:33Z</time></trkpt><trkpt lat="45.638526679063624" lon="9.878745918684714"><ele>213.14285714285714</ele><time>2026-05-03T10:17:34Z</time></trkpt><trkpt lat="45.63859137071012" lon="9.878752560961056"><ele>213.0</ele><time>2026-05-03T10:17:35Z</time></trkpt><trkpt lat="45.63865540274242" lon="9.878760075079288"><ele>213.0</ele><time>2026-05-03T10:17:36Z</time></trkpt><trkpt lat="45.63877539219662" lon="9.87876105703402"><ele>213.0</ele><time>2026-05-03T10:17:38Z</time></trkpt><trkpt lat="45.63889498849815" lon="9.878760026120924"><ele>213.0</ele><time>2026-05-03T10:17:40Z</time></trkpt><trkpt lat="45.63900663448537" lon="9.878754602892572"><ele>213.0</ele><time>2026-05-03T10:17:42Z</time></trkpt><trkpt lat="45.639107803428985" lon="9.878730423527774"><ele>213.0</ele><time>2026-05-03T10:17:44Z</time></trkpt><trkpt lat="45.63922110494782" lon="9.878694747603866"><ele>213.0</ele><time>2026-05-03T10:17:46Z</time></trkpt><trkpt lat="45.63934791378872" lon="9.878680665365119"><ele>213.0</ele><time>2026-05-03T10:17:48Z</time></trkpt><trkpt lat="45.63941126522567" lon="9.878679325641478"><ele>213.0</ele><time>2026-05-03T10:17:49Z</time></trkpt><trkpt lat="45.639474804873345" lon="9.878677525429413"><ele>213.0</ele><time>2026-05-03T10:17:50Z</time></trkpt><trkpt lat="45.639539055287095" lon="9.878677354544376"><ele>213.0</ele><time>2026-05-03T10:17:51Z</time></trkpt><trkpt lat="45.63960201674406" lon="9.878675772478443"><ele>213.4</ele><time>2026-05-03T10:17:52Z</time></trkpt><trkpt lat="45.63972122974787" lon="9.87867898794774"><ele>213.8</ele><time>2026-05-03T10:17:54Z</time></trkpt><trkpt lat="45.63983339901578" lon="9.878681907553597"><ele>214.2</ele><time>2026-05-03T10:17:56Z</time></trkpt><trkpt lat="45.63994252813032" lon="9.878679256620257"><ele>214.6</ele><time>2026-05-03T10:17:58Z</time></trkpt><trkpt lat="45.64004772035467" lon="9.878659317843459"><ele>215.0</ele><time>2026-05-03T10:18:00Z</time></trkpt><trkpt lat="45.64010655293072" lon="9.878542968919097"><ele>215.0</ele><time>2026-05-03T10:18:02Z</time></trkpt><trkpt lat="45.640118399404884" lon="9.878447092995032"><ele>215.0</ele><time>2026-05-03T10:18:03Z</time></trkpt><trkpt lat="45.64012220893097" lon="9.878352277903867"><ele>215.0</ele><time>2026-05-03T10:18:04Z</time></trkpt><trkpt lat="45.64012523324504" lon="9.878257528660024"><ele>215.0</ele><time>2026-05-03T10:18:05Z</time></trkpt><trkpt lat="45.640128561479756" lon="9.878165062389721"><ele>215.0</ele><time>2026-05-03T10:18:06Z</time></trkpt><trkpt lat="45.64013375775442" lon="9.878073884266731"><ele>215.0</ele><time>2026-05-03T10:18:07Z</time></trkpt><trkpt lat="45.64014149789115" lon="9.877982066654798"><ele>215.0</ele><time>2026-05-03T10:18:08Z</time></trkpt><trkpt lat="45.640149228743645" lon="9.877889454012129"><ele>214.85714285714286</ele><time>2026-05-03T10:18:09Z</time></trkpt><trkpt lat="45.64015541770533" lon="9.877794701708213"><ele>214.71428571428572</ele><time>2026-05-03T10:18:10Z</time></trkpt><trkpt lat="45.64016282493323" lon="9.8777038388805"><ele>214.57142857142858</ele><time>2026-05-03T10:18:11Z</time></trkpt><trkpt lat="45.640171014773955" lon="9.87761243020692"><ele>214.42857142857144</ele><time>2026-05-03T10:18:12Z</time></trkpt><trkpt lat="45.64018127359424" lon="9.87752155766634"><ele>214.28571428571428</ele><time>2026-05-03T10:18:13Z</time></trkpt><trkpt lat="45.64019069023761" lon="9.877429104960273"><ele>214.14285714285717</ele><time>2026-05-03T10:18:14Z</time></trkpt><trkpt lat="45.640202216286056" lon="9.877334735424279"><ele>214.0</ele><time>2026-05-03T10:18:15Z</time></trkpt><trkpt lat="45.6402142026151" lon="9.877241193623755"><ele>213.99999999999997</ele><time>2026-05-03T10:18:16Z</time></trkpt><trkpt lat="45.640226779965204" lon="9.877151761215348"><ele>214.0</ele><time>2026-05-03T10:18:17Z</time></trkpt><trkpt lat="45.64024934619808" lon="9.87697697318586"><ele>214.0</ele><time>2026-05-03T10:18:19Z</time></trkpt><trkpt lat="45.64026194101627" lon="9.876887508984622"><ele>214.0</ele><time>2026-05-03T10:18:20Z</time></trkpt><trkpt lat="45.64029282463416" lon="9.87671225006744"><ele>213.99999999999997</ele><time>2026-05-03T10:18:22Z</time></trkpt><trkpt lat="45.640306879963816" lon="9.876624428469443"><ele>214.0</ele><time>2026-05-03T10:18:23Z</time></trkpt><trkpt lat="45.640329270464655" lon="9.876449543841314"><ele>214.00000000000003</ele><time>2026-05-03T10:18:25Z</time></trkpt><trkpt lat="45.64034476006238" lon="9.876358192396419"><ele>214.0</ele><time>2026-05-03T10:18:26Z</time></trkpt><trkpt lat="45.64037586803658" lon="9.87618169245975"><ele>214.0</ele><time>2026-05-03T10:18:28Z</time></trkpt><trkpt lat="45.640388579721375" lon="9.876092895430077"><ele>214.0</ele><time>2026-05-03T10:18:29Z</time></trkpt><trkpt lat="45.64039994238982" lon="9.876000701622713"><ele>214.0</ele><time>2026-05-03T10:18:30Z</time></trkpt><trkpt lat="45.64041201912715" lon="9.875911351780132"><ele>214.00000000000003</ele><time>2026-05-03T10:18:31Z</time></trkpt><trkpt lat="45.64042401764298" lon="9.875822300909336"><ele>214.0</ele><time>2026-05-03T10:18:32Z</time></trkpt><trkpt lat="45.64045029872348" lon="9.875652863370751"><ele>214.0</ele><time>2026-05-03T10:18:34Z</time></trkpt><trkpt lat="45.64047697254702" lon="9.875495461042737"><ele>213.99999999999997</ele><time>2026-05-03T10:18:36Z</time></trkpt><trkpt lat="45.640502437603196" lon="9.875336344878768"><ele>213.99999999999997</ele><time>2026-05-03T10:18:38Z</time></trkpt><trkpt lat="45.64052679352935" lon="9.87520070607407"><ele>214.0</ele><time>2026-05-03T10:18:40Z</time></trkpt><trkpt lat="45.64050673414165" lon="9.875102306119272"><ele>214.0</ele><time>2026-05-03T10:18:43Z</time></trkpt><trkpt lat="45.640425605035105" lon="9.875048489725728"><ele>214.0</ele><time>2026-05-03T10:18:45Z</time></trkpt><trkpt lat="45.64030458555297" lon="9.874996887597735"><ele>213.99999999999997</ele><time>2026-05-03T10:18:47Z</time></trkpt><trkpt lat="45.640241465066445" lon="9.874983169057021"><ele>213.99999999999997</ele><time>2026-05-03T10:18:48Z</time></trkpt><trkpt lat="45.64012409268109" lon="9.874944230007934"><ele>214.0</ele><time>2026-05-03T10:18:50Z</time></trkpt><trkpt lat="45.640012082268804" lon="9.874900554612008"><ele>214.0</ele><time>2026-05-03T10:18:52Z</time></trkpt><trkpt lat="45.639900452167" lon="9.874862686923008"><ele>214.0</ele><time>2026-05-03T10:18:54Z</time></trkpt><trkpt lat="45.63978986949411" lon="9.874819617604752"><ele>213.99999999999997</ele><time>2026-05-03T10:18:56Z</time></trkpt><trkpt lat="45.63967788376861" lon="9.874783154472789"><ele>213.99999999999997</ele><time>2026-05-03T10:18:58Z</time></trkpt><trkpt lat="45.63956026512108" lon="9.874724596901522"><ele>214.0</ele><time>2026-05-03T10:19:00Z</time></trkpt><trkpt lat="45.63950285943987" lon="9.874681036652577"><ele>214.0</ele><time>2026-05-03T10:19:01Z</time></trkpt><trkpt lat="45.63944792605494" lon="9.87463233986275"><ele>213.83333333333331</ele><time>2026-05-03T10:19:02Z</time></trkpt><trkpt lat="45.639394919754594" lon="9.874578747363985"><ele>213.66666666666666</ele><time>2026-05-03T10:19:03Z</time></trkpt><trkpt lat="45.63934648556941" lon="9.874515464863707"><ele>213.5</ele><time>2026-05-03T10:19:04Z</time></trkpt><trkpt lat="45.63929759880215" lon="9.87445222934801"><ele>213.33333333333331</ele><time>2026-05-03T10:19:05Z</time></trkpt><trkpt lat="45.63925648253685" lon="9.874380433694629"><ele>213.16666666666666</ele><time>2026-05-03T10:19:06Z</time></trkpt><trkpt lat="45.639183942150126" lon="9.874228158140673"><ele>213.0</ele><time>2026-05-03T10:19:08Z</time></trkpt><trkpt lat="45.63914805665449" lon="9.874149770502797"><ele>212.99999999999997</ele><time>2026-05-03T10:19:09Z</time></trkpt><trkpt lat="45.63911440273349" lon="9.874071281978415"><ele>213.0</ele><time>2026-05-03T10:19:10Z</time></trkpt><trkpt lat="45.639081353045555" lon="9.873993018792254"><ele>213.0</ele><time>2026-05-03T10:19:11Z</time></trkpt><trkpt lat="45.63904903216841" lon="9.87391232174837"><ele>213.0</ele><time>2026-05-03T10:19:12Z</time></trkpt><trkpt lat="45.639015040155" lon="9.873833172282628"><ele>213.0</ele><time>2026-05-03T10:19:13Z</time></trkpt><trkpt lat="45.63898361076701" lon="9.873752138584459"><ele>212.99999999999997</ele><time>2026-05-03T10:19:14Z</time></trkpt><trkpt lat="45.638954079351564" lon="9.873671135650127"><ele>213.0</ele><time>2026-05-03T10:19:15Z</time></trkpt><trkpt lat="45.63892779243357" lon="9.873588740753501"><ele>212.60000000000002</ele><time>2026-05-03T10:19:16Z</time></trkpt><trkpt lat="45.638881550472576" lon="9.87343523273825"><ele>212.20000000000002</ele><time>2026-05-03T10:19:18Z</time></trkpt><trkpt lat="45.63885252964014" lon="9.873349690310976"><ele>211.8</ele><time>2026-05-03T10:19:19Z</time></trkpt><trkpt lat="45.638809443687094" lon="9.873209632636343"><ele>211.4</ele><time>2026-05-03T10:19:21Z</time></trkpt><trkpt lat="45.638765598161356" lon="9.873072120222748"><ele>211.0</ele><time>2026-05-03T10:19:23Z</time></trkpt><trkpt lat="45.6387228567995" lon="9.872945554825979"><ele>211.0</ele><time>2026-05-03T10:19:25Z</time></trkpt><trkpt lat="45.6386734543553" lon="9.872829602393798"><ele>211.0</ele><time>2026-05-03T10:19:27Z</time></trkpt><trkpt lat="45.63862791692059" lon="9.872688155879347"><ele>211.0</ele><time>2026-05-03T10:19:29Z</time></trkpt><trkpt lat="45.63862615827381" lon="9.872567335682275"><ele>211.0</ele><time>2026-05-03T10:19:31Z</time></trkpt><trkpt lat="45.63864800455289" lon="9.872416953633895"><ele>211.0</ele><time>2026-05-03T10:19:33Z</time></trkpt><trkpt lat="45.638680199750866" lon="9.872253115803517"><ele>210.75</ele><time>2026-05-03T10:19:35Z</time></trkpt><trkpt lat="45.638699826394145" lon="9.872090525180575"><ele>210.5</ele><time>2026-05-03T10:19:37Z</time></trkpt><trkpt lat="45.63872507237015" lon="9.871931063788221"><ele>210.25</ele><time>2026-05-03T10:19:39Z</time></trkpt><trkpt lat="45.63873979067473" lon="9.871766415640757"><ele>210.0</ele><time>2026-05-03T10:19:41Z</time></trkpt><trkpt lat="45.63873031157935" lon="9.871603893703046"><ele>210.4</ele><time>2026-05-03T10:19:43Z</time></trkpt><trkpt lat="45.63869453014083" lon="9.871446425206583"><ele>210.8</ele><time>2026-05-03T10:19:45Z</time></trkpt><trkpt lat="45.63866951239484" lon="9.871291674896518"><ele>211.2</ele><time>2026-05-03T10:19:47Z</time></trkpt><trkpt lat="45.63865005253555" lon="9.871133326644998"><ele>211.6</ele><time>2026-05-03T10:19:49Z</time></trkpt><trkpt lat="45.63863967025899" lon="9.870981579038643"><ele>212.0</ele><time>2026-05-03T10:19:51Z</time></trkpt><trkpt lat="45.638636921246714" lon="9.870825048019388"><ele>213.2</ele><time>2026-05-03T10:19:53Z</time></trkpt><trkpt lat="45.63863494510623" lon="9.870664421532355"><ele>214.39999999999998</ele><time>2026-05-03T10:19:55Z</time></trkpt><trkpt lat="45.63863517160804" lon="9.87050672125318"><ele>215.60000000000002</ele><time>2026-05-03T10:19:57Z</time></trkpt><trkpt lat="45.638637621060354" lon="9.870351355947781"><ele>216.8</ele><time>2026-05-03T10:19:59Z</time></trkpt><trkpt lat="45.638635174210854" lon="9.87019240908779"><ele>218.0</ele><time>2026-05-03T10:20:01Z</time></trkpt><trkpt lat="45.6386365812957" lon="9.870040147739633"><ele>218.83333333333334</ele><time>2026-05-03T10:20:03Z</time></trkpt><trkpt lat="45.6386330850277" lon="9.869891513819363"><ele>219.66666666666669</ele><time>2026-05-03T10:20:05Z</time></trkpt><trkpt lat="45.63863455252069" lon="9.869751245538282"><ele>220.5</ele><time>2026-05-03T10:20:07Z</time></trkpt><trkpt lat="45.63863378513775" lon="9.869617601514648"><ele>221.33333333333331</ele><time>2026-05-03T10:20:09Z</time></trkpt><trkpt lat="45.63864549949422" lon="9.86951641992265"><ele>222.16666666666666</ele><time>2026-05-03T10:20:12Z</time></trkpt><trkpt lat="45.63857793180655" lon="9.869459003317198"><ele>223.0</ele><time>2026-05-03T10:20:16Z</time></trkpt><trkpt lat="45.638469837725516" lon="9.869483880565909"><ele>223.5</ele><time>2026-05-03T10:20:18Z</time></trkpt><trkpt lat="45.638355464760686" lon="9.869518854922973"><ele>224.0</ele><time>2026-05-03T10:20:20Z</time></trkpt><trkpt lat="45.63824379038401" lon="9.869551158562324"><ele>224.5</ele><time>2026-05-03T10:20:22Z</time></trkpt><trkpt lat="45.63812896699143" lon="9.869589252221743"><ele>225.0</ele><time>2026-05-03T10:20:24Z</time></trkpt><trkpt lat="45.638013067436134" lon="9.869626682984558"><ele>225.0</ele><time>2026-05-03T10:20:26Z</time></trkpt><trkpt lat="45.63789986823988" lon="9.869656294219528"><ele>225.0</ele><time>2026-05-03T10:20:28Z</time></trkpt><trkpt lat="45.63779071015676" lon="9.869680153461696"><ele>225.0</ele><time>2026-05-03T10:20:30Z</time></trkpt><trkpt lat="45.63767971057468" lon="9.869688650395286"><ele>225.0</ele><time>2026-05-03T10:20:32Z</time></trkpt><trkpt lat="45.63761612778782" lon="9.869678897756641"><ele>225.0</ele><time>2026-05-03T10:20:33Z</time></trkpt><trkpt lat="45.63754177873829" lon="9.869672733377227"><ele>225.16666666666666</ele><time>2026-05-03T10:20:34Z</time></trkpt><trkpt lat="45.63746234906401" lon="9.869662922499012"><ele>225.33333333333331</ele><time>2026-05-03T10:20:35Z</time></trkpt><trkpt lat="45.637374352358314" lon="9.86965140124112"><ele>225.5</ele><time>2026-05-03T10:20:36Z</time></trkpt><trkpt lat="45.63728789967836" lon="9.869640529790805"><ele>225.66666666666666</ele><time>2026-05-03T10:20:37Z</time></trkpt><trkpt lat="45.6372054466617" lon="9.869628886687098"><ele>225.83333333333331</ele><time>2026-05-03T10:20:38Z</time></trkpt><trkpt lat="45.63712313360936" lon="9.869621779687472"><ele>226.0</ele><time>2026-05-03T10:20:39Z</time></trkpt><trkpt lat="45.637047407672604" lon="9.869617956171034"><ele>224.4</ele><time>2026-05-03T10:20:40Z</time></trkpt><trkpt lat="45.636952980175636" lon="9.869611215713018"><ele>222.8</ele><time>2026-05-03T10:20:42Z</time></trkpt><trkpt lat="45.63691881838871" lon="9.869512482498019"><ele>221.20000000000002</ele><time>2026-05-03T10:20:46Z</time></trkpt><trkpt lat="45.636850877908714" lon="9.869597942968177"><ele>219.60000000000002</ele><time>2026-05-03T10:20:54Z</time></trkpt><trkpt lat="45.636744922922816" lon="9.86956179620769"><ele>218.0</ele><time>2026-05-03T10:20:56Z</time></trkpt><trkpt lat="45.6366492801459" lon="9.869468823361112"><ele>218.0</ele><time>2026-05-03T10:20:58Z</time></trkpt><trkpt lat="45.63654889706051" lon="9.869391889788957"><ele>218.0</ele><time>2026-05-03T10:21:00Z</time></trkpt><trkpt lat="45.636462449057255" lon="9.86931814052607"><ele>218.0</ele><time>2026-05-03T10:21:02Z</time></trkpt><trkpt lat="45.63635761551235" lon="9.86924504858944"><ele>218.0</ele><time>2026-05-03T10:21:04Z</time></trkpt><trkpt lat="45.636286879445116" lon="9.869136152401495"><ele>218.0</ele><time>2026-05-03T10:21:06Z</time></trkpt><trkpt lat="45.636260250592926" lon="9.868980978826654"><ele>217.66666666666669</ele><time>2026-05-03T10:21:08Z</time></trkpt><trkpt lat="45.63622425617179" lon="9.868808045590669"><ele>217.33333333333334</ele><time>2026-05-03T10:21:10Z</time></trkpt><trkpt lat="45.63624739025456" lon="9.86871879576"><ele>217.0</ele><time>2026-05-03T10:21:11Z</time></trkpt><trkpt lat="45.63627601589213" lon="9.868635443716133"><ele>216.66666666666669</ele><time>2026-05-03T10:21:12Z</time></trkpt><trkpt lat="45.636303560598606" lon="9.868471124619584"><ele>216.33333333333334</ele><time>2026-05-03T10:21:14Z</time></trkpt><trkpt lat="45.63631644108894" lon="9.868382451827253"><ele>216.0</ele><time>2026-05-03T10:21:15Z</time></trkpt><trkpt lat="45.63633387990276" lon="9.868292896509626"><ele>215.57142857142856</ele><time>2026-05-03T10:21:16Z</time></trkpt><trkpt lat="45.63635094955593" lon="9.868205235176404"><ele>215.14285714285714</ele><time>2026-05-03T10:21:17Z</time></trkpt><trkpt lat="45.63637004977491" lon="9.868116300355432"><ele>214.71428571428572</ele><time>2026-05-03T10:21:18Z</time></trkpt><trkpt lat="45.63638933995754" lon="9.868027971692628"><ele>214.28571428571428</ele><time>2026-05-03T10:21:19Z</time></trkpt><trkpt lat="45.63640613007323" lon="9.867939793208723"><ele>213.85714285714286</ele><time>2026-05-03T10:21:20Z</time></trkpt><trkpt lat="45.63642155239491" lon="9.867852252975423"><ele>213.42857142857142</ele><time>2026-05-03T10:21:21Z</time></trkpt><trkpt lat="45.636457400311166" lon="9.867680877887691"><ele>213.0</ele><time>2026-05-03T10:21:23Z</time></trkpt><trkpt lat="45.63650940726736" lon="9.867520670460342"><ele>212.0</ele><time>2026-05-03T10:21:25Z</time></trkpt><trkpt lat="45.636573835398195" lon="9.8673688859105"><ele>211.0</ele><time>2026-05-03T10:21:27Z</time></trkpt><trkpt lat="45.63664833824963" lon="9.867224789920302"><ele>210.0</ele><time>2026-05-03T10:21:29Z</time></trkpt><trkpt lat="45.63672728772207" lon="9.867088209942294"><ele>209.0</ele><time>2026-05-03T10:21:31Z</time></trkpt><trkpt lat="45.636807374034035" lon="9.866950093939046"><ele>209.0</ele><time>2026-05-03T10:21:33Z</time></trkpt><trkpt lat="45.63689873566644" lon="9.866833354640532"><ele>209.0</ele><time>2026-05-03T10:21:35Z</time></trkpt><trkpt lat="45.636989881002954" lon="9.866712617783403"><ele>209.0</ele><time>2026-05-03T10:21:37Z</time></trkpt><trkpt lat="45.63708638940331" lon="9.866608174086256"><ele>209.0</ele><time>2026-05-03T10:21:39Z</time></trkpt><trkpt lat="45.637185289263904" lon="9.866507840858114"><ele>209.5</ele><time>2026-05-03T10:21:41Z</time></trkpt><trkpt lat="45.63728124168516" lon="9.866410416095984"><ele>210.0</ele><time>2026-05-03T10:21:43Z</time></trkpt><trkpt lat="45.63737848648525" lon="9.866312513096199"><ele>210.5</ele><time>2026-05-03T10:21:45Z</time></trkpt><trkpt lat="45.63747356452939" lon="9.866210353763437"><ele>211.0</ele><time>2026-05-03T10:21:47Z</time></trkpt><trkpt lat="45.63756336060652" lon="9.866101603750481"><ele>211.0</ele><time>2026-05-03T10:21:49Z</time></trkpt><trkpt lat="45.63763047193427" lon="9.865962413002618"><ele>211.0</ele><time>2026-05-03T10:21:51Z</time></trkpt><trkpt lat="45.63769224073006" lon="9.86581559980207"><ele>211.0</ele><time>2026-05-03T10:21:53Z</time></trkpt><trkpt lat="45.637760124955335" lon="9.865675013536283"><ele>211.0</ele><time>2026-05-03T10:21:55Z</time></trkpt><trkpt lat="45.63783796724702" lon="9.86554329487873"><ele>211.20000000000002</ele><time>2026-05-03T10:21:57Z</time></trkpt><trkpt lat="45.63792402124036" lon="9.865419563100506"><ele>211.4</ele><time>2026-05-03T10:21:59Z</time></trkpt><trkpt lat="45.63801854261392" lon="9.865307335381253"><ele>211.6</ele><time>2026-05-03T10:22:01Z</time></trkpt><trkpt lat="45.63811726034251" lon="9.865201376707612"><ele>211.8</ele><time>2026-05-03T10:22:03Z</time></trkpt><trkpt lat="45.63817033002646" lon="9.865150852125542"><ele>212.0</ele><time>2026-05-03T10:22:04Z</time></trkpt><trkpt lat="45.63822766373896" lon="9.865101301116248"><ele>212.0</ele><time>2026-05-03T10:22:05Z</time></trkpt><trkpt lat="45.63833002307498" lon="9.865003685796333"><ele>212.0</ele><time>2026-05-03T10:22:07Z</time></trkpt><trkpt lat="45.6384274621386" lon="9.864901005797284"><ele>212.0</ele><time>2026-05-03T10:22:09Z</time></trkpt><trkpt lat="45.63851141149274" lon="9.864785898762937"><ele>212.0</ele><time>2026-05-03T10:22:11Z</time></trkpt><trkpt lat="45.6385860523542" lon="9.864670553222103"><ele>212.8</ele><time>2026-05-03T10:22:13Z</time></trkpt><trkpt lat="45.63866121674386" lon="9.864562739621196"><ele>213.6</ele><time>2026-05-03T10:22:15Z</time></trkpt><trkpt lat="45.638730512825205" lon="9.864430854377595"><ele>214.40000000000003</ele><time>2026-05-03T10:22:17Z</time></trkpt><trkpt lat="45.63879514435506" lon="9.86430672348528"><ele>215.20000000000002</ele><time>2026-05-03T10:22:19Z</time></trkpt><trkpt lat="45.6388577593213" lon="9.86419196076239"><ele>216.0</ele><time>2026-05-03T10:22:21Z</time></trkpt><trkpt lat="45.638916536850516" lon="9.86408699449606"><ele>216.0</ele><time>2026-05-03T10:22:23Z</time></trkpt><trkpt lat="45.638972761142725" lon="9.863985634427832"><ele>216.00000000000003</ele><time>2026-05-03T10:22:25Z</time></trkpt><trkpt lat="45.63901597804477" lon="9.863871071025738"><ele>216.00000000000003</ele><time>2026-05-03T10:22:27Z</time></trkpt><trkpt lat="45.639058890876335" lon="9.863760229850959"><ele>216.0</ele><time>2026-05-03T10:22:29Z</time></trkpt><trkpt lat="45.63910606900862" lon="9.863651032349145"><ele>216.0</ele><time>2026-05-03T10:22:31Z</time></trkpt><trkpt lat="45.63915910950765" lon="9.863543422115216"><ele>215.0</ele><time>2026-05-03T10:22:33Z</time></trkpt><trkpt lat="45.63920597523091" lon="9.863427870027548"><ele>214.00000000000003</ele><time>2026-05-03T10:22:35Z</time></trkpt><trkpt lat="45.639263905532445" lon="9.863312095236637"><ele>213.0</ele><time>2026-05-03T10:22:37Z</time></trkpt><trkpt lat="45.63933321158424" lon="9.863201007033883"><ele>212.0</ele><time>2026-05-03T10:22:39Z</time></trkpt><trkpt lat="45.63942066214812" lon="9.86311172301415"><ele>211.0</ele><time>2026-05-03T10:22:41Z</time></trkpt><trkpt lat="45.6395139032707" lon="9.863029774997953"><ele>213.5</ele><time>2026-05-03T10:22:43Z</time></trkpt><trkpt lat="45.63961331584453" lon="9.862954441638541"><ele>216.0</ele><time>2026-05-03T10:22:45Z</time></trkpt><trkpt lat="45.63972170402543" lon="9.862885748411882"><ele>218.5</ele><time>2026-05-03T10:22:47Z</time></trkpt><trkpt lat="45.63983180628776" lon="9.86282285127703"><ele>221.0</ele><time>2026-05-03T10:22:49Z</time></trkpt><trkpt lat="45.63994280773718" lon="9.862774211157506"><ele>221.0</ele><time>2026-05-03T10:22:51Z</time></trkpt><trkpt lat="45.64005575197996" lon="9.862737944441225"><ele>221.0</ele><time>2026-05-03T10:22:53Z</time></trkpt><trkpt lat="45.64016282083098" lon="9.862692171491275"><ele>221.0</ele><time>2026-05-03T10:22:55Z</time></trkpt><trkpt lat="45.640268744990784" lon="9.862656758600826"><ele>221.0</ele><time>2026-05-03T10:22:57Z</time></trkpt><trkpt lat="45.640382928556875" lon="9.862627994477778"><ele>219.4</ele><time>2026-05-03T10:22:59Z</time></trkpt><trkpt lat="45.640485486479974" lon="9.862582066862803"><ele>217.8</ele><time>2026-05-03T10:23:01Z</time></trkpt><trkpt lat="45.64058341412356" lon="9.862545727049042"><ele>216.20000000000002</ele><time>2026-05-03T10:23:03Z</time></trkpt><trkpt lat="45.6406756047127" lon="9.862511228073792"><ele>214.60000000000002</ele><time>2026-05-03T10:23:05Z</time></trkpt><trkpt lat="45.640761240136285" lon="9.862480532058758"><ele>213.0</ele><time>2026-05-03T10:23:07Z</time></trkpt><trkpt lat="45.640842508850554" lon="9.862454606819757"><ele>213.0</ele><time>2026-05-03T10:23:09Z</time></trkpt><trkpt lat="45.640921088769076" lon="9.862426708623168"><ele>213.0</ele><time>2026-05-03T10:23:11Z</time></trkpt><trkpt lat="45.641014941108494" lon="9.862397144344808"><ele>213.0</ele><time>2026-05-03T10:23:13Z</time></trkpt><trkpt lat="45.64112873726658" lon="9.86235291385284"><ele>213.0</ele><time>2026-05-03T10:23:15Z</time></trkpt><trkpt lat="45.64123903691228" lon="9.862330042021261"><ele>213.0</ele><time>2026-05-03T10:23:17Z</time></trkpt><trkpt lat="45.64134998628457" lon="9.862300156273816"><ele>213.5</ele><time>2026-05-03T10:23:19Z</time></trkpt><trkpt lat="45.641465336399214" lon="9.862271670399716"><ele>214.0</ele><time>2026-05-03T10:23:21Z</time></trkpt><trkpt lat="45.641582383798145" lon="9.862247684593425"><ele>214.5</ele><time>2026-05-03T10:23:23Z</time></trkpt><trkpt lat="45.64169314532086" lon="9.862219547273218"><ele>215.0</ele><time>2026-05-03T10:23:25Z</time></trkpt><trkpt lat="45.64180823369131" lon="9.862192620127262"><ele>215.0</ele><time>2026-05-03T10:23:27Z</time></trkpt><trkpt lat="45.6419277442462" lon="9.862170153306325"><ele>215.0</ele><time>2026-05-03T10:23:29Z</time></trkpt><trkpt lat="45.64204184554432" lon="9.862148954299617"><ele>215.0</ele><time>2026-05-03T10:23:31Z</time></trkpt><trkpt lat="45.642156928330294" lon="9.862120189205873"><ele>215.0</ele><time>2026-05-03T10:23:33Z</time></trkpt><trkpt lat="45.64227029888795" lon="9.86208855044644"><ele>216.4</ele><time>2026-05-03T10:23:35Z</time></trkpt><trkpt lat="45.64238336116705" lon="9.86205903999632"><ele>217.8</ele><time>2026-05-03T10:23:37Z</time></trkpt><trkpt lat="45.642479523903226" lon="9.862015226631254"><ele>219.2</ele><time>2026-05-03T10:23:39Z</time></trkpt><trkpt lat="45.642576530441126" lon="9.861961460372951"><ele>220.6</ele><time>2026-05-03T10:23:41Z</time></trkpt><trkpt lat="45.64266663064561" lon="9.861888704515184"><ele>222.0</ele><time>2026-05-03T10:23:43Z</time></trkpt><trkpt lat="45.64276096235019" lon="9.861777443043493"><ele>220.0</ele><time>2026-05-03T10:23:45Z</time></trkpt><trkpt lat="45.642840702811476" lon="9.861646151581862"><ele>218.0</ele><time>2026-05-03T10:23:47Z</time></trkpt><trkpt lat="45.6429212472744" lon="9.861512720992188"><ele>216.0</ele><time>2026-05-03T10:23:49Z</time></trkpt><trkpt lat="45.64299720873136" lon="9.861369125439605"><ele>214.0</ele><time>2026-05-03T10:23:51Z</time></trkpt><trkpt lat="45.64307670881097" lon="9.861229313106616"><ele>213.99999999999997</ele><time>2026-05-03T10:23:53Z</time></trkpt><trkpt lat="45.64311829120544" lon="9.861160502972778"><ele>214.0</ele><time>2026-05-03T10:23:54Z</time></trkpt><trkpt lat="45.64315644339281" lon="9.861088795552405"><ele>214.0</ele><time>2026-05-03T10:23:55Z</time></trkpt><trkpt lat="45.64323400094407" lon="9.860945255674613"><ele>214.0</ele><time>2026-05-03T10:23:57Z</time></trkpt><trkpt lat="45.64331391990097" lon="9.86080720852906"><ele>213.99999999999997</ele><time>2026-05-03T10:23:59Z</time></trkpt><trkpt lat="45.643354457221406" lon="9.860738032941281"><ele>214.0</ele><time>2026-05-03T10:24:00Z</time></trkpt><trkpt lat="45.64339547934491" lon="9.860669682754995"><ele>212.99999999999997</ele><time>2026-05-03T10:24:01Z</time></trkpt><trkpt lat="45.64347359628946" lon="9.860526776874003"><ele>212.0</ele><time>2026-05-03T10:24:03Z</time></trkpt><trkpt lat="45.64351506637542" lon="9.860457112063886"><ele>211.0</ele><time>2026-05-03T10:24:04Z</time></trkpt><trkpt lat="45.643558648898264" lon="9.860386080880735"><ele>210.0</ele><time>2026-05-03T10:24:05Z</time></trkpt><trkpt lat="45.643602179011005" lon="9.860310786268826"><ele>208.99999999999997</ele><time>2026-05-03T10:24:06Z</time></trkpt><trkpt lat="45.64364234593425" lon="9.860234515089788"><ele>208.0</ele><time>2026-05-03T10:24:07Z</time></trkpt><trkpt lat="45.64368446919935" lon="9.860158170679025"><ele>207.57142857142856</ele><time>2026-05-03T10:24:08Z</time></trkpt><trkpt lat="45.64372625004457" lon="9.860082528057324"><ele>207.14285714285717</ele><time>2026-05-03T10:24:09Z</time></trkpt><trkpt lat="45.64376911586998" lon="9.86000864645609"><ele>206.71428571428572</ele><time>2026-05-03T10:24:10Z</time></trkpt><trkpt lat="45.64381267612598" lon="9.859935942240423"><ele>206.28571428571428</ele><time>2026-05-03T10:24:11Z</time></trkpt><trkpt lat="45.643852669570165" lon="9.85986101551965"><ele>205.85714285714283</ele><time>2026-05-03T10:24:12Z</time></trkpt><trkpt lat="45.64389422487268" lon="9.859787789957918"><ele>205.42857142857144</ele><time>2026-05-03T10:24:13Z</time></trkpt><trkpt lat="45.64393591618481" lon="9.859715141221105"><ele>205.0</ele><time>2026-05-03T10:24:14Z</time></trkpt><trkpt lat="45.64397684928933" lon="9.859640977213258"><ele>205.0</ele><time>2026-05-03T10:24:15Z</time></trkpt><trkpt lat="45.64401591432742" lon="9.859568138469994"><ele>205.0</ele><time>2026-05-03T10:24:16Z</time></trkpt><trkpt lat="45.64405595051871" lon="9.85949339460058"><ele>205.0</ele><time>2026-05-03T10:24:17Z</time></trkpt><trkpt lat="45.644100160959624" lon="9.859421086265066"><ele>205.0</ele><time>2026-05-03T10:24:18Z</time></trkpt><trkpt lat="45.64413880613107" lon="9.859348807341668"><ele>205.0</ele><time>2026-05-03T10:24:19Z</time></trkpt><trkpt lat="45.644177884475695" lon="9.859275380255646"><ele>205.0</ele><time>2026-05-03T10:24:20Z</time></trkpt><trkpt lat="45.64421811998653" lon="9.859200442139723"><ele>205.0</ele><time>2026-05-03T10:24:21Z</time></trkpt><trkpt lat="45.6442580427436" lon="9.859129155357728"><ele>205.0</ele><time>2026-05-03T10:24:22Z</time></trkpt><trkpt lat="45.644297256132894" lon="9.859053611561887"><ele>205.0</ele><time>2026-05-03T10:24:23Z</time></trkpt><trkpt lat="45.644336582979754" lon="9.85898001193742"><ele>205.0</ele><time>2026-05-03T10:24:24Z</time></trkpt><trkpt lat="45.644375909321624" lon="9.85890731604926"><ele>205.0</ele><time>2026-05-03T10:24:25Z</time></trkpt><trkpt lat="45.644415177222626" lon="9.858833136030368"><ele>205.0</ele><time>2026-05-03T10:24:26Z</time></trkpt><trkpt lat="45.64445059371687" lon="9.858756750479307"><ele>205.0</ele><time>2026-05-03T10:24:27Z</time></trkpt><trkpt lat="45.644486813113765" lon="9.858681105224166"><ele>205.0</ele><time>2026-05-03T10:24:28Z</time></trkpt><trkpt lat="45.64452088366465" lon="9.858600650127173"><ele>205.0</ele><time>2026-05-03T10:24:29Z</time></trkpt><trkpt lat="45.64455349156898" lon="9.85852011268514"><ele>205.0</ele><time>2026-05-03T10:24:30Z</time></trkpt><trkpt lat="45.644582951350756" lon="9.858439113031187"><ele>205.0</ele><time>2026-05-03T10:24:31Z</time></trkpt><trkpt lat="45.64461289965819" lon="9.858356190558581"><ele>205.0</ele><time>2026-05-03T10:24:32Z</time></trkpt><trkpt lat="45.6446396327831" lon="9.858271830835559"><ele>205.0</ele><time>2026-05-03T10:24:33Z</time></trkpt><trkpt lat="45.64466464454956" lon="9.85818778871939"><ele>205.0</ele><time>2026-05-03T10:24:34Z</time></trkpt><trkpt lat="45.644692340710506" lon="9.858104308262183"><ele>205.0</ele><time>2026-05-03T10:24:35Z</time></trkpt><trkpt lat="45.64472479712157" lon="9.858023999102533"><ele>204.85714285714286</ele><time>2026-05-03T10:24:36Z</time></trkpt><trkpt lat="45.64476033230972" lon="9.85794530875085"><ele>204.7142857142857</ele><time>2026-05-03T10:24:37Z</time></trkpt><trkpt lat="45.644793863644935" lon="9.857862313790836"><ele>204.57142857142856</ele><time>2026-05-03T10:24:38Z</time></trkpt><trkpt lat="45.64482401240506" lon="9.857780363335044"><ele>204.42857142857144</ele><time>2026-05-03T10:24:39Z</time></trkpt><trkpt lat="45.644855493966865" lon="9.85770167860706"><ele>204.28571428571428</ele><time>2026-05-03T10:24:40Z</time></trkpt><trkpt lat="45.64488723755332" lon="9.857621386042725"><ele>204.14285714285714</ele><time>2026-05-03T10:24:41Z</time></trkpt><trkpt lat="45.644921436168545" lon="9.857545754568651"><ele>204.0</ele><time>2026-05-03T10:24:42Z</time></trkpt><trkpt lat="45.64495553894985" lon="9.857469987500625"><ele>203.6</ele><time>2026-05-03T10:24:43Z</time></trkpt><trkpt lat="45.64499350807339" lon="9.857397380048303"><ele>203.2</ele><time>2026-05-03T10:24:44Z</time></trkpt><trkpt lat="45.64508069653427" lon="9.857272209876008"><ele>202.79999999999998</ele><time>2026-05-03T10:24:46Z</time></trkpt><trkpt lat="45.645187397453284" lon="9.857182685231693"><ele>202.39999999999998</ele><time>2026-05-03T10:24:48Z</time></trkpt><trkpt lat="45.64524369779422" lon="9.857140910055428"><ele>202.0</ele><time>2026-05-03T10:24:49Z</time></trkpt><trkpt lat="45.645345621529" lon="9.857041247548757"><ele>202.0</ele><time>2026-05-03T10:24:51Z</time></trkpt><trkpt lat="45.645385415494744" lon="9.856968826101651"><ele>202.0</ele><time>2026-05-03T10:24:52Z</time></trkpt><trkpt lat="45.64542077202436" lon="9.856798313720036"><ele>202.0</ele><time>2026-05-03T10:24:54Z</time></trkpt><trkpt lat="45.64541478514236" lon="9.856707457257507"><ele>202.0</ele><time>2026-05-03T10:24:55Z</time></trkpt><trkpt lat="45.64542147580338" lon="9.856529308092668"><ele>202.0</ele><time>2026-05-03T10:24:57Z</time></trkpt><trkpt lat="45.645475242849905" lon="9.856372111895718"><ele>201.99999999999997</ele><time>2026-05-03T10:24:59Z</time></trkpt><trkpt lat="45.64551433375558" lon="9.85629955424342"><ele>202.0</ele><time>2026-05-03T10:25:00Z</time></trkpt><trkpt lat="45.64555917937412" lon="9.856226690775388"><ele>202.0</ele><time>2026-05-03T10:25:01Z</time></trkpt><trkpt lat="45.64560410593137" lon="9.85616202811965"><ele>202.0</ele><time>2026-05-03T10:25:02Z</time></trkpt><trkpt lat="45.64569936808331" lon="9.856043924389404"><ele>201.99999999999997</ele><time>2026-05-03T10:25:04Z</time></trkpt><trkpt lat="45.64574872276938" lon="9.855983384564286"><ele>202.0</ele><time>2026-05-03T10:25:05Z</time></trkpt><trkpt lat="45.64584679750592" lon="9.855870250644628"><ele>202.33333333333331</ele><time>2026-05-03T10:25:07Z</time></trkpt><trkpt lat="45.645898424905596" lon="9.855816421021153"><ele>202.66666666666666</ele><time>2026-05-03T10:25:08Z</time></trkpt><trkpt lat="45.6459493558511" lon="9.855762159622909"><ele>203.0</ele><time>2026-05-03T10:25:09Z</time></trkpt><trkpt lat="45.645999874982294" lon="9.855705777995496"><ele>203.33333333333331</ele><time>2026-05-03T10:25:10Z</time></trkpt><trkpt lat="45.64605038050201" lon="9.855646847265428"><ele>203.66666666666666</ele><time>2026-05-03T10:25:11Z</time></trkpt><trkpt lat="45.64610570878466" lon="9.855595250095075"><ele>204.0</ele><time>2026-05-03T10:25:12Z</time></trkpt><trkpt lat="45.64621425244814" lon="9.85549961133684"><ele>204.0</ele><time>2026-05-03T10:25:14Z</time></trkpt><trkpt lat="45.64626912091577" lon="9.855451748409624"><ele>204.0</ele><time>2026-05-03T10:25:15Z</time></trkpt><trkpt lat="45.646380243498065" lon="9.855369649611017"><ele>204.0</ele><time>2026-05-03T10:25:17Z</time></trkpt><trkpt lat="45.64648794817584" lon="9.85528670909031"><ele>204.0</ele><time>2026-05-03T10:25:19Z</time></trkpt><trkpt lat="45.646597250921644" lon="9.85520846534733"><ele>204.0</ele><time>2026-05-03T10:25:21Z</time></trkpt><trkpt lat="45.6467093176385" lon="9.85512887477824"><ele>204.2</ele><time>2026-05-03T10:25:23Z</time></trkpt><trkpt lat="45.64682208358699" lon="9.855061772737617"><ele>204.39999999999998</ele><time>2026-05-03T10:25:25Z</time></trkpt><trkpt lat="45.646875075690886" lon="9.85501258329284"><ele>204.6</ele><time>2026-05-03T10:25:26Z</time></trkpt><trkpt lat="45.64699274778144" lon="9.854937126997191"><ele>204.8</ele><time>2026-05-03T10:25:28Z</time></trkpt><trkpt lat="45.647110672691426" lon="9.854869209313879"><ele>205.0</ele><time>2026-05-03T10:25:30Z</time></trkpt><trkpt lat="45.647168730165674" lon="9.854831034149704"><ele>204.99999999999997</ele><time>2026-05-03T10:25:31Z</time></trkpt><trkpt lat="45.64722757591814" lon="9.854792843392069"><ele>205.0</ele><time>2026-05-03T10:25:32Z</time></trkpt><trkpt lat="45.64734192842508" lon="9.854721649618979"><ele>205.0</ele><time>2026-05-03T10:25:34Z</time></trkpt><trkpt lat="45.64740109607163" lon="9.854690324289004"><ele>205.0</ele><time>2026-05-03T10:25:35Z</time></trkpt><trkpt lat="45.64751752412196" lon="9.854626322352253"><ele>204.99999999999997</ele><time>2026-05-03T10:25:37Z</time></trkpt><trkpt lat="45.64757811621824" lon="9.854590792944377"><ele>205.0</ele><time>2026-05-03T10:25:38Z</time></trkpt><trkpt lat="45.64763552707906" lon="9.854551996417326"><ele>205.0</ele><time>2026-05-03T10:25:39Z</time></trkpt><trkpt lat="45.647694290857835" lon="9.854514621744011"><ele>205.0</ele><time>2026-05-03T10:25:40Z</time></trkpt><trkpt lat="45.64781007707363" lon="9.854447564618788"><ele>205.0</ele><time>2026-05-03T10:25:42Z</time></trkpt><trkpt lat="45.647868367461975" lon="9.854412360308535"><ele>205.0</ele><time>2026-05-03T10:25:43Z</time></trkpt><trkpt lat="45.64798116622672" lon="9.8543435001499"><ele>205.0</ele><time>2026-05-03T10:25:45Z</time></trkpt><trkpt lat="45.64809161617189" lon="9.854271312863732"><ele>205.6</ele><time>2026-05-03T10:25:47Z</time></trkpt><trkpt lat="45.64815089368197" lon="9.854235823907153"><ele>206.2</ele><time>2026-05-03T10:25:48Z</time></trkpt><trkpt lat="45.64826629867395" lon="9.854171918545719"><ele>206.8</ele><time>2026-05-03T10:25:50Z</time></trkpt><trkpt lat="45.64838048944896" lon="9.854100784761537"><ele>207.4</ele><time>2026-05-03T10:25:52Z</time></trkpt><trkpt lat="45.64849434827857" lon="9.854034390870089"><ele>208.0</ele><time>2026-05-03T10:25:54Z</time></trkpt><trkpt lat="45.64860575206596" lon="9.853965927880639"><ele>208.60000000000002</ele><time>2026-05-03T10:25:56Z</time></trkpt><trkpt lat="45.64872004757685" lon="9.853901180681818"><ele>209.20000000000002</ele><time>2026-05-03T10:25:58Z</time></trkpt><trkpt lat="45.64877911144931" lon="9.853867041214205"><ele>209.8</ele><time>2026-05-03T10:25:59Z</time></trkpt><trkpt lat="45.64889117701718" lon="9.853794198585797"><ele>210.4</ele><time>2026-05-03T10:26:01Z</time></trkpt><trkpt lat="45.64895173314187" lon="9.853763073219557"><ele>211.0</ele><time>2026-05-03T10:26:02Z</time></trkpt><trkpt lat="45.649072599479815" lon="9.853741254944971"><ele>210.99999999999997</ele><time>2026-05-03T10:26:04Z</time></trkpt><trkpt lat="45.649138262003426" lon="9.853729110648857"><ele>211.0</ele><time>2026-05-03T10:26:05Z</time></trkpt><trkpt lat="45.6492464810971" lon="9.853644386587499"><ele>211.0</ele><time>2026-05-03T10:26:07Z</time></trkpt><trkpt lat="45.64928938158578" lon="9.853577269804827"><ele>211.0</ele><time>2026-05-03T10:26:08Z</time></trkpt><trkpt lat="45.649397508433026" lon="9.853487128222364"><ele>210.99999999999997</ele><time>2026-05-03T10:26:10Z</time></trkpt><trkpt lat="45.64945694667104" lon="9.85345316438696"><ele>211.0</ele><time>2026-05-03T10:26:11Z</time></trkpt><trkpt lat="45.649565638669905" lon="9.853375313475201"><ele>211.25</ele><time>2026-05-03T10:26:13Z</time></trkpt><trkpt lat="45.649668651301816" lon="9.853287601742055"><ele>211.5</ele><time>2026-05-03T10:26:15Z</time></trkpt><trkpt lat="45.64976974957665" lon="9.85318646860783"><ele>211.75</ele><time>2026-05-03T10:26:17Z</time></trkpt><trkpt lat="45.64986811500938" lon="9.853079433686576"><ele>212.0</ele><time>2026-05-03T10:26:19Z</time></trkpt><trkpt lat="45.6499654230728" lon="9.852970211583193"><ele>212.0</ele><time>2026-05-03T10:26:21Z</time></trkpt><trkpt lat="45.650051449426385" lon="9.852854298020121"><ele>212.0</ele><time>2026-05-03T10:26:23Z</time></trkpt><trkpt lat="45.650133747787514" lon="9.852726277350666"><ele>212.0</ele><time>2026-05-03T10:26:25Z</time></trkpt><trkpt lat="45.65021647637219" lon="9.852595928807192"><ele>212.0</ele><time>2026-05-03T10:26:27Z</time></trkpt><trkpt lat="45.65029101364297" lon="9.85245814369384"><ele>212.75</ele><time>2026-05-03T10:26:29Z</time></trkpt><trkpt lat="45.65036096922627" lon="9.852314861772719"><ele>213.5</ele><time>2026-05-03T10:26:31Z</time></trkpt><trkpt lat="45.6504194981226" lon="9.852164179035576"><ele>214.25</ele><time>2026-05-03T10:26:33Z</time></trkpt><trkpt lat="45.650474436826826" lon="9.85200941826607"><ele>215.0</ele><time>2026-05-03T10:26:35Z</time></trkpt><trkpt lat="45.650523956573515" lon="9.851856694025201"><ele>215.5</ele><time>2026-05-03T10:26:37Z</time></trkpt><trkpt lat="45.65056526243325" lon="9.851698232410499"><ele>216.0</ele><time>2026-05-03T10:26:39Z</time></trkpt><trkpt lat="45.650602759299005" lon="9.851563709860287"><ele>216.5</ele><time>2026-05-03T10:26:41Z</time></trkpt><trkpt lat="45.65063444318082" lon="9.85140927141935"><ele>217.0</ele><time>2026-05-03T10:26:43Z</time></trkpt><trkpt lat="45.65065875047068" lon="9.851244605169938"><ele>217.0</ele><time>2026-05-03T10:26:45Z</time></trkpt><trkpt lat="45.65069129052038" lon="9.851080224929825"><ele>217.0</ele><time>2026-05-03T10:26:47Z</time></trkpt><trkpt lat="45.65071661019702" lon="9.850912399590879"><ele>217.0</ele><time>2026-05-03T10:26:49Z</time></trkpt><trkpt lat="45.650733917190465" lon="9.850741462878718"><ele>217.0</ele><time>2026-05-03T10:26:51Z</time></trkpt><trkpt lat="45.65075566117945" lon="9.85056852002009"><ele>217.0</ele><time>2026-05-03T10:26:53Z</time></trkpt><trkpt lat="45.65077845237905" lon="9.850395414260676"><ele>217.0</ele><time>2026-05-03T10:26:55Z</time></trkpt><trkpt lat="45.650800061266196" lon="9.850221319431347"><ele>217.0</ele><time>2026-05-03T10:26:57Z</time></trkpt><trkpt lat="45.6508248503287" lon="9.850046971294526"><ele>217.0</ele><time>2026-05-03T10:26:59Z</time></trkpt><trkpt lat="45.65084723593057" lon="9.849875230327116"><ele>216.8</ele><time>2026-05-03T10:27:01Z</time></trkpt><trkpt lat="45.65087229968749" lon="9.849702298574394"><ele>216.6</ele><time>2026-05-03T10:27:03Z</time></trkpt><trkpt lat="45.6508897563827" lon="9.849615207485085"><ele>216.40000000000003</ele><time>2026-05-03T10:27:04Z</time></trkpt><trkpt lat="45.65092753829191" lon="9.84945011357816"><ele>216.20000000000002</ele><time>2026-05-03T10:27:06Z</time></trkpt><trkpt lat="45.650976739587044" lon="9.849288362505495"><ele>216.0</ele><time>2026-05-03T10:27:08Z</time></trkpt><trkpt lat="45.65102412883351" lon="9.849127256784426"><ele>216.0</ele><time>2026-05-03T10:27:10Z</time></trkpt><trkpt lat="45.65107300642683" lon="9.848969262121992"><ele>216.00000000000003</ele><time>2026-05-03T10:27:12Z</time></trkpt><trkpt lat="45.65109894714135" lon="9.848886820431138"><ele>216.00000000000003</ele><time>2026-05-03T10:27:13Z</time></trkpt><trkpt lat="45.651148636997256" lon="9.84873564171678"><ele>216.0</ele><time>2026-05-03T10:27:15Z</time></trkpt><trkpt lat="45.651173142790114" lon="9.848648106366385"><ele>216.0</ele><time>2026-05-03T10:27:16Z</time></trkpt><trkpt lat="45.65122201240663" lon="9.848486460352607"><ele>216.75</ele><time>2026-05-03T10:27:18Z</time></trkpt><trkpt lat="45.651267729634526" lon="9.848333312189231"><ele>217.5</ele><time>2026-05-03T10:27:20Z</time></trkpt><trkpt lat="45.65131386243847" lon="9.848173439425068"><ele>218.25</ele><time>2026-05-03T10:27:22Z</time></trkpt><trkpt lat="45.651360454199626" lon="9.848021720555296"><ele>219.0</ele><time>2026-05-03T10:27:24Z</time></trkpt><trkpt lat="45.65140739288358" lon="9.847867034428628"><ele>219.0</ele><time>2026-05-03T10:27:26Z</time></trkpt><trkpt lat="45.65145576225521" lon="9.847713071151414"><ele>218.99999999999997</ele><time>2026-05-03T10:27:28Z</time></trkpt><trkpt lat="45.65147845811884" lon="9.847628169046168"><ele>218.99999999999997</ele><time>2026-05-03T10:27:29Z</time></trkpt><trkpt lat="45.65152972343238" lon="9.847476096571409"><ele>219.0</ele><time>2026-05-03T10:27:31Z</time></trkpt><trkpt lat="45.651572321771674" lon="9.847317672063827"><ele>219.0</ele><time>2026-05-03T10:27:33Z</time></trkpt><trkpt lat="45.65159704827976" lon="9.847233516714274"><ele>219.25</ele><time>2026-05-03T10:27:34Z</time></trkpt><trkpt lat="45.65164490048043" lon="9.847078856650995"><ele>219.5</ele><time>2026-05-03T10:27:36Z</time></trkpt><trkpt lat="45.651687720958336" lon="9.846919882430663"><ele>219.75</ele><time>2026-05-03T10:27:38Z</time></trkpt><trkpt lat="45.65172819233705" lon="9.846765999974611"><ele>220.0</ele><time>2026-05-03T10:27:40Z</time></trkpt><trkpt lat="45.65177396767635" lon="9.846607572233587"><ele>220.0</ele><time>2026-05-03T10:27:42Z</time></trkpt><trkpt lat="45.651809569350746" lon="9.846446240615668"><ele>220.0</ele><time>2026-05-03T10:27:44Z</time></trkpt><trkpt lat="45.65182853488499" lon="9.846360361178869"><ele>220.0</ele><time>2026-05-03T10:27:45Z</time></trkpt><trkpt lat="45.65186666011735" lon="9.846197614239976"><ele>220.0</ele><time>2026-05-03T10:27:47Z</time></trkpt><trkpt lat="45.65190190728986" lon="9.846031835013582"><ele>220.0</ele><time>2026-05-03T10:27:49Z</time></trkpt><trkpt lat="45.651931517967945" lon="9.845874662941698"><ele>219.6</ele><time>2026-05-03T10:27:51Z</time></trkpt><trkpt lat="45.65195646983842" lon="9.845723203257771"><ele>219.2</ele><time>2026-05-03T10:27:53Z</time></trkpt><trkpt lat="45.65198265761582" lon="9.845578494153289"><ele>218.8</ele><time>2026-05-03T10:27:55Z</time></trkpt><trkpt lat="45.65201310323401" lon="9.845442395629542"><ele>218.4</ele><time>2026-05-03T10:27:57Z</time></trkpt><trkpt lat="45.65204201261196" lon="9.8453241741993"><ele>218.0</ele><time>2026-05-03T10:27:59Z</time></trkpt><trkpt lat="45.65206031153639" lon="9.845205924229443"><ele>218.66666666666669</ele><time>2026-05-03T10:28:01Z</time></trkpt><trkpt lat="45.652087431436726" lon="9.845068653233254"><ele>219.33333333333334</ele><time>2026-05-03T10:28:03Z</time></trkpt><trkpt lat="45.65213386932635" lon="9.844986883706246"><ele>220.0</ele><time>2026-05-03T10:28:05Z</time></trkpt><trkpt lat="45.65212331063311" lon="9.84488195711155"><ele>220.66666666666669</ele><time>2026-05-03T10:28:06Z</time></trkpt><trkpt lat="45.652151835753614" lon="9.844777508235222"><ele>221.33333333333334</ele><time>2026-05-03T10:28:08Z</time></trkpt><trkpt lat="45.65216911417802" lon="9.84465637368388"><ele>222.0</ele><time>2026-05-03T10:28:10Z</time></trkpt><trkpt lat="45.65220176415989" lon="9.844496392579064"><ele>222.0</ele><time>2026-05-03T10:28:12Z</time></trkpt><trkpt lat="45.65221916623483" lon="9.844407645092561"><ele>222.0</ele><time>2026-05-03T10:28:13Z</time></trkpt><trkpt lat="45.65223447649741" lon="9.844319989598256"><ele>222.0</ele><time>2026-05-03T10:28:14Z</time></trkpt><trkpt lat="45.652252014787365" lon="9.844232986511697"><ele>222.0</ele><time>2026-05-03T10:28:15Z</time></trkpt><trkpt lat="45.65226541761136" lon="9.844142136916778"><ele>222.0</ele><time>2026-05-03T10:28:16Z</time></trkpt><trkpt lat="45.65228260369198" lon="9.844052662122865"><ele>222.0</ele><time>2026-05-03T10:28:17Z</time></trkpt><trkpt lat="45.6522975801739" lon="9.843964069186582"><ele>222.0</ele><time>2026-05-03T10:28:18Z</time></trkpt><trkpt lat="45.65231491596869" lon="9.843876087768288"><ele>222.0</ele><time>2026-05-03T10:28:19Z</time></trkpt><trkpt lat="45.65232957704171" lon="9.843785785269432"><ele>221.66666666666666</ele><time>2026-05-03T10:28:20Z</time></trkpt><trkpt lat="45.65236369294915" lon="9.843611534281248"><ele>221.33333333333331</ele><time>2026-05-03T10:28:22Z</time></trkpt><trkpt lat="45.65238251582581" lon="9.843523293427648"><ele>221.0</ele><time>2026-05-03T10:28:23Z</time></trkpt><trkpt lat="45.6523986127742" lon="9.843435947824851"><ele>220.66666666666666</ele><time>2026-05-03T10:28:24Z</time></trkpt><trkpt lat="45.65241357283332" lon="9.843346386741262"><ele>220.33333333333331</ele><time>2026-05-03T10:28:25Z</time></trkpt><trkpt lat="45.65243789111536" lon="9.843170997018472"><ele>220.0</ele><time>2026-05-03T10:28:27Z</time></trkpt><trkpt lat="45.65246974567532" lon="9.842999344458205"><ele>219.75</ele><time>2026-05-03T10:28:29Z</time></trkpt><trkpt lat="45.65250484237525" lon="9.84283041489044"><ele>219.5</ele><time>2026-05-03T10:28:31Z</time></trkpt><trkpt lat="45.65253827914537" lon="9.842660070274365"><ele>219.25</ele><time>2026-05-03T10:28:33Z</time></trkpt><trkpt lat="45.652572030687516" lon="9.842487436322271"><ele>219.0</ele><time>2026-05-03T10:28:35Z</time></trkpt><trkpt lat="45.652606937636044" lon="9.842316287564014"><ele>219.0</ele><time>2026-05-03T10:28:37Z</time></trkpt><trkpt lat="45.65264328131898" lon="9.842144431977196"><ele>219.0</ele><time>2026-05-03T10:28:39Z</time></trkpt><trkpt lat="45.652676843661204" lon="9.841970637543335"><ele>219.0</ele><time>2026-05-03T10:28:41Z</time></trkpt><trkpt lat="45.6527094455954" lon="9.841801066403763"><ele>219.0</ele><time>2026-05-03T10:28:43Z</time></trkpt><trkpt lat="45.652749205193594" lon="9.841629761555499"><ele>220.0</ele><time>2026-05-03T10:28:45Z</time></trkpt><trkpt lat="45.65279727230777" lon="9.84146528953416"><ele>221.0</ele><time>2026-05-03T10:28:47Z</time></trkpt><trkpt lat="45.652843492382765" lon="9.84130037018291"><ele>222.0</ele><time>2026-05-03T10:28:49Z</time></trkpt><trkpt lat="45.65289014055821" lon="9.841135234977859"><ele>223.0</ele><time>2026-05-03T10:28:51Z</time></trkpt><trkpt lat="45.65293842961754" lon="9.840973172161412"><ele>222.60000000000002</ele><time>2026-05-03T10:28:53Z</time></trkpt><trkpt lat="45.65298304343314" lon="9.840805390754257"><ele>222.20000000000002</ele><time>2026-05-03T10:28:55Z</time></trkpt><trkpt lat="45.653037333835606" lon="9.84064677169146"><ele>221.8</ele><time>2026-05-03T10:28:57Z</time></trkpt><trkpt lat="45.653071470599976" lon="9.840559204573248"><ele>221.4</ele><time>2026-05-03T10:28:58Z</time></trkpt><trkpt lat="45.65312402096138" lon="9.840395008021797"><ele>221.0</ele><time>2026-05-03T10:29:00Z</time></trkpt><trkpt lat="45.6531723837801" lon="9.840244239595384"><ele>221.20000000000002</ele><time>2026-05-03T10:29:02Z</time></trkpt><trkpt lat="45.65322295800096" lon="9.840100864406361"><ele>221.40000000000003</ele><time>2026-05-03T10:29:04Z</time></trkpt><trkpt lat="45.65327240592671" lon="9.83996979227682"><ele>221.6</ele><time>2026-05-03T10:29:06Z</time></trkpt><trkpt lat="45.65332592685629" lon="9.839853945084485"><ele>221.8</ele><time>2026-05-03T10:29:08Z</time></trkpt><trkpt lat="45.653373225571784" lon="9.839700231186267"><ele>222.0</ele><time>2026-05-03T10:29:10Z</time></trkpt><trkpt lat="45.653430618233365" lon="9.839546604987644"><ele>222.0</ele><time>2026-05-03T10:29:12Z</time></trkpt><trkpt lat="45.65348277778486" lon="9.83941019416544"><ele>222.0</ele><time>2026-05-03T10:29:14Z</time></trkpt><trkpt lat="45.6535325935498" lon="9.839272572245687"><ele>222.0</ele><time>2026-05-03T10:29:16Z</time></trkpt><trkpt lat="45.65359230749021" lon="9.83911239674005"><ele>222.0</ele><time>2026-05-03T10:29:18Z</time></trkpt><trkpt lat="45.65362372168369" lon="9.839033388970199"><ele>222.0</ele><time>2026-05-03T10:29:19Z</time></trkpt><trkpt lat="45.65365470615364" lon="9.838953820168916"><ele>222.2</ele><time>2026-05-03T10:29:20Z</time></trkpt><trkpt lat="45.65368462269746" lon="9.838874511985052"><ele>222.39999999999998</ele><time>2026-05-03T10:29:21Z</time></trkpt><trkpt lat="45.653742555295324" lon="9.83871434168392"><ele>222.60000000000002</ele><time>2026-05-03T10:29:23Z</time></trkpt><trkpt lat="45.65377198057137" lon="9.838634233913435"><ele>222.8</ele><time>2026-05-03T10:29:24Z</time></trkpt><trkpt lat="45.653830847182206" lon="9.838477289802118"><ele>223.0</ele><time>2026-05-03T10:29:26Z</time></trkpt><trkpt lat="45.653890121225345" lon="9.838322176662716"><ele>223.0</ele><time>2026-05-03T10:29:28Z</time></trkpt><trkpt lat="45.65395147874885" lon="9.838167360144318"><ele>223.0</ele><time>2026-05-03T10:29:30Z</time></trkpt><trkpt lat="45.654011423664336" lon="9.838011749506155"><ele>223.0</ele><time>2026-05-03T10:29:32Z</time></trkpt><trkpt lat="45.65407293010674" lon="9.837854469429047"><ele>223.0</ele><time>2026-05-03T10:29:34Z</time></trkpt><trkpt lat="45.65413107316112" lon="9.837697606263307"><ele>222.5</ele><time>2026-05-03T10:29:36Z</time></trkpt><trkpt lat="45.65418816022844" lon="9.8375398799508"><ele>222.0</ele><time>2026-05-03T10:29:38Z</time></trkpt><trkpt lat="45.65424441098735" lon="9.837382716924063"><ele>221.5</ele><time>2026-05-03T10:29:40Z</time></trkpt><trkpt lat="45.654302583038486" lon="9.837223039619918"><ele>221.0</ele><time>2026-05-03T10:29:42Z</time></trkpt><trkpt lat="45.65435420522034" lon="9.837060954253126"><ele>221.0</ele><time>2026-05-03T10:29:44Z</time></trkpt><trkpt lat="45.654412913161956" lon="9.83690496776048"><ele>221.0</ele><time>2026-05-03T10:29:46Z</time></trkpt><trkpt lat="45.65447101218927" lon="9.836745279306006"><ele>221.0</ele><time>2026-05-03T10:29:48Z</time></trkpt><trkpt lat="45.65452968082629" lon="9.836590143002043"><ele>221.0</ele><time>2026-05-03T10:29:50Z</time></trkpt><trkpt lat="45.6545904766266" lon="9.836435885772966"><ele>221.0</ele><time>2026-05-03T10:29:52Z</time></trkpt><trkpt lat="45.65461876752696" lon="9.836354906407617"><ele>221.00000000000003</ele><time>2026-05-03T10:29:53Z</time></trkpt><trkpt lat="45.65464798558393" lon="9.836274699024015"><ele>221.00000000000003</ele><time>2026-05-03T10:29:54Z</time></trkpt><trkpt lat="45.65470542340178" lon="9.83611783447641"><ele>221.0</ele><time>2026-05-03T10:29:56Z</time></trkpt><trkpt lat="45.65476419874844" lon="9.835958540872626"><ele>221.0</ele><time>2026-05-03T10:29:58Z</time></trkpt><trkpt lat="45.65482398827414" lon="9.835799679121079"><ele>221.0</ele><time>2026-05-03T10:30:00Z</time></trkpt><trkpt lat="45.65488752554636" lon="9.835643686353466"><ele>221.00000000000003</ele><time>2026-05-03T10:30:02Z</time></trkpt><trkpt lat="45.6549180288278" lon="9.83556440923773"><ele>221.00000000000003</ele><time>2026-05-03T10:30:03Z</time></trkpt><trkpt lat="45.65497697983423" lon="9.835403312725823"><ele>221.0</ele><time>2026-05-03T10:30:05Z</time></trkpt><trkpt lat="45.65503683471912" lon="9.83524789869713"><ele>221.0</ele><time>2026-05-03T10:30:07Z</time></trkpt><trkpt lat="45.65506640180153" lon="9.835167958258577"><ele>221.25</ele><time>2026-05-03T10:30:08Z</time></trkpt><trkpt lat="45.655123379089176" lon="9.83500937626322"><ele>221.5</ele><time>2026-05-03T10:30:10Z</time></trkpt><trkpt lat="45.655179621784015" lon="9.834851345810035"><ele>221.75</ele><time>2026-05-03T10:30:12Z</time></trkpt><trkpt lat="45.65523838538217" lon="9.834694524281169"><ele>222.0</ele><time>2026-05-03T10:30:14Z</time></trkpt><trkpt lat="45.65529613036773" lon="9.834538189841703"><ele>222.8</ele><time>2026-05-03T10:30:16Z</time></trkpt><trkpt lat="45.65532861025959" lon="9.834459048855487"><ele>223.6</ele><time>2026-05-03T10:30:17Z</time></trkpt><trkpt lat="45.65539167251461" lon="9.834305683389784"><ele>224.40000000000003</ele><time>2026-05-03T10:30:19Z</time></trkpt><trkpt lat="45.6554535084933" lon="9.83415104929594"><ele>225.20000000000002</ele><time>2026-05-03T10:30:21Z</time></trkpt><trkpt lat="45.65551938394497" lon="9.83400141583995"><ele>226.0</ele><time>2026-05-03T10:30:23Z</time></trkpt><trkpt lat="45.6555867729015" lon="9.833851586543709"><ele>226.0</ele><time>2026-05-03T10:30:25Z</time></trkpt><trkpt lat="45.655658501513166" lon="9.833708902875784"><ele>226.00000000000003</ele><time>2026-05-03T10:30:27Z</time></trkpt><trkpt lat="45.65573069718683" lon="9.833564742990982"><ele>226.00000000000003</ele><time>2026-05-03T10:30:29Z</time></trkpt><trkpt lat="45.655805935960274" lon="9.833422952885277"><ele>226.0</ele><time>2026-05-03T10:30:31Z</time></trkpt><trkpt lat="45.65584826790568" lon="9.833354599154353"><ele>226.0</ele><time>2026-05-03T10:30:32Z</time></trkpt><trkpt lat="45.65592581376114" lon="9.833214497830555"><ele>226.0</ele><time>2026-05-03T10:30:34Z</time></trkpt><trkpt lat="45.65600992420396" lon="9.833080893782386"><ele>226.00000000000003</ele><time>2026-05-03T10:30:36Z</time></trkpt><trkpt lat="45.6560932071155" lon="9.832949222004459"><ele>226.00000000000003</ele><time>2026-05-03T10:30:38Z</time></trkpt><trkpt lat="45.65613653691573" lon="9.83288300239826"><ele>226.0</ele><time>2026-05-03T10:30:39Z</time></trkpt><trkpt lat="45.65622406564541" lon="9.832754311474758"><ele>226.0</ele><time>2026-05-03T10:30:41Z</time></trkpt><trkpt lat="45.656312995565955" lon="9.832624428086037"><ele>226.0</ele><time>2026-05-03T10:30:43Z</time></trkpt><trkpt lat="45.65640703448107" lon="9.832494352779886"><ele>226.00000000000003</ele><time>2026-05-03T10:30:45Z</time></trkpt><trkpt lat="45.6564988074127" lon="9.832371592886041"><ele>226.00000000000003</ele><time>2026-05-03T10:30:47Z</time></trkpt><trkpt lat="45.65654508868374" lon="9.8323080961386"><ele>226.0</ele><time>2026-05-03T10:30:48Z</time></trkpt><trkpt lat="45.65663778128857" lon="9.832182655040025"><ele>226.0</ele><time>2026-05-03T10:30:50Z</time></trkpt><trkpt lat="45.65668413687783" lon="9.83212025331859"><ele>226.0</ele><time>2026-05-03T10:30:51Z</time></trkpt><trkpt lat="45.65673004948038" lon="9.832058481648938"><ele>226.00000000000003</ele><time>2026-05-03T10:30:52Z</time></trkpt><trkpt lat="45.65677613128835" lon="9.831995447469588"><ele>226.00000000000003</ele><time>2026-05-03T10:30:53Z</time></trkpt><trkpt lat="45.65686649551508" lon="9.831870818755736"><ele>226.0</ele><time>2026-05-03T10:30:55Z</time></trkpt><trkpt lat="45.65695371260635" lon="9.831742176138409"><ele>226.0</ele><time>2026-05-03T10:30:57Z</time></trkpt><trkpt lat="45.65704395955017" lon="9.831615866977634"><ele>226.33333333333331</ele><time>2026-05-03T10:30:59Z</time></trkpt><trkpt lat="45.657139116751964" lon="9.831491553594129"><ele>226.66666666666666</ele><time>2026-05-03T10:31:01Z</time></trkpt><trkpt lat="45.65718408850915" lon="9.831428472902111"><ele>227.0</ele><time>2026-05-03T10:31:02Z</time></trkpt><trkpt lat="45.65723203053834" lon="9.83136933877162"><ele>227.33333333333331</ele><time>2026-05-03T10:31:03Z</time></trkpt><trkpt lat="45.65731636982626" lon="9.831245580249679"><ele>227.66666666666666</ele><time>2026-05-03T10:31:05Z</time></trkpt><trkpt lat="45.65737110961485" lon="9.831185144738805"><ele>228.0</ele><time>2026-05-03T10:31:06Z</time></trkpt><trkpt lat="45.65744843988953" lon="9.831057276587108"><ele>228.0</ele><time>2026-05-03T10:31:08Z</time></trkpt><trkpt lat="45.657538231842985" lon="9.83093875722992"><ele>228.0</ele><time>2026-05-03T10:31:10Z</time></trkpt><trkpt lat="45.657628348353484" lon="9.830818669345863"><ele>228.0</ele><time>2026-05-03T10:31:12Z</time></trkpt><trkpt lat="45.65771803417433" lon="9.830697051535958"><ele>228.0</ele><time>2026-05-03T10:31:14Z</time></trkpt><trkpt lat="45.65780440117475" lon="9.830572780843681"><ele>228.0</ele><time>2026-05-03T10:31:16Z</time></trkpt><trkpt lat="45.657891208401516" lon="9.830451399552699"><ele>228.0</ele><time>2026-05-03T10:31:18Z</time></trkpt><trkpt lat="45.65797525702016" lon="9.830328362186501"><ele>228.0</ele><time>2026-05-03T10:31:20Z</time></trkpt><trkpt lat="45.65806178909564" lon="9.830210166515258"><ele>228.0</ele><time>2026-05-03T10:31:22Z</time></trkpt><trkpt lat="45.658146012258634" lon="9.830089258797049"><ele>228.0</ele><time>2026-05-03T10:31:24Z</time></trkpt><trkpt lat="45.65823784728416" lon="9.82997660566631"><ele>228.0</ele><time>2026-05-03T10:31:26Z</time></trkpt><trkpt lat="45.65832769591396" lon="9.829854586042645"><ele>228.0</ele><time>2026-05-03T10:31:28Z</time></trkpt><trkpt lat="45.658413962062454" lon="9.82972877888665"><ele>228.0</ele><time>2026-05-03T10:31:30Z</time></trkpt><trkpt lat="45.658502963059675" lon="9.829607802657598"><ele>228.0</ele><time>2026-05-03T10:31:32Z</time></trkpt><trkpt lat="45.65854941776293" lon="9.829546690032549"><ele>228.0</ele><time>2026-05-03T10:31:33Z</time></trkpt><trkpt lat="45.65863915638935" lon="9.829423985374122"><ele>228.0</ele><time>2026-05-03T10:31:35Z</time></trkpt><trkpt lat="45.65872677018025" lon="9.829297499617986"><ele>228.0</ele><time>2026-05-03T10:31:37Z</time></trkpt><trkpt lat="45.658820345103315" lon="9.829178815355347"><ele>228.0</ele><time>2026-05-03T10:31:39Z</time></trkpt><trkpt lat="45.65890680409651" lon="9.82905463114302"><ele>227.75</ele><time>2026-05-03T10:31:41Z</time></trkpt><trkpt lat="45.658994714143304" lon="9.828932954543157"><ele>227.5</ele><time>2026-05-03T10:31:43Z</time></trkpt><trkpt lat="45.659082426553404" lon="9.828808556928537"><ele>227.25</ele><time>2026-05-03T10:31:45Z</time></trkpt><trkpt lat="45.659171927676866" lon="9.82868391191989"><ele>227.0</ele><time>2026-05-03T10:31:47Z</time></trkpt><trkpt lat="45.65926401924006" lon="9.82856779707768"><ele>227.0</ele><time>2026-05-03T10:31:49Z</time></trkpt><trkpt lat="45.65935045053078" lon="9.828442310173234"><ele>227.0</ele><time>2026-05-03T10:31:51Z</time></trkpt><trkpt lat="45.65943767469542" lon="9.828321368830045"><ele>227.0</ele><time>2026-05-03T10:31:53Z</time></trkpt><trkpt lat="45.65952283506347" lon="9.828198672053302"><ele>227.0</ele><time>2026-05-03T10:31:55Z</time></trkpt><trkpt lat="45.65960375511079" lon="9.828085571735095"><ele>227.2</ele><time>2026-05-03T10:31:57Z</time></trkpt><trkpt lat="45.659684242784394" lon="9.827977921225967"><ele>227.39999999999998</ele><time>2026-05-03T10:31:59Z</time></trkpt><trkpt lat="45.65976883731506" lon="9.827859671768383"><ele>227.60000000000002</ele><time>2026-05-03T10:32:01Z</time></trkpt><trkpt lat="45.65981805763851" lon="9.827801309975225"><ele>227.8</ele><time>2026-05-03T10:32:02Z</time></trkpt><trkpt lat="45.659902965317805" lon="9.827679112453554"><ele>228.0</ele><time>2026-05-03T10:32:04Z</time></trkpt><trkpt lat="45.65998551390392" lon="9.827562081064915"><ele>228.2</ele><time>2026-05-03T10:32:06Z</time></trkpt><trkpt lat="45.66006474649872" lon="9.827455301395661"><ele>228.4</ele><time>2026-05-03T10:32:08Z</time></trkpt><trkpt lat="45.660146599875034" lon="9.827348497939642"><ele>228.59999999999997</ele><time>2026-05-03T10:32:10Z</time></trkpt><trkpt lat="45.66023350297315" lon="9.827222997634342"><ele>228.79999999999998</ele><time>2026-05-03T10:32:12Z</time></trkpt><trkpt lat="45.66027910250093" lon="9.82716089195768"><ele>229.0</ele><time>2026-05-03T10:32:13Z</time></trkpt><trkpt lat="45.66036765430106" lon="9.827035960557476"><ele>229.0</ele><time>2026-05-03T10:32:15Z</time></trkpt><trkpt lat="45.66041548597811" lon="9.826971065241878"><ele>228.99999999999997</ele><time>2026-05-03T10:32:16Z</time></trkpt><trkpt lat="45.66050250850394" lon="9.826846306440437"><ele>228.99999999999997</ele><time>2026-05-03T10:32:18Z</time></trkpt><trkpt lat="45.660549527805195" lon="9.826786071908769"><ele>229.0</ele><time>2026-05-03T10:32:19Z</time></trkpt><trkpt lat="45.66063834130409" lon="9.826662847142924"><ele>229.0</ele><time>2026-05-03T10:32:21Z</time></trkpt><trkpt lat="45.66072816493133" lon="9.826539139110134"><ele>229.0</ele><time>2026-05-03T10:32:23Z</time></trkpt><trkpt lat="45.66082042104142" lon="9.826413666138546"><ele>228.99999999999997</ele><time>2026-05-03T10:32:25Z</time></trkpt><trkpt lat="45.66090825512318" lon="9.826289379617112"><ele>228.99999999999997</ele><time>2026-05-03T10:32:27Z</time></trkpt><trkpt lat="45.66095376895201" lon="9.826226670524475"><ele>229.0</ele><time>2026-05-03T10:32:28Z</time></trkpt><trkpt lat="45.661044920814874" lon="9.826102673354605"><ele>229.0</ele><time>2026-05-03T10:32:30Z</time></trkpt><trkpt lat="45.66108974489315" lon="9.826038951784367"><ele>229.25</ele><time>2026-05-03T10:32:31Z</time></trkpt><trkpt lat="45.66118118620078" lon="9.825919449302573"><ele>229.5</ele><time>2026-05-03T10:32:33Z</time></trkpt><trkpt lat="45.66127180307997" lon="9.825793893493818"><ele>229.75</ele><time>2026-05-03T10:32:35Z</time></trkpt><trkpt lat="45.66136197279146" lon="9.825669885563304"><ele>230.0</ele><time>2026-05-03T10:32:37Z</time></trkpt><trkpt lat="45.66145245854233" lon="9.825546876278986"><ele>230.0</ele><time>2026-05-03T10:32:39Z</time></trkpt><trkpt lat="45.66149811562593" lon="9.82548222105109"><ele>230.0</ele><time>2026-05-03T10:32:40Z</time></trkpt><trkpt lat="45.66158725341796" lon="9.825364640525345"><ele>230.0</ele><time>2026-05-03T10:32:42Z</time></trkpt><trkpt lat="45.66167667698729" lon="9.825251684684766"><ele>230.0</ele><time>2026-05-03T10:32:44Z</time></trkpt><trkpt lat="45.66175419866007" lon="9.825134460486566"><ele>230.0</ele><time>2026-05-03T10:32:46Z</time></trkpt><trkpt lat="45.66183606158175" lon="9.825026832858727"><ele>229.8</ele><time>2026-05-03T10:32:48Z</time></trkpt><trkpt lat="45.66191467649726" lon="9.82491689152229"><ele>229.6</ele><time>2026-05-03T10:32:50Z</time></trkpt><trkpt lat="45.66199006190498" lon="9.824806074009981"><ele>229.39999999999998</ele><time>2026-05-03T10:32:52Z</time></trkpt><trkpt lat="45.662076715999234" lon="9.824690547336568"><ele>229.2</ele><time>2026-05-03T10:32:54Z</time></trkpt><trkpt lat="45.662122184608776" lon="9.824624425794813"><ele>229.0</ele><time>2026-05-03T10:32:55Z</time></trkpt><trkpt lat="45.66216682720834" lon="9.824557642515378"><ele>229.0</ele><time>2026-05-03T10:32:56Z</time></trkpt><trkpt lat="45.662210900605416" lon="9.824489782353458"><ele>229.0</ele><time>2026-05-03T10:32:57Z</time></trkpt><trkpt lat="45.66225813162913" lon="9.824424462467922"><ele>229.0</ele><time>2026-05-03T10:32:58Z</time></trkpt><trkpt lat="45.662303993053065" lon="9.824359153744135"><ele>229.0</ele><time>2026-05-03T10:32:59Z</time></trkpt><trkpt lat="45.662349408868295" lon="9.824291452668396"><ele>229.0</ele><time>2026-05-03T10:33:00Z</time></trkpt><trkpt lat="45.66239529104764" lon="9.824225226261717"><ele>229.0</ele><time>2026-05-03T10:33:01Z</time></trkpt><trkpt lat="45.662439672081426" lon="9.824157686569453"><ele>229.0</ele><time>2026-05-03T10:33:02Z</time></trkpt><trkpt lat="45.662483327305" lon="9.824090785842088"><ele>228.85714285714283</ele><time>2026-05-03T10:33:03Z</time></trkpt><trkpt lat="45.66252843384792" lon="9.82402589254404"><ele>228.71428571428572</ele><time>2026-05-03T10:33:04Z</time></trkpt><trkpt lat="45.662571139642026" lon="9.823956378099872"><ele>228.57142857142856</ele><time>2026-05-03T10:33:05Z</time></trkpt><trkpt lat="45.6626158207077" lon="9.823889811047287"><ele>228.42857142857142</ele><time>2026-05-03T10:33:06Z</time></trkpt><trkpt lat="45.66265956816323" lon="9.82381999444342"><ele>228.28571428571428</ele><time>2026-05-03T10:33:07Z</time></trkpt><trkpt lat="45.662704528748144" lon="9.823751848086108"><ele>228.14285714285714</ele><time>2026-05-03T10:33:08Z</time></trkpt><trkpt lat="45.66274880321962" lon="9.823683684272781"><ele>228.0</ele><time>2026-05-03T10:33:09Z</time></trkpt><trkpt lat="45.662794798823825" lon="9.823616295661308"><ele>228.28571428571428</ele><time>2026-05-03T10:33:10Z</time></trkpt><trkpt lat="45.66283825087724" lon="9.823547746928005"><ele>228.57142857142856</ele><time>2026-05-03T10:33:11Z</time></trkpt><trkpt lat="45.66288210545649" lon="9.82347859995451"><ele>228.85714285714283</ele><time>2026-05-03T10:33:12Z</time></trkpt><trkpt lat="45.6629254940318" lon="9.823406702831972"><ele>229.1428571428571</ele><time>2026-05-03T10:33:13Z</time></trkpt><trkpt lat="45.66296841806423" lon="9.823335765981206"><ele>229.42857142857142</ele><time>2026-05-03T10:33:14Z</time></trkpt><trkpt lat="45.66300995592001" lon="9.823267781128461"><ele>229.71428571428567</ele><time>2026-05-03T10:33:15Z</time></trkpt><trkpt lat="45.663056235570934" lon="9.823200241062764"><ele>229.99999999999997</ele><time>2026-05-03T10:33:16Z</time></trkpt><trkpt lat="45.66310042804931" lon="9.823132983995759"><ele>228.99999999999997</ele><time>2026-05-03T10:33:17Z</time></trkpt><trkpt lat="45.66314673942613" lon="9.82306596299501"><ele>228.0</ele><time>2026-05-03T10:33:18Z</time></trkpt><trkpt lat="45.6631876560767" lon="9.82299647060091"><ele>227.0</ele><time>2026-05-03T10:33:19Z</time></trkpt><trkpt lat="45.66323331273018" lon="9.82292799409021"><ele>226.0</ele><time>2026-05-03T10:33:20Z</time></trkpt><trkpt lat="45.66327416398099" lon="9.822856100066502"><ele>225.0</ele><time>2026-05-03T10:33:21Z</time></trkpt><trkpt lat="45.66331686541921" lon="9.82278746007541"><ele>224.0</ele><time>2026-05-03T10:33:22Z</time></trkpt><trkpt lat="45.66335809575774" lon="9.822716197933694"><ele>223.0</ele><time>2026-05-03T10:33:23Z</time></trkpt><trkpt lat="45.66340204897342" lon="9.82264686515049"><ele>222.83333333333331</ele><time>2026-05-03T10:33:24Z</time></trkpt><trkpt lat="45.66344434176693" lon="9.822576579036102"><ele>222.66666666666666</ele><time>2026-05-03T10:33:25Z</time></trkpt><trkpt lat="45.66348739502838" lon="9.822504984922185"><ele>222.5</ele><time>2026-05-03T10:33:26Z</time></trkpt><trkpt lat="45.663530492300325" lon="9.822434709402097"><ele>222.33333333333331</ele><time>2026-05-03T10:33:27Z</time></trkpt><trkpt lat="45.66357289731509" lon="9.822365354539837"><ele>222.16666666666666</ele><time>2026-05-03T10:33:28Z</time></trkpt><trkpt lat="45.66361587357167" lon="9.822293415015224"><ele>222.0</ele><time>2026-05-03T10:33:29Z</time></trkpt><trkpt lat="45.663699872048454" lon="9.822155725206382"><ele>222.0</ele><time>2026-05-03T10:33:31Z</time></trkpt><trkpt lat="45.66374529442231" lon="9.822090482552909"><ele>222.0</ele><time>2026-05-03T10:33:32Z</time></trkpt><trkpt lat="45.66378914864638" lon="9.822021240360453"><ele>222.0</ele><time>2026-05-03T10:33:33Z</time></trkpt><trkpt lat="45.663834693211115" lon="9.821951051863298"><ele>222.0</ele><time>2026-05-03T10:33:34Z</time></trkpt><trkpt lat="45.66387746596788" lon="9.821880249987792"><ele>222.0</ele><time>2026-05-03T10:33:35Z</time></trkpt><trkpt lat="45.6639206378115" lon="9.821809786777338"><ele>222.0</ele><time>2026-05-03T10:33:36Z</time></trkpt><trkpt lat="45.6639632968381" lon="9.82173834407171"><ele>222.0</ele><time>2026-05-03T10:33:37Z</time></trkpt><trkpt lat="45.66400559809821" lon="9.821666081718135"><ele>222.28571428571428</ele><time>2026-05-03T10:33:38Z</time></trkpt><trkpt lat="45.664046845444624" lon="9.821596820372903"><ele>222.57142857142858</ele><time>2026-05-03T10:33:39Z</time></trkpt><trkpt lat="45.664090313744715" lon="9.821527016267098"><ele>222.85714285714286</ele><time>2026-05-03T10:33:40Z</time></trkpt><trkpt lat="45.66413351461814" lon="9.821458869035084"><ele>223.14285714285714</ele><time>2026-05-03T10:33:41Z</time></trkpt><trkpt lat="45.664176466348955" lon="9.821389278097444"><ele>223.42857142857144</ele><time>2026-05-03T10:33:42Z</time></trkpt><trkpt lat="45.664219201097666" lon="9.821320332907675"><ele>223.71428571428572</ele><time>2026-05-03T10:33:43Z</time></trkpt><trkpt lat="45.66426321683702" lon="9.821253836635181"><ele>224.0</ele><time>2026-05-03T10:33:44Z</time></trkpt><trkpt lat="45.66434603919761" lon="9.821117595626205"><ele>224.0</ele><time>2026-05-03T10:33:46Z</time></trkpt><trkpt lat="45.66442480980248" lon="9.8209951353982"><ele>223.99999999999997</ele><time>2026-05-03T10:33:48Z</time></trkpt><trkpt lat="45.66449974591835" lon="9.820877980548728"><ele>223.99999999999997</ele><time>2026-05-03T10:33:50Z</time></trkpt><trkpt lat="45.664573925565634" lon="9.82074811891026"><ele>224.0</ele><time>2026-05-03T10:33:52Z</time></trkpt><trkpt lat="45.664617125135024" lon="9.820681150236107"><ele>224.0</ele><time>2026-05-03T10:33:53Z</time></trkpt><trkpt lat="45.66465894611546" lon="9.820612669012656"><ele>224.0</ele><time>2026-05-03T10:33:54Z</time></trkpt><trkpt lat="45.66469455127646" lon="9.820537141015748"><ele>224.0</ele><time>2026-05-03T10:33:55Z</time></trkpt><trkpt lat="45.66473972048181" lon="9.820465852782222"><ele>224.0</ele><time>2026-05-03T10:33:56Z</time></trkpt><trkpt lat="45.66478213845692" lon="9.820398167255645"><ele>224.0</ele><time>2026-05-03T10:33:57Z</time></trkpt><trkpt lat="45.66482768863017" lon="9.820331501710914"><ele>224.0</ele><time>2026-05-03T10:33:58Z</time></trkpt><trkpt lat="45.664870942181636" lon="9.820262104830165"><ele>224.0</ele><time>2026-05-03T10:33:59Z</time></trkpt><trkpt lat="45.664912749592354" lon="9.820192130741447"><ele>224.0</ele><time>2026-05-03T10:34:00Z</time></trkpt><trkpt lat="45.66495602191782" lon="9.820120498299941"><ele>224.00000000000003</ele><time>2026-05-03T10:34:01Z</time></trkpt><trkpt lat="45.665038213125754" lon="9.819986218990488"><ele>224.0</ele><time>2026-05-03T10:34:03Z</time></trkpt><trkpt lat="45.665080798678034" lon="9.819917838101375"><ele>224.0</ele><time>2026-05-03T10:34:04Z</time></trkpt><trkpt lat="45.66512335148233" lon="9.81984950577286"><ele>224.0</ele><time>2026-05-03T10:34:05Z</time></trkpt><trkpt lat="45.66516637556424" lon="9.819781476678278"><ele>224.00000000000003</ele><time>2026-05-03T10:34:06Z</time></trkpt><trkpt lat="45.665208375811304" lon="9.819712269149134"><ele>224.0</ele><time>2026-05-03T10:34:07Z</time></trkpt><trkpt lat="45.665289789575354" lon="9.819575586682591"><ele>224.2</ele><time>2026-05-03T10:34:09Z</time></trkpt><trkpt lat="45.66533307398516" lon="9.819509167776065"><ele>224.39999999999998</ele><time>2026-05-03T10:34:10Z</time></trkpt><trkpt lat="45.665414037725206" lon="9.819373879323326"><ele>224.6</ele><time>2026-05-03T10:34:12Z</time></trkpt><trkpt lat="45.66550058585317" lon="9.819242627617376"><ele>224.8</ele><time>2026-05-03T10:34:14Z</time></trkpt><trkpt lat="45.66557915997473" lon="9.819104873497151"><ele>225.0</ele><time>2026-05-03T10:34:16Z</time></trkpt><trkpt lat="45.66566042710587" lon="9.818968958624978"><ele>225.0</ele><time>2026-05-03T10:34:18Z</time></trkpt><trkpt lat="45.66570295404593" lon="9.818901754808094"><ele>225.0</ele><time>2026-05-03T10:34:19Z</time></trkpt><trkpt lat="45.66578683515966" lon="9.818770627074631"><ele>225.0</ele><time>2026-05-03T10:34:21Z</time></trkpt><trkpt lat="45.66587028949923" lon="9.81863871801618"><ele>225.0</ele><time>2026-05-03T10:34:23Z</time></trkpt><trkpt lat="45.66595074740225" lon="9.818508021868077"><ele>225.0</ele><time>2026-05-03T10:34:25Z</time></trkpt><trkpt lat="45.6660330618505" lon="9.81837549497539"><ele>225.25</ele><time>2026-05-03T10:34:27Z</time></trkpt><trkpt lat="45.666116383923764" lon="9.818241597276694"><ele>225.5</ele><time>2026-05-03T10:34:29Z</time></trkpt><trkpt lat="45.666194858613174" lon="9.818100213658147"><ele>225.75</ele><time>2026-05-03T10:34:31Z</time></trkpt><trkpt lat="45.666275814735094" lon="9.817963049742836"><ele>226.0</ele><time>2026-05-03T10:34:33Z</time></trkpt><trkpt lat="45.66636187001875" lon="9.817830885277042"><ele>226.0</ele><time>2026-05-03T10:34:35Z</time></trkpt><trkpt lat="45.66644706591042" lon="9.817697083018665"><ele>226.00000000000003</ele><time>2026-05-03T10:34:37Z</time></trkpt><trkpt lat="45.666529479133295" lon="9.817562505411408"><ele>226.00000000000003</ele><time>2026-05-03T10:34:39Z</time></trkpt><trkpt lat="45.666570364725224" lon="9.817492529025374"><ele>226.0</ele><time>2026-05-03T10:34:40Z</time></trkpt><trkpt lat="45.666653586005836" lon="9.817360831714623"><ele>226.0</ele><time>2026-05-03T10:34:42Z</time></trkpt><trkpt lat="45.666736934406764" lon="9.81723019418297"><ele>226.0</ele><time>2026-05-03T10:34:44Z</time></trkpt><trkpt lat="45.66681484856955" lon="9.81709511003605"><ele>226.00000000000003</ele><time>2026-05-03T10:34:46Z</time></trkpt><trkpt lat="45.66685982616028" lon="9.81702156624333"><ele>226.00000000000003</ele><time>2026-05-03T10:34:47Z</time></trkpt><trkpt lat="45.66694234363922" lon="9.816893607172425"><ele>226.0</ele><time>2026-05-03T10:34:49Z</time></trkpt><trkpt lat="45.66698301999913" lon="9.816823779792369"><ele>226.0</ele><time>2026-05-03T10:34:50Z</time></trkpt><trkpt lat="45.66706563948916" lon="9.81669371989293"><ele>226.25</ele><time>2026-05-03T10:34:52Z</time></trkpt><trkpt lat="45.66714701569949" lon="9.816558019899636"><ele>226.5</ele><time>2026-05-03T10:34:54Z</time></trkpt><trkpt lat="45.66722842652606" lon="9.816425700012674"><ele>226.75</ele><time>2026-05-03T10:34:56Z</time></trkpt><trkpt lat="45.667311818952435" lon="9.816288991824086"><ele>227.0</ele><time>2026-05-03T10:34:58Z</time></trkpt><trkpt lat="45.66738604759373" lon="9.816156185209763"><ele>227.0</ele><time>2026-05-03T10:35:00Z</time></trkpt><trkpt lat="45.66742923306935" lon="9.816088564498171"><ele>227.0</ele><time>2026-05-03T10:35:01Z</time></trkpt><trkpt lat="45.667519884532744" lon="9.815968193078996"><ele>227.0</ele><time>2026-05-03T10:35:03Z</time></trkpt><trkpt lat="45.667611598205305" lon="9.815849145997285"><ele>227.0</ele><time>2026-05-03T10:35:05Z</time></trkpt><trkpt lat="45.66770970334215" lon="9.815738870915947"><ele>227.0</ele><time>2026-05-03T10:35:07Z</time></trkpt><trkpt lat="45.66781624496934" lon="9.815659385240277"><ele>226.66666666666669</ele><time>2026-05-03T10:35:09Z</time></trkpt><trkpt lat="45.66788036733624" lon="9.815638226613915"><ele>226.33333333333334</ele><time>2026-05-03T10:35:10Z</time></trkpt><trkpt lat="45.66794325197819" lon="9.81562817197692"><ele>226.0</ele><time>2026-05-03T10:35:11Z</time></trkpt><trkpt lat="45.66800608151647" lon="9.815618061782224"><ele>225.66666666666669</ele><time>2026-05-03T10:35:12Z</time></trkpt><trkpt lat="45.66812733740219" lon="9.815577500193665"><ele>225.33333333333334</ele><time>2026-05-03T10:35:14Z</time></trkpt><trkpt lat="45.66817678949231" lon="9.815519091791115"><ele>225.0</ele><time>2026-05-03T10:35:15Z</time></trkpt><trkpt lat="45.66823192960131" lon="9.815357994131755"><ele>225.0</ele><time>2026-05-03T10:35:17Z</time></trkpt><trkpt lat="45.668245893696785" lon="9.815181428012506"><ele>225.0</ele><time>2026-05-03T10:35:19Z</time></trkpt><trkpt lat="45.66825059185711" lon="9.815005768308163"><ele>225.0</ele><time>2026-05-03T10:35:21Z</time></trkpt><trkpt lat="45.668289464450986" lon="9.814836862231232"><ele>225.0</ele><time>2026-05-03T10:35:23Z</time></trkpt><trkpt lat="45.668328384723864" lon="9.814765993614472"><ele>225.0</ele><time>2026-05-03T10:35:24Z</time></trkpt><trkpt lat="45.66836826637439" lon="9.814694769199244"><ele>225.0</ele><time>2026-05-03T10:35:25Z</time></trkpt><trkpt lat="45.668409699061804" lon="9.814621692612262"><ele>225.0</ele><time>2026-05-03T10:35:26Z</time></trkpt><trkpt lat="45.66845289910872" lon="9.814555929007497"><ele>225.0</ele><time>2026-05-03T10:35:27Z</time></trkpt><trkpt lat="45.66849698136511" lon="9.814490522667136"><ele>225.0</ele><time>2026-05-03T10:35:28Z</time></trkpt><trkpt lat="45.668584214488725" lon="9.814364227607523"><ele>225.0</ele><time>2026-05-03T10:35:30Z</time></trkpt><trkpt lat="45.668628164353024" lon="9.814299297625286"><ele>225.0</ele><time>2026-05-03T10:35:31Z</time></trkpt><trkpt lat="45.668715718097204" lon="9.814171398474631"><ele>225.0</ele><time>2026-05-03T10:35:33Z</time></trkpt><trkpt lat="45.6688041454844" lon="9.81404469898282"><ele>225.0</ele><time>2026-05-03T10:35:35Z</time></trkpt><trkpt lat="45.66884880082106" lon="9.813980251603574"><ele>225.0</ele><time>2026-05-03T10:35:36Z</time></trkpt><trkpt lat="45.66893909169164" lon="9.813853073659574"><ele>225.0</ele><time>2026-05-03T10:35:38Z</time></trkpt><trkpt lat="45.668983999210376" lon="9.813788076641154"><ele>225.0</ele><time>2026-05-03T10:35:39Z</time></trkpt><trkpt lat="45.66902851274653" lon="9.813722991580297"><ele>225.0</ele><time>2026-05-03T10:35:40Z</time></trkpt><trkpt lat="45.66907782216611" lon="9.813663938848752"><ele>225.0</ele><time>2026-05-03T10:35:41Z</time></trkpt><trkpt lat="45.66912497570469" lon="9.813603590056765"><ele>225.0</ele><time>2026-05-03T10:35:42Z</time></trkpt><trkpt lat="45.669214604435076" lon="9.813483053147033"><ele>225.0</ele><time>2026-05-03T10:35:44Z</time></trkpt><trkpt lat="45.66925418469872" lon="9.81341008243488"><ele>225.0</ele><time>2026-05-03T10:35:45Z</time></trkpt><trkpt lat="45.66934706477886" lon="9.813294702756522"><ele>225.0</ele><time>2026-05-03T10:35:47Z</time></trkpt><trkpt lat="45.669396367961305" lon="9.81323464657085"><ele>225.0</ele><time>2026-05-03T10:35:48Z</time></trkpt><trkpt lat="45.66944315286135" lon="9.813174235784198"><ele>225.25</ele><time>2026-05-03T10:35:49Z</time></trkpt><trkpt lat="45.66953504033481" lon="9.813055577978202"><ele>225.5</ele><time>2026-05-03T10:35:51Z</time></trkpt><trkpt lat="45.66962490670374" lon="9.812936482986133"><ele>225.75</ele><time>2026-05-03T10:35:53Z</time></trkpt><trkpt lat="45.669713877360834" lon="9.812812789495965"><ele>226.0</ele><time>2026-05-03T10:35:55Z</time></trkpt><trkpt lat="45.669804004614846" lon="9.81269079348397"><ele>226.5</ele><time>2026-05-03T10:35:57Z</time></trkpt><trkpt lat="45.66989380201138" lon="9.812569325987115"><ele>227.0</ele><time>2026-05-03T10:35:59Z</time></trkpt><trkpt lat="45.66998471257086" lon="9.812456526847152"><ele>227.5</ele><time>2026-05-03T10:36:01Z</time></trkpt><trkpt lat="45.670074459390165" lon="9.81233572123836"><ele>228.0</ele><time>2026-05-03T10:36:03Z</time></trkpt><trkpt lat="45.67016425124901" lon="9.812215424573177"><ele>228.0</ele><time>2026-05-03T10:36:05Z</time></trkpt><trkpt lat="45.670254151433454" lon="9.812095725916068"><ele>228.0</ele><time>2026-05-03T10:36:07Z</time></trkpt><trkpt lat="45.670340165658516" lon="9.811977453731892"><ele>228.0</ele><time>2026-05-03T10:36:09Z</time></trkpt><trkpt lat="45.6704203455975" lon="9.811867536389308"><ele>228.0</ele><time>2026-05-03T10:36:11Z</time></trkpt><trkpt lat="45.67049460544551" lon="9.811764093252133"><ele>228.4</ele><time>2026-05-03T10:36:13Z</time></trkpt><trkpt lat="45.67057564650772" lon="9.811660406873589"><ele>228.8</ele><time>2026-05-03T10:36:15Z</time></trkpt><trkpt lat="45.670664031448275" lon="9.811542447760397"><ele>229.2</ele><time>2026-05-03T10:36:17Z</time></trkpt><trkpt lat="45.67075566313028" lon="9.811421303612729"><ele>229.6</ele><time>2026-05-03T10:36:19Z</time></trkpt><trkpt lat="45.670802557338135" lon="9.811361105536243"><ele>230.0</ele><time>2026-05-03T10:36:20Z</time></trkpt><trkpt lat="45.670848772342694" lon="9.811293911480423"><ele>230.00000000000003</ele><time>2026-05-03T10:36:21Z</time></trkpt><trkpt lat="45.67089548650546" lon="9.811233372843867"><ele>230.0</ele><time>2026-05-03T10:36:22Z</time></trkpt><trkpt lat="45.670942760747124" lon="9.811169814249183"><ele>230.0</ele><time>2026-05-03T10:36:23Z</time></trkpt><trkpt lat="45.67103139197001" lon="9.81104300098319"><ele>230.0</ele><time>2026-05-03T10:36:25Z</time></trkpt><trkpt lat="45.67112354692341" lon="9.810919281011815"><ele>230.00000000000003</ele><time>2026-05-03T10:36:27Z</time></trkpt><trkpt lat="45.67117203598425" lon="9.81085673978431"><ele>230.0</ele><time>2026-05-03T10:36:28Z</time></trkpt><trkpt lat="45.67126551010038" lon="9.810731299412627"><ele>229.85714285714283</ele><time>2026-05-03T10:36:30Z</time></trkpt><trkpt lat="45.67131551966759" lon="9.810669410879836"><ele>229.71428571428572</ele><time>2026-05-03T10:36:31Z</time></trkpt><trkpt lat="45.67136395279987" lon="9.810608249969377"><ele>229.57142857142856</ele><time>2026-05-03T10:36:32Z</time></trkpt><trkpt lat="45.67141180151131" lon="9.810543768250271"><ele>229.42857142857142</ele><time>2026-05-03T10:36:33Z</time></trkpt><trkpt lat="45.67145971817263" lon="9.810483014186904"><ele>229.28571428571428</ele><time>2026-05-03T10:36:34Z</time></trkpt><trkpt lat="45.67150612376661" lon="9.810416639725075"><ele>229.14285714285714</ele><time>2026-05-03T10:36:35Z</time></trkpt><trkpt lat="45.6715536185748" lon="9.810352730088521"><ele>229.0</ele><time>2026-05-03T10:36:36Z</time></trkpt><trkpt lat="45.671603071674355" lon="9.810291066626004"><ele>229.0</ele><time>2026-05-03T10:36:37Z</time></trkpt><trkpt lat="45.67165206477786" lon="9.810229220451266"><ele>228.99999999999997</ele><time>2026-05-03T10:36:38Z</time></trkpt><trkpt lat="45.67169988062964" lon="9.810166433955215"><ele>228.99999999999997</ele><time>2026-05-03T10:36:39Z</time></trkpt><trkpt lat="45.67179348804606" lon="9.810040809788426"><ele>229.0</ele><time>2026-05-03T10:36:41Z</time></trkpt><trkpt lat="45.67188732147222" lon="9.809918290123983"><ele>229.0</ele><time>2026-05-03T10:36:43Z</time></trkpt><trkpt lat="45.671933119835735" lon="9.809853952570014"><ele>229.49999999999997</ele><time>2026-05-03T10:36:44Z</time></trkpt><trkpt lat="45.67197845075222" lon="9.80978721505468"><ele>230.0</ele><time>2026-05-03T10:36:45Z</time></trkpt><trkpt lat="45.67207473237286" lon="9.809663942175172"><ele>230.5</ele><time>2026-05-03T10:36:47Z</time></trkpt><trkpt lat="45.67216237839353" lon="9.80953913650436"><ele>231.0</ele><time>2026-05-03T10:36:49Z</time></trkpt><trkpt lat="45.67221069441944" lon="9.809477827447903"><ele>231.49999999999997</ele><time>2026-05-03T10:36:50Z</time></trkpt><trkpt lat="45.67225955759477" lon="9.809418562277427"><ele>232.0</ele><time>2026-05-03T10:36:51Z</time></trkpt><trkpt lat="45.672352145087196" lon="9.809291385510068"><ele>231.99999999999997</ele><time>2026-05-03T10:36:53Z</time></trkpt><trkpt lat="45.67244484102584" lon="9.809158632257697"><ele>232.0</ele><time>2026-05-03T10:36:55Z</time></trkpt><trkpt lat="45.67249220751584" lon="9.809098704836439"><ele>232.0</ele><time>2026-05-03T10:36:56Z</time></trkpt><trkpt lat="45.6725365428078" lon="9.809032716079601"><ele>232.0</ele><time>2026-05-03T10:36:57Z</time></trkpt><trkpt lat="45.67258314760749" lon="9.808968682864641"><ele>231.99999999999997</ele><time>2026-05-03T10:36:58Z</time></trkpt><trkpt lat="45.672631951528025" lon="9.808905254553506"><ele>232.0</ele><time>2026-05-03T10:36:59Z</time></trkpt><trkpt lat="45.67267750193503" lon="9.808842296765064"><ele>231.75</ele><time>2026-05-03T10:37:00Z</time></trkpt><trkpt lat="45.672773973900036" lon="9.808719934024193"><ele>231.5</ele><time>2026-05-03T10:37:02Z</time></trkpt><trkpt lat="45.67286484696109" lon="9.808594935069582"><ele>231.25</ele><time>2026-05-03T10:37:04Z</time></trkpt><trkpt lat="45.67295661871385" lon="9.80847372144847"><ele>231.0</ele><time>2026-05-03T10:37:06Z</time></trkpt><trkpt lat="45.673047565570826" lon="9.808350279149476"><ele>230.85714285714286</ele><time>2026-05-03T10:37:08Z</time></trkpt><trkpt lat="45.673094041217404" lon="9.80828905965827"><ele>230.71428571428572</ele><time>2026-05-03T10:37:09Z</time></trkpt><trkpt lat="45.673141731023044" lon="9.808226597451814"><ele>230.57142857142856</ele><time>2026-05-03T10:37:10Z</time></trkpt><trkpt lat="45.673232977592235" lon="9.808105815055008"><ele>230.42857142857142</ele><time>2026-05-03T10:37:12Z</time></trkpt><trkpt lat="45.67328089955431" lon="9.808040137927673"><ele>230.28571428571428</ele><time>2026-05-03T10:37:13Z</time></trkpt><trkpt lat="45.67332702071841" lon="9.807977063656232"><ele>230.1428571428571</ele><time>2026-05-03T10:37:14Z</time></trkpt><trkpt lat="45.67337081332282" lon="9.807911626917209"><ele>229.99999999999997</ele><time>2026-05-03T10:37:15Z</time></trkpt><trkpt lat="45.67342068134047" lon="9.807848962918868"><ele>230.0</ele><time>2026-05-03T10:37:16Z</time></trkpt><trkpt lat="45.673472533868676" lon="9.807793219302276"><ele>230.0</ele><time>2026-05-03T10:37:17Z</time></trkpt><trkpt lat="45.6735583085477" lon="9.807677086754916"><ele>230.0</ele><time>2026-05-03T10:37:19Z</time></trkpt><trkpt lat="45.67360633966153" lon="9.807616776976447"><ele>230.0</ele><time>2026-05-03T10:37:20Z</time></trkpt><trkpt lat="45.67368981739677" lon="9.807507591153447"><ele>230.0</ele><time>2026-05-03T10:37:22Z</time></trkpt><trkpt lat="45.67376850855056" lon="9.807409264639407"><ele>230.0</ele><time>2026-05-03T10:37:24Z</time></trkpt><trkpt lat="45.673854523446906" lon="9.807312753571251"><ele>230.0</ele><time>2026-05-03T10:37:26Z</time></trkpt><trkpt lat="45.67392884724506" lon="9.807235329939205"><ele>230.0</ele><time>2026-05-03T10:37:28Z</time></trkpt><trkpt lat="45.67404569689077" lon="9.807175534488394"><ele>230.0</ele><time>2026-05-03T10:37:30Z</time></trkpt><trkpt lat="45.674128472512855" lon="9.807064467565063"><ele>230.0</ele><time>2026-05-03T10:37:32Z</time></trkpt><trkpt lat="45.67416203401065" lon="9.806982295757848"><ele>230.00000000000003</ele><time>2026-05-03T10:37:33Z</time></trkpt><trkpt lat="45.67418866249075" lon="9.8068994433548"><ele>230.0</ele><time>2026-05-03T10:37:34Z</time></trkpt><trkpt lat="45.67421489007677" lon="9.80681441892695"><ele>230.0</ele><time>2026-05-03T10:37:35Z</time></trkpt><trkpt lat="45.67424638253948" lon="9.80673008969762"><ele>230.0</ele><time>2026-05-03T10:37:36Z</time></trkpt><trkpt lat="45.67431359827226" lon="9.806577256476219"><ele>230.00000000000003</ele><time>2026-05-03T10:37:38Z</time></trkpt><trkpt lat="45.67438686735343" lon="9.806432875858722"><ele>230.0</ele><time>2026-05-03T10:37:40Z</time></trkpt><trkpt lat="45.674469189453326" lon="9.806312565183372"><ele>230.16666666666669</ele><time>2026-05-03T10:37:42Z</time></trkpt><trkpt lat="45.67452516882658" lon="9.806161135238114"><ele>230.33333333333334</ele><time>2026-05-03T10:37:44Z</time></trkpt><trkpt lat="45.674554278974384" lon="9.806078864038652"><ele>230.5</ele><time>2026-05-03T10:37:45Z</time></trkpt><trkpt lat="45.674589666395484" lon="9.806001631356718"><ele>230.66666666666669</ele><time>2026-05-03T10:37:46Z</time></trkpt><trkpt lat="45.67462521700184" lon="9.805922434434574"><ele>230.83333333333334</ele><time>2026-05-03T10:37:47Z</time></trkpt><trkpt lat="45.67465766353134" lon="9.805842733062164"><ele>231.0</ele><time>2026-05-03T10:37:48Z</time></trkpt><trkpt lat="45.67471551092991" lon="9.8056820740722"><ele>230.75</ele><time>2026-05-03T10:37:50Z</time></trkpt><trkpt lat="45.67474216005353" lon="9.805599722953342"><ele>230.5</ele><time>2026-05-03T10:37:51Z</time></trkpt><trkpt lat="45.674765756624815" lon="9.805514678719781"><ele>230.25</ele><time>2026-05-03T10:37:52Z</time></trkpt><trkpt lat="45.67478701761591" lon="9.805428396738927"><ele>230.0</ele><time>2026-05-03T10:37:53Z</time></trkpt><trkpt lat="45.67480985838759" lon="9.805343328664675"><ele>229.75</ele><time>2026-05-03T10:37:54Z</time></trkpt><trkpt lat="45.67483415118981" lon="9.805256507203246"><ele>229.5</ele><time>2026-05-03T10:37:55Z</time></trkpt><trkpt lat="45.67485889016409" lon="9.805170859113726"><ele>229.25</ele><time>2026-05-03T10:37:56Z</time></trkpt><trkpt lat="45.67488071763115" lon="9.80508486891304"><ele>229.0</ele><time>2026-05-03T10:37:57Z</time></trkpt><trkpt lat="45.67492694948396" lon="9.804917636455473"><ele>228.83333333333331</ele><time>2026-05-03T10:37:59Z</time></trkpt><trkpt lat="45.67497607935955" lon="9.80475074784706"><ele>228.66666666666666</ele><time>2026-05-03T10:38:01Z</time></trkpt><trkpt lat="45.67499997344554" lon="9.80466698633147"><ele>228.5</ele><time>2026-05-03T10:38:02Z</time></trkpt><trkpt lat="45.67504094118476" lon="9.804497476492996"><ele>228.33333333333331</ele><time>2026-05-03T10:38:04Z</time></trkpt><trkpt lat="45.675060831026194" lon="9.804411203160557"><ele>228.16666666666666</ele><time>2026-05-03T10:38:05Z</time></trkpt><trkpt lat="45.67508463260286" lon="9.80432551565498"><ele>228.0</ele><time>2026-05-03T10:38:06Z</time></trkpt><trkpt lat="45.67510551422444" lon="9.804234911211847"><ele>228.0</ele><time>2026-05-03T10:38:07Z</time></trkpt><trkpt lat="45.675128935526494" lon="9.804151002772329"><ele>227.99999999999997</ele><time>2026-05-03T10:38:08Z</time></trkpt><trkpt lat="45.675150105583825" lon="9.804064743295026"><ele>228.0</ele><time>2026-05-03T10:38:09Z</time></trkpt><trkpt lat="45.67517449170136" lon="9.803978150658489"><ele>228.0</ele><time>2026-05-03T10:38:10Z</time></trkpt><trkpt lat="45.6752182331324" lon="9.803808995138498"><ele>227.99999999999997</ele><time>2026-05-03T10:38:12Z</time></trkpt><trkpt lat="45.67524128210208" lon="9.803722778306417"><ele>228.0</ele><time>2026-05-03T10:38:13Z</time></trkpt><trkpt lat="45.67526179488293" lon="9.803636679580388"><ele>228.0</ele><time>2026-05-03T10:38:14Z</time></trkpt><trkpt lat="45.67530490736417" lon="9.803468768687951"><ele>227.75</ele><time>2026-05-03T10:38:16Z</time></trkpt><trkpt lat="45.6753551561647" lon="9.803301237713683"><ele>227.5</ele><time>2026-05-03T10:38:18Z</time></trkpt><trkpt lat="45.67540459214381" lon="9.803134503929263"><ele>227.25</ele><time>2026-05-03T10:38:20Z</time></trkpt><trkpt lat="45.6754524735579" lon="9.802968608901406"><ele>227.0</ele><time>2026-05-03T10:38:22Z</time></trkpt><trkpt lat="45.67550190580922" lon="9.802803524418492"><ele>227.0</ele><time>2026-05-03T10:38:24Z</time></trkpt><trkpt lat="45.675528700758704" lon="9.802719803508504"><ele>227.00000000000003</ele><time>2026-05-03T10:38:25Z</time></trkpt><trkpt lat="45.67556047311466" lon="9.802641054412748"><ele>227.0</ele><time>2026-05-03T10:38:26Z</time></trkpt><trkpt lat="45.67559082380827" lon="9.80256164222789"><ele>227.0</ele><time>2026-05-03T10:38:27Z</time></trkpt><trkpt lat="45.67562489378201" lon="9.80248515515753"><ele>227.00000000000003</ele><time>2026-05-03T10:38:28Z</time></trkpt><trkpt lat="45.67565792253886" lon="9.802408406161362"><ele>227.0</ele><time>2026-05-03T10:38:29Z</time></trkpt><trkpt lat="45.675693788427544" lon="9.802332190841074"><ele>227.0</ele><time>2026-05-03T10:38:30Z</time></trkpt><trkpt lat="45.67576328561407" lon="9.802178303261437"><ele>227.14285714285717</ele><time>2026-05-03T10:38:32Z</time></trkpt><trkpt lat="45.67579949082787" lon="9.802103578829469"><ele>227.2857142857143</ele><time>2026-05-03T10:38:33Z</time></trkpt><trkpt lat="45.67583524911299" lon="9.802027552812905"><ele>227.42857142857144</ele><time>2026-05-03T10:38:34Z</time></trkpt><trkpt lat="45.67587177657646" lon="9.801951599510966"><ele>227.57142857142856</ele><time>2026-05-03T10:38:35Z</time></trkpt><trkpt lat="45.675909555421285" lon="9.801876413915961"><ele>227.7142857142857</ele><time>2026-05-03T10:38:36Z</time></trkpt><trkpt lat="45.67594944441837" lon="9.801803290805802"><ele>227.85714285714283</ele><time>2026-05-03T10:38:37Z</time></trkpt><trkpt lat="45.67598761658769" lon="9.801726970467026"><ele>228.0</ele><time>2026-05-03T10:38:38Z</time></trkpt><trkpt lat="45.676027951866146" lon="9.801654312806965"><ele>228.0</ele><time>2026-05-03T10:38:39Z</time></trkpt><trkpt lat="45.67606323959742" lon="9.801577182260539"><ele>228.0</ele><time>2026-05-03T10:38:40Z</time></trkpt><trkpt lat="45.67609967633861" lon="9.801503550579568"><ele>228.0</ele><time>2026-05-03T10:38:41Z</time></trkpt><trkpt lat="45.6761345013667" lon="9.801424579010604"><ele>228.0</ele><time>2026-05-03T10:38:42Z</time></trkpt><trkpt lat="45.67620730649426" lon="9.801276452360128"><ele>228.0</ele><time>2026-05-03T10:38:44Z</time></trkpt><trkpt lat="45.67628417099632" lon="9.801131298702016"><ele>228.0</ele><time>2026-05-03T10:38:46Z</time></trkpt><trkpt lat="45.67635855605488" lon="9.800984734779309"><ele>228.0</ele><time>2026-05-03T10:38:48Z</time></trkpt><trkpt lat="45.676428990308956" lon="9.80084137528393"><ele>228.0</ele><time>2026-05-03T10:38:50Z</time></trkpt><trkpt lat="45.67646736887965" lon="9.80076626764105"><ele>228.0</ele><time>2026-05-03T10:38:51Z</time></trkpt><trkpt lat="45.676543188378595" lon="9.800618711287123"><ele>228.0</ele><time>2026-05-03T10:38:53Z</time></trkpt><trkpt lat="45.67657979224387" lon="9.800544225753505"><ele>228.0</ele><time>2026-05-03T10:38:54Z</time></trkpt><trkpt lat="45.67661472675836" lon="9.800467705310576"><ele>228.0</ele><time>2026-05-03T10:38:55Z</time></trkpt><trkpt lat="45.676650121941755" lon="9.800392424158403"><ele>228.0</ele><time>2026-05-03T10:38:56Z</time></trkpt><trkpt lat="45.67668555502146" lon="9.800317444105177"><ele>228.0</ele><time>2026-05-03T10:38:57Z</time></trkpt><trkpt lat="45.676757131067895" lon="9.800163973151772"><ele>228.0</ele><time>2026-05-03T10:38:59Z</time></trkpt><trkpt lat="45.67681975502016" lon="9.800009059286017"><ele>228.0</ele><time>2026-05-03T10:39:01Z</time></trkpt><trkpt lat="45.676901694397124" lon="9.799857770540232"><ele>227.83333333333334</ele><time>2026-05-03T10:39:03Z</time></trkpt><trkpt lat="45.67698612706662" lon="9.799722276448025"><ele>227.66666666666669</ele><time>2026-05-03T10:39:05Z</time></trkpt><trkpt lat="45.67702395273123" lon="9.799650237058831"><ele>227.5</ele><time>2026-05-03T10:39:06Z</time></trkpt><trkpt lat="45.67705888945571" lon="9.799571206286359"><ele>227.33333333333334</ele><time>2026-05-03T10:39:07Z</time></trkpt><trkpt lat="45.677095252300155" lon="9.799491380708432"><ele>227.16666666666669</ele><time>2026-05-03T10:39:08Z</time></trkpt><trkpt lat="45.67712904849642" lon="9.799414995835942"><ele>227.0</ele><time>2026-05-03T10:39:09Z</time></trkpt><trkpt lat="45.677165829588375" lon="9.799335181124357"><ele>227.16666666666669</ele><time>2026-05-03T10:39:10Z</time></trkpt><trkpt lat="45.67720100081492" lon="9.79925699832033"><ele>227.33333333333334</ele><time>2026-05-03T10:39:11Z</time></trkpt><trkpt lat="45.67726716203082" lon="9.799095672044098"><ele>227.5</ele><time>2026-05-03T10:39:13Z</time></trkpt><trkpt lat="45.6773335699235" lon="9.798947149657787"><ele>227.66666666666669</ele><time>2026-05-03T10:39:15Z</time></trkpt><trkpt lat="45.677369818758216" lon="9.798871832043673"><ele>227.83333333333334</ele><time>2026-05-03T10:39:16Z</time></trkpt><trkpt lat="45.67740921681915" lon="9.79880024182159"><ele>228.0</ele><time>2026-05-03T10:39:17Z</time></trkpt><trkpt lat="45.67747253357717" lon="9.798642924885964"><ele>228.33333333333334</ele><time>2026-05-03T10:39:19Z</time></trkpt><trkpt lat="45.67753841323848" lon="9.798492136053286"><ele>228.66666666666669</ele><time>2026-05-03T10:39:21Z</time></trkpt><trkpt lat="45.67758543793823" lon="9.798324955161995"><ele>229.0</ele><time>2026-05-03T10:39:23Z</time></trkpt><trkpt lat="45.677601578200004" lon="9.798237570780957"><ele>229.33333333333334</ele><time>2026-05-03T10:39:24Z</time></trkpt><trkpt lat="45.67761926572598" lon="9.798150531885943"><ele>229.66666666666669</ele><time>2026-05-03T10:39:25Z</time></trkpt><trkpt lat="45.677646078660025" lon="9.798063317739174"><ele>230.0</ele><time>2026-05-03T10:39:26Z</time></trkpt><trkpt lat="45.67766548258184" lon="9.797976546727597"><ele>230.00000000000003</ele><time>2026-05-03T10:39:27Z</time></trkpt><trkpt lat="45.67769728109391" lon="9.797890608505625"><ele>230.0</ele><time>2026-05-03T10:39:28Z</time></trkpt><trkpt lat="45.67774360250051" lon="9.79777739796809"><ele>230.0</ele><time>2026-05-03T10:39:30Z</time></trkpt><trkpt lat="45.6778823058668" lon="9.797766560642419"><ele>230.0</ele><time>2026-05-03T10:39:32Z</time></trkpt><trkpt lat="45.67794826604872" lon="9.797757806119336"><ele>230.00000000000003</ele><time>2026-05-03T10:39:33Z</time></trkpt><trkpt lat="45.67801379382373" lon="9.797754774007428"><ele>230.0</ele><time>2026-05-03T10:39:34Z</time></trkpt><trkpt lat="45.678077540300905" lon="9.79774351979098"><ele>230.1428571428571</ele><time>2026-05-03T10:39:35Z</time></trkpt><trkpt lat="45.67814074665625" lon="9.79772282904707"><ele>230.28571428571428</ele><time>2026-05-03T10:39:36Z</time></trkpt><trkpt lat="45.67820244004072" lon="9.79769413120932"><ele>230.42857142857142</ele><time>2026-05-03T10:39:37Z</time></trkpt><trkpt lat="45.67826037275048" lon="9.797651627542834"><ele>230.57142857142856</ele><time>2026-05-03T10:39:38Z</time></trkpt><trkpt lat="45.678310685191406" lon="9.79759394493369"><ele>230.71428571428572</ele><time>2026-05-03T10:39:39Z</time></trkpt><trkpt lat="45.67834747684992" lon="9.797519319328572"><ele>230.85714285714286</ele><time>2026-05-03T10:39:40Z</time></trkpt><trkpt lat="45.67838942033292" lon="9.797353026573424"><ele>231.0</ele><time>2026-05-03T10:39:42Z</time></trkpt><trkpt lat="45.67840367334188" lon="9.797189418461755"><ele>231.20000000000002</ele><time>2026-05-03T10:39:44Z</time></trkpt><trkpt lat="45.678404456664964" lon="9.797030558017028"><ele>231.40000000000003</ele><time>2026-05-03T10:39:46Z</time></trkpt><trkpt lat="45.6783806923559" lon="9.79689695865175"><ele>231.6</ele><time>2026-05-03T10:39:48Z</time></trkpt><trkpt lat="45.67841989004072" lon="9.796791522913564"><ele>231.8</ele><time>2026-05-03T10:39:49Z</time></trkpt><trkpt lat="45.678485422162446" lon="9.796657919348025"><ele>232.0</ele><time>2026-05-03T10:39:51Z</time></trkpt><trkpt lat="45.67856010450568" lon="9.7965095497299"><ele>231.83333333333331</ele><time>2026-05-03T10:39:53Z</time></trkpt><trkpt lat="45.67859438681512" lon="9.79642826336627"><ele>231.66666666666666</ele><time>2026-05-03T10:39:54Z</time></trkpt><trkpt lat="45.67862757371499" lon="9.7963510675515"><ele>231.5</ele><time>2026-05-03T10:39:55Z</time></trkpt><trkpt lat="45.67869503820814" lon="9.79620841630063"><ele>231.33333333333331</ele><time>2026-05-03T10:39:57Z</time></trkpt><trkpt lat="45.6787674073579" lon="9.796073187377452"><ele>231.16666666666666</ele><time>2026-05-03T10:39:59Z</time></trkpt><trkpt lat="45.678802814828664" lon="9.795997201086392"><ele>231.0</ele><time>2026-05-03T10:40:00Z</time></trkpt><trkpt lat="45.67884038685201" lon="9.795919415008422"><ele>231.0</ele><time>2026-05-03T10:40:01Z</time></trkpt><trkpt lat="45.678876064895505" lon="9.79584375713838"><ele>231.0</ele><time>2026-05-03T10:40:02Z</time></trkpt><trkpt lat="45.67891224027128" lon="9.79576802745764"><ele>231.0</ele><time>2026-05-03T10:40:03Z</time></trkpt><trkpt lat="45.67894794318063" lon="9.795692082609316"><ele>231.0</ele><time>2026-05-03T10:40:04Z</time></trkpt><trkpt lat="45.678982719572744" lon="9.795613992185077"><ele>231.0</ele><time>2026-05-03T10:40:05Z</time></trkpt><trkpt lat="45.67902090494724" lon="9.795540249471069"><ele>231.0</ele><time>2026-05-03T10:40:06Z</time></trkpt><trkpt lat="45.67909597097821" lon="9.795399108342146"><ele>231.0</ele><time>2026-05-03T10:40:08Z</time></trkpt><trkpt lat="45.67913227169005" lon="9.795324618554732"><ele>231.0</ele><time>2026-05-03T10:40:09Z</time></trkpt><trkpt lat="45.67916771812372" lon="9.795248547979782"><ele>231.0</ele><time>2026-05-03T10:40:10Z</time></trkpt><trkpt lat="45.67920983584799" lon="9.795175381076596"><ele>231.0</ele><time>2026-05-03T10:40:11Z</time></trkpt><trkpt lat="45.67924738722797" lon="9.795100766466216"><ele>231.0</ele><time>2026-05-03T10:40:12Z</time></trkpt><trkpt lat="45.679283457123596" lon="9.795025184507564"><ele>231.0</ele><time>2026-05-03T10:40:13Z</time></trkpt><trkpt lat="45.679319088559275" lon="9.79495010111403"><ele>231.0</ele><time>2026-05-03T10:40:14Z</time></trkpt><trkpt lat="45.67935686890574" lon="9.794874054088273"><ele>231.0</ele><time>2026-05-03T10:40:15Z</time></trkpt><trkpt lat="45.67939306299021" lon="9.794799060964367"><ele>230.66666666666666</ele><time>2026-05-03T10:40:16Z</time></trkpt><trkpt lat="45.679430437315396" lon="9.794724870671967"><ele>230.33333333333331</ele><time>2026-05-03T10:40:17Z</time></trkpt><trkpt lat="45.67946733863132" lon="9.794649718651469"><ele>230.0</ele><time>2026-05-03T10:40:18Z</time></trkpt><trkpt lat="45.67950498417994" lon="9.794575332858264"><ele>229.66666666666666</ele><time>2026-05-03T10:40:19Z</time></trkpt><trkpt lat="45.67954222004787" lon="9.794501749402711"><ele>229.33333333333331</ele><time>2026-05-03T10:40:20Z</time></trkpt><trkpt lat="45.67961286556509" lon="9.794358321451734"><ele>229.0</ele><time>2026-05-03T10:40:22Z</time></trkpt><trkpt lat="45.67968159561704" lon="9.794225945261186"><ele>229.0</ele><time>2026-05-03T10:40:24Z</time></trkpt><trkpt lat="45.67975029959473" lon="9.794098839331811"><ele>228.99999999999997</ele><time>2026-05-03T10:40:26Z</time></trkpt><trkpt lat="45.679806317797876" lon="9.793974321368628"><ele>228.99999999999997</ele><time>2026-05-03T10:40:28Z</time></trkpt><trkpt lat="45.679867644425514" lon="9.793855083362923"><ele>229.0</ele><time>2026-05-03T10:40:30Z</time></trkpt><trkpt lat="45.67993621789551" lon="9.79370938823813"><ele>229.0</ele><time>2026-05-03T10:40:32Z</time></trkpt><trkpt lat="45.68000944215546" lon="9.793563385948689"><ele>229.2</ele><time>2026-05-03T10:40:34Z</time></trkpt><trkpt lat="45.680048380927666" lon="9.793488140625263"><ele>229.39999999999998</ele><time>2026-05-03T10:40:35Z</time></trkpt><trkpt lat="45.68012052093768" lon="9.793338931852007"><ele>229.6</ele><time>2026-05-03T10:40:37Z</time></trkpt><trkpt lat="45.68019471994814" lon="9.793194442602875"><ele>229.8</ele><time>2026-05-03T10:40:39Z</time></trkpt><trkpt lat="45.68026734223312" lon="9.79304876232013"><ele>230.0</ele><time>2026-05-03T10:40:41Z</time></trkpt><trkpt lat="45.68033662098256" lon="9.792905339869455"><ele>230.0</ele><time>2026-05-03T10:40:43Z</time></trkpt><trkpt lat="45.68041458287" lon="9.792761727103553"><ele>230.0</ele><time>2026-05-03T10:40:45Z</time></trkpt><trkpt lat="45.68048797692286" lon="9.792625379308124"><ele>230.0</ele><time>2026-05-03T10:40:47Z</time></trkpt><trkpt lat="45.68056134933651" lon="9.792483954522378"><ele>230.0</ele><time>2026-05-03T10:40:49Z</time></trkpt><trkpt lat="45.68064314862591" lon="9.79234126199223"><ele>230.0</ele><time>2026-05-03T10:40:51Z</time></trkpt><trkpt lat="45.68071932523791" lon="9.792194360282673"><ele>230.0</ele><time>2026-05-03T10:40:53Z</time></trkpt><trkpt lat="45.680795034265394" lon="9.792048462068001"><ele>230.0</ele><time>2026-05-03T10:40:55Z</time></trkpt><trkpt lat="45.68087254165032" lon="9.791903849420452"><ele>230.0</ele><time>2026-05-03T10:40:57Z</time></trkpt><trkpt lat="45.68090968965158" lon="9.791829551098797"><ele>230.0</ele><time>2026-05-03T10:40:58Z</time></trkpt><trkpt lat="45.68098204539828" lon="9.79168369982849"><ele>230.0</ele><time>2026-05-03T10:41:00Z</time></trkpt><trkpt lat="45.68102002828694" lon="9.791606732710843"><ele>230.0</ele><time>2026-05-03T10:41:01Z</time></trkpt><trkpt lat="45.681096633252" lon="9.791462176609455"><ele>230.0</ele><time>2026-05-03T10:41:03Z</time></trkpt><trkpt lat="45.681132941134464" lon="9.791388345003124"><ele>230.0</ele><time>2026-05-03T10:41:04Z</time></trkpt><trkpt lat="45.68120425992182" lon="9.791239568967287"><ele>230.0</ele><time>2026-05-03T10:41:06Z</time></trkpt><trkpt lat="45.68127735157883" lon="9.791093428482686"><ele>230.2</ele><time>2026-05-03T10:41:08Z</time></trkpt><trkpt lat="45.6813479266326" lon="9.790948231883648"><ele>230.4</ele><time>2026-05-03T10:41:10Z</time></trkpt><trkpt lat="45.68138703919064" lon="9.79087381976138"><ele>230.60000000000002</ele><time>2026-05-03T10:41:11Z</time></trkpt><trkpt lat="45.68146048743414" lon="9.790730640112802"><ele>230.8</ele><time>2026-05-03T10:41:13Z</time></trkpt><trkpt lat="45.681531222253255" lon="9.790580549796601"><ele>231.0</ele><time>2026-05-03T10:41:15Z</time></trkpt><trkpt lat="45.681565410782014" lon="9.790503461604937"><ele>231.0</ele><time>2026-05-03T10:41:16Z</time></trkpt><trkpt lat="45.681635992327436" lon="9.790355106157628"><ele>231.00000000000003</ele><time>2026-05-03T10:41:18Z</time></trkpt><trkpt lat="45.68170944351381" lon="9.790210737208932"><ele>231.00000000000003</ele><time>2026-05-03T10:41:20Z</time></trkpt><trkpt lat="45.68174946079056" lon="9.790140339263246"><ele>231.0</ele><time>2026-05-03T10:41:21Z</time></trkpt><trkpt lat="45.681816876350716" lon="9.789997287637927"><ele>231.0</ele><time>2026-05-03T10:41:23Z</time></trkpt><trkpt lat="45.68185395484061" lon="9.789923102835967"><ele>231.0</ele><time>2026-05-03T10:41:24Z</time></trkpt><trkpt lat="45.68192498286891" lon="9.789779381958528"><ele>231.00000000000003</ele><time>2026-05-03T10:41:26Z</time></trkpt><trkpt lat="45.681999376015916" lon="9.789637670798601"><ele>231.00000000000003</ele><time>2026-05-03T10:41:28Z</time></trkpt><trkpt lat="45.68206488402418" lon="9.789492963532542"><ele>231.0</ele><time>2026-05-03T10:41:30Z</time></trkpt><trkpt lat="45.68210262116091" lon="9.78941561823935"><ele>231.0</ele><time>2026-05-03T10:41:31Z</time></trkpt><trkpt lat="45.682140811463135" lon="9.789343029947739"><ele>231.20000000000002</ele><time>2026-05-03T10:41:32Z</time></trkpt><trkpt lat="45.68220629097933" lon="9.789198404897602"><ele>231.40000000000003</ele><time>2026-05-03T10:41:34Z</time></trkpt><trkpt lat="45.68224651013984" lon="9.789122342896711"><ele>231.6</ele><time>2026-05-03T10:41:35Z</time></trkpt><trkpt lat="45.68231958535698" lon="9.78898337893256"><ele>231.8</ele><time>2026-05-03T10:41:37Z</time></trkpt><trkpt lat="45.68238570940102" lon="9.78883296849303"><ele>232.0</ele><time>2026-05-03T10:41:39Z</time></trkpt><trkpt lat="45.68246162774439" lon="9.788690596270563"><ele>232.0</ele><time>2026-05-03T10:41:41Z</time></trkpt><trkpt lat="45.682535354108595" lon="9.788550695479065"><ele>232.0</ele><time>2026-05-03T10:41:43Z</time></trkpt><trkpt lat="45.6826053787789" lon="9.788410329447263"><ele>232.0</ele><time>2026-05-03T10:41:45Z</time></trkpt><trkpt lat="45.682684048630975" lon="9.78828690214468"><ele>232.0</ele><time>2026-05-03T10:41:47Z</time></trkpt><trkpt lat="45.68276688630955" lon="9.788168162529823"><ele>232.39999999999998</ele><time>2026-05-03T10:41:49Z</time></trkpt><trkpt lat="45.68286366233165" lon="9.788072228228097"><ele>232.79999999999998</ele><time>2026-05-03T10:41:51Z</time></trkpt><trkpt lat="45.68297463805053" lon="9.788019424663457"><ele>233.2</ele><time>2026-05-03T10:41:53Z</time></trkpt><trkpt lat="45.683040207876665" lon="9.788003175131587"><ele>233.6</ele><time>2026-05-03T10:41:54Z</time></trkpt><trkpt lat="45.683156100276726" lon="9.787951759787003"><ele>234.0</ele><time>2026-05-03T10:41:56Z</time></trkpt><trkpt lat="45.683265226871114" lon="9.787888748266894"><ele>234.0</ele><time>2026-05-03T10:41:58Z</time></trkpt><trkpt lat="45.68335132981515" lon="9.787788480521801"><ele>233.99999999999997</ele><time>2026-05-03T10:42:00Z</time></trkpt><trkpt lat="45.6834103140533" lon="9.787668532038577"><ele>233.99999999999997</ele><time>2026-05-03T10:42:02Z</time></trkpt><trkpt lat="45.683415944867434" lon="9.78749630402808"><ele>234.0</ele><time>2026-05-03T10:42:04Z</time></trkpt><trkpt lat="45.683397651378755" lon="9.787409971842711"><ele>234.0</ele><time>2026-05-03T10:42:05Z</time></trkpt><trkpt lat="45.68334144126872" lon="9.787246300351063"><ele>234.5</ele><time>2026-05-03T10:42:07Z</time></trkpt><trkpt lat="45.683289731715114" lon="9.787092690604897"><ele>235.0</ele><time>2026-05-03T10:42:09Z</time></trkpt><trkpt lat="45.68324996741735" lon="9.786941079213477"><ele>235.5</ele><time>2026-05-03T10:42:11Z</time></trkpt><trkpt lat="45.68322580292823" lon="9.786783999730453"><ele>236.0</ele><time>2026-05-03T10:42:13Z</time></trkpt><trkpt lat="45.68322098904304" lon="9.786629920768803"><ele>236.0</ele><time>2026-05-03T10:42:15Z</time></trkpt><trkpt lat="45.683206410511715" lon="9.78644912305468"><ele>236.00000000000003</ele><time>2026-05-03T10:42:17Z</time></trkpt><trkpt lat="45.68319592444637" lon="9.78635284020986"><ele>236.00000000000003</ele><time>2026-05-03T10:42:18Z</time></trkpt><trkpt lat="45.68318281858976" lon="9.786171709915404"><ele>236.0</ele><time>2026-05-03T10:42:20Z</time></trkpt><trkpt lat="45.683169711021854" lon="9.78599692730145"><ele>236.0</ele><time>2026-05-03T10:42:22Z</time></trkpt><trkpt lat="45.683146747321196" lon="9.785826632019837"><ele>235.60000000000002</ele><time>2026-05-03T10:42:24Z</time></trkpt><trkpt lat="45.683128515223544" lon="9.785653530184565"><ele>235.20000000000002</ele><time>2026-05-03T10:42:26Z</time></trkpt><trkpt lat="45.683107420448856" lon="9.785487122641493"><ele>234.79999999999998</ele><time>2026-05-03T10:42:28Z</time></trkpt><trkpt lat="45.6830946708705" lon="9.785308663757165"><ele>234.39999999999998</ele><time>2026-05-03T10:42:30Z</time></trkpt><trkpt lat="45.68308600654225" lon="9.785218578274133"><ele>234.0</ele><time>2026-05-03T10:42:31Z</time></trkpt><trkpt lat="45.68307459562706" lon="9.78512992591701"><ele>234.0</ele><time>2026-05-03T10:42:32Z</time></trkpt><trkpt lat="45.68306891497388" lon="9.785039486738476"><ele>233.99999999999997</ele><time>2026-05-03T10:42:33Z</time></trkpt><trkpt lat="45.68305713147479" lon="9.78494558389512"><ele>233.99999999999997</ele><time>2026-05-03T10:42:34Z</time></trkpt><trkpt lat="45.683041426925314" lon="9.784767433898354"><ele>234.0</ele><time>2026-05-03T10:42:36Z</time></trkpt><trkpt lat="45.68302531981472" lon="9.784586287854292"><ele>234.0</ele><time>2026-05-03T10:42:38Z</time></trkpt><trkpt lat="45.68301180920745" lon="9.784407812635385"><ele>234.2</ele><time>2026-05-03T10:42:40Z</time></trkpt><trkpt lat="45.68299531270436" lon="9.784230113470063"><ele>234.39999999999998</ele><time>2026-05-03T10:42:42Z</time></trkpt><trkpt lat="45.6829837904227" lon="9.784140452242942"><ele>234.6</ele><time>2026-05-03T10:42:43Z</time></trkpt><trkpt lat="45.68296693772483" lon="9.783967362757446"><ele>234.8</ele><time>2026-05-03T10:42:45Z</time></trkpt><trkpt lat="45.68295595047662" lon="9.783877211895032"><ele>235.0</ele><time>2026-05-03T10:42:46Z</time></trkpt><trkpt lat="45.68293840568626" lon="9.783703044233805"><ele>235.0</ele><time>2026-05-03T10:42:48Z</time></trkpt><trkpt lat="45.68292060157925" lon="9.783530503130704"><ele>235.0</ele><time>2026-05-03T10:42:50Z</time></trkpt><trkpt lat="45.68289712885978" lon="9.783364227033646"><ele>235.0</ele><time>2026-05-03T10:42:52Z</time></trkpt><trkpt lat="45.68285998501135" lon="9.78320023774723"><ele>235.0</ele><time>2026-05-03T10:42:54Z</time></trkpt><trkpt lat="45.68283097806335" lon="9.783032190962794"><ele>235.2</ele><time>2026-05-03T10:42:56Z</time></trkpt><trkpt lat="45.68283260350034" lon="9.782852678330105"><ele>235.4</ele><time>2026-05-03T10:42:58Z</time></trkpt><trkpt lat="45.68282948748998" lon="9.782679992518668"><ele>235.60000000000002</ele><time>2026-05-03T10:43:00Z</time></trkpt><trkpt lat="45.682809028824174" lon="9.782507706991709"><ele>235.8</ele><time>2026-05-03T10:43:02Z</time></trkpt><trkpt lat="45.68279818998261" lon="9.782416608131555"><ele>236.0</ele><time>2026-05-03T10:43:03Z</time></trkpt><trkpt lat="45.68279534593271" lon="9.782236572399361"><ele>236.00000000000003</ele><time>2026-05-03T10:43:05Z</time></trkpt><trkpt lat="45.682801198706265" lon="9.782142494670275"><ele>236.0</ele><time>2026-05-03T10:43:06Z</time></trkpt><trkpt lat="45.68281053280437" lon="9.782053026471521"><ele>236.0</ele><time>2026-05-03T10:43:07Z</time></trkpt><trkpt lat="45.682811765808474" lon="9.781962326997636"><ele>236.0</ele><time>2026-05-03T10:43:08Z</time></trkpt><trkpt lat="45.682822058819006" lon="9.781785570991362"><ele>236.00000000000003</ele><time>2026-05-03T10:43:10Z</time></trkpt><trkpt lat="45.68282725521307" lon="9.781689774636533"><ele>236.0</ele><time>2026-05-03T10:43:11Z</time></trkpt><trkpt lat="45.682829468558396" lon="9.78151767637059"><ele>236.0</ele><time>2026-05-03T10:43:13Z</time></trkpt><trkpt lat="45.68284760172858" lon="9.781340472462253"><ele>236.00000000000003</ele><time>2026-05-03T10:43:15Z</time></trkpt><trkpt lat="45.682859137227375" lon="9.78124690419518"><ele>236.00000000000003</ele><time>2026-05-03T10:43:16Z</time></trkpt><trkpt lat="45.682876020658256" lon="9.78107351293406"><ele>236.0</ele><time>2026-05-03T10:43:18Z</time></trkpt><trkpt lat="45.68289820487539" lon="9.780896522147977"><ele>236.0</ele><time>2026-05-03T10:43:20Z</time></trkpt><trkpt lat="45.6829225733872" lon="9.78072008391549"><ele>236.0</ele><time>2026-05-03T10:43:22Z</time></trkpt><trkpt lat="45.68293401161664" lon="9.780630672082012"><ele>236.0</ele><time>2026-05-03T10:43:23Z</time></trkpt><trkpt lat="45.682943265647566" lon="9.780541035273792"><ele>236.0</ele><time>2026-05-03T10:43:24Z</time></trkpt><trkpt lat="45.68295494454598" lon="9.780452209680472"><ele>236.0</ele><time>2026-05-03T10:43:25Z</time></trkpt><trkpt lat="45.68296726892103" lon="9.78036322276739"><ele>236.0</ele><time>2026-05-03T10:43:26Z</time></trkpt><trkpt lat="45.68298184717098" lon="9.780274817835496"><ele>236.0</ele><time>2026-05-03T10:43:27Z</time></trkpt><trkpt lat="45.683003345454374" lon="9.780101724333186"><ele>236.0</ele><time>2026-05-03T10:43:29Z</time></trkpt><trkpt lat="45.683027370844336" lon="9.779926778893122"><ele>236.0</ele><time>2026-05-03T10:43:31Z</time></trkpt><trkpt lat="45.68304993709309" lon="9.77975158410797"><ele>236.00000000000003</ele><time>2026-05-03T10:43:33Z</time></trkpt><trkpt lat="45.68307190952116" lon="9.779576603626023"><ele>236.00000000000003</ele><time>2026-05-03T10:43:35Z</time></trkpt><trkpt lat="45.683083922461456" lon="9.779487562890775"><ele>236.0</ele><time>2026-05-03T10:43:36Z</time></trkpt><trkpt lat="45.68310462505753" lon="9.779314137519014"><ele>236.0</ele><time>2026-05-03T10:43:38Z</time></trkpt><trkpt lat="45.68312683179944" lon="9.779141848354747"><ele>236.0</ele><time>2026-05-03T10:43:40Z</time></trkpt><trkpt lat="45.68314956804503" lon="9.778969219919892"><ele>236.0</ele><time>2026-05-03T10:43:42Z</time></trkpt><trkpt lat="45.68317355175138" lon="9.778796218850673"><ele>236.0</ele><time>2026-05-03T10:43:44Z</time></trkpt><trkpt lat="45.683194328575446" lon="9.778622839799437"><ele>236.0</ele><time>2026-05-03T10:43:46Z</time></trkpt><trkpt lat="45.68321790316701" lon="9.778449638540355"><ele>236.0</ele><time>2026-05-03T10:43:48Z</time></trkpt><trkpt lat="45.68323968079856" lon="9.778279016841198"><ele>236.0</ele><time>2026-05-03T10:43:50Z</time></trkpt><trkpt lat="45.68326217443188" lon="9.77810559197064"><ele>236.0</ele><time>2026-05-03T10:43:52Z</time></trkpt><trkpt lat="45.68328564087523" lon="9.777931600620816"><ele>236.0</ele><time>2026-05-03T10:43:54Z</time></trkpt><trkpt lat="45.68330798241332" lon="9.777755990655088"><ele>235.75</ele><time>2026-05-03T10:43:56Z</time></trkpt><trkpt lat="45.68333080120089" lon="9.777581445109428"><ele>235.5</ele><time>2026-05-03T10:43:58Z</time></trkpt><trkpt lat="45.68335257558185" lon="9.777407072029899"><ele>235.25</ele><time>2026-05-03T10:44:00Z</time></trkpt><trkpt lat="45.683372222323975" lon="9.777233888962089"><ele>235.0</ele><time>2026-05-03T10:44:02Z</time></trkpt><trkpt lat="45.68339328902553" lon="9.77706291723879"><ele>235.0</ele><time>2026-05-03T10:44:04Z</time></trkpt><trkpt lat="45.683418676518286" lon="9.776900299410888"><ele>235.0</ele><time>2026-05-03T10:44:06Z</time></trkpt><trkpt lat="45.683468518595724" lon="9.776766016645414"><ele>235.0</ele><time>2026-05-03T10:44:08Z</time></trkpt><trkpt lat="45.68353976043189" lon="9.776637152091988"><ele>235.0</ele><time>2026-05-03T10:44:10Z</time></trkpt><trkpt lat="45.683567380117616" lon="9.776555085927065"><ele>235.0</ele><time>2026-05-03T10:44:11Z</time></trkpt><trkpt lat="45.68357974553809" lon="9.776463944651018"><ele>235.16666666666666</ele><time>2026-05-03T10:44:12Z</time></trkpt><trkpt lat="45.683574895922746" lon="9.776373583955175"><ele>235.33333333333331</ele><time>2026-05-03T10:44:13Z</time></trkpt><trkpt lat="45.68354588313493" lon="9.776291423138908"><ele>235.5</ele><time>2026-05-03T10:44:14Z</time></trkpt><trkpt lat="45.68350370981083" lon="9.776127350633882"><ele>235.66666666666669</ele><time>2026-05-03T10:44:16Z</time></trkpt><trkpt lat="45.68351333960014" lon="9.776036569702955"><ele>235.83333333333334</ele><time>2026-05-03T10:44:17Z</time></trkpt><trkpt lat="45.683527514488745" lon="9.775947818452824"><ele>236.0</ele><time>2026-05-03T10:44:18Z</time></trkpt><trkpt lat="45.68355405872029" lon="9.775784445091148"><ele>236.0</ele><time>2026-05-03T10:44:20Z</time></trkpt><trkpt lat="45.68358253391096" lon="9.775631948740886"><ele>236.00000000000003</ele><time>2026-05-03T10:44:22Z</time></trkpt><trkpt lat="45.68360864652084" lon="9.775458421998735"><ele>236.00000000000003</ele><time>2026-05-03T10:44:24Z</time></trkpt><trkpt lat="45.683623694592356" lon="9.77536911369899"><ele>236.0</ele><time>2026-05-03T10:44:25Z</time></trkpt><trkpt lat="45.68366328411461" lon="9.775200084515632"><ele>236.0</ele><time>2026-05-03T10:44:27Z</time></trkpt><trkpt lat="45.683683241937274" lon="9.775114364222683"><ele>236.25</ele><time>2026-05-03T10:44:28Z</time></trkpt><trkpt lat="45.6837204579858" lon="9.77494508589014"><ele>236.5</ele><time>2026-05-03T10:44:30Z</time></trkpt><trkpt lat="45.68375927629525" lon="9.774773079851684"><ele>236.75</ele><time>2026-05-03T10:44:32Z</time></trkpt><trkpt lat="45.68379492910631" lon="9.774603731093434"><ele>237.0</ele><time>2026-05-03T10:44:34Z</time></trkpt><trkpt lat="45.6838342316857" lon="9.774435326641893"><ele>237.2</ele><time>2026-05-03T10:44:36Z</time></trkpt><trkpt lat="45.68387253188171" lon="9.774264602474235"><ele>237.39999999999998</ele><time>2026-05-03T10:44:38Z</time></trkpt><trkpt lat="45.68391026662109" lon="9.774093415863218"><ele>237.60000000000002</ele><time>2026-05-03T10:44:40Z</time></trkpt><trkpt lat="45.68393246249956" lon="9.77400791591243"><ele>237.8</ele><time>2026-05-03T10:44:41Z</time></trkpt><trkpt lat="45.68397234283072" lon="9.77383663615469"><ele>238.0</ele><time>2026-05-03T10:44:43Z</time></trkpt><trkpt lat="45.68401736037341" lon="9.773668120313024"><ele>238.0</ele><time>2026-05-03T10:44:45Z</time></trkpt><trkpt lat="45.68403989509798" lon="9.773583154011863"><ele>238.0</ele><time>2026-05-03T10:44:46Z</time></trkpt><trkpt lat="45.68407482274796" lon="9.773413846053112"><ele>238.0</ele><time>2026-05-03T10:44:48Z</time></trkpt><trkpt lat="45.6840964632851" lon="9.773327349190547"><ele>238.0</ele><time>2026-05-03T10:44:49Z</time></trkpt><trkpt lat="45.68413996287629" lon="9.773159495580883"><ele>238.0</ele><time>2026-05-03T10:44:51Z</time></trkpt><trkpt lat="45.68418750458586" lon="9.772995865597764"><ele>238.0</ele><time>2026-05-03T10:44:53Z</time></trkpt><trkpt lat="45.68423115291799" lon="9.772830779158664"><ele>238.0</ele><time>2026-05-03T10:44:55Z</time></trkpt><trkpt lat="45.68427603043423" lon="9.772674583745035"><ele>238.0</ele><time>2026-05-03T10:44:57Z</time></trkpt><trkpt lat="45.68431898514201" lon="9.772537982394704"><ele>238.0</ele><time>2026-05-03T10:44:59Z</time></trkpt><trkpt lat="45.68440591880294" lon="9.772473140752576"><ele>238.0</ele><time>2026-05-03T10:45:01Z</time></trkpt><trkpt lat="45.68451172751376" lon="9.772529734525055"><ele>238.60000000000002</ele><time>2026-05-03T10:45:03Z</time></trkpt><trkpt lat="45.68461143991528" lon="9.772610947740212"><ele>239.20000000000002</ele><time>2026-05-03T10:45:05Z</time></trkpt><trkpt lat="45.684699651629984" lon="9.77257624347939"><ele>239.8</ele><time>2026-05-03T10:45:07Z</time></trkpt><trkpt lat="45.6847103192555" lon="9.772487224415093"><ele>240.4</ele><time>2026-05-03T10:45:08Z</time></trkpt><trkpt lat="45.68472400932495" lon="9.772312604660963"><ele>241.0</ele><time>2026-05-03T10:45:10Z</time></trkpt><trkpt lat="45.684751464464576" lon="9.772144117450244"><ele>241.0</ele><time>2026-05-03T10:45:12Z</time></trkpt><trkpt lat="45.684770140114004" lon="9.772050717025797"><ele>241.00000000000003</ele><time>2026-05-03T10:45:13Z</time></trkpt><trkpt lat="45.68478185009178" lon="9.771960397235144"><ele>241.0</ele><time>2026-05-03T10:45:14Z</time></trkpt><trkpt lat="45.684792152579085" lon="9.771871196127798"><ele>241.0</ele><time>2026-05-03T10:45:15Z</time></trkpt><trkpt lat="45.68480354543477" lon="9.771782559475783"><ele>241.00000000000003</ele><time>2026-05-03T10:45:16Z</time></trkpt><trkpt lat="45.68481732662574" lon="9.771693009004286"><ele>241.0</ele><time>2026-05-03T10:45:17Z</time></trkpt><trkpt lat="45.68484491645427" lon="9.771516944055247"><ele>241.0</ele><time>2026-05-03T10:45:19Z</time></trkpt><trkpt lat="45.68485394592904" lon="9.771427748843774"><ele>241.0</ele><time>2026-05-03T10:45:20Z</time></trkpt><trkpt lat="45.68486936652534" lon="9.77124943592475"><ele>241.00000000000003</ele><time>2026-05-03T10:45:22Z</time></trkpt><trkpt lat="45.68487508248714" lon="9.771159423042661"><ele>241.00000000000003</ele><time>2026-05-03T10:45:23Z</time></trkpt><trkpt lat="45.684888132450226" lon="9.770983659299114"><ele>241.0</ele><time>2026-05-03T10:45:25Z</time></trkpt><trkpt lat="45.6849075076595" lon="9.770809780038157"><ele>241.0</ele><time>2026-05-03T10:45:27Z</time></trkpt><trkpt lat="45.6849286277653" lon="9.770639334588818"><ele>241.0</ele><time>2026-05-03T10:45:29Z</time></trkpt><trkpt lat="45.68494810820072" lon="9.770469322494542"><ele>241.0</ele><time>2026-05-03T10:45:31Z</time></trkpt><trkpt lat="45.68497802913711" lon="9.770308855271052"><ele>241.0</ele><time>2026-05-03T10:45:33Z</time></trkpt><trkpt lat="45.68502576385742" lon="9.77015905457554"><ele>241.0</ele><time>2026-05-03T10:45:35Z</time></trkpt><trkpt lat="45.68507269949418" lon="9.769994135339696"><ele>241.5</ele><time>2026-05-03T10:45:37Z</time></trkpt><trkpt lat="45.685104365040736" lon="9.769824027161457"><ele>242.0</ele><time>2026-05-03T10:45:39Z</time></trkpt><trkpt lat="45.68512211551912" lon="9.769653679275178"><ele>242.5</ele><time>2026-05-03T10:45:41Z</time></trkpt><trkpt lat="45.685145135105586" lon="9.76948697175129"><ele>243.0</ele><time>2026-05-03T10:45:43Z</time></trkpt><trkpt lat="45.685176210610194" lon="9.769320676092372"><ele>243.0</ele><time>2026-05-03T10:45:45Z</time></trkpt><trkpt lat="45.68522613201495" lon="9.769174775645183"><ele>243.0</ele><time>2026-05-03T10:45:47Z</time></trkpt><trkpt lat="45.68528920509176" lon="9.76903695256865"><ele>243.0</ele><time>2026-05-03T10:45:49Z</time></trkpt><trkpt lat="45.68535120214702" lon="9.768899483082182"><ele>243.0</ele><time>2026-05-03T10:45:51Z</time></trkpt><trkpt lat="45.68540891402056" lon="9.768767440358358"><ele>243.2</ele><time>2026-05-03T10:45:53Z</time></trkpt><trkpt lat="45.685485632277015" lon="9.768726836599726"><ele>243.4</ele><time>2026-05-03T10:45:55Z</time></trkpt><trkpt lat="45.68558870470798" lon="9.768804692919558"><ele>243.59999999999997</ele><time>2026-05-03T10:45:57Z</time></trkpt><trkpt lat="45.685663306847616" lon="9.76887319996808"><ele>243.79999999999998</ele><time>2026-05-03T10:45:59Z</time></trkpt><trkpt lat="45.68574385064809" lon="9.768753761537084"><ele>244.0</ele><time>2026-05-03T10:46:01Z</time></trkpt><trkpt lat="45.68578639887112" lon="9.768624783732765"><ele>243.83333333333331</ele><time>2026-05-03T10:46:03Z</time></trkpt><trkpt lat="45.6857701572704" lon="9.768499296452168"><ele>243.66666666666666</ele><time>2026-05-03T10:46:05Z</time></trkpt><trkpt lat="45.68569066582232" lon="9.768420700505787"><ele>243.5</ele><time>2026-05-03T10:46:07Z</time></trkpt><trkpt lat="45.685621621549515" lon="9.768339379876457"><ele>243.33333333333331</ele><time>2026-05-03T10:46:09Z</time></trkpt><trkpt lat="45.6855558890064" lon="9.768254148276512"><ele>243.16666666666666</ele><time>2026-05-03T10:46:11Z</time></trkpt><trkpt lat="45.68549219112067" lon="9.768173940374048"><ele>243.0</ele><time>2026-05-03T10:46:13Z</time></trkpt><trkpt lat="45.68548658026097" lon="9.768067663079893"><ele>243.0</ele><time>2026-05-03T10:46:16Z</time></trkpt><trkpt lat="45.68553817737292" lon="9.76798324647397"><ele>243.0</ele><time>2026-05-03T10:46:18Z</time></trkpt><trkpt lat="45.68563416551979" lon="9.767903009869311"><ele>243.0</ele><time>2026-05-03T10:46:20Z</time></trkpt><trkpt lat="45.68570516394529" lon="9.7677628720401"><ele>243.0</ele><time>2026-05-03T10:46:22Z</time></trkpt><trkpt lat="45.68577224567772" lon="9.767622319364936"><ele>243.0</ele><time>2026-05-03T10:46:24Z</time></trkpt><trkpt lat="45.685830877458415" lon="9.767466257746142"><ele>243.25</ele><time>2026-05-03T10:46:26Z</time></trkpt><trkpt lat="45.68588499831676" lon="9.767311375633112"><ele>243.5</ele><time>2026-05-03T10:46:28Z</time></trkpt><trkpt lat="45.68594439730515" lon="9.767160554210566"><ele>243.75</ele><time>2026-05-03T10:46:30Z</time></trkpt><trkpt lat="45.686004658078595" lon="9.76701172847905"><ele>244.0</ele><time>2026-05-03T10:46:32Z</time></trkpt><trkpt lat="45.68605893034117" lon="9.766862233168379"><ele>244.6</ele><time>2026-05-03T10:46:34Z</time></trkpt><trkpt lat="45.686108764897476" lon="9.766699135607613"><ele>245.2</ele><time>2026-05-03T10:46:36Z</time></trkpt><trkpt lat="45.686147304145074" lon="9.7665475023165"><ele>245.79999999999998</ele><time>2026-05-03T10:46:38Z</time></trkpt><trkpt lat="45.68618623475" lon="9.766416368836111"><ele>246.39999999999998</ele><time>2026-05-03T10:46:40Z</time></trkpt><trkpt lat="45.686234578486236" lon="9.766320165438518"><ele>247.0</ele><time>2026-05-03T10:46:42Z</time></trkpt><trkpt lat="45.68632564499398" lon="9.76632206558353"><ele>247.0</ele><time>2026-05-03T10:46:44Z</time></trkpt><trkpt lat="45.68643497060862" lon="9.766394368082679"><ele>247.0</ele><time>2026-05-03T10:46:46Z</time></trkpt><trkpt lat="45.6865497549792" lon="9.766465456179779"><ele>247.0</ele><time>2026-05-03T10:46:48Z</time></trkpt><trkpt lat="45.68666254325794" lon="9.766532259398478"><ele>247.0</ele><time>2026-05-03T10:46:50Z</time></trkpt><trkpt lat="45.68677903429745" lon="9.76659575450319"><ele>247.0</ele><time>2026-05-03T10:46:52Z</time></trkpt><trkpt lat="45.686838204369415" lon="9.766627028829742"><ele>247.0</ele><time>2026-05-03T10:46:53Z</time></trkpt><trkpt lat="45.68695043459872" lon="9.766688128737178"><ele>247.0</ele><time>2026-05-03T10:46:55Z</time></trkpt><trkpt lat="45.68705238740481" lon="9.766747949583213"><ele>247.0</ele><time>2026-05-03T10:46:57Z</time></trkpt><trkpt lat="45.68716085245636" lon="9.766798812131862"><ele>247.0</ele><time>2026-05-03T10:46:59Z</time></trkpt><trkpt lat="45.687284858498465" lon="9.766829994492777"><ele>246.83333333333331</ele><time>2026-05-03T10:47:01Z</time></trkpt><trkpt lat="45.68740701560518" lon="9.76685702471962"><ele>246.66666666666666</ele><time>2026-05-03T10:47:03Z</time></trkpt><trkpt lat="45.687470453090555" lon="9.766863688839976"><ele>246.5</ele><time>2026-05-03T10:47:04Z</time></trkpt><trkpt lat="45.6875346665206" lon="9.766866495258286"><ele>246.33333333333331</ele><time>2026-05-03T10:47:05Z</time></trkpt><trkpt lat="45.68759812802397" lon="9.76686176033161"><ele>246.16666666666666</ele><time>2026-05-03T10:47:06Z</time></trkpt><trkpt lat="45.68772628879921" lon="9.766849842322005"><ele>246.0</ele><time>2026-05-03T10:47:08Z</time></trkpt><trkpt lat="45.68778867850895" lon="9.766835960565894"><ele>246.00000000000003</ele><time>2026-05-03T10:47:09Z</time></trkpt><trkpt lat="45.68785020031748" lon="9.766815239944801"><ele>246.0</ele><time>2026-05-03T10:47:10Z</time></trkpt><trkpt lat="45.68791323463345" lon="9.766790988325464"><ele>246.00000000000003</ele><time>2026-05-03T10:47:11Z</time></trkpt><trkpt lat="45.68797507756282" lon="9.766765732797328"><ele>246.00000000000003</ele><time>2026-05-03T10:47:12Z</time></trkpt><trkpt lat="45.6880377875822" lon="9.766748061172429"><ele>246.0</ele><time>2026-05-03T10:47:13Z</time></trkpt><trkpt lat="45.68810050212985" lon="9.766722646069693"><ele>246.00000000000003</ele><time>2026-05-03T10:47:14Z</time></trkpt><trkpt lat="45.688218037972895" lon="9.766670717257886"><ele>246.00000000000003</ele><time>2026-05-03T10:47:16Z</time></trkpt><trkpt lat="45.68833952635958" lon="9.766629594649496"><ele>246.0</ele><time>2026-05-03T10:47:18Z</time></trkpt><trkpt lat="45.68846010554918" lon="9.766586132972057"><ele>246.00000000000003</ele><time>2026-05-03T10:47:20Z</time></trkpt><trkpt lat="45.68857760428175" lon="9.766540090623309"><ele>246.00000000000003</ele><time>2026-05-03T10:47:22Z</time></trkpt><trkpt lat="45.68869480479142" lon="9.7664946595773"><ele>246.0</ele><time>2026-05-03T10:47:24Z</time></trkpt><trkpt lat="45.68875712487085" lon="9.766473879814956"><ele>246.0</ele><time>2026-05-03T10:47:25Z</time></trkpt><trkpt lat="45.688819244567135" lon="9.766456772555195"><ele>246.25</ele><time>2026-05-03T10:47:26Z</time></trkpt><trkpt lat="45.688938326949376" lon="9.76642066283382"><ele>246.5</ele><time>2026-05-03T10:47:28Z</time></trkpt><trkpt lat="45.689064652353" lon="9.766392785507938"><ele>246.75</ele><time>2026-05-03T10:47:30Z</time></trkpt><trkpt lat="45.689190678813574" lon="9.766390398141032"><ele>247.0</ele><time>2026-05-03T10:47:32Z</time></trkpt><trkpt lat="45.68931496622565" lon="9.766404117393156"><ele>247.39999999999998</ele><time>2026-05-03T10:47:34Z</time></trkpt><trkpt lat="45.68944188924117" lon="9.766422332138124"><ele>247.79999999999998</ele><time>2026-05-03T10:47:36Z</time></trkpt><trkpt lat="45.689504508732306" lon="9.766443992387686"><ele>248.2</ele><time>2026-05-03T10:47:37Z</time></trkpt><trkpt lat="45.68962694367088" lon="9.766484629403378"><ele>248.6</ele><time>2026-05-03T10:47:39Z</time></trkpt><trkpt lat="45.68968840907481" lon="9.766505815312627"><ele>249.0</ele><time>2026-05-03T10:47:40Z</time></trkpt><trkpt lat="45.68981114148038" lon="9.766555575189043"><ele>249.0</ele><time>2026-05-03T10:47:42Z</time></trkpt><trkpt lat="45.68993040556715" lon="9.766603923546864"><ele>248.99999999999997</ele><time>2026-05-03T10:47:44Z</time></trkpt><trkpt lat="45.69004998546138" lon="9.76665075660274"><ele>248.99999999999997</ele><time>2026-05-03T10:47:46Z</time></trkpt><trkpt lat="45.690110956935904" lon="9.766677469248359"><ele>249.0</ele><time>2026-05-03T10:47:47Z</time></trkpt><trkpt lat="45.690231409824584" lon="9.766728442775966"><ele>249.0</ele><time>2026-05-03T10:47:49Z</time></trkpt><trkpt lat="45.690349016518766" lon="9.766772626637865"><ele>249.2</ele><time>2026-05-03T10:47:51Z</time></trkpt><trkpt lat="45.69046327234214" lon="9.766826323107697"><ele>249.39999999999998</ele><time>2026-05-03T10:47:53Z</time></trkpt><trkpt lat="45.690586659602225" lon="9.766864432987493"><ele>249.6</ele><time>2026-05-03T10:47:55Z</time></trkpt><trkpt lat="45.690647505176656" lon="9.766887585864662"><ele>249.8</ele><time>2026-05-03T10:47:56Z</time></trkpt><trkpt lat="45.69076568229911" lon="9.766932737926593"><ele>250.0</ele><time>2026-05-03T10:47:58Z</time></trkpt><trkpt lat="45.6908258959626" lon="9.766959936241923"><ele>250.0</ele><time>2026-05-03T10:47:59Z</time></trkpt><trkpt lat="45.690947126002335" lon="9.767001600950353"><ele>250.0</ele><time>2026-05-03T10:48:01Z</time></trkpt><trkpt lat="45.69107060845537" lon="9.767026746013387"><ele>250.0</ele><time>2026-05-03T10:48:03Z</time></trkpt><trkpt lat="45.691194040474734" lon="9.767027437380278"><ele>250.0</ele><time>2026-05-03T10:48:05Z</time></trkpt><trkpt lat="45.69131425998251" lon="9.766992690678913"><ele>250.0</ele><time>2026-05-03T10:48:07Z</time></trkpt><trkpt lat="45.691375047419754" lon="9.766962926492077"><ele>250.0</ele><time>2026-05-03T10:48:08Z</time></trkpt><trkpt lat="45.69148557184121" lon="9.766883393388069"><ele>250.0</ele><time>2026-05-03T10:48:10Z</time></trkpt><trkpt lat="45.691541928105686" lon="9.766839077222519"><ele>250.0</ele><time>2026-05-03T10:48:11Z</time></trkpt><trkpt lat="45.691646919186184" lon="9.766755689688619"><ele>250.0</ele><time>2026-05-03T10:48:13Z</time></trkpt><trkpt lat="45.69174285083778" lon="9.76668214154823"><ele>250.0</ele><time>2026-05-03T10:48:15Z</time></trkpt><trkpt lat="45.69183694685145" lon="9.766610572140658"><ele>250.0</ele><time>2026-05-03T10:48:17Z</time></trkpt><trkpt lat="45.69189191465451" lon="9.766565341885354"><ele>250.0</ele><time>2026-05-03T10:48:18Z</time></trkpt><trkpt lat="45.691946649883306" lon="9.766519784897964"><ele>250.0</ele><time>2026-05-03T10:48:19Z</time></trkpt><trkpt lat="45.692055411617226" lon="9.766432963985451"><ele>250.0</ele><time>2026-05-03T10:48:21Z</time></trkpt><trkpt lat="45.692164549805725" lon="9.76634645234419"><ele>250.25</ele><time>2026-05-03T10:48:23Z</time></trkpt><trkpt lat="45.69227349316838" lon="9.76625994499677"><ele>250.5</ele><time>2026-05-03T10:48:25Z</time></trkpt><trkpt lat="45.69238215393997" lon="9.766172183921132"><ele>250.75</ele><time>2026-05-03T10:48:27Z</time></trkpt><trkpt lat="45.69249113466201" lon="9.766088319620076"><ele>251.0</ele><time>2026-05-03T10:48:29Z</time></trkpt><trkpt lat="45.69260159270465" lon="9.766006556078942"><ele>251.00000000000003</ele><time>2026-05-03T10:48:31Z</time></trkpt><trkpt lat="45.69271031942714" lon="9.765925583681687"><ele>251.0</ele><time>2026-05-03T10:48:33Z</time></trkpt><trkpt lat="45.692768971280344" lon="9.765882085831961"><ele>251.0</ele><time>2026-05-03T10:48:34Z</time></trkpt><trkpt lat="45.69282528729201" lon="9.765838740554743"><ele>251.0</ele><time>2026-05-03T10:48:35Z</time></trkpt><trkpt lat="45.69292871671778" lon="9.765744705514187"><ele>251.00000000000003</ele><time>2026-05-03T10:48:37Z</time></trkpt><trkpt lat="45.692988898389984" lon="9.76570013144632"><ele>251.0</ele><time>2026-05-03T10:48:38Z</time></trkpt><trkpt lat="45.6930438632695" lon="9.765655621538505"><ele>251.20000000000002</ele><time>2026-05-03T10:48:39Z</time></trkpt><trkpt lat="45.69315341596125" lon="9.765570405078046"><ele>251.40000000000003</ele><time>2026-05-03T10:48:41Z</time></trkpt><trkpt lat="45.69326098812886" lon="9.765486735568052"><ele>251.6</ele><time>2026-05-03T10:48:43Z</time></trkpt><trkpt lat="45.69337194295091" lon="9.765404238185143"><ele>251.8</ele><time>2026-05-03T10:48:45Z</time></trkpt><trkpt lat="45.69342815768528" lon="9.765360779201348"><ele>252.0</ele><time>2026-05-03T10:48:46Z</time></trkpt><trkpt lat="45.69353490043555" lon="9.7652749773897"><ele>253.0</ele><time>2026-05-03T10:48:48Z</time></trkpt><trkpt lat="45.69364353720442" lon="9.765194750660234"><ele>254.0</ele><time>2026-05-03T10:48:50Z</time></trkpt><trkpt lat="45.69375124918178" lon="9.765113619375079"><ele>255.0</ele><time>2026-05-03T10:48:52Z</time></trkpt><trkpt lat="45.693854280943505" lon="9.765027869597715"><ele>256.0</ele><time>2026-05-03T10:48:54Z</time></trkpt><trkpt lat="45.6939589318998" lon="9.764942309611287"><ele>256.0</ele><time>2026-05-03T10:48:56Z</time></trkpt><trkpt lat="45.69405527916131" lon="9.764863404120408"><ele>256.0</ele><time>2026-05-03T10:48:58Z</time></trkpt><trkpt lat="45.694116731296575" lon="9.76481931482935"><ele>256.0</ele><time>2026-05-03T10:48:59Z</time></trkpt><trkpt lat="45.694223719622535" lon="9.764736829643443"><ele>256.0</ele><time>2026-05-03T10:49:01Z</time></trkpt><trkpt lat="45.69432945492871" lon="9.764648432517626"><ele>256.0</ele><time>2026-05-03T10:49:03Z</time></trkpt><trkpt lat="45.694435163909525" lon="9.764558404927751"><ele>256.0</ele><time>2026-05-03T10:49:05Z</time></trkpt><trkpt lat="45.69454137092702" lon="9.764482823379021"><ele>256.0</ele><time>2026-05-03T10:49:07Z</time></trkpt><trkpt lat="45.694650304994916" lon="9.764401260378552"><ele>256.0</ele><time>2026-05-03T10:49:09Z</time></trkpt><trkpt lat="45.69475856649197" lon="9.764320620657925"><ele>256.0</ele><time>2026-05-03T10:49:11Z</time></trkpt><trkpt lat="45.694814959533154" lon="9.764277122301063"><ele>256.0</ele><time>2026-05-03T10:49:12Z</time></trkpt><trkpt lat="45.69492124640916" lon="9.764186763546082"><ele>256.0</ele><time>2026-05-03T10:49:14Z</time></trkpt><trkpt lat="45.695028314681174" lon="9.764094004011774"><ele>256.0</ele><time>2026-05-03T10:49:16Z</time></trkpt><trkpt lat="45.69513747581405" lon="9.7640070675417"><ele>256.0</ele><time>2026-05-03T10:49:18Z</time></trkpt><trkpt lat="45.69524636725558" lon="9.763924580718529"><ele>256.0</ele><time>2026-05-03T10:49:20Z</time></trkpt><trkpt lat="45.69530125740736" lon="9.763880227743568"><ele>256.0</ele><time>2026-05-03T10:49:21Z</time></trkpt><trkpt lat="45.69540370430665" lon="9.763802254643599"><ele>256.0</ele><time>2026-05-03T10:49:23Z</time></trkpt><trkpt lat="45.695505684344845" lon="9.763720933147384"><ele>255.99999999999997</ele><time>2026-05-03T10:49:25Z</time></trkpt><trkpt lat="45.695559742037986" lon="9.76367287156141"><ele>256.0</ele><time>2026-05-03T10:49:26Z</time></trkpt><trkpt lat="45.695612350150874" lon="9.76362218336326"><ele>256.0</ele><time>2026-05-03T10:49:27Z</time></trkpt><trkpt lat="45.695666233019566" lon="9.76357363451721"><ele>255.99999999999997</ele><time>2026-05-03T10:49:28Z</time></trkpt><trkpt lat="45.695723814003706" lon="9.76352877653473"><ele>256.0</ele><time>2026-05-03T10:49:29Z</time></trkpt><trkpt lat="45.69578065845385" lon="9.763481759854793"><ele>256.0</ele><time>2026-05-03T10:49:30Z</time></trkpt><trkpt lat="45.695838101447684" lon="9.763438239060116"><ele>256.40000000000003</ele><time>2026-05-03T10:49:31Z</time></trkpt><trkpt lat="45.69589574949872" lon="9.763395475545567"><ele>256.8</ele><time>2026-05-03T10:49:32Z</time></trkpt><trkpt lat="45.69600535714096" lon="9.763317578586035"><ele>257.20000000000005</ele><time>2026-05-03T10:49:34Z</time></trkpt><trkpt lat="45.69611289539152" lon="9.763238695889024"><ele>257.6</ele><time>2026-05-03T10:49:36Z</time></trkpt><trkpt lat="45.69622750313123" lon="9.763170404557961"><ele>258.0</ele><time>2026-05-03T10:49:38Z</time></trkpt><trkpt lat="45.69634508952621" lon="9.763109586197132"><ele>258.0</ele><time>2026-05-03T10:49:40Z</time></trkpt><trkpt lat="45.696463598815505" lon="9.763054199166696"><ele>258.0</ele><time>2026-05-03T10:49:42Z</time></trkpt><trkpt lat="45.696584750597005" lon="9.763005659230753"><ele>258.0</ele><time>2026-05-03T10:49:44Z</time></trkpt><trkpt lat="45.69670656559874" lon="9.762960590396775"><ele>258.0</ele><time>2026-05-03T10:49:46Z</time></trkpt><trkpt lat="45.69676961251837" lon="9.762941121841031"><ele>258.0</ele><time>2026-05-03T10:49:47Z</time></trkpt><trkpt lat="45.696890802447506" lon="9.762894405859234"><ele>257.99999999999994</ele><time>2026-05-03T10:49:49Z</time></trkpt><trkpt lat="45.69701211502679" lon="9.762844854870973"><ele>258.0</ele><time>2026-05-03T10:49:51Z</time></trkpt><trkpt lat="45.697073316386074" lon="9.762823036763393"><ele>258.0</ele><time>2026-05-03T10:49:52Z</time></trkpt><trkpt lat="45.69713387368264" lon="9.762796951843766"><ele>258.0</ele><time>2026-05-03T10:49:53Z</time></trkpt><trkpt lat="45.69719554525053" lon="9.762778222472628"><ele>258.0</ele><time>2026-05-03T10:49:54Z</time></trkpt><trkpt lat="45.697258881574705" lon="9.762757892580952"><ele>257.99999999999994</ele><time>2026-05-03T10:49:55Z</time></trkpt><trkpt lat="45.69732063199583" lon="9.762737509410352"><ele>258.0</ele><time>2026-05-03T10:49:56Z</time></trkpt><trkpt lat="45.69744088658811" lon="9.762689242203322"><ele>258.25</ele><time>2026-05-03T10:49:58Z</time></trkpt><trkpt lat="45.697560871868234" lon="9.762645445573625"><ele>258.5</ele><time>2026-05-03T10:50:00Z</time></trkpt><trkpt lat="45.69768194100222" lon="9.762598933320053"><ele>258.75</ele><time>2026-05-03T10:50:02Z</time></trkpt><trkpt lat="45.69780185053721" lon="9.76254764130078"><ele>259.0</ele><time>2026-05-03T10:50:04Z</time></trkpt><trkpt lat="45.697923774243485" lon="9.762503411361955"><ele>259.4</ele><time>2026-05-03T10:50:06Z</time></trkpt><trkpt lat="45.69798979376177" lon="9.762475281027072"><ele>259.79999999999995</ele><time>2026-05-03T10:50:07Z</time></trkpt><trkpt lat="45.69805025307023" lon="9.76244380029007"><ele>260.20000000000005</ele><time>2026-05-03T10:50:08Z</time></trkpt><trkpt lat="45.69817496851931" lon="9.762403337034469"><ele>260.6</ele><time>2026-05-03T10:50:10Z</time></trkpt><trkpt lat="45.698297347081294" lon="9.762357642982005"><ele>261.0</ele><time>2026-05-03T10:50:12Z</time></trkpt><trkpt lat="45.698418119572715" lon="9.76231217855025"><ele>261.0</ele><time>2026-05-03T10:50:14Z</time></trkpt><trkpt lat="45.69853651931615" lon="9.76226317211978"><ele>261.0</ele><time>2026-05-03T10:50:16Z</time></trkpt><trkpt lat="45.698659369374326" lon="9.762216243374752"><ele>261.0</ele><time>2026-05-03T10:50:18Z</time></trkpt><trkpt lat="45.698779095511306" lon="9.762164969419306"><ele>261.0</ele><time>2026-05-03T10:50:20Z</time></trkpt><trkpt lat="45.698903545129426" lon="9.762114208841885"><ele>260.6666666666667</ele><time>2026-05-03T10:50:22Z</time></trkpt><trkpt lat="45.69902237287864" lon="9.762066087728538"><ele>260.3333333333333</ele><time>2026-05-03T10:50:24Z</time></trkpt><trkpt lat="45.69908434550492" lon="9.762049555427133"><ele>260.0</ele><time>2026-05-03T10:50:25Z</time></trkpt><trkpt lat="45.69914612909645" lon="9.76202131279644"><ele>259.66666666666663</ele><time>2026-05-03T10:50:26Z</time></trkpt><trkpt lat="45.69920836049561" lon="9.762001225374572"><ele>259.3333333333333</ele><time>2026-05-03T10:50:27Z</time></trkpt><trkpt lat="45.69932920354843" lon="9.76194583062822"><ele>259.0</ele><time>2026-05-03T10:50:29Z</time></trkpt><trkpt lat="45.69944778605101" lon="9.761900516503886"><ele>258.8</ele><time>2026-05-03T10:50:31Z</time></trkpt><trkpt lat="45.69950877853093" lon="9.761872708529868"><ele>258.59999999999997</ele><time>2026-05-03T10:50:32Z</time></trkpt><trkpt lat="45.699630605786055" lon="9.761827085682178"><ele>258.4</ele><time>2026-05-03T10:50:34Z</time></trkpt><trkpt lat="45.699747960167976" lon="9.761772424822006"><ele>258.2</ele><time>2026-05-03T10:50:36Z</time></trkpt><trkpt lat="45.69981128233076" lon="9.761759688049272"><ele>258.0</ele><time>2026-05-03T10:50:37Z</time></trkpt><trkpt lat="45.69993239753316" lon="9.761718691948001"><ele>258.4</ele><time>2026-05-03T10:50:39Z</time></trkpt><trkpt lat="45.69999423374811" lon="9.761687129970412"><ele>258.8</ele><time>2026-05-03T10:50:40Z</time></trkpt><trkpt lat="45.70011388941656" lon="9.76164337074217"><ele>259.2</ele><time>2026-05-03T10:50:42Z</time></trkpt><trkpt lat="45.700175941577605" lon="9.761614087171747"><ele>259.6</ele><time>2026-05-03T10:50:43Z</time></trkpt><trkpt lat="45.70029772216921" lon="9.761571166090587"><ele>260.0</ele><time>2026-05-03T10:50:45Z</time></trkpt><trkpt lat="45.700420149890085" lon="9.761527696675994"><ele>260.0</ele><time>2026-05-03T10:50:47Z</time></trkpt><trkpt lat="45.700541651214685" lon="9.761480823512018"><ele>260.0</ele><time>2026-05-03T10:50:49Z</time></trkpt><trkpt lat="45.70065895553509" lon="9.761431484230215"><ele>260.0</ele><time>2026-05-03T10:50:51Z</time></trkpt><trkpt lat="45.70072062414244" lon="9.76140350759512"><ele>260.0</ele><time>2026-05-03T10:50:52Z</time></trkpt><trkpt lat="45.700829634415584" lon="9.761359313435326"><ele>260.0</ele><time>2026-05-03T10:50:54Z</time></trkpt><trkpt lat="45.70093083105868" lon="9.761320947171665"><ele>260.0</ele><time>2026-05-03T10:50:56Z</time></trkpt><trkpt lat="45.70103506348505" lon="9.76128120457342"><ele>260.0</ele><time>2026-05-03T10:50:58Z</time></trkpt><trkpt lat="45.70115744645337" lon="9.761235772647085"><ele>260.0</ele><time>2026-05-03T10:51:00Z</time></trkpt><trkpt lat="45.70127723122299" lon="9.761185795634152"><ele>260.0</ele><time>2026-05-03T10:51:02Z</time></trkpt><trkpt lat="45.70138962745902" lon="9.761142614310172"><ele>260.14285714285717</ele><time>2026-05-03T10:51:04Z</time></trkpt><trkpt lat="45.701508971041235" lon="9.761089547942932"><ele>260.2857142857143</ele><time>2026-05-03T10:51:06Z</time></trkpt><trkpt lat="45.701570104995234" lon="9.761066316527751"><ele>260.42857142857144</ele><time>2026-05-03T10:51:07Z</time></trkpt><trkpt lat="45.70163391875758" lon="9.761040719515425"><ele>260.57142857142856</ele><time>2026-05-03T10:51:08Z</time></trkpt><trkpt lat="45.70169603287187" lon="9.761018000414955"><ele>260.7142857142857</ele><time>2026-05-03T10:51:09Z</time></trkpt><trkpt lat="45.70176029722993" lon="9.761000119455908"><ele>260.8571428571429</ele><time>2026-05-03T10:51:10Z</time></trkpt><trkpt lat="45.70182127585294" lon="9.76097263187708"><ele>261.0</ele><time>2026-05-03T10:51:11Z</time></trkpt><trkpt lat="45.70188426983715" lon="9.760953691486703"><ele>261.1666666666667</ele><time>2026-05-03T10:51:12Z</time></trkpt><trkpt lat="45.70194672892113" lon="9.760927551051015"><ele>261.3333333333333</ele><time>2026-05-03T10:51:13Z</time></trkpt><trkpt lat="45.70201068832978" lon="9.760904450951593"><ele>261.5</ele><time>2026-05-03T10:51:14Z</time></trkpt><trkpt lat="45.70213299453917" lon="9.760859245836894"><ele>261.66666666666663</ele><time>2026-05-03T10:51:16Z</time></trkpt><trkpt lat="45.70219844454452" lon="9.760843760228145"><ele>261.8333333333333</ele><time>2026-05-03T10:51:17Z</time></trkpt><trkpt lat="45.702261642295895" lon="9.760823466086936"><ele>262.0</ele><time>2026-05-03T10:51:18Z</time></trkpt><trkpt lat="45.70238737575681" lon="9.760804489612111"><ele>262.0</ele><time>2026-05-03T10:51:20Z</time></trkpt><trkpt lat="45.70250990443104" lon="9.760790920086578"><ele>262.0</ele><time>2026-05-03T10:51:22Z</time></trkpt><trkpt lat="45.70263070024407" lon="9.760775966396341"><ele>262.0</ele><time>2026-05-03T10:51:24Z</time></trkpt><trkpt lat="45.70275292765333" lon="9.7607646122746"><ele>262.0</ele><time>2026-05-03T10:51:26Z</time></trkpt><trkpt lat="45.702873346740624" lon="9.760755811128226"><ele>261.75</ele><time>2026-05-03T10:51:28Z</time></trkpt><trkpt lat="45.702993992690686" lon="9.760745172637028"><ele>261.5</ele><time>2026-05-03T10:51:30Z</time></trkpt><trkpt lat="45.70311961734119" lon="9.760734145843095"><ele>261.25</ele><time>2026-05-03T10:51:32Z</time></trkpt><trkpt lat="45.70324648123762" lon="9.760725072131528"><ele>261.0</ele><time>2026-05-03T10:51:34Z</time></trkpt><trkpt lat="45.703374393698056" lon="9.760707988888388"><ele>261.0</ele><time>2026-05-03T10:51:36Z</time></trkpt><trkpt lat="45.703437608279366" lon="9.760701517026542"><ele>261.0</ele><time>2026-05-03T10:51:37Z</time></trkpt><trkpt lat="45.703502939125926" lon="9.760695267585874"><ele>261.0</ele><time>2026-05-03T10:51:38Z</time></trkpt><trkpt lat="45.70356695630299" lon="9.760691404086051"><ele>261.0</ele><time>2026-05-03T10:51:39Z</time></trkpt><trkpt lat="45.7036879961433" lon="9.760681648988898"><ele>261.0</ele><time>2026-05-03T10:51:41Z</time></trkpt><trkpt lat="45.703807750072485" lon="9.76066511732911"><ele>261.0</ele><time>2026-05-03T10:51:43Z</time></trkpt><trkpt lat="45.70392647694916" lon="9.760651288538948"><ele>262.5</ele><time>2026-05-03T10:51:45Z</time></trkpt><trkpt lat="45.70405336592911" lon="9.760638916259214"><ele>264.0</ele><time>2026-05-03T10:51:47Z</time></trkpt><trkpt lat="45.70417608882598" lon="9.760624996238658"><ele>265.5</ele><time>2026-05-03T10:51:49Z</time></trkpt><trkpt lat="45.70429614464864" lon="9.760609066682534"><ele>267.0</ele><time>2026-05-03T10:51:51Z</time></trkpt><trkpt lat="45.70441569673392" lon="9.760601283186368"><ele>267.25</ele><time>2026-05-03T10:51:53Z</time></trkpt><trkpt lat="45.704535458436325" lon="9.76058674523474"><ele>267.5</ele><time>2026-05-03T10:51:55Z</time></trkpt><trkpt lat="45.704654833671626" lon="9.760575630970926"><ele>267.75</ele><time>2026-05-03T10:51:57Z</time></trkpt><trkpt lat="45.70477670603295" lon="9.760564344811758"><ele>268.0</ele><time>2026-05-03T10:51:59Z</time></trkpt><trkpt lat="45.704897075662245" lon="9.760551114199906"><ele>268.0</ele><time>2026-05-03T10:52:01Z</time></trkpt><trkpt lat="45.70501593201895" lon="9.760534872035638"><ele>268.0</ele><time>2026-05-03T10:52:03Z</time></trkpt><trkpt lat="45.70513685444217" lon="9.760515036267517"><ele>268.0</ele><time>2026-05-03T10:52:05Z</time></trkpt><trkpt lat="45.70524557599186" lon="9.76047994585862"><ele>268.0</ele><time>2026-05-03T10:52:07Z</time></trkpt><trkpt lat="45.70531855881431" lon="9.760476681648012"><ele>268.0</ele><time>2026-05-03T10:52:08Z</time></trkpt><trkpt lat="45.70543368633615" lon="9.76044526185777"><ele>268.4</ele><time>2026-05-03T10:52:10Z</time></trkpt><trkpt lat="45.70555751504081" lon="9.760417512855328"><ele>268.8</ele><time>2026-05-03T10:52:12Z</time></trkpt><trkpt lat="45.705620481954355" lon="9.760409424295673"><ele>269.2</ele><time>2026-05-03T10:52:13Z</time></trkpt><trkpt lat="45.70574367490831" lon="9.760406346534335"><ele>269.6</ele><time>2026-05-03T10:52:15Z</time></trkpt><trkpt lat="45.7058659425653" lon="9.760405555112909"><ele>270.0</ele><time>2026-05-03T10:52:17Z</time></trkpt><trkpt lat="45.705984184584366" lon="9.760414438356545"><ele>270.0</ele><time>2026-05-03T10:52:19Z</time></trkpt><trkpt lat="45.706050867636776" lon="9.7604238282957"><ele>270.0</ele><time>2026-05-03T10:52:20Z</time></trkpt><trkpt lat="45.70616413732232" lon="9.760430341476454"><ele>270.0</ele><time>2026-05-03T10:52:22Z</time></trkpt><trkpt lat="45.70629337154129" lon="9.760450800929794"><ele>270.0</ele><time>2026-05-03T10:52:24Z</time></trkpt><trkpt lat="45.70641003778125" lon="9.760455295671584"><ele>270.0</ele><time>2026-05-03T10:52:26Z</time></trkpt><trkpt lat="45.706534526246195" lon="9.760456926433402"><ele>270.4</ele><time>2026-05-03T10:52:28Z</time></trkpt><trkpt lat="45.706654633728846" lon="9.760471386224761"><ele>270.8</ele><time>2026-05-03T10:52:30Z</time></trkpt><trkpt lat="45.706719686793654" lon="9.760477030154746"><ele>271.2</ele><time>2026-05-03T10:52:31Z</time></trkpt><trkpt lat="45.70683867409797" lon="9.76046741555898"><ele>271.6</ele><time>2026-05-03T10:52:33Z</time></trkpt><trkpt lat="45.70695641251775" lon="9.760427196600585"><ele>272.0</ele><time>2026-05-03T10:52:35Z</time></trkpt><trkpt lat="45.707070188964416" lon="9.760366306976495"><ele>272.2</ele><time>2026-05-03T10:52:37Z</time></trkpt><trkpt lat="45.70718960734221" lon="9.76032203020485"><ele>272.4</ele><time>2026-05-03T10:52:39Z</time></trkpt><trkpt lat="45.70725245383393" lon="9.760303895062114"><ele>272.6</ele><time>2026-05-03T10:52:40Z</time></trkpt><trkpt lat="45.70737516083822" lon="9.76029928495269"><ele>272.8</ele><time>2026-05-03T10:52:42Z</time></trkpt><trkpt lat="45.7074992555355" lon="9.760286560940129"><ele>273.0</ele><time>2026-05-03T10:52:44Z</time></trkpt><trkpt lat="45.707626560577665" lon="9.76024287959569"><ele>273.0</ele><time>2026-05-03T10:52:46Z</time></trkpt><trkpt lat="45.70769126483665" lon="9.760216268058507"><ele>273.0</ele><time>2026-05-03T10:52:47Z</time></trkpt><trkpt lat="45.707758623384194" lon="9.76019988157352"><ele>273.0</ele><time>2026-05-03T10:52:48Z</time></trkpt><trkpt lat="45.70783176118046" lon="9.760184753227618"><ele>273.0</ele><time>2026-05-03T10:52:49Z</time></trkpt><trkpt lat="45.70790378386021" lon="9.760166034998978"><ele>273.0</ele><time>2026-05-03T10:52:50Z</time></trkpt><trkpt lat="45.70797135033539" lon="9.760137685458012"><ele>273.0</ele><time>2026-05-03T10:52:51Z</time></trkpt><trkpt lat="45.70804025682081" lon="9.760114541032454"><ele>273.0</ele><time>2026-05-03T10:52:52Z</time></trkpt><trkpt lat="45.70813015932026" lon="9.760130281114439"><ele>272.5</ele><time>2026-05-03T10:52:54Z</time></trkpt><trkpt lat="45.708177803084865" lon="9.76023507289875"><ele>272.0</ele><time>2026-05-03T10:52:56Z</time></trkpt><trkpt lat="45.70820051631156" lon="9.760420353234906"><ele>271.5</ele><time>2026-05-03T10:52:58Z</time></trkpt><trkpt lat="45.70821826577218" lon="9.760514658048095"><ele>271.0</ele><time>2026-05-03T10:52:59Z</time></trkpt><trkpt lat="45.70823217760186" lon="9.760612618134177"><ele>270.5</ele><time>2026-05-03T10:53:00Z</time></trkpt><trkpt lat="45.708247967361174" lon="9.760705211550405"><ele>270.0</ele><time>2026-05-03T10:53:01Z</time></trkpt><trkpt lat="45.7082635462726" lon="9.760799565310444"><ele>270.0</ele><time>2026-05-03T10:53:02Z</time></trkpt><trkpt lat="45.70827993391073" lon="9.760892392080383"><ele>270.0</ele><time>2026-05-03T10:53:03Z</time></trkpt><trkpt lat="45.708296697994896" lon="9.760983468678821"><ele>270.0</ele><time>2026-05-03T10:53:04Z</time></trkpt><trkpt lat="45.708324170423985" lon="9.761160355146826"><ele>270.0</ele><time>2026-05-03T10:53:06Z</time></trkpt><trkpt lat="45.70835540498083" lon="9.761334797517517"><ele>270.0</ele><time>2026-05-03T10:53:08Z</time></trkpt><trkpt lat="45.70838404679287" lon="9.761505508769933"><ele>270.0</ele><time>2026-05-03T10:53:10Z</time></trkpt><trkpt lat="45.708410333370715" lon="9.761673223344461"><ele>270.0</ele><time>2026-05-03T10:53:12Z</time></trkpt><trkpt lat="45.70844132928364" lon="9.761842235328382"><ele>270.0</ele><time>2026-05-03T10:53:14Z</time></trkpt><trkpt lat="45.70845556561662" lon="9.761931758086135"><ele>270.0</ele><time>2026-05-03T10:53:15Z</time></trkpt><trkpt lat="45.70848707173022" lon="9.762097124092726"><ele>270.0</ele><time>2026-05-03T10:53:17Z</time></trkpt><trkpt lat="45.7085106341621" lon="9.76225750251772"><ele>269.8333333333333</ele><time>2026-05-03T10:53:19Z</time></trkpt><trkpt lat="45.7085443482729" lon="9.762401709744434"><ele>269.6666666666667</ele><time>2026-05-03T10:53:21Z</time></trkpt><trkpt lat="45.70859513792081" lon="9.76254500730582"><ele>269.5</ele><time>2026-05-03T10:53:23Z</time></trkpt><trkpt lat="45.70864598777424" lon="9.7626089911728"><ele>269.33333333333337</ele><time>2026-05-03T10:53:24Z</time></trkpt><trkpt lat="45.70870159153061" lon="9.762660658745034"><ele>269.1666666666667</ele><time>2026-05-03T10:53:25Z</time></trkpt><trkpt lat="45.70875874853848" lon="9.762708557755474"><ele>269.0</ele><time>2026-05-03T10:53:26Z</time></trkpt><trkpt lat="45.70886927993101" lon="9.762799762371323"><ele>269.8571428571429</ele><time>2026-05-03T10:53:28Z</time></trkpt><trkpt lat="45.70892944740556" lon="9.76283538272025"><ele>270.7142857142857</ele><time>2026-05-03T10:53:29Z</time></trkpt><trkpt lat="45.708987991096684" lon="9.762874835198822"><ele>271.57142857142856</ele><time>2026-05-03T10:53:30Z</time></trkpt><trkpt lat="45.70904747417679" lon="9.76291070769827"><ele>272.42857142857144</ele><time>2026-05-03T10:53:31Z</time></trkpt><trkpt lat="45.70910580021477" lon="9.762954516134798"><ele>273.2857142857143</ele><time>2026-05-03T10:53:32Z</time></trkpt><trkpt lat="45.70916302624517" lon="9.762995479374611"><ele>274.14285714285717</ele><time>2026-05-03T10:53:33Z</time></trkpt><trkpt lat="45.70927831808946" lon="9.76306295099172"><ele>275.0</ele><time>2026-05-03T10:53:35Z</time></trkpt><trkpt lat="45.70938992752955" lon="9.763130299325821"><ele>274.6</ele><time>2026-05-03T10:53:37Z</time></trkpt><trkpt lat="45.70950455085243" lon="9.763190078486469"><ele>274.2</ele><time>2026-05-03T10:53:39Z</time></trkpt><trkpt lat="45.709623716300534" lon="9.763223056122596"><ele>273.8</ele><time>2026-05-03T10:53:41Z</time></trkpt><trkpt lat="45.70968360516528" lon="9.763255926697465"><ele>273.4</ele><time>2026-05-03T10:53:42Z</time></trkpt><trkpt lat="45.709800487773386" lon="9.763308733470819"><ele>273.0</ele><time>2026-05-03T10:53:44Z</time></trkpt><trkpt lat="45.70991221200017" lon="9.763378836289528"><ele>273.0</ele><time>2026-05-03T10:53:46Z</time></trkpt><trkpt lat="45.710011029200906" lon="9.76347633149699"><ele>273.0</ele><time>2026-05-03T10:53:48Z</time></trkpt><trkpt lat="45.71009462002189" lon="9.76359883023831"><ele>273.0</ele><time>2026-05-03T10:53:50Z</time></trkpt><trkpt lat="45.710177509219854" lon="9.763719199137675"><ele>273.0</ele><time>2026-05-03T10:53:52Z</time></trkpt><trkpt lat="45.7102596726433" lon="9.763846346914756"><ele>274.5</ele><time>2026-05-03T10:53:54Z</time></trkpt><trkpt lat="45.71034170075587" lon="9.76396994461159"><ele>276.0</ele><time>2026-05-03T10:53:56Z</time></trkpt><trkpt lat="45.71042035910534" lon="9.764090197289338"><ele>277.5</ele><time>2026-05-03T10:53:58Z</time></trkpt><trkpt lat="45.710496511062935" lon="9.764211026989438"><ele>279.0</ele><time>2026-05-03T10:54:00Z</time></trkpt><trkpt lat="45.71056827978536" lon="9.764341884156835"><ele>279.8</ele><time>2026-05-03T10:54:02Z</time></trkpt><trkpt lat="45.710626398390524" lon="9.764487330343082"><ele>280.59999999999997</ele><time>2026-05-03T10:54:04Z</time></trkpt><trkpt lat="45.710676686742296" lon="9.764633417686646"><ele>281.4</ele><time>2026-05-03T10:54:06Z</time></trkpt><trkpt lat="45.71069699643562" lon="9.7647226013681"><ele>282.2</ele><time>2026-05-03T10:54:07Z</time></trkpt><trkpt lat="45.71073232123287" lon="9.76488109447239"><ele>283.0</ele><time>2026-05-03T10:54:09Z</time></trkpt><trkpt lat="45.71076292957297" lon="9.765048515905281"><ele>284.4</ele><time>2026-05-03T10:54:11Z</time></trkpt><trkpt lat="45.71080199964504" lon="9.765202164570931"><ele>285.8</ele><time>2026-05-03T10:54:13Z</time></trkpt><trkpt lat="45.710841052822715" lon="9.765354805943046"><ele>287.2</ele><time>2026-05-03T10:54:15Z</time></trkpt><trkpt lat="45.710889935431254" lon="9.765499139983723"><ele>288.6</ele><time>2026-05-03T10:54:17Z</time></trkpt><trkpt lat="45.710949186021594" lon="9.76563093106185"><ele>290.0</ele><time>2026-05-03T10:54:19Z</time></trkpt><trkpt lat="45.711019402827766" lon="9.765763299002337"><ele>289.8</ele><time>2026-05-03T10:54:21Z</time></trkpt><trkpt lat="45.71110366993238" lon="9.76586824758119"><ele>289.6</ele><time>2026-05-03T10:54:23Z</time></trkpt><trkpt lat="45.711187697936545" lon="9.765979615092455"><ele>289.4</ele><time>2026-05-03T10:54:25Z</time></trkpt><trkpt lat="45.711269039132326" lon="9.766091542084284"><ele>289.2</ele><time>2026-05-03T10:54:27Z</time></trkpt><trkpt lat="45.71134628598081" lon="9.766199480612189"><ele>289.0</ele><time>2026-05-03T10:54:29Z</time></trkpt><trkpt lat="45.71143336743733" lon="9.76630278016608"><ele>291.0</ele><time>2026-05-03T10:54:31Z</time></trkpt><trkpt lat="45.71151743434743" lon="9.766406813586674"><ele>293.0</ele><time>2026-05-03T10:54:33Z</time></trkpt><trkpt lat="45.71159865306785" lon="9.766509570915941"><ele>295.0</ele><time>2026-05-03T10:54:35Z</time></trkpt><trkpt lat="45.711683069136626" lon="9.766610677797749"><ele>297.0</ele><time>2026-05-03T10:54:37Z</time></trkpt><trkpt lat="45.71177154172047" lon="9.766701246531628"><ele>299.0</ele><time>2026-05-03T10:54:39Z</time></trkpt><trkpt lat="45.711866163246086" lon="9.766775071282682"><ele>299.2</ele><time>2026-05-03T10:54:41Z</time></trkpt><trkpt lat="45.711968079107024" lon="9.766839619760468"><ele>299.4</ele><time>2026-05-03T10:54:43Z</time></trkpt><trkpt lat="45.712068814527846" lon="9.76690145694096"><ele>299.6</ele><time>2026-05-03T10:54:45Z</time></trkpt><trkpt lat="45.71216752497472" lon="9.766967100462656"><ele>299.8</ele><time>2026-05-03T10:54:47Z</time></trkpt><trkpt lat="45.71226611675803" lon="9.767021298614116"><ele>300.0</ele><time>2026-05-03T10:54:49Z</time></trkpt><trkpt lat="45.71236398619616" lon="9.767083859587297"><ele>301.2</ele><time>2026-05-03T10:54:51Z</time></trkpt><trkpt lat="45.71245672577007" lon="9.767162311455929"><ele>302.4</ele><time>2026-05-03T10:54:53Z</time></trkpt><trkpt lat="45.712547237434244" lon="9.767240466145939"><ele>303.6</ele><time>2026-05-03T10:54:55Z</time></trkpt><trkpt lat="45.71263232385017" lon="9.767326838385122"><ele>304.8</ele><time>2026-05-03T10:54:57Z</time></trkpt><trkpt lat="45.71271549857564" lon="9.767406571066944"><ele>306.0</ele><time>2026-05-03T10:54:59Z</time></trkpt><trkpt lat="45.712801932877944" lon="9.767489307914966"><ele>306.0</ele><time>2026-05-03T10:55:01Z</time></trkpt><trkpt lat="45.7128948265838" lon="9.767572402048744"><ele>306.0</ele><time>2026-05-03T10:55:03Z</time></trkpt><trkpt lat="45.71299981102207" lon="9.767663932686883"><ele>306.0</ele><time>2026-05-03T10:55:05Z</time></trkpt><trkpt lat="45.71310417785926" lon="9.767757957783292"><ele>306.0</ele><time>2026-05-03T10:55:07Z</time></trkpt><trkpt lat="45.71321010248763" lon="9.767850495181682"><ele>306.8</ele><time>2026-05-03T10:55:09Z</time></trkpt><trkpt lat="45.71326520472863" lon="9.767894151570102"><ele>307.6</ele><time>2026-05-03T10:55:10Z</time></trkpt><trkpt lat="45.713374613374405" lon="9.76797488260908"><ele>308.4</ele><time>2026-05-03T10:55:12Z</time></trkpt><trkpt lat="45.71348384390043" lon="9.768052580130487"><ele>309.2</ele><time>2026-05-03T10:55:14Z</time></trkpt><trkpt lat="45.713596148865626" lon="9.768130551051865"><ele>310.0</ele><time>2026-05-03T10:55:16Z</time></trkpt><trkpt lat="45.71369990296837" lon="9.768222309596863"><ele>311.5</ele><time>2026-05-03T10:55:18Z</time></trkpt><trkpt lat="45.71380285675661" lon="9.768316115785126"><ele>313.0</ele><time>2026-05-03T10:55:20Z</time></trkpt><trkpt lat="45.71389656729067" lon="9.768422844554053"><ele>314.5</ele><time>2026-05-03T10:55:22Z</time></trkpt><trkpt lat="45.713991512563084" lon="9.768528008590181"><ele>316.0</ele><time>2026-05-03T10:55:24Z</time></trkpt><trkpt lat="45.71407999410975" lon="9.768645381556592"><ele>316.0</ele><time>2026-05-03T10:55:26Z</time></trkpt><trkpt lat="45.71416380390065" lon="9.768760543296352"><ele>316.0</ele><time>2026-05-03T10:55:28Z</time></trkpt><trkpt lat="45.71424237756503" lon="9.76887964427912"><ele>316.0</ele><time>2026-05-03T10:55:30Z</time></trkpt><trkpt lat="45.714317857972205" lon="9.768999956565738"><ele>316.0</ele><time>2026-05-03T10:55:32Z</time></trkpt><trkpt lat="45.71439732704751" lon="9.769114854131864"><ele>317.0</ele><time>2026-05-03T10:55:34Z</time></trkpt><trkpt lat="45.71447813387017" lon="9.76924128378015"><ele>318.0</ele><time>2026-05-03T10:55:36Z</time></trkpt><trkpt lat="45.7145637622108" lon="9.769370821157622"><ele>319.0</ele><time>2026-05-03T10:55:38Z</time></trkpt><trkpt lat="45.71464779631791" lon="9.769500467753154"><ele>320.0</ele><time>2026-05-03T10:55:40Z</time></trkpt><trkpt lat="45.714690945487135" lon="9.769568166436027"><ele>321.0</ele><time>2026-05-03T10:55:41Z</time></trkpt><trkpt lat="45.71473126610231" lon="9.769638195174291"><ele>321.0</ele><time>2026-05-03T10:55:42Z</time></trkpt><trkpt lat="45.71481042041541" lon="9.769772404586673"><ele>321.0</ele><time>2026-05-03T10:55:44Z</time></trkpt><trkpt lat="45.714848926656714" lon="9.769844615650273"><ele>321.0</ele><time>2026-05-03T10:55:45Z</time></trkpt><trkpt lat="45.71491782901586" lon="9.770001844833047"><ele>321.0</ele><time>2026-05-03T10:55:47Z</time></trkpt><trkpt lat="45.714979095600604" lon="9.77015659590705"><ele>321.0</ele><time>2026-05-03T10:55:49Z</time></trkpt><trkpt lat="45.71503555364274" lon="9.77031778282268"><ele>320.5</ele><time>2026-05-03T10:55:51Z</time></trkpt><trkpt lat="45.71508315554457" lon="9.770479823683733"><ele>320.0</ele><time>2026-05-03T10:55:53Z</time></trkpt><trkpt lat="45.715122538773294" lon="9.770650382042238"><ele>319.5</ele><time>2026-05-03T10:55:55Z</time></trkpt><trkpt lat="45.715150617156034" lon="9.770819018876919"><ele>319.0</ele><time>2026-05-03T10:55:57Z</time></trkpt><trkpt lat="45.71516218070576" lon="9.770993395846979"><ele>319.79999999999995</ele><time>2026-05-03T10:55:59Z</time></trkpt><trkpt lat="45.71517273643048" lon="9.771155710160416"><ele>320.59999999999997</ele><time>2026-05-03T10:56:01Z</time></trkpt><trkpt lat="45.71516468871681" lon="9.771314552993239"><ele>321.4</ele><time>2026-05-03T10:56:03Z</time></trkpt><trkpt lat="45.715160016920144" lon="9.771479173197307"><ele>322.2</ele><time>2026-05-03T10:56:05Z</time></trkpt><trkpt lat="45.71515536825067" lon="9.771635773193685"><ele>323.0</ele><time>2026-05-03T10:56:07Z</time></trkpt><trkpt lat="45.71514800093801" lon="9.771795460447992"><ele>324.0</ele><time>2026-05-03T10:56:09Z</time></trkpt><trkpt lat="45.715138597070485" lon="9.771953186844037"><ele>325.0</ele><time>2026-05-03T10:56:11Z</time></trkpt><trkpt lat="45.715134178486196" lon="9.772111209806969"><ele>326.0</ele><time>2026-05-03T10:56:13Z</time></trkpt><trkpt lat="45.71511446916223" lon="9.772260271500997"><ele>327.0</ele><time>2026-05-03T10:56:15Z</time></trkpt><trkpt lat="45.71510383244715" lon="9.77241133745564"><ele>328.0</ele><time>2026-05-03T10:56:17Z</time></trkpt><trkpt lat="45.71512752212479" lon="9.772579248246767"><ele>328.4</ele><time>2026-05-03T10:56:19Z</time></trkpt><trkpt lat="45.71514198487756" lon="9.772726011948262"><ele>328.79999999999995</ele><time>2026-05-03T10:56:21Z</time></trkpt><trkpt lat="45.71517355277816" lon="9.772867221532362"><ele>329.2</ele><time>2026-05-03T10:56:23Z</time></trkpt><trkpt lat="45.71519765520406" lon="9.773004541780983"><ele>329.6</ele><time>2026-05-03T10:56:25Z</time></trkpt><trkpt lat="45.71522672329825" lon="9.773116821456371"><ele>330.0</ele><time>2026-05-03T10:56:27Z</time></trkpt><trkpt lat="45.71528553773722" lon="9.77319191407549"><ele>330.0</ele><time>2026-05-03T10:56:29Z</time></trkpt><trkpt lat="45.71541236500405" lon="9.773183024891527"><ele>330.0</ele><time>2026-05-03T10:56:31Z</time></trkpt><trkpt lat="45.715488556181576" lon="9.77315190768724"><ele>330.0</ele><time>2026-05-03T10:56:32Z</time></trkpt><trkpt lat="45.71551389356432" lon="9.773025816790932"><ele>330.0</ele><time>2026-05-03T10:56:34Z</time></trkpt><trkpt lat="45.71556199613471" lon="9.772881935052842"><ele>330.0</ele><time>2026-05-03T10:56:36Z</time></trkpt><trkpt lat="45.71564855289845" lon="9.77282126355714"><ele>330.0</ele><time>2026-05-03T10:56:37Z</time></trkpt><trkpt lat="45.71571034591758" lon="9.772742007085272"><ele>330.0</ele><time>2026-05-03T10:56:38Z</time></trkpt><trkpt lat="45.715776278905125" lon="9.772658252710702"><ele>330.0</ele><time>2026-05-03T10:56:39Z</time></trkpt><trkpt lat="45.7158461085827" lon="9.772568779708008"><ele>330.0</ele><time>2026-05-03T10:56:40Z</time></trkpt><trkpt lat="45.71591571181496" lon="9.772466414741064"><ele>330.0</ele><time>2026-05-03T10:56:41Z</time></trkpt><trkpt lat="45.715987425261005" lon="9.772362913514952"><ele>330.4</ele><time>2026-05-03T10:56:42Z</time></trkpt><trkpt lat="45.71606215940097" lon="9.772264495076273"><ele>330.8</ele><time>2026-05-03T10:56:43Z</time></trkpt><trkpt lat="45.71613868082211" lon="9.772160505397773"><ele>331.20000000000005</ele><time>2026-05-03T10:56:44Z</time></trkpt><trkpt lat="45.7162175564264" lon="9.772063957244644"><ele>331.6</ele><time>2026-05-03T10:56:45Z</time></trkpt><trkpt lat="45.71629716883454" lon="9.771966523627425"><ele>332.0</ele><time>2026-05-03T10:56:46Z</time></trkpt><trkpt lat="45.716374401744915" lon="9.771866518651601"><ele>330.6</ele><time>2026-05-03T10:56:47Z</time></trkpt><trkpt lat="45.716451036063795" lon="9.77177005841151"><ele>329.20000000000005</ele><time>2026-05-03T10:56:48Z</time></trkpt><trkpt lat="45.71652480682446" lon="9.771672317984052"><ele>327.8</ele><time>2026-05-03T10:56:49Z</time></trkpt><trkpt lat="45.71659688475767" lon="9.77157637612235"><ele>326.4</ele><time>2026-05-03T10:56:50Z</time></trkpt><trkpt lat="45.71666695309989" lon="9.771486756318687"><ele>325.0</ele><time>2026-05-03T10:56:51Z</time></trkpt><trkpt lat="45.71673625187155" lon="9.771406082457684"><ele>325.0</ele><time>2026-05-03T10:56:52Z</time></trkpt><trkpt lat="45.71680540666694" lon="9.771350456461635"><ele>325.0</ele><time>2026-05-03T10:56:53Z</time></trkpt><trkpt lat="45.71688986642545" lon="9.771345657090272"><ele>325.0</ele><time>2026-05-03T10:56:54Z</time></trkpt><trkpt lat="45.71696802358097" lon="9.771364179788215"><ele>325.0</ele><time>2026-05-03T10:56:55Z</time></trkpt><trkpt lat="45.717034340928045" lon="9.771395446973019"><ele>325.0</ele><time>2026-05-03T10:56:56Z</time></trkpt><trkpt lat="45.71714117953159" lon="9.771438615202147"><ele>325.0</ele><time>2026-05-03T10:56:58Z</time></trkpt><trkpt lat="45.71724875366809" lon="9.771474177052358"><ele>325.8</ele><time>2026-05-03T10:57:00Z</time></trkpt><trkpt lat="45.717351636018044" lon="9.771503564556864"><ele>326.6</ele><time>2026-05-03T10:57:02Z</time></trkpt><trkpt lat="45.7174441055118" lon="9.771508220510375"><ele>327.4</ele><time>2026-05-03T10:57:04Z</time></trkpt><trkpt lat="45.71750640947815" lon="9.7714089200816"><ele>328.2</ele><time>2026-05-03T10:57:06Z</time></trkpt><trkpt lat="45.71753783031117" lon="9.771271876989827"><ele>329.0</ele><time>2026-05-03T10:57:08Z</time></trkpt><trkpt lat="45.71756922507199" lon="9.771153991322004"><ele>329.0</ele><time>2026-05-03T10:57:10Z</time></trkpt><trkpt lat="45.71761762203856" lon="9.771031523238834"><ele>329.0</ele><time>2026-05-03T10:57:12Z</time></trkpt><trkpt lat="45.717684092428804" lon="9.770897745040344"><ele>329.0</ele><time>2026-05-03T10:57:14Z</time></trkpt><trkpt lat="45.71775991158116" lon="9.770779156351216"><ele>329.0</ele><time>2026-05-03T10:57:16Z</time></trkpt><trkpt lat="45.71783731266695" lon="9.770663943181587"><ele>329.0</ele><time>2026-05-03T10:57:18Z</time></trkpt><trkpt lat="45.71793147617299" lon="9.770590253794195"><ele>329.6666666666667</ele><time>2026-05-03T10:57:20Z</time></trkpt><trkpt lat="45.71803261126859" lon="9.770660886353525"><ele>330.33333333333337</ele><time>2026-05-03T10:57:22Z</time></trkpt><trkpt lat="45.718119535604686" lon="9.770721928003573"><ele>331.0</ele><time>2026-05-03T10:57:24Z</time></trkpt><trkpt lat="45.71819713815053" lon="9.77077005077686"><ele>331.6666666666667</ele><time>2026-05-03T10:57:26Z</time></trkpt><trkpt lat="45.71827306416984" lon="9.770800108495784"><ele>332.3333333333333</ele><time>2026-05-03T10:57:28Z</time></trkpt><trkpt lat="45.71833086863052" lon="9.770868512509407"><ele>333.0</ele><time>2026-05-03T10:57:30Z</time></trkpt><trkpt lat="45.71840558722557" lon="9.770936334996696"><ele>333.0</ele><time>2026-05-03T10:57:33Z</time></trkpt><trkpt lat="45.71847634859563" lon="9.77098177132951"><ele>333.0</ele><time>2026-05-03T10:57:36Z</time></trkpt><trkpt lat="45.71854352667521" lon="9.770986381591763"><ele>333.0</ele><time>2026-05-03T10:57:39Z</time></trkpt><trkpt lat="45.71858154833949" lon="9.770911574247085"><ele>343.0</ele><time>2026-05-03T10:57:41Z</time></trkpt></trkseg></trk></gpx>